# Wetter Temperatur Luftdruck Luftfeuchtigkeit Sichtweite Windgeschwindigkeit Windrichtung Zeit
1 Clear 36 1014 20 16093 7.2 310 05:42 11.07.2020
2 Clear 37 1013 21 16093 7.7 320 04:59 11.07.2020
3 Clear 38 1013 21 16093 7.7 320 04:37 11.07.2020
4 Clear 38 1013 21 16093 7.7 320 04:18 11.07.2020
5 Clear 40 1014 20 16093 7.2 310 02:51 11.07.2020
6 Clear 41 1014 20 16093 8.2 310 01:53 11.07.2020
7 Clear 41 1014 20 16093 8.2 310 01:20 11.07.2020
8 Rain 41 1015 18 16093 7.7 310 00:41 11.07.2020
9 Rain 40 1015 18 16093 7.7 310 00:22 11.07.2020
10 Rain 40 1016 20 16093 8.2 310 23:58 10.07.2020
11 Rain 40 1016 20 16093 8.2 310 23:58 10.07.2020
12 Clear 40 1016 20 16093 8.2 310 23:40 10.07.2020
13 Clear 39 1016 20 16093 8.2 310 23:20 10.07.2020
14 Clear 39 1016 21 16093 7.2 290 22:47 10.07.2020
15 Clouds 39 1017 22 16093 4.6 320 22:23 10.07.2020
16 Rain 38 1018 23 16093 7.2 330 21:59 10.07.2020
17 Rain 38 1018 23 16093 7.2 330 21:38 10.07.2020
18 Clouds 37 1018 23 16093 7.2 330 21:19 10.07.2020
19 Rain 36 1018 25 16093 6.7 330 20:43 10.07.2020
20 Clouds 35 1018 25 16093 6.7 330 20:24 10.07.2020
21 Clouds 35 1019 28 16093 4.1 310 19:59 10.07.2020
22 Clouds 35 1019 28 16093 4.1 310 19:41 10.07.2020
23 Clouds 34 1019 28 16093 4.1 310 19:21 10.07.2020
24 Rain 34 1019 30 0 1.79 292 18:42 10.07.2020
25 Clouds 32 1019 31 16093 2.6 300 18:22 10.07.2020
26 Clear 32 1019 37 16093 2.1 200 17:59 10.07.2020
27 Clear 32 1019 37 16093 2.1 200 17:40 10.07.2020
28 Clear 31 1019 37 16093 2.1 200 17:22 10.07.2020
29 Clear 31 1019 37 16093 2.1 200 17:22 10.07.2020
30 Rain 30 1019 39 0 0.89 0 16:44 10.07.2020
31 Clouds 30 1019 39 16093 3.1 230 16:21 10.07.2020
32 Clouds 29 1018 39 16093 1.5 190 15:57 10.07.2020
33 Clouds 29 1018 39 16093 1.5 190 15:39 10.07.2020
34 Clouds 28 1018 39 16093 1.5 190 15:18 10.07.2020
35 Clear 28 1017 39 16093 2.6 190 14:41 10.07.2020
36 Clear 28 1017 39 16093 2.6 190 14:22 10.07.2020
37 Clear 29 1016 37 16093 2.1 170 13:58 10.07.2020
38 Clear 29 1016 37 16093 2.1 170 13:39 10.07.2020
39 Clear 29 1016 37 16093 2.1 170 13:21 10.07.2020
40 Clear 30 1016 37 16093 3.1 200 12:58 10.07.2020
41 Clear 30 1016 37 16093 3.1 200 12:38 10.07.2020
42 Clear 30 1016 37 16093 3.1 200 12:19 10.07.2020
43 Clear 30 1016 40 16093 3.6 220 11:42 10.07.2020
44 Clear 31 1016 40 16093 3.6 220 11:21 10.07.2020
45 Clear 31 1016 45 16093 5.1 220 10:58 10.07.2020
46 Clear 31 1016 45 16093 5.1 220 10:39 10.07.2020
47 Clear 31 1015 40 16093 4.1 300 10:20 10.07.2020
48 Clear 32 1015 40 16093 4.1 300 09:41 10.07.2020
49 Clear 32 1015 40 16093 4.1 300 09:23 10.07.2020
50 Clear 32 1015 43 16093 3.6 180 08:59 10.07.2020
51 Clear 33 1015 43 16093 3.6 180 08:41 10.07.2020
52 Rain 33 1015 43 16093 3.6 180 08:23 10.07.2020
53 Rain 35 1015 26 16093 4.1 280 07:48 10.07.2020
54 Clear 34 1014 38 16093 3.1 200 07:24 10.07.2020
55 Clear 35 1014 30 16093 4.1 210 06:58 10.07.2020
56 Clear 35 1014 30 16093 4.1 210 06:40 10.07.2020
57 Clear 37 1013 30 16093 5.1 200 05:40 10.07.2020
58 Rain 39 1011 21 16093 4.6 320 03:55 10.07.2020
59 Clear 40 1012 18 16093 4.1 320 02:55 10.07.2020
60 Clear 40 1012 18 16093 4.1 320 02:21 10.07.2020
61 Rain 41 1013 19 16093 4.1 320 00:55 10.07.2020
62 Rain 40 1013 19 16093 4.1 320 00:23 10.07.2020
63 Rain 40 1014 16 16093 3.1 0 23:56 09.07.2020
64 Rain 40 1014 16 16093 3.1 0 23:37 09.07.2020
65 Clear 40 1013 18 16093 1.5 180 23:19 09.07.2020
66 Clouds 40 1014 18 16093 3.1 320 22:56 09.07.2020
67 Clouds 40 1014 18 16093 3.1 320 22:38 09.07.2020
68 Clouds 39 1014 18 16093 3.1 320 22:19 09.07.2020
69 Clear 39 1015 21 16093 4.1 280 21:54 09.07.2020
70 Clear 39 1015 21 16093 4.1 280 21:36 09.07.2020
71 Clear 38 1015 21 16093 4.1 280 21:18 09.07.2020
72 Rain 37 1015 23 16093 3.12 294 20:41 09.07.2020
73 Clear 37 1015 23 16093 2.73 291 20:22 09.07.2020
74 Clear 37 1015 24 16093 2.73 291 19:43 09.07.2020
75 Clear 36 1015 24 16093 2.36 282 19:22 09.07.2020
76 Rain 36 1005 25 0 2.36 282 18:58 09.07.2020
77 Rain 35 1015 30 16093 3.1 240 18:40 09.07.2020
78 Clear 34 1015 30 16093 3.1 240 18:19 09.07.2020
79 Rain 34 1015 29 16093 5.1 180 17:43 09.07.2020
80 Clear 33 1015 31 16093 5.7 190 17:23 09.07.2020
81 Clear 32 1015 31 16093 4.1 170 16:58 09.07.2020
82 Clear 32 1015 31 16093 4.1 170 16:38 09.07.2020
83 Clear 31 1015 35 16093 4.1 190 16:19 09.07.2020
84 Clear 30 1015 30 16093 1.5 150 15:58 09.07.2020
85 Clear 29 1014 36 16093 3.1 160 15:38 09.07.2020
86 Clear 27 1014 36 16093 3.1 160 15:18 09.07.2020
87 Clear 27 1014 36 16093 2.6 190 14:58 09.07.2020
88 Clear 27 1014 36 16093 2.6 190 14:39 09.07.2020
89 Clear 27 1014 36 16093 2.6 190 14:39 09.07.2020
90 Clear 27 1014 36 16093 2.6 190 14:20 09.07.2020
91 Clouds 27 1013 34 16093 2.1 210 13:56 09.07.2020
92 Clouds 27 1013 34 16093 2.1 210 13:56 09.07.2020
93 Clouds 28 1013 34 16093 2.1 210 13:38 09.07.2020
94 Clouds 28 1013 34 16093 2.1 210 13:18 09.07.2020
95 Clear 28 1013 32 16093 2.1 140 12:41 09.07.2020
96 Clear 29 1013 32 16093 2.1 140 12:23 09.07.2020
97 Clear 29 1013 28 16093 1.99 222 11:57 09.07.2020
98 Clear 29 1013 28 16093 1.99 222 11:38 09.07.2020
99 Rain 30 1013 28 16093 2.35 201 11:18 09.07.2020
100 Clear 30 1013 27 16093 2.35 201 10:55 09.07.2020
101 Clear 31 1013 27 16093 2.35 201 10:37 09.07.2020
102 Clear 31 1013 27 16093 2.32 199 10:19 09.07.2020
103 Clear 32 1013 24 16093 2.6 270 09:42 09.07.2020
104 Clear 32 1013 24 16093 2.6 270 09:22 09.07.2020
105 Clear 33 1013 21 16093 4.6 290 08:49 09.07.2020
106 Rain 34 1013 21 16093 4.6 290 08:26 09.07.2020
107 Rain 34 1002 22 0 2.68 115 07:50 09.07.2020
108 Rain 35 1012 22 16093 6.2 280 07:30 09.07.2020
109 Rain 36 1011 19 16093 4.1 310 06:59 09.07.2020
110 Clouds 36 1011 19 16093 4.1 310 06:20 09.07.2020
111 Clouds 37 1010 18 16093 5.1 350 05:50 09.07.2020
112 Clouds 38 1009 16 16093 4.1 350 04:29 09.07.2020
113 Clouds 41 1009 15 16093 6.2 360 02:45 09.07.2020
114 Rain 41 1010 14 16093 4.1 10 01:55 09.07.2020
115 Clear 41 1011 15 16093 7.7 350 00:59 09.07.2020
116 Clear 41 1011 15 16093 7.7 350 00:38 09.07.2020
117 Clear 40 1011 15 16093 7.7 350 00:19 09.07.2020
118 Clouds 41 1012 17 16093 4.6 340 23:43 08.07.2020
119 Clouds 40 1012 17 16093 4.6 340 23:24 08.07.2020
120 Clouds 40 1013 18 16093 3.1 280 22:55 08.07.2020
121 Clouds 40 1013 18 16093 3.1 280 22:36 08.07.2020
122 Clouds 40 1013 18 16093 3.1 280 22:18 08.07.2020
123 Clear 39 1014 19 16093 2.6 10 21:39 08.07.2020
124 Clear 38 1014 19 16093 2.6 10 21:21 08.07.2020
125 Clear 37 1014 23 16093 3.1 330 20:58 08.07.2020
126 Clear 37 1014 23 16093 3.1 330 20:58 08.07.2020
127 Clear 37 1014 23 16093 3.1 330 20:40 08.07.2020
128 Rain 37 1014 23 16093 3.1 330 20:22 08.07.2020
129 Rain 36 1015 26 16093 1.75 270 19:43 08.07.2020
130 Rain 36 1015 26 16093 0.96 209 19:25 08.07.2020
131 Rain 35 1015 26 16093 0.96 209 18:58 08.07.2020
132 Rain 35 1015 26 16093 0.96 209 18:40 08.07.2020
133 Clear 34 1015 31 16093 3.1 160 18:21 08.07.2020
134 Clear 33 1015 38 16093 4.1 200 17:56 08.07.2020
135 Clear 33 1015 38 16093 4.1 200 17:38 08.07.2020
136 Clear 33 1015 38 16093 4.1 200 17:20 08.07.2020
137 Rain 32 1015 33 16093 3.6 170 16:55 08.07.2020
138 Rain 31 1015 33 16093 3.6 170 16:36 08.07.2020
139 Rain 31 1014 37 16093 2.6 160 16:18 08.07.2020
140 Clear 30 1014 39 16093 3.1 220 15:56 08.07.2020
141 Clear 29 1014 39 16093 3.1 220 15:37 08.07.2020
142 Clear 28 1014 39 16093 3.1 220 15:18 08.07.2020
143 Clear 27 1014 37 16093 4.6 210 14:42 08.07.2020
144 Clear 27 1014 37 16093 4.6 210 14:20 08.07.2020
145 Clear 28 1013 35 16093 3.1 220 13:45 08.07.2020
146 Clear 28 1013 35 16093 3.1 220 13:27 08.07.2020
147 Clear 28 1013 30 16093 4.6 230 12:46 08.07.2020
148 Clear 29 1013 30 16093 4.6 230 12:22 08.07.2020
149 Clear 29 1013 30 16093 4.6 230 12:22 08.07.2020
150 Clear 29 1013 27 16093 1.5 190 11:59 08.07.2020
151 Clear 30 1013 27 16093 1.5 190 11:39 08.07.2020
152 Clear 30 1013 27 16093 1.5 190 11:20 08.07.2020
153 Clouds 31 1013 25 16093 1.5 210 10:55 08.07.2020
154 Clouds 31 1013 25 16093 1.5 210 10:36 08.07.2020
155 Clouds 31 1013 25 16093 1.5 210 10:18 08.07.2020
156 Clear 32 1013 22 16093 4.1 300 09:41 08.07.2020
157 Clear 33 1013 22 16093 4.1 300 09:21 08.07.2020
158 Clear 34 1012 20 16093 3.6 280 08:43 08.07.2020
159 Clear 33 1012 20 16093 3.6 280 08:24 08.07.2020
160 Clear 34 1011 18 16093 2.1 320 07:47 08.07.2020
161 Clear 33 1011 18 16093 2.1 320 07:24 08.07.2020
162 Clear 34 1011 16 16093 2.6 310 06:55 08.07.2020
163 Rain 35 1011 16 16093 2.6 310 06:35 08.07.2020
164 Clear 36 1010 14 16093 2.6 330 05:55 08.07.2020
165 Clear 36 1010 14 16093 2.6 330 05:20 08.07.2020
166 Clouds 38 1010 13 16093 4.6 330 04:32 08.07.2020
167 Clear 41 1011 10 16093 6.2 360 02:22 08.07.2020
168 Clear 41 1011 10 16093 6.7 310 01:45 08.07.2020
169 Clear 41 1011 11 16093 6.2 350 01:19 08.07.2020
170 Clear 41 1013 11 16093 1.5 230 00:26 08.07.2020
171 Clear 41 1013 11 16093 1.5 230 23:55 07.07.2020
172 Clear 41 1013 11 16093 1.5 230 23:37 07.07.2020
173 Clear 40 1013 11 16093 1.5 230 23:18 07.07.2020
174 Clear 40 1014 11 16093 3.6 350 22:41 07.07.2020
175 Clear 40 1014 11 16093 3.6 350 22:21 07.07.2020
176 Clear 40 1015 9 16093 4.1 310 21:59 07.07.2020
177 Clear 40 1015 9 16093 4.1 310 21:59 07.07.2020
178 Clear 39 1015 9 16093 4.1 310 21:39 07.07.2020
179 Clouds 39 1014 13 16093 3.1 20 21:21 07.07.2020
180 Clear 38 1015 18 16093 3.6 10 20:56 07.07.2020
181 Clear 38 1016 16 16093 2.1 0 20:38 07.07.2020
182 Clear 37 1015 18 16093 3.6 10 20:19 07.07.2020
183 Rain 36 1015 20 16093 2.1 270 19:40 07.07.2020
184 Rain 36 1015 20 16093 2.1 270 19:21 07.07.2020
185 Rain 35 1016 20 16093 2.75 316 18:56 07.07.2020
186 Rain 35 1016 20 16093 2.75 316 18:38 07.07.2020
187 Rain 34 1016 26 16093 1.98 280 18:19 07.07.2020
188 Rain 33 1016 35 16093 1.98 280 17:57 07.07.2020
189 Rain 33 1016 35 16093 1.98 280 17:38 07.07.2020
190 Clear 32 1016 35 16093 1.99 214 17:20 07.07.2020
191 Clear 31 1015 39 16093 5.7 190 16:42 07.07.2020
192 Clear 30 1015 39 16093 5.7 190 16:23 07.07.2020
193 Clear 30 1015 39 16093 5.7 190 16:23 07.07.2020
194 Clear 29 1015 34 16093 3.1 140 15:56 07.07.2020
195 Clouds 28 1015 34 16093 4.1 170 15:37 07.07.2020
196 Clouds 28 1015 34 16093 4.1 170 15:37 07.07.2020
197 Clouds 27 1015 34 16093 4.1 170 15:19 07.07.2020
198 Clear 27 1014 30 16093 4.6 170 14:46 07.07.2020
199 Clear 27 1014 30 16093 4.6 170 14:24 07.07.2020
200 Clouds 28 1014 23 16093 2.1 120 13:46 07.07.2020
201 Clouds 28 1014 23 16093 2.1 120 13:21 07.07.2020
202 Clouds 28 1013 21 16093 3.6 250 12:57 07.07.2020
203 Clouds 28 1013 21 16093 3.6 250 12:39 07.07.2020
204 Clouds 29 1013 21 16093 3.6 250 12:21 07.07.2020
205 Clouds 29 1013 21 16093 2.6 180 11:46 07.07.2020
206 Clouds 29 1013 21 16093 2.6 180 11:24 07.07.2020
207 Clouds 29 1013 20 16093 1.16 7 10:58 07.07.2020
208 Clouds 29 1013 20 16093 1.16 7 10:40 07.07.2020
209 Clouds 30 1013 20 16093 1.74 331 10:21 07.07.2020
210 Clear 31 1013 18 16093 3.1 270 09:55 07.07.2020
211 Clear 31 1013 18 16093 3.1 270 09:37 07.07.2020
212 Clear 32 1013 18 16093 3.1 270 09:18 07.07.2020
213 Clear 32 1013 15 16093 3.1 310 08:40 07.07.2020
214 Clear 32 1013 15 16093 3.1 310 08:20 07.07.2020
215 Clear 33 1012 14 16093 3.1 320 07:39 07.07.2020
216 Clear 33 1012 14 16093 3.1 320 07:20 07.07.2020
217 Clouds 34 1012 12 16093 3.1 320 06:48 07.07.2020
218 Clouds 35 1012 12 16093 3.1 320 06:27 07.07.2020
219 Rain 35 1011 10 16093 3.1 330 05:47 07.07.2020
220 Clear 37 1010 11 0 0.89 346 04:59 07.07.2020
221 Rain 38 1011 9 16093 5.7 330 04:25 07.07.2020
222 Clouds 39 1011 7 16093 6.2 330 03:34 07.07.2020
223 Clouds 41 1012 8 16093 6.2 320 01:58 07.07.2020
224 Clouds 41 1012 8 16093 6.2 320 01:20 07.07.2020
225 Clouds 41 1012 8 16093 7.2 340 00:41 07.07.2020
226 Clouds 41 1013 8 16093 8.2 310 00:22 07.07.2020
227 Clear 40 1013 7 16093 5.1 320 23:44 06.07.2020
228 Clear 40 1013 7 16093 5.1 320 23:25 06.07.2020
229 Clouds 40 1014 7 16093 5.1 290 22:59 06.07.2020
230 Clouds 40 1014 7 16093 5.1 290 22:39 06.07.2020
231 Clear 40 1014 9 16093 6.2 310 22:19 06.07.2020
232 Clear 39 1015 8 16093 4.1 320 21:57 06.07.2020
233 Clear 39 1015 8 16093 4.1 320 21:37 06.07.2020
234 Clear 39 1015 9 16093 4.1 320 21:18 06.07.2020
235 Clear 38 1016 12 16093 2.6 0 20:41 06.07.2020
236 Clear 37 1015 13 16093 3.6 340 20:22 06.07.2020
237 Clear 37 1015 15 0 1.34 9 19:59 06.07.2020
238 Rain 37 1015 17 0 1.34 306 19:41 06.07.2020
239 Rain 36 1015 16 16093 1.5 290 19:23 06.07.2020
240 Rain 36 1015 18 0 0.89 267 18:59 06.07.2020
241 Rain 36 1015 18 0 0.89 267 18:59 06.07.2020
242 Rain 35 1015 19 0 0.89 38 18:41 06.07.2020
243 Rain 35 1015 19 0 0.89 38 18:41 06.07.2020
244 Rain 35 1015 20 16093 3.03 286 18:22 06.07.2020
245 Rain 33 1015 29 16093 2.1 120 17:57 06.07.2020
246 Rain 33 1015 29 16093 2.1 120 17:38 06.07.2020
247 Rain 32 1015 29 16093 2.1 120 17:19 06.07.2020
248 Clear 30 1014 31 0 0.45 111 16:43 06.07.2020
249 Clear 30 1015 37 16093 2.1 190 16:24 06.07.2020
250 Clouds 26 1014 41 16093 3.1 170 15:57 06.07.2020
251 Clouds 26 1014 41 16093 3.1 170 15:38 06.07.2020
252 Clouds 25 1014 41 16093 3.1 170 15:19 06.07.2020
253 Clouds 25 1014 38 16093 3.6 160 14:55 06.07.2020
254 Clouds 25 1014 38 16093 3.6 160 14:36 06.07.2020
255 Clouds 25 1014 38 16093 3.6 160 14:18 06.07.2020
256 Clear 26 1013 34 16093 2.6 110 13:40 06.07.2020
257 Clear 26 1013 34 16093 2.6 110 13:21 06.07.2020
258 Clouds 27 1013 32 16093 3.1 220 12:45 06.07.2020
259 Clouds 27 1013 32 16093 3.1 220 12:20 06.07.2020
260 Clear 27 1013 30 16093 3.1 220 11:59 06.07.2020
261 Clear 28 1013 30 16093 3.1 220 11:41 06.07.2020
262 Clear 29 1013 30 16093 3.1 220 11:23 06.07.2020
263 Clear 29 1013 20 16093 3.1 230 10:58 06.07.2020
264 Clear 29 1013 20 16093 3.1 230 10:40 06.07.2020
265 Clear 30 1013 20 16093 3.1 230 10:19 06.07.2020
266 Clear 30 1012 20 16093 2.6 240 09:46 06.07.2020
267 Clear 30 1012 20 16093 2.6 240 09:22 06.07.2020
268 Clear 30 1013 18 16093 2.6 240 08:59 06.07.2020
269 Clear 31 1013 18 16093 2.6 240 08:40 06.07.2020
270 Clear 31 1013 18 16093 2.6 240 08:21 06.07.2020
271 Clear 33 1012 17 16093 3.1 330 07:48 06.07.2020
272 Clear 33 1012 17 16093 3.1 330 07:29 06.07.2020
273 Clear 34 1012 16 16093 3.6 330 06:55 06.07.2020
274 Clear 35 1012 16 16093 3.6 330 06:36 06.07.2020
275 Clear 36 1011 16 16093 5.1 320 05:47 06.07.2020
276 Clear 36 1011 16 16093 5.1 320 05:26 06.07.2020
277 Clear 39 1011 12 16093 7.7 350 03:53 06.07.2020
278 Clear 40 1011 14 16093 7.2 350 02:29 06.07.2020
279 Clear 40 1011 13 16093 7.7 330 01:45 06.07.2020
280 Clear 41 1012 13 16093 6.7 360 00:44 06.07.2020
281 Clear 40 1012 13 16093 6.7 360 00:22 06.07.2020
282 Clear 40 1013 13 16093 6.7 330 23:54 05.07.2020
283 Clear 40 1013 13 16093 6.7 330 23:36 05.07.2020
284 Clear 40 1013 13 16093 6.2 330 23:18 05.07.2020
285 Clear 40 1014 15 16093 3.6 330 22:41 05.07.2020
286 Clouds 39 1014 18 16093 4.1 320 22:20 05.07.2020
287 Clear 39 1015 17 16093 4.6 260 21:58 05.07.2020
288 Clear 39 1015 17 16093 4.6 260 21:40 05.07.2020
289 Clear 39 1015 17 16093 4.6 260 21:40 05.07.2020
290 Clear 37 1015 19 16093 2.6 310 21:19 05.07.2020
291 Clear 37 1015 20 16093 3.44 291 20:58 05.07.2020
292 Clear 37 1015 20 16093 3.44 291 20:58 05.07.2020
293 Clear 37 1015 20 16093 3.44 291 20:39 05.07.2020
294 Clear 36 1015 20 16093 2.94 286 20:21 05.07.2020
295 Clear 36 1016 24 16093 1.5 340 19:55 05.07.2020
296 Clear 36 1016 20 16093 2.6 310 19:36 05.07.2020
297 Clear 36 1016 24 16093 1.5 340 19:18 05.07.2020
298 Clear 35 1016 26 16093 2.52 278 18:41 05.07.2020
299 Clear 34 1016 29 16093 2.1 260 18:21 05.07.2020
300 Clear 33 1016 33 16093 2.6 210 17:56 05.07.2020
301 Clear 32 1016 33 16093 2.6 210 17:37 05.07.2020
302 Clear 31 1016 33 16093 2.6 210 17:18 05.07.2020
303 Clear 30 1016 42 16093 2.6 180 16:43 05.07.2020
304 Clear 29 1016 42 16093 2.6 180 16:24 05.07.2020
305 Clear 27 1016 50 16093 2.6 160 15:55 05.07.2020
306 Clear 26 1016 50 16093 2.6 160 15:37 05.07.2020
307 Clear 26 1016 50 16093 2.6 160 15:18 05.07.2020
308 Clear 25 1015 44 16093 1.5 150 14:41 05.07.2020
309 Clear 25 1015 44 16093 1.5 150 14:21 05.07.2020
310 Clear 25 1015 42 16093 1.46 241 13:42 05.07.2020
311 Clear 26 1015 42 16093 1.59 251 13:23 05.07.2020
312 Clear 26 1015 42 16093 3.1 180 12:47 05.07.2020
313 Clear 27 1015 42 16093 3.1 180 12:27 05.07.2020
314 Clear 28 1015 39 16093 3.6 150 11:58 05.07.2020
315 Clear 28 1015 39 16093 3.6 150 11:58 05.07.2020
316 Clear 28 1015 39 16093 3.6 150 11:40 05.07.2020
317 Clear 28 1015 39 16093 3.6 150 11:21 05.07.2020
318 Clear 29 1015 37 16093 3.1 200 10:58 05.07.2020
319 Clear 29 1015 37 16093 3.1 200 10:39 05.07.2020
320 Clear 29 1015 37 16093 3.1 200 10:19 05.07.2020
321 Clear 30 1015 33 16093 4.1 220 09:55 05.07.2020
322 Clear 30 1015 33 16093 4.1 220 09:37 05.07.2020
323 Clear 31 1015 33 16093 4.1 220 09:18 05.07.2020
324 Clear 31 1015 31 16093 3.6 240 08:43 05.07.2020
325 Clear 31 1015 31 16093 3.6 240 08:25 05.07.2020
326 Clear 32 1014 29 16093 2.6 210 07:46 05.07.2020
327 Clear 32 1014 29 16093 2.6 210 07:27 05.07.2020
328 Clear 33 1014 27 16093 3.6 210 06:50 05.07.2020
329 Clear 36 1013 19 16093 4.1 330 05:29 05.07.2020
330 Clear 39 1012 16 16093 7.2 340 03:24 05.07.2020
331 Clear 39 1012 14 16093 6.2 320 02:41 05.07.2020
332 Clear 40 1013 14 16093 5.7 330 01:59 05.07.2020
333 Clear 40 1013 14 16093 5.7 330 01:32 05.07.2020
334 Clear 40 1013 12 16093 6.7 10 00:57 05.07.2020
335 Clear 40 1014 13 16093 5.1 350 00:38 05.07.2020
336 Clear 40 1014 13 16093 5.1 350 00:19 05.07.2020
337 Clear 39 1015 18 16093 3.6 280 23:41 04.07.2020
338 Clear 39 1015 18 16093 3.6 280 23:23 04.07.2020
339 Clear 39 1016 18 16093 1.5 70 22:54 04.07.2020
340 Clouds 39 1016 21 16093 1.5 330 22:36 04.07.2020
341 Clouds 39 1016 21 16093 1.5 330 22:18 04.07.2020
342 Clear 38 1017 20 16093 2.1 0 21:40 04.07.2020
343 Clear 37 1016 23 16093 3.1 20 21:22 04.07.2020
344 Clear 37 1017 26 14484 2.1 320 20:54 04.07.2020
345 Clear 36 1017 26 14484 2.1 320 20:36 04.07.2020
346 Clear 36 1017 26 14484 2.1 320 20:18 04.07.2020
347 Clear 36 1018 26 16093 2.1 0 19:41 04.07.2020
348 Clear 35 1018 26 16093 2.1 0 19:21 04.07.2020
349 Clear 35 1008 30 0 1.67 281 18:55 04.07.2020
350 Clear 34 1018 31 16093 1.5 350 18:36 04.07.2020
351 Clear 33 1017 35 16093 1.87 280 18:18 04.07.2020
352 Clear 32 1017 35 0 0.89 177 17:41 04.07.2020
353 Clear 31 1017 35 16093 1.46 267 17:22 04.07.2020
354 Clear 30 1017 38 0 0.45 200 16:56 04.07.2020
355 Rain 30 1017 42 16093 3.6 190 16:37 04.07.2020
356 Rain 29 1017 42 16093 3.6 190 16:18 04.07.2020
357 Clear 27 1017 50 16093 3.1 170 15:42 04.07.2020
358 Clear 25 1017 50 16093 3.1 170 15:24 04.07.2020
359 Clear 25 1016 50 16093 3.1 150 14:58 04.07.2020
360 Clear 25 1016 50 16093 3.1 150 14:37 04.07.2020
361 Clear 25 1016 50 16093 3.1 150 14:18 04.07.2020
362 Clear 25 1016 50 16093 3.1 150 14:18 04.07.2020
363 Clear 25 1016 50 16093 3.1 170 13:43 04.07.2020
364 Clear 26 1016 50 16093 3.1 170 13:20 04.07.2020
365 Clear 26 1015 44 16093 3.1 200 12:59 04.07.2020
366 Clear 26 1015 44 16093 3.1 200 12:40 04.07.2020
367 Clear 27 1015 44 16093 3.1 200 12:19 04.07.2020
368 Clear 27 1016 44 16093 3.1 170 11:45 04.07.2020
369 Clear 27 1016 44 16093 3.1 170 11:24 04.07.2020
370 Clear 28 1016 44 16093 2.1 180 10:56 04.07.2020
371 Clear 27 1016 44 16093 2.1 180 10:38 04.07.2020
372 Clear 28 1016 44 16093 2.1 180 10:19 04.07.2020
373 Clear 28 1016 37 16093 2.1 290 09:43 04.07.2020
374 Clear 29 1016 37 16093 2.1 290 09:22 04.07.2020
375 Clear 30 1016 33 16093 2.6 300 08:58 04.07.2020
376 Clear 30 1016 33 16093 2.6 300 08:39 04.07.2020
377 Clear 31 1016 33 16093 2.6 300 08:21 04.07.2020
378 Clear 32 1015 29 16093 1.5 320 07:41 04.07.2020
379 Clear 32 1015 29 16093 1.5 320 07:18 04.07.2020
380 Clear 33 1015 27 16093 3.1 320 06:38 04.07.2020
381 Clear 33 1015 27 16093 3.1 320 06:19 04.07.2020
382 Clear 34 1014 24 16093 4.1 340 05:29 04.07.2020
383 Clear 35 1014 23 16093 4.1 340 04:21 04.07.2020
384 Rain 37 1014 20 16093 3.6 300 02:41 04.07.2020
385 Clear 38 1014 22 16093 2.1 310 01:42 04.07.2020
386 Clear 37 1015 23 16093 2.6 350 00:54 04.07.2020
387 Clear 37 1015 23 16093 2.6 350 00:36 04.07.2020
388 Clear 37 1015 23 16093 2.6 350 00:18 04.07.2020
389 Clear 37 1016 25 16093 2.6 330 23:39 03.07.2020
390 Clear 36 1016 25 16093 2.6 330 23:18 03.07.2020
391 Clouds 36 1017 26 16093 3.6 30 22:42 03.07.2020
392 Clouds 36 1017 26 16093 3.6 30 22:24 03.07.2020
393 Clear 35 1018 30 16093 3.1 280 21:59 03.07.2020
394 Clear 35 1018 30 16093 3.1 280 21:38 03.07.2020
395 Clear 34 1018 30 16093 3.1 280 21:19 03.07.2020
396 Clear 34 1019 31 16093 2.6 360 20:43 03.07.2020
397 Clear 33 1018 35 16093 1.5 60 20:25 03.07.2020
398 Clear 33 1019 33 16093 3.6 40 19:57 03.07.2020
399 Clear 33 1019 33 16093 3.6 40 19:39 03.07.2020
400 Clear 32 1019 40 16093 1.57 285 19:18 03.07.2020
401 Clear 31 1011 40 0 0.89 240 18:45 03.07.2020
402 Clear 30 1019 45 16093 1.61 285 18:23 03.07.2020
403 Clear 29 1012 47 0 1.61 285 17:56 03.07.2020
404 Clear 28 1019 54 16093 2.1 170 17:38 03.07.2020
405 Clear 28 1019 54 16093 2.1 170 17:19 03.07.2020
406 Clear 28 1019 54 16093 2.1 170 17:19 03.07.2020
407 Clear 26 1019 53 0 0.45 0 16:40 03.07.2020
408 Clear 26 1018 60 16093 3.1 160 16:20 03.07.2020
409 Clear 23 1018 73 16093 4.1 160 15:44 03.07.2020
410 Clear 22 1018 73 16093 4.1 160 15:23 03.07.2020
411 Clear 21 1017 77 16093 4.1 160 14:57 03.07.2020
412 Clear 21 1017 77 16093 4.1 160 14:38 03.07.2020
413 Clear 21 1017 77 16093 4.1 160 14:19 03.07.2020
414 Clear 21 1017 82 16093 3.6 170 13:43 03.07.2020
415 Clear 22 1017 82 16093 3.6 170 13:25 03.07.2020
416 Clear 22 1017 64 16093 3.6 120 12:45 03.07.2020
417 Clear 22 1017 73 16093 4.1 140 12:24 03.07.2020
418 Clear 22 1016 83 16093 3.1 170 11:58 03.07.2020
419 Clear 22 1017 73 16093 4.1 140 11:40 03.07.2020
420 Clear 23 1017 73 16093 3.1 150 11:21 03.07.2020
421 Clear 23 1017 73 16093 3.1 150 10:55 03.07.2020
422 Clear 23 1016 83 16093 3.1 130 10:37 03.07.2020
423 Clear 23 1016 83 16093 3.1 130 10:18 03.07.2020
424 Clear 23 1016 83 16093 1.5 150 09:42 03.07.2020
425 Clear 23 1016 83 16093 1.5 150 09:22 03.07.2020
426 Clear 23 1017 78 16093 3.6 180 08:59 03.07.2020
427 Clear 23 1017 78 16093 3.6 180 08:39 03.07.2020
428 Clear 24 1017 78 16093 3.6 180 08:18 03.07.2020
429 Clouds 24 1016 78 16093 2.6 130 07:47 03.07.2020
430 Clouds 24 1016 78 16093 2.6 130 07:23 03.07.2020
431 Clouds 25 1016 78 16093 4.1 160 06:40 03.07.2020
432 Clouds 25 1015 78 16093 2.6 150 05:56 03.07.2020
433 Clouds 25 1015 78 16093 3.6 140 04:35 03.07.2020
434 Drizzle 27 1016 57 16093 11.8 200 02:57 03.07.2020
435 Drizzle 27 1016 57 16093 11.8 200 02:36 03.07.2020
436 Clear 31 1015 31 16093 5.16 132 01:54 03.07.2020
437 Clear 33 1015 31 16093 6.3 148 01:22 03.07.2020
438 Clouds 32 1015 38 16093 2.1 10 00:42 03.07.2020
439 Clouds 31 1015 38 16093 2.1 10 00:20 03.07.2020
440 Clouds 30 1016 48 16093 2.1 130 23:43 02.07.2020
441 Clear 30 1016 35 16093 1.5 0 23:20 02.07.2020
442 Rain 30 1008 43 0 0.45 316 22:57 02.07.2020
443 Rain 30 1016 54 16093 1.5 100 22:38 02.07.2020
444 Rain 29 1018 48 16093 2.1 120 22:20 02.07.2020
445 Rain 27 1018 61 16093 1.5 300 21:54 02.07.2020
446 Rain 28 1018 61 16093 1.5 300 21:36 02.07.2020
447 Rain 28 1018 61 16093 1.5 300 21:36 02.07.2020
448 Drizzle 28 1018 61 16093 1.5 300 21:18 02.07.2020
449 Clouds 28 1017 48 0 1.79 198 20:41 02.07.2020
450 Clouds 29 1012 51 0 2.68 200 20:20 02.07.2020
451 Rain 29 1018 50 16093 5.7 130 19:56 02.07.2020
452 Rain 30 1018 51 16093 6.2 230 19:38 02.07.2020
453 Clouds 30 1018 39 16093 3.1 110 19:20 02.07.2020
454 Rain 29 1017 44 16093 3.1 120 18:56 02.07.2020
455 Rain 29 1017 44 16093 3.1 120 18:37 02.07.2020
456 Clouds 28 1017 44 16093 3.1 120 18:19 02.07.2020
457 Clouds 28 1017 44 14484 1.5 200 17:39 02.07.2020
458 Drizzle 28 1017 39 16093 4.1 200 17:20 02.07.2020
459 Clouds 27 1017 34 16093 4.6 140 16:56 02.07.2020
460 Clouds 27 1017 34 16093 4.6 140 16:37 02.07.2020
461 Clouds 26 1016 50 16093 4.1 170 16:19 02.07.2020
462 Clouds 25 1016 47 16093 3.6 140 15:39 02.07.2020
463 Clouds 25 1016 47 16093 3.6 140 15:21 02.07.2020
464 Clouds 23 1015 53 16093 2.1 140 14:47 02.07.2020
465 Clouds 23 1015 53 16093 2.1 140 14:29 02.07.2020
466 Clouds 24 1015 47 16093 3.6 170 13:58 02.07.2020
467 Clouds 24 1015 47 16093 3.6 170 13:58 02.07.2020
468 Clouds 24 1015 47 16093 3.6 170 13:40 02.07.2020
469 Clouds 24 1015 47 16093 3.6 170 13:20 02.07.2020
470 Clouds 24 1014 53 16093 2.6 170 12:58 02.07.2020
471 Clouds 24 1014 53 16093 2.6 170 12:39 02.07.2020
472 Clouds 24 1014 53 16093 2.6 170 12:21 02.07.2020
473 Clouds 25 1015 41 16093 1.22 0 11:44 02.07.2020
474 Clouds 24 1015 41 16093 0.6 291 11:25 02.07.2020
475 Clear 25 1015 27 16093 0.6 291 10:48 02.07.2020
476 Clear 26 1015 27 16093 0.92 247 10:28 02.07.2020
477 Clear 26 1015 27 16093 0.92 247 10:28 02.07.2020
478 Clear 26 1015 27 16093 0.92 247 10:28 02.07.2020
479 Clear 26 1015 23 16093 1.5 310 09:59 02.07.2020
480 Clear 26 1015 23 16093 1.5 310 09:40 02.07.2020
481 Clear 26 1015 23 16093 1.5 310 09:20 02.07.2020
482 Clear 27 1014 47 16093 1.5 90 08:55 02.07.2020
483 Clear 27 1014 47 16093 1.5 90 08:37 02.07.2020
484 Clear 27 1014 47 16093 1.5 90 08:18 02.07.2020
485 Clouds 28 1014 48 16093 3.6 180 07:40 02.07.2020
486 Clouds 28 1014 48 16093 3.6 180 07:19 02.07.2020
487 Clouds 29 1014 51 16093 5.1 190 06:40 02.07.2020
488 Rain 29 1014 35 16093 8.2 140 06:20 02.07.2020
489 Rain 29 1013 45 16093 4.1 130 05:44 02.07.2020
490 Clouds 30 1012 48 16093 5.1 150 03:57 02.07.2020
491 Rain 30 1012 45 14484 7.7 110 03:31 02.07.2020
492 Clouds 37 1012 18 16093 4.1 30 00:54 02.07.2020
493 Clouds 36 1012 18 16093 4.1 30 00:25 02.07.2020
494 Clouds 37 1012 19 16093 3.6 240 23:48 01.07.2020
495 Clouds 36 1012 19 16093 3.6 240 23:30 01.07.2020
496 Clouds 36 1013 18 16093 5.7 310 22:57 01.07.2020
497 Clouds 36 1013 18 16093 5.7 310 22:38 01.07.2020
498 Clouds 36 1013 17 16093 1.5 320 22:19 01.07.2020
499 Clear 36 1014 16 16093 3.1 190 21:58 01.07.2020
500 Clear 35 1014 16 16093 3.1 190 21:40 01.07.2020
501 Clear 35 1014 16 16093 3.1 190 21:22 01.07.2020
502 Clouds 33 1015 17 16093 3.6 140 20:57 01.07.2020
503 Clouds 33 1015 17 16093 3.6 140 20:39 01.07.2020
504 Clouds 33 1015 17 16093 3.6 140 20:20 01.07.2020
505 Clear 32 1015 23 16093 2.44 200 19:43 01.07.2020
506 Clear 32 1015 23 16093 2.99 187 19:24 01.07.2020
507 Clear 32 1015 23 0 0.89 342 18:59 01.07.2020
508 Clear 31 1015 27 16093 2.99 187 18:40 01.07.2020
509 Clear 30 1015 27 16093 3.04 161 18:21 01.07.2020
510 Clear 30 1015 26 16093 2.6 140 17:56 01.07.2020
511 Clear 30 1015 26 16093 2.6 140 17:38 01.07.2020
512 Clear 29 1015 26 16093 2.6 140 17:18 01.07.2020
513 Clear 28 1015 27 16093 2.6 150 16:44 01.07.2020
514 Clear 27 1015 27 16093 2.6 150 16:26 01.07.2020
515 Clear 24 1014 30 16093 3.1 160 15:43 01.07.2020
516 Clear 23 1014 30 16093 3.1 160 15:25 01.07.2020
517 Clear 22 1014 32 16093 2.1 160 14:59 01.07.2020
518 Clear 21 1014 32 16093 2.1 160 14:41 01.07.2020
519 Clear 21 1014 32 16093 2.1 160 14:21 01.07.2020
520 Clear 21 1014 30 16093 2.1 140 13:56 01.07.2020
521 Clear 22 1014 30 16093 2.1 140 13:37 01.07.2020
522 Clear 22 1014 30 16093 2.1 140 13:19 01.07.2020
523 Clear 22 1014 28 16093 2.6 160 12:54 01.07.2020
524 Clear 23 1014 28 16093 2.6 160 12:36 01.07.2020
525 Clear 22 1014 28 16093 2.6 160 12:18 01.07.2020
526 Clear 22 1014 27 16093 2.6 170 11:40 01.07.2020
527 Clear 22 1014 27 16093 2.6 170 11:21 01.07.2020
528 Clear 23 1014 23 16093 2.46 143 10:57 01.07.2020
529 Clear 23 1014 23 16093 2.46 143 10:57 01.07.2020
530 Clear 23 1014 23 16093 2.46 143 10:39 01.07.2020
531 Clear 24 1014 23 16093 2.2 152 10:20 01.07.2020
532 Clear 25 1014 21 16093 2.2 152 09:39 01.07.2020
533 Clear 25 1014 21 16093 1.42 185 09:20 01.07.2020
534 Clouds 26 1014 19 16093 3.1 260 08:59 01.07.2020
535 Clouds 27 1014 19 16093 3.1 260 08:40 01.07.2020
536 Clouds 27 1014 19 16093 3.1 260 08:19 01.07.2020
537 Clouds 28 1014 17 16093 1.5 280 07:42 01.07.2020
538 Clouds 28 1014 17 16093 1.5 280 07:24 01.07.2020
539 Clear 29 1013 16 16093 3.6 280 06:55 01.07.2020
540 Clear 30 1013 16 16093 3.6 280 06:32 01.07.2020
541 Clear 31 1012 14 16093 3.6 270 05:46 01.07.2020
542 Clear 33 1012 11 16093 6.7 260 04:29 01.07.2020
543 Clear 34 1011 12 14484 7.2 240 03:41 01.07.2020
544 Clear 35 1011 12 14484 7.2 240 03:21 01.07.2020
545 Clear 36 1011 14 16093 5.1 260 02:19 01.07.2020
546 Clear 36 1012 11 16093 7.2 270 00:49 01.07.2020
547 Clear 36 1012 13 16093 7.2 260 00:29 01.07.2020
548 Clear 36 1012 12 16093 5.7 270 23:59 30.06.2020
549 Clear 36 1012 12 16093 5.7 270 23:39 30.06.2020
550 Clear 36 1012 13 16093 8.2 230 23:19 30.06.2020
551 Clouds 35 1013 15 16093 5.7 270 22:42 30.06.2020
552 Clouds 35 1013 17 16093 5.7 270 22:19 30.06.2020
553 Clouds 34 1014 21 16093 4.1 250 21:43 30.06.2020
554 Clouds 34 1014 21 16093 4.1 250 21:20 30.06.2020
555 Clear 33 1014 27 16093 2.6 190 20:59 30.06.2020
556 Clear 32 1014 27 16093 2.6 190 20:41 30.06.2020
557 Clear 32 1014 27 16093 2.6 190 20:20 30.06.2020
558 Clear 31 1015 30 16093 3.6 220 19:44 30.06.2020
559 Clear 31 1015 30 16093 3.6 220 19:21 30.06.2020
560 Clear 31 1015 30 16093 3.6 220 19:21 30.06.2020
561 Clouds 30 1015 39 16093 3.1 140 18:57 30.06.2020
562 Clouds 30 1015 39 16093 3.1 140 18:38 30.06.2020
563 Clouds 27 1015 39 16093 3.1 140 18:20 30.06.2020
564 Clear 28 1015 44 16093 3.6 230 17:39 30.06.2020
565 Clear 27 1015 44 16093 3.6 230 17:20 30.06.2020
566 Clear 27 1015 50 16093 2.95 164 16:57 30.06.2020
567 Clear 27 1015 50 16093 2.95 164 16:38 30.06.2020
568 Clear 26 1015 50 16093 2.65 146 16:19 30.06.2020
569 Clear 25 1015 44 16093 1.5 300 15:54 30.06.2020
570 Clear 24 1014 40 16093 2.65 146 15:36 30.06.2020
571 Clear 24 1014 40 16093 3.08 142 15:18 30.06.2020
572 Clear 23 1014 38 16093 3.08 142 14:41 30.06.2020
573 Clear 23 1014 38 16093 2.92 143 14:21 30.06.2020
574 Clear 23 1013 38 16093 2.92 143 13:42 30.06.2020
575 Clear 24 1013 38 16093 2.64 143 13:21 30.06.2020
576 Clear 24 1013 38 16093 2.64 143 13:21 30.06.2020
577 Clear 24 1013 38 16093 2.64 143 12:59 30.06.2020
578 Clear 24 1013 38 16093 2.64 143 12:41 30.06.2020
579 Clear 24 1013 38 16093 2.38 154 12:23 30.06.2020
580 Clear 25 1013 31 16093 2.1 30 11:59 30.06.2020
581 Clear 25 1013 31 16093 2.1 30 11:39 30.06.2020
582 Clear 25 1013 31 16093 2.1 30 11:20 30.06.2020
583 Clear 25 1013 31 16093 2.1 30 11:20 30.06.2020
584 Clear 25 1013 31 16093 2.1 30 11:20 30.06.2020
585 Clear 25 1013 31 16093 3.1 360 10:59 30.06.2020
586 Clear 28 1014 30 16093 3.1 190 16:44 28.06.2020
587 Clear 28 1014 30 16093 3.1 190 16:26 28.06.2020
588 Clear 28 1014 30 16093 3.1 190 16:26 28.06.2020
589 Clear 27 1014 29 16093 1.5 0 15:58 28.06.2020
590 Clear 27 1013 38 16093 3.6 150 15:39 28.06.2020
591 Clear 26 1013 38 16093 3.6 150 15:19 28.06.2020
592 Clear 25 1013 38 16093 4.6 140 14:47 28.06.2020
593 Clear 25 1013 38 16093 4.6 140 14:47 28.06.2020
594 Clear 25 1013 38 16093 4.6 140 14:28 28.06.2020
595 Clear 26 1012 34 16093 4.1 130 13:59 28.06.2020
596 Clear 26 1012 34 16093 4.1 130 13:38 28.06.2020
597 Clear 26 1012 34 16093 4.1 130 13:38 28.06.2020
598 Clear 26 1012 34 16093 4.1 130 13:38 28.06.2020
599 Clear 26 1012 34 16093 4.1 130 13:20 28.06.2020
600 Clear 26 1012 34 16093 4.1 130 13:20 28.06.2020
601 Clear 26 1012 33 16093 4.1 140 12:56 28.06.2020
602 Clear 26 1012 33 16093 4.1 140 12:37 28.06.2020
603 Clear 26 1012 33 16093 4.1 140 12:37 28.06.2020
604 Clear 26 1012 33 16093 4.1 140 12:19 28.06.2020
605 Clear 27 1012 32 16093 4.6 140 11:56 28.06.2020
606 Clear 27 1012 32 16093 4.6 140 11:38 28.06.2020
607 Clear 28 1012 32 16093 4.6 140 11:19 28.06.2020
608 Clear 28 1012 17 16093 4.6 190 10:55 28.06.2020
609 Clear 29 1012 17 16093 4.6 190 10:36 28.06.2020
610 Clear 29 1012 17 16093 4.6 190 10:36 28.06.2020
611 Clear 29 1012 17 16093 4.6 190 10:36 28.06.2020
612 Clear 29 1012 17 16093 4.6 190 10:18 28.06.2020
613 Clear 29 1012 28 16093 7.2 150 09:39 28.06.2020
614 Clear 29 1012 28 16093 7.2 150 09:21 28.06.2020
615 Clouds 30 1012 25 16093 9.3 150 08:48 28.06.2020
616 Clouds 30 1012 25 16093 9.3 150 08:26 28.06.2020
617 Clouds 30 1012 22 16093 4.1 190 07:49 28.06.2020
618 Clouds 31 1012 22 16093 4.1 190 07:29 28.06.2020
619 Clear 32 1011 18 16093 8.2 140 06:43 28.06.2020
620 Clear 33 1011 18 16093 8.2 140 06:24 28.06.2020
621 Clouds 34 1010 15 16093 3.6 250 05:26 28.06.2020
622 Clouds 37 1010 12 16093 6.2 310 03:32 28.06.2020
623 Clouds 38 1009 11 16093 6.7 310 02:39 28.06.2020
624 Clouds 38 1010 12 16093 5.7 320 01:53 28.06.2020
625 Clouds 38 1010 13 16093 8.2 300 01:26 28.06.2020
626 Clear 38 1011 12 16093 7.2 260 00:46 28.06.2020
627 Clear 38 1011 12 16093 7.2 260 00:46 28.06.2020
628 Clear 39 1011 12 16093 5.1 260 00:24 28.06.2020
629 Clouds 38 1011 12 16093 6.7 300 23:41 27.06.2020
630 Clouds 38 1012 13 16093 5.7 250 23:23 27.06.2020
631 Clouds 38 1013 15 16093 6.7 230 22:58 27.06.2020
632 Clouds 38 1013 15 16093 6.7 230 22:40 27.06.2020
633 Clouds 38 1013 15 16093 6.7 230 22:19 27.06.2020
634 Clouds 38 1014 14 16093 4.6 250 21:43 27.06.2020
635 Clouds 37 1014 14 16093 4.6 250 21:21 27.06.2020
636 Clouds 36 1014 19 16093 5.1 240 20:57 27.06.2020
637 Clouds 36 1014 19 16093 5.1 240 20:57 27.06.2020
638 Clouds 36 1014 19 16093 5.1 240 20:37 27.06.2020
639 Clouds 36 1014 19 16093 5.1 240 20:18 27.06.2020
640 Clear 36 1014 19 16093 5.7 200 19:54 27.06.2020
641 Clear 35 1014 19 16093 5.7 200 19:36 27.06.2020
642 Clear 34 1014 19 16093 5.7 200 19:18 27.06.2020
643 Clouds 35 1004 20 0 1.79 359 18:43 27.06.2020
644 Clouds 33 1015 22 16093 6.7 210 18:22 27.06.2020
645 Clouds 33 1015 22 16093 2.6 200 17:54 27.06.2020
646 Clouds 33 1015 22 16093 2.6 200 17:36 27.06.2020
647 Clouds 32 1015 22 16093 2.6 200 17:18 27.06.2020
648 Clouds 31 1014 20 16093 3.6 170 16:41 27.06.2020
649 Clouds 31 1014 20 16093 3.6 170 16:23 27.06.2020
650 Clouds 29 1014 26 16093 3.6 170 15:46 27.06.2020
651 Clouds 28 1014 26 16093 3.6 170 15:25 27.06.2020
652 Clouds 28 1013 25 16093 1.5 200 14:59 27.06.2020
653 Clouds 28 1013 25 16093 1.5 200 14:40 27.06.2020
654 Clouds 28 1013 25 16093 1.5 200 14:21 27.06.2020
655 Clouds 28 1013 25 16093 2.6 150 13:55 27.06.2020
656 Clouds 28 1013 25 16093 2.6 150 13:37 27.06.2020
657 Clouds 28 1013 25 16093 2.6 150 13:19 27.06.2020
658 Clouds 29 1013 23 16093 2.1 200 12:41 27.06.2020
659 Clouds 29 1013 23 16093 2.1 200 12:22 27.06.2020
660 Clouds 29 1013 23 16093 2.63 147 11:59 27.06.2020
661 Clouds 29 1013 23 16093 2.63 147 11:59 27.06.2020
662 Clouds 29 1013 23 16093 2.63 147 11:59 27.06.2020
663 Clouds 29 1013 23 16093 2.63 147 11:40 27.06.2020
664 Clouds 29 1013 23 16093 2.63 147 11:40 27.06.2020
665 Clouds 29 1013 23 16093 1.94 164 11:22 27.06.2020
666 Clouds 29 1013 23 16093 1.94 164 11:22 27.06.2020
667 Clouds 30 1012 22 16093 1.94 164 10:42 27.06.2020
668 Clouds 30 1012 22 16093 1.57 202 10:19 27.06.2020
669 Clouds 30 1013 20 16093 1.5 250 09:59 27.06.2020
670 Clouds 31 1013 20 16093 1.5 250 09:39 27.06.2020
671 Clouds 31 1013 20 16093 1.5 250 09:20 27.06.2020
672 Clouds 32 1013 16 16093 4.1 330 08:44 27.06.2020
673 Clouds 32 1013 16 16093 4.1 330 08:23 27.06.2020
674 Clear 33 1014 12 16093 3.1 260 07:48 27.06.2020
675 Clouds 34 1013 15 16093 3.1 340 07:25 27.06.2020
676 Clouds 34 1012 15 0 0.89 314 06:51 27.06.2020
677 Clouds 35 1012 11 16093 2.1 320 06:33 27.06.2020
678 Clouds 37 1011 8 16093 4.6 330 04:44 27.06.2020
679 Clouds 38 1011 8 16093 4.6 330 04:18 27.06.2020
680 Clouds 39 1011 7 16093 6.2 320 03:43 27.06.2020
681 Clouds 40 1011 7 16093 5.7 300 02:42 27.06.2020
682 Clear 40 1011 6 16093 7.7 320 02:22 27.06.2020
683 Clear 40 1012 7 16093 4.1 300 01:24 27.06.2020
684 Clear 40 1013 7 16093 3.6 330 00:42 27.06.2020
685 Clouds 40 1013 7 16093 2.6 300 23:47 26.06.2020
686 Clouds 39 1013 7 16093 2.6 300 23:27 26.06.2020
687 Clouds 39 1013 7 16093 2.6 300 23:27 26.06.2020
688 Clouds 39 1014 7 16093 2.6 270 22:58 26.06.2020
689 Clouds 39 1014 7 16093 2.6 270 22:39 26.06.2020
690 Clouds 39 1014 7 16093 2.6 270 22:20 26.06.2020
691 Clouds 39 1014 5 16093 3.1 290 21:58 26.06.2020
692 Clouds 39 1014 5 16093 3.1 290 21:38 26.06.2020
693 Clouds 39 1014 5 16093 3.1 290 21:20 26.06.2020
694 Clouds 39 1014 5 16093 3.1 290 21:20 26.06.2020
695 Clear 38 1015 5 16093 1.61 228 20:47 26.06.2020
696 Clouds 38 1015 6 16093 1.7 200 20:26 26.06.2020
697 Clear 37 1014 7 16093 3.6 180 19:47 26.06.2020
698 Clear 37 1014 7 16093 3.6 180 19:25 26.06.2020
699 -273 0 0 0 0 0 18:59 26.06.2020
700 Clear 35 1014 10 16093 3.1 170 18:38 26.06.2020
701 Clear 34 1014 10 16093 3.1 170 18:20 26.06.2020
702 Clear 32 1015 9 16093 4.1 170 17:44 26.06.2020
703 Clear 32 1015 9 16093 4.1 170 17:44 26.06.2020
704 Clear 31 1015 10 16093 4.1 170 17:26 26.06.2020
705 Clear 29 1014 13 16093 4.1 160 16:51 26.06.2020
706 Clear 26 1014 13 16093 4.1 160 16:29 26.06.2020
707 Clear 24 1014 15 16093 5.1 160 15:58 26.06.2020
708 Clear 24 1014 15 16093 5.1 160 15:39 26.06.2020
709 Clear 23 1014 15 16093 5.1 160 15:21 26.06.2020
710 Clear 23 1013 15 16093 2.1 110 14:57 26.06.2020
711 Clear 23 1013 15 16093 2.1 110 14:38 26.06.2020
712 Clear 23 1013 15 16093 2.1 110 14:20 26.06.2020
713 Clear 23 1013 14 16093 3.1 170 13:44 26.06.2020
714 Clear 24 1013 14 16093 3.1 170 13:23 26.06.2020
715 Clear 24 1012 13 16093 3.6 140 12:55 26.06.2020
716 Clear 24 1012 13 16093 3.6 140 12:55 26.06.2020
717 Clear 25 1012 13 16093 3.6 140 12:37 26.06.2020
718 Clear 25 1012 13 16093 3.6 140 12:18 26.06.2020
719 Clear 26 1012 12 16093 3.6 180 11:54 26.06.2020
720 Clear 26 1012 12 16093 3.6 180 11:36 26.06.2020
721 Clear 27 1012 12 16093 3.6 180 11:18 26.06.2020
722 Clear 26 1012 12 16093 3.6 180 11:18 26.06.2020
723 Clear 28 1012 10 16093 2.1 240 10:40 26.06.2020
724 Clear 27 1012 10 16093 2.1 240 10:20 26.06.2020
725 Clear 31 1013 7 16093 0.63 345 09:56 26.06.2020
726 Clear 31 1013 7 16093 0.63 345 09:38 26.06.2020
727 Clear 31 1013 7 16093 0.63 345 09:38 26.06.2020
728 Clear 32 1013 6 16093 4.6 290 09:18 26.06.2020
729 Clear 32 1012 6 16093 4.6 300 08:44 26.06.2020
730 Clear 33 1012 6 16093 4.6 300 08:25 26.06.2020
731 Clear 33 1012 7 16093 4.6 300 07:47 26.06.2020
732 Clear 34 1012 7 16093 4.6 300 07:23 26.06.2020
733 Clear 34 1011 8 16093 3.6 280 06:49 26.06.2020
734 Clear 35 1011 8 16093 3.6 280 06:30 26.06.2020
735 Clear 36 1009 7 16093 4.6 300 05:52 26.06.2020
736 Clear 37 1009 6 16093 5.7 300 04:55 26.06.2020
737 Clear 42 1008 4 16093 6.2 270 02:29 26.06.2020
738 Clear 42 1009 4 16093 7.2 350 01:26 26.06.2020
739 Clear 42 1009 4 16093 5.7 320 00:42 26.06.2020
740 Clear 42 1009 4 16093 5.7 320 00:22 26.06.2020
741 Clear 42 1010 5 16093 2.6 20 23:46 25.06.2020
742 Clear 42 1011 4 16093 4.6 280 23:22 25.06.2020
743 Clear 41 1011 4 16093 6.2 270 22:57 25.06.2020
744 Clear 41 1011 4 16093 4.6 360 22:38 25.06.2020
745 Clear 41 1011 4 16093 4.6 360 22:20 25.06.2020
746 Clear 41 1010 8 0 1.34 191 21:57 25.06.2020
747 Clear 40 1012 7 14484 3.6 290 21:39 25.06.2020
748 Clear 39 1012 8 14484 3.6 290 21:20 25.06.2020
749 Clear 39 1012 9 16093 1.5 70 20:55 25.06.2020
750 Clear 39 1012 9 16093 1.5 70 20:37 25.06.2020
751 Clear 39 1012 9 16093 1.5 70 20:19 25.06.2020
752 Clear 38 1012 10 0 1.34 69 19:41 25.06.2020
753 Clear 37 1013 9 16093 1.28 213 19:20 25.06.2020
754 Clear 37 1012 12 0 0.89 149 18:59 25.06.2020
755 Clear 36 1013 13 16093 2.1 250 18:38 25.06.2020
756 Clear 35 1013 13 16093 2.1 250 18:19 25.06.2020
757 Clear 33 1013 13 16093 4.1 180 17:44 25.06.2020
758 Clear 32 1013 13 16093 4.1 180 17:20 25.06.2020
759 Clear 31 1013 17 16093 4.1 160 16:58 25.06.2020
760 Clear 30 1013 17 16093 4.1 160 16:37 25.06.2020
761 Clear 29 1013 17 16093 4.1 160 16:19 25.06.2020
762 Clear 26 1012 12 16093 2.6 120 15:41 25.06.2020
763 Clear 24 1012 14 16093 2.6 120 15:22 25.06.2020
764 Clear 24 1011 14 16093 4.1 160 14:45 25.06.2020
765 Clear 24 1011 15 16093 4.1 160 14:25 25.06.2020
766 Clear 24 1011 15 16093 3.1 160 13:59 25.06.2020
767 Clear 24 1011 15 16093 3.1 160 13:41 25.06.2020
768 Clear 24 1011 15 16093 3.1 160 13:19 25.06.2020
769 Clear 26 1011 19 16093 4.1 160 12:46 25.06.2020
770 Clear 27 1011 19 16093 4.1 160 12:21 25.06.2020
771 Clear 28 1011 14 16093 2.6 140 11:59 25.06.2020
772 Clear 27 1011 14 16093 2.6 140 11:40 25.06.2020
773 Clear 28 1011 14 16093 2.6 140 11:21 25.06.2020
774 Clear 29 1011 14 16093 2.6 170 10:42 25.06.2020
775 Clear 30 1011 14 16093 2.6 170 10:24 25.06.2020
776 Clear 32 1011 10 16093 2.1 230 09:42 25.06.2020
777 Clear 32 1011 10 16093 2.1 230 09:23 25.06.2020
778 Clear 32 1011 10 16093 3.1 260 08:59 25.06.2020
779 Clear 33 1011 10 16093 3.1 260 08:40 25.06.2020
780 Clear 33 1011 10 16093 3.1 260 08:18 25.06.2020
781 Clear 33 1010 13 16093 3.6 260 07:42 25.06.2020
782 Clear 33 1010 13 16093 3.6 260 07:24 25.06.2020
783 Clear 34 1009 12 16093 2.1 340 06:37 25.06.2020
784 Clear 34 1009 12 16093 2.1 340 06:18 25.06.2020
785 Clear 35 1008 12 16093 3.1 320 05:31 25.06.2020
786 Smoke 39 1008 7 16093 4.1 330 03:39 25.06.2020
787 Clear 40 1008 6 16093 3.6 300 02:46 25.06.2020
788 Clear 41 1008 6 16093 3.6 300 02:25 25.06.2020
789 Clouds 41 1009 6 16093 5.1 340 01:41 25.06.2020
790 Clear 41 1010 7 16093 2.1 340 00:50 25.06.2020
791 Clear 41 1010 7 16093 2.1 340 00:22 25.06.2020
792 Clear 41 1011 7 16093 3.1 290 23:58 24.06.2020
793 Clear 41 1011 7 16093 3.1 290 23:38 24.06.2020
794 Clear 41 1011 7 16093 3.1 290 23:19 24.06.2020
795 Clouds 40 1012 7 16093 2.6 260 22:42 24.06.2020
796 Clouds 40 1012 7 16093 2.6 260 22:42 24.06.2020
797 Clouds 40 1012 7 16093 2.6 260 22:21 24.06.2020
798 Smoke 40 1013 6 16093 2.47 271 21:57 24.06.2020
799 Smoke 39 1013 6 16093 2.47 271 21:37 24.06.2020
800 Clear 38 1012 8 16093 2.6 360 21:19 24.06.2020
801 Clear 38 1013 8 16093 1.63 275 20:58 24.06.2020
802 Clear 38 1013 8 16093 1.63 275 20:58 24.06.2020
803 Clear 38 1013 8 16093 1.63 275 20:39 24.06.2020
804 Clear 37 1013 9 16093 1.05 270 20:21 24.06.2020
805 Clear 37 1012 13 0 1.34 255 19:58 24.06.2020
806 Clear 36 1013 13 0 0.89 257 19:38 24.06.2020
807 Clear 36 1013 14 0 0.89 198 19:20 24.06.2020
808 Clear 35 1013 15 0 0.45 149 18:58 24.06.2020
809 Clear 34 1014 17 16093 0.75 235 18:39 24.06.2020
810 Clear 33 1014 17 16093 0.8 168 18:20 24.06.2020
811 Clear 31 1014 20 16093 1.5 190 17:55 24.06.2020
812 Clear 31 1014 20 16093 1.5 190 17:37 24.06.2020
813 Clear 30 1014 20 16093 1.5 190 17:18 24.06.2020
814 Clear 30 1014 20 16093 1.5 190 17:18 24.06.2020
815 Clouds 29 1013 20 0 0.89 136 16:55 24.06.2020
816 Clear 28 1014 22 16093 2.6 160 16:37 24.06.2020
817 Clear 28 1014 22 16093 2.6 160 16:37 24.06.2020
818 Clear 26 1014 22 16093 2.6 160 16:19 24.06.2020
819 Clear 27 1014 22 16093 2.6 160 16:19 24.06.2020
820 Clear 23 1013 24 16093 3.1 160 15:55 24.06.2020
821 Clear 23 1013 24 16093 3.1 160 15:37 24.06.2020
822 Clear 22 1013 24 16093 3.1 160 15:18 24.06.2020
823 Clear 21 1013 16 16093 3.6 150 14:40 24.06.2020
824 Clear 21 1013 16 16093 3.6 150 14:22 24.06.2020
825 Clear 22 1012 26 16093 3.1 180 13:42 24.06.2020
826 Clear 22 1012 26 16093 3.1 180 13:21 24.06.2020
827 Clear 23 1012 27 16093 2.6 170 12:45 24.06.2020
828 Clear 23 1012 27 16093 2.6 170 12:22 24.06.2020
829 Clear 24 1012 25 16093 3.6 170 11:58 24.06.2020
830 Clear 24 1012 25 16093 3.6 170 11:40 24.06.2020
831 Clear 25 1012 25 16093 3.6 170 11:22 24.06.2020
832 Clouds 25 1013 24 16093 1.5 170 10:48 24.06.2020
833 Clouds 25 1013 24 16093 1.5 170 10:20 24.06.2020
834 Clouds 25 1013 24 16093 1.5 170 10:20 24.06.2020
835 Clear 28 1013 18 16093 2.6 250 09:57 24.06.2020
836 Clear 29 1013 18 16093 2.6 250 09:39 24.06.2020
837 Clear 29 1013 18 16093 2.6 250 09:20 24.06.2020
838 Clear 31 1013 13 16093 3.1 250 08:40 24.06.2020
839 Clear 31 1013 13 16093 3.1 250 08:19 24.06.2020
840 Clear 31 1013 10 16093 3.1 260 07:50 24.06.2020
841 Clear 32 1013 10 16093 3.1 260 07:26 24.06.2020
842 Clear 33 1012 9 16093 2.6 330 06:46 24.06.2020
843 Clear 33 1012 9 16093 2.6 330 06:24 24.06.2020
844 Clear 34 1012 8 16093 3.6 340 05:46 24.06.2020
845 Clear 37 1011 6 16093 5.1 350 04:40 24.06.2020
846 Clear 39 1011 7 16093 3.6 320 03:40 24.06.2020
847 Clear 39 1011 7 16093 3.6 320 03:18 24.06.2020
848 Clear 40 1012 6 16093 5.1 310 02:36 24.06.2020
849 Clear 40 1013 7 16093 2.6 300 00:54 24.06.2020
850 Clear 40 1013 7 16093 2.6 300 00:34 24.06.2020
851 Clear 40 1014 7 16093 5.7 290 23:49 23.06.2020
852 Clear 39 1014 7 16093 5.7 290 23:24 23.06.2020
853 Clouds 39 1015 8 16093 4.6 320 22:59 23.06.2020
854 Clouds 39 1015 8 16093 4.6 320 22:41 23.06.2020
855 Clouds 39 1015 8 16093 4.6 320 22:19 23.06.2020
856 Smoke 38 1016 9 16093 2.84 285 21:57 23.06.2020
857 Smoke 38 1016 9 16093 2.84 285 21:38 23.06.2020
858 Clouds 37 1015 8 16093 3.1 340 21:18 23.06.2020
859 Smoke 37 1016 9 16093 2.1 0 20:55 23.06.2020
860 Smoke 36 1016 9 16093 2.1 0 20:36 23.06.2020
861 Smoke 36 1016 9 16093 2.1 0 20:36 23.06.2020
862 Clear 36 1016 12 16093 3.39 291 20:18 23.06.2020
863 Clear 35 1016 12 16093 3.39 291 19:42 23.06.2020
864 Clear 35 1016 12 16093 2.68 287 19:23 23.06.2020
865 Clear 33 1015 15 0 0.89 173 18:39 23.06.2020
866 Clear 32 1016 14 16093 1.83 266 18:19 23.06.2020
867 Clear 30 1016 17 16093 1.83 266 17:44 23.06.2020
868 Clear 29 1016 17 16093 1.23 247 17:25 23.06.2020
869 Clear 28 1016 17 16093 2.1 200 16:57 23.06.2020
870 Clear 27 1016 17 16093 2.1 200 16:39 23.06.2020
871 Clear 27 1016 17 16093 2.1 200 16:20 23.06.2020
872 Clear 22 1015 21 16093 1.5 170 15:59 23.06.2020
873 Clear 22 1015 21 16093 1.5 170 15:41 23.06.2020
874 Clear 22 1015 21 16093 1.5 170 15:22 23.06.2020
875 Clear 21 1015 22 16093 3.6 180 14:43 23.06.2020
876 Clear 22 1015 22 16093 3.6 180 14:20 23.06.2020
877 Clear 22 1015 22 16093 3.6 180 14:20 23.06.2020
878 Clear 22 1014 21 16093 3.1 200 13:58 23.06.2020
879 Clear 22 1014 21 16093 3.1 200 13:40 23.06.2020
880 Clear 22 1014 21 16093 3.1 200 13:22 23.06.2020
881 Clear 23 1014 20 16093 3.1 210 12:45 23.06.2020
882 Clear 24 1014 20 16093 3.1 210 12:23 23.06.2020
883 Clear 25 1014 19 16093 3.6 190 11:59 23.06.2020
884 Clear 25 1014 19 16093 3.6 190 11:40 23.06.2020
885 Clear 26 1014 19 16093 3.6 190 11:19 23.06.2020
886 Clear 27 1014 18 16093 3.1 230 10:58 23.06.2020
887 Clear 28 1014 18 16093 3.1 230 10:39 23.06.2020
888 Clear 28 1014 18 16093 3.1 230 10:39 23.06.2020
889 Clear 29 1014 17 16093 3.1 230 10:21 23.06.2020
890 Clear 30 1014 14 16093 3.6 270 09:42 23.06.2020
891 Clear 29 1014 14 16093 3.6 270 09:21 23.06.2020
892 Clear 29 1014 14 16093 4.1 250 08:59 23.06.2020
893 Clear 29 1014 14 16093 4.1 250 08:41 23.06.2020
894 Clear 30 1014 14 16093 4.1 250 08:21 23.06.2020
895 Clear 30 1014 11 16093 2.1 310 07:41 23.06.2020
896 Clear 30 1014 11 16093 2.1 310 07:22 23.06.2020
897 Clear 33 1013 10 16093 2.6 330 06:50 23.06.2020
898 Clear 33 1013 10 16093 2.6 330 06:31 23.06.2020
899 Clear 34 1013 8 16093 4.1 330 05:45 23.06.2020
900 Clear 38 1013 7 16093 2.1 330 03:55 23.06.2020
901 Clear 39 1013 7 16093 4.6 10 02:57 23.06.2020
902 Clear 39 1013 7 16093 4.6 10 02:38 23.06.2020
903 Clear 39 1013 7 16093 4.6 10 02:20 23.06.2020
904 Clear 39 1013 6 16093 3.1 310 01:43 23.06.2020
905 Clear 39 1013 6 16093 3.1 310 01:19 23.06.2020
906 Clear 39 1014 7 16093 4.1 260 00:24 23.06.2020
907 Clear 39 1015 6 16093 2.6 50 23:57 22.06.2020
908 Clear 39 1015 6 16093 2.6 50 23:39 22.06.2020
909 Clear 39 1015 6 16093 2.6 50 23:19 22.06.2020
910 Clear 39 1015 8 16093 5.7 300 22:57 22.06.2020
911 Clouds 39 1016 8 16093 3.6 260 22:39 22.06.2020
912 Clouds 39 1016 8 16093 3.6 260 22:20 22.06.2020
913 Smoke 38 1017 8 16093 2.1 330 21:57 22.06.2020
914 Smoke 38 1017 8 16093 2.1 330 21:38 22.06.2020
915 Clear 36 1016 8 16093 2.91 288 21:20 22.06.2020
916 Clear 36 1017 9 16093 2.91 288 20:42 22.06.2020
917 Clear 36 1017 10 16093 2.66 287 20:24 22.06.2020
918 Clear 36 1017 10 16093 2.66 287 19:58 22.06.2020
919 Smoke 35 1017 9 16093 2.1 300 19:38 22.06.2020
920 Clear 35 1016 13 0 1.34 277 19:18 22.06.2020
921 Clear 33 1016 11 16093 3.1 200 18:41 22.06.2020
922 Clear 32 1016 12 16093 3.1 200 18:23 22.06.2020
923 Clear 31 1007 15 0 0.45 326 17:57 22.06.2020
924 Clear 30 1016 12 16093 3.1 180 17:38 22.06.2020
925 Smoke 29 1017 14 16093 2.1 170 17:20 22.06.2020
926 Clear 28 1016 16 16093 4.1 190 16:56 22.06.2020
927 Clear 28 1016 16 16093 4.1 190 16:38 22.06.2020
928 Clear 27 1016 16 16093 4.1 190 16:18 22.06.2020
929 Clear 23 1016 20 16093 2.6 180 15:44 22.06.2020
930 Clear 22 1016 20 16093 2.6 180 15:25 22.06.2020
931 Clear 22 1015 20 16093 3.1 180 14:57 22.06.2020
932 Clear 22 1015 20 16093 3.1 180 14:37 22.06.2020
933 Clear 22 1015 20 16093 3.1 180 14:18 22.06.2020
934 Clear 22 1015 20 16093 1.5 200 13:40 22.06.2020
935 Clear 23 1015 20 16093 1.5 200 13:21 22.06.2020
936 Clear 23 1015 19 16093 3.6 180 12:59 22.06.2020
937 Clear 23 1015 19 16093 3.6 180 12:59 22.06.2020
938 Clear 24 1015 19 16093 3.6 180 12:40 22.06.2020
939 Clear 25 1015 16 16093 2.6 190 12:22 22.06.2020
940 Clear 25 1015 16 16093 2.6 190 11:38 22.06.2020
941 Clear 26 1014 15 16093 4.1 170 11:19 22.06.2020
942 Clear 27 1014 15 16093 4.1 170 10:57 22.06.2020
943 Clear 27 1014 15 16093 4.1 170 10:38 22.06.2020
944 Clear 28 1014 14 16093 2.6 250 10:19 22.06.2020
945 Clear 29 1014 14 16093 2.6 250 09:57 22.06.2020
946 Clear 29 1014 14 16093 2.6 250 09:38 22.06.2020
947 Clear 29 1014 14 16093 2.6 250 09:19 22.06.2020
948 Clear 30 1014 11 16093 4.6 270 08:56 22.06.2020
949 Clear 30 1014 11 16093 4.6 270 08:37 22.06.2020
950 Clear 30 1014 11 16093 4.6 270 08:18 22.06.2020
951 Clear 30 1014 11 16093 4.6 270 08:18 22.06.2020
952 Clear 31 1013 12 16093 4.6 270 07:46 22.06.2020
953 Clear 31 1013 12 16093 4.6 270 07:25 22.06.2020
954 Smoke 33 1013 9 16093 2.6 340 06:39 22.06.2020
955 Clear 33 1012 11 16093 3.1 340 06:20 22.06.2020
956 Clear 34 1011 10 16093 4.1 330 05:42 22.06.2020
957 Clear 38 1010 7 16093 6.7 360 03:41 22.06.2020
958 Clear 39 1011 7 16093 1.5 320 01:48 22.06.2020
959 Clear 40 1012 6 16093 3.6 270 00:54 22.06.2020
960 Clear 39 1012 6 16093 3.6 270 00:29 22.06.2020
961 Clear 39 1013 7 16093 2.6 360 23:56 21.06.2020
962 Clear 39 1013 7 16093 2.6 360 23:37 21.06.2020
963 Clear 38 1014 7 16093 3.6 10 23:19 21.06.2020
964 Smoke 39 1014 8 16093 2.1 0 22:55 21.06.2020
965 Clear 38 1014 7 16093 3.6 10 22:36 21.06.2020
966 Clear 38 1014 7 16093 3.6 10 22:18 21.06.2020
967 Smoke 38 1015 8 16093 3.1 320 21:55 21.06.2020
968 Smoke 38 1015 8 16093 3.1 320 21:37 21.06.2020
969 Clear 36 1014 10 16093 2.6 350 21:18 21.06.2020
970 Clear 35 1015 9 16093 2.1 10 20:40 21.06.2020
971 Clear 35 1015 9 16093 2.1 10 20:40 21.06.2020
972 Clear 35 1015 9 16093 2.1 10 20:21 21.06.2020
973 Clear 35 1014 12 0 0.89 216 19:59 21.06.2020
974 Clear 35 1015 13 0 0.89 225 19:40 21.06.2020
975 Clear 34 1015 10 16093 2.6 330 19:20 21.06.2020
976 Clear 33 1015 14 0 0.89 187 18:56 21.06.2020
977 Clear 33 1015 12 16093 1.04 229 18:38 21.06.2020
978 Clear 32 1015 13 16093 1.06 187 18:19 21.06.2020
979 Clear 30 1015 18 0 0.45 175 17:41 21.06.2020
980 Clear 29 1016 14 16093 1.18 154 17:21 21.06.2020
981 Clear 28 1015 14 16093 2.6 200 16:57 21.06.2020
982 Clear 27 1015 14 16093 2.6 200 16:39 21.06.2020
983 Clear 27 1015 15 16093 2.6 200 16:21 21.06.2020
984 Clear 22 1015 15 16093 2.6 190 15:40 21.06.2020
985 Clear 22 1015 15 16093 2.6 190 15:40 21.06.2020
986 Clear 22 1015 15 16093 2.6 190 15:40 21.06.2020
987 Clear 22 1015 19 16093 2.6 190 15:22 21.06.2020
988 Clear 21 1015 21 16093 3.1 170 14:58 21.06.2020
989 Clear 21 1015 21 16093 3.1 170 14:37 21.06.2020
990 Clear 21 1015 21 16093 3.1 170 14:19 21.06.2020
991 Clear 21 1014 21 16093 2.6 190 13:55 21.06.2020
992 Clear 21 1014 21 16093 2.6 190 13:36 21.06.2020
993 Clear 21 1014 21 16093 2.6 190 13:18 21.06.2020
994 Clear 23 1014 18 16093 3.1 160 12:42 21.06.2020
995 Clear 23 1014 18 16093 3.1 160 12:23 21.06.2020
996 Clear 24 1014 22 16093 3.6 180 11:43 21.06.2020
997 Clear 24 1014 22 16093 3.6 180 11:25 21.06.2020
998 Clear 24 1014 17 16093 2.6 150 10:59 21.06.2020
999 Clear 27 1014 17 16093 2.6 150 10:40 21.06.2020
1000 Clear 26 1014 16 16093 2.6 150 10:22 21.06.2020
1001 Clear 27 1014 15 16093 2.6 220 09:55 21.06.2020
1002 Clear 29 1014 15 16093 2.6 220 09:36 21.06.2020
1003 Clear 29 1014 13 16093 3.1 270 09:18 21.06.2020
1004 Clear 30 1014 13 16093 3.1 270 08:41 21.06.2020
1005 Clear 30 1014 13 16093 3.1 270 08:21 21.06.2020
1006 Clear 30 1014 14 16093 4.1 270 07:59 21.06.2020
1007 Clear 31 1014 14 16093 4.1 270 07:40 21.06.2020
1008 Clear 32 1013 13 16093 4.1 320 07:20 21.06.2020
1009 Clear 32 1014 11 16093 5.1 270 07:20 21.06.2020
1010 Clear 32 1013 13 16093 4.1 320 06:46 21.06.2020
1011 Clear 33 1012 9 16093 4.1 350 05:58 21.06.2020
1012 Clear 35 1012 8 16093 4.6 320 04:49 21.06.2020
1013 Clear 38 1012 8 16093 2.6 280 03:20 21.06.2020
1014 Clear 38 1012 6 16093 4.1 360 02:49 21.06.2020
1015 Clear 39 1013 6 16093 1.5 300 01:48 21.06.2020
1016 Clear 39 1013 6 16093 1.5 300 01:21 21.06.2020
1017 Clear 39 1013 6 16093 7.2 320 00:55 21.06.2020
1018 Clear 39 1013 6 16093 7.2 320 00:36 21.06.2020
1019 Clear 38 1013 6 16093 7.2 320 00:18 21.06.2020
1020 Clear 38 1014 6 16093 4.1 320 23:41 20.06.2020
1021 Clear 38 1014 6 16093 4.1 320 23:21 20.06.2020
1022 Clear 38 1015 6 16093 2.6 280 22:55 20.06.2020
1023 Clear 38 1015 6 16093 2.6 280 22:36 20.06.2020
1024 Clear 37 1015 6 16093 2.6 280 22:18 20.06.2020
1025 Clear 37 1016 3 16093 1.4 279 21:55 20.06.2020
1026 Clear 37 1016 3 16093 1.4 279 21:37 20.06.2020
1027 Clear 35 1016 5 16093 2.1 240 21:18 20.06.2020
1028 Clear 34 1016 6 16093 1.73 249 20:54 20.06.2020
1029 Clear 34 1016 6 16093 1.73 249 20:36 20.06.2020
1030 Clear 34 1016 6 16093 1.73 249 20:36 20.06.2020
1031 Clear 35 1017 3 16093 1.5 190 20:18 20.06.2020
1032 Clear 35 1017 3 16093 1.5 190 20:18 20.06.2020
1033 Clear 34 1017 5 16093 1.44 231 19:42 20.06.2020
1034 Clear 34 1017 5 16093 1.38 195 19:21 20.06.2020
1035 Clear 32 1017 8 16093 1.38 195 18:43 20.06.2020
1036 Clear 31 1017 8 16093 1.23 171 18:21 20.06.2020
1037 Clear 30 1017 10 16093 2.6 180 17:58 20.06.2020
1038 Clear 29 1017 10 16093 2.6 180 17:40 20.06.2020
1039 Clear 29 1017 10 16093 2.6 180 17:40 20.06.2020
1040 Clear 28 1017 9 16093 4.6 170 17:20 20.06.2020
1041 Clear 27 1016 12 16093 4.1 180 16:56 20.06.2020
1042 Clear 26 1016 12 16093 4.1 180 16:37 20.06.2020
1043 Clear 25 1016 12 16093 4.1 180 16:18 20.06.2020
1044 Clear 21 1016 14 16093 3.6 180 15:42 20.06.2020
1045 Clear 19 1015 17 16093 3.6 180 15:18 20.06.2020
1046 Clear 19 1015 17 16093 3.6 180 14:43 20.06.2020
1047 Clear 19 1015 17 16093 3.6 180 14:21 20.06.2020
1048 Clear 19 1014 16 16093 2.6 190 13:55 20.06.2020
1049 Clear 19 1014 16 16093 2.6 190 13:37 20.06.2020
1050 Clear 19 1014 16 16093 2.6 190 13:19 20.06.2020
1051 Clear 20 1014 15 16093 2.6 160 12:42 20.06.2020
1052 Clear 20 1014 15 16093 2.6 160 12:21 20.06.2020
1053 Clear 20 1014 14 16093 1.18 105 11:57 20.06.2020
1054 Clear 21 1014 14 16093 1.18 105 11:38 20.06.2020
1055 Clear 21 1014 14 16093 0.82 103 11:20 20.06.2020
1056 Clear 21 1014 14 16093 0.82 103 11:20 20.06.2020
1057 Clear 22 1014 12 16093 3.1 200 10:50 20.06.2020
1058 Clear 22 1014 12 16093 3.1 200 10:22 20.06.2020
1059 Clear 23 1014 13 16093 2.6 270 09:56 20.06.2020
1060 Clear 24 1014 13 16093 2.6 270 09:38 20.06.2020
1061 Clear 24 1014 13 16093 2.6 270 09:38 20.06.2020
1062 Clear 25 1014 13 16093 2.6 270 09:20 20.06.2020
1063 Clear 26 1014 11 16093 2.6 220 08:46 20.06.2020
1064 Clear 25 1014 11 16093 2.6 220 08:27 20.06.2020
1065 Clear 29 1014 9 16093 3.1 280 07:52 20.06.2020
1066 Clear 28 1014 9 16093 3.1 280 07:28 20.06.2020
1067 Clear 30 1013 7 16093 3.1 280 06:58 20.06.2020
1068 Clear 29 1013 7 16093 3.1 280 06:23 20.06.2020
1069 Clear 31 1012 6 16093 2.6 270 05:53 20.06.2020
1070 Clear 33 1011 8 0 1.34 0 04:58 20.06.2020
1071 Clear 37 1011 3 16093 4.6 280 02:50 20.06.2020
1072 Clear 38 1011 2 16093 5.7 280 01:48 20.06.2020
1073 Clear 38 1011 3 16093 4.6 280 00:57 20.06.2020
1074 Clear 38 1011 3 16093 4.6 280 00:21 20.06.2020
1075 Clear 37 1012 4 16093 3.6 320 23:56 19.06.2020
1076 Clear 37 1012 4 16093 3.6 320 23:56 19.06.2020
1077 Clear 37 1012 4 16093 3.6 320 23:37 19.06.2020
1078 Clear 37 1013 4 16093 4.5 243 23:18 19.06.2020
1079 Clear 36 1013 4 16093 4.5 243 22:41 19.06.2020
1080 Clear 36 1013 4 16093 2.95 244 22:22 19.06.2020
1081 Clear 35 1014 4 16093 2.1 260 21:58 19.06.2020
1082 Clear 35 1014 4 16093 2.1 260 21:38 19.06.2020
1083 Clear 34 1014 5 16093 4.1 30 21:18 19.06.2020
1084 Clear 34 1014 5 16093 3.1 290 20:58 19.06.2020
1085 Clear 34 1014 5 16093 3.1 290 20:40 19.06.2020
1086 Clear 33 1014 5 16093 2.1 30 20:21 19.06.2020
1087 Clear 33 1014 8 16093 2.15 232 19:57 19.06.2020
1088 Clear 32 1014 8 16093 2.15 232 19:38 19.06.2020
1089 Clear 32 1014 8 16093 2.53 212 19:19 19.06.2020
1090 Clear 31 1014 9 16093 1.5 110 18:41 19.06.2020
1091 Clear 29 1014 9 16093 1.5 110 18:21 19.06.2020
1092 Clear 29 1017 16 0 0.45 140 17:58 19.06.2020
1093 Clear 28 1006 14 0 2.06 173 17:38 19.06.2020
1094 Clear 27 1014 13 16093 2.1 180 17:20 19.06.2020
1095 Clear 25 1014 17 0 0.89 0 16:54 19.06.2020
1096 Clear 24 1014 14 16093 4.1 190 16:36 19.06.2020
1097 Clear 24 1014 14 16093 4.1 190 16:18 19.06.2020
1098 Clear 18 1014 17 16093 4.1 200 15:42 19.06.2020
1099 Clear 18 1013 17 16093 1.73 129 15:20 19.06.2020
1100 Clear 17 1013 17 16093 1.73 129 14:56 19.06.2020
1101 Clear 17 1013 17 16093 1.73 129 14:38 19.06.2020
1102 Clear 17 1013 17 16093 1.12 128 14:18 19.06.2020
1103 Clear 18 1013 16 16093 3.1 190 13:43 19.06.2020
1104 Clear 19 1013 16 16093 3.1 190 13:25 19.06.2020
1105 Clear 19 1013 16 16093 4.1 180 12:48 19.06.2020
1106 Clear 19 1013 16 16093 4.1 180 12:23 19.06.2020
1107 Clear 21 1013 14 16093 0.98 156 11:58 19.06.2020
1108 Clear 21 1013 14 16093 0.98 156 11:39 19.06.2020
1109 Clear 21 1013 14 16093 1.32 158 11:18 19.06.2020
1110 Clear 21 1013 14 16093 1.32 158 11:18 19.06.2020
1111 Clear 21 1013 12 16093 2.1 130 10:46 19.06.2020
1112 Clear 21 1013 12 16093 2.1 130 10:26 19.06.2020
1113 Clear 23 1013 12 16093 2.6 200 09:59 19.06.2020
1114 Clear 23 1013 12 16093 2.6 200 09:41 19.06.2020
1115 Clear 24 1013 12 16093 2.6 200 09:20 19.06.2020
1116 Clear 25 1013 9 16093 2.1 170 08:44 19.06.2020
1117 Clear 25 1013 9 16093 2.1 170 08:26 19.06.2020
1118 Clear 27 1013 9 16093 1.5 280 07:56 19.06.2020
1119 Clear 28 1013 8 16093 2.1 240 07:38 19.06.2020
1120 Clear 29 1012 7 16093 3.1 270 07:19 19.06.2020
1121 Clear 30 1012 7 16093 3.1 270 06:25 19.06.2020
1122 Clear 31 1011 6 16093 3.1 250 05:44 19.06.2020
1123 Clear 34 1011 4 16093 5.7 250 04:25 19.06.2020
1124 Clear 37 1010 3 16093 3.1 230 02:51 19.06.2020
1125 Clear 38 1011 3 16093 5.7 240 00:49 19.06.2020
1126 Clear 37 1011 4 16093 6.2 310 00:22 19.06.2020
1127 Clear 38 1012 5 16093 3.1 300 23:59 18.06.2020
1128 Clear 37 1012 5 16093 3.1 300 23:41 18.06.2020
1129 Clear 37 1012 5 16093 3.1 300 23:23 18.06.2020
1130 Clear 37 1013 5 16093 3.6 260 22:59 18.06.2020
1131 Clear 37 1012 8 16093 4.1 310 22:37 18.06.2020
1132 Clear 36 1012 8 16093 4.1 310 22:18 18.06.2020
1133 Clear 36 1012 8 16093 4.1 310 22:18 18.06.2020
1134 Clear 36 1014 7 16093 3.6 280 21:39 18.06.2020
1135 Clear 34 1014 7 16093 3.6 280 21:20 18.06.2020
1136 Clear 34 1014 7 16093 2.6 350 20:56 18.06.2020
1137 Clear 34 1014 7 16093 4.6 220 20:38 18.06.2020
1138 Clear 34 1014 7 16093 4.6 220 20:18 18.06.2020
1139 Clear 33 1015 9 16093 2.6 70 19:42 18.06.2020
1140 Clear 33 1015 9 16093 2.6 70 19:21 18.06.2020
1141 Clear 32 1015 9 16093 2.6 110 18:57 18.06.2020
1142 Clear 31 1015 9 16093 2.6 110 18:37 18.06.2020
1143 Clear 30 1015 9 16093 2.6 110 18:18 18.06.2020
1144 Clear 29 1015 13 16093 1.5 160 17:45 18.06.2020
1145 Clear 28 1015 13 16093 1.5 160 17:25 18.06.2020
1146 Clear 27 1015 17 0 0.89 129 16:56 18.06.2020
1147 Clear 26 1015 16 16093 4.6 180 16:37 18.06.2020
1148 Clear 25 1015 16 16093 4.6 180 16:18 18.06.2020
1149 Clear 21 1015 20 16093 4.1 170 15:55 18.06.2020
1150 Clear 20 1015 20 16093 4.1 170 15:37 18.06.2020
1151 Clear 19 1015 20 16093 4.1 170 15:18 18.06.2020
1152 Clear 18 1014 27 16093 2.1 200 14:41 18.06.2020
1153 Clear 18 1014 27 16093 2.1 200 14:23 18.06.2020
1154 Clear 19 1014 20 16093 3.1 170 13:56 18.06.2020
1155 Clear 19 1014 20 16093 3.1 170 13:38 18.06.2020
1156 Clear 19 1014 20 16093 3.1 170 13:19 18.06.2020
1157 Clear 20 1014 18 16093 1.77 151 12:55 18.06.2020
1158 Clear 21 1014 18 16093 1.77 151 12:36 18.06.2020
1159 Clear 21 1014 18 16093 2.13 152 12:18 18.06.2020
1160 Clear 22 1014 18 16093 2.13 152 11:44 18.06.2020
1161 Clear 22 1014 18 16093 2.64 147 11:21 18.06.2020
1162 Clear 23 1014 18 16093 4.6 180 10:41 18.06.2020
1163 Clear 23 1014 18 16093 4.6 180 10:20 18.06.2020
1164 Clear 25 1014 15 16093 3.1 150 09:57 18.06.2020
1165 Clear 24 1014 15 16093 3.1 150 09:39 18.06.2020
1166 Clear 24 1014 15 16093 3.1 150 09:39 18.06.2020
1167 Clear 24 1014 15 16093 3.1 150 09:21 18.06.2020
1168 Clear 26 1014 13 16093 2.6 170 08:40 18.06.2020
1169 Clear 26 1014 13 16093 2.6 170 08:21 18.06.2020
1170 Clear 28 1014 12 16093 2.6 270 07:47 18.06.2020
1171 Clear 29 1014 12 16093 2.6 270 07:27 18.06.2020
1172 Clear 30 1013 10 16093 3.6 270 06:59 18.06.2020
1173 Clear 30 1013 10 16093 3.6 270 06:20 18.06.2020
1174 Clear 34 1012 6 16093 6.2 250 04:25 18.06.2020
1175 Clear 37 1011 5 16093 5.1 220 02:51 18.06.2020
1176 Clear 38 1012 5 16093 8.2 250 01:29 18.06.2020
1177 Clear 38 1012 5 16093 6.7 230 00:57 18.06.2020
1178 Clear 38 1012 5 16093 6.7 230 00:38 18.06.2020
1179 Clear 38 1012 5 16093 6.7 230 00:20 18.06.2020
1180 Clear 38 1013 5 16093 6.7 250 23:43 17.06.2020
1181 Clear 38 1013 5 16093 6.7 250 23:21 17.06.2020
1182 Clouds 38 1013 6 16093 6.7 230 22:57 17.06.2020
1183 Clouds 38 1013 7 16093 6.7 240 22:38 17.06.2020
1184 Clouds 37 1013 7 16093 6.7 240 22:20 17.06.2020
1185 Clear 37 1014 6 16093 6.2 220 21:55 17.06.2020
1186 Clear 37 1014 7 16093 8.2 220 21:37 17.06.2020
1187 Clear 37 1014 7 16093 8.2 220 21:18 17.06.2020
1188 Clear 36 1014 8 16093 6.7 240 21:18 17.06.2020
1189 Clear 37 1014 7 16093 8.2 220 21:18 17.06.2020
1190 Clear 36 1014 8 16093 6.7 240 20:38 17.06.2020
1191 Clear 36 1014 8 16093 6.7 240 20:38 17.06.2020
1192 Clear 36 1014 8 16093 6.7 240 20:38 17.06.2020
1193 Clear 36 1014 8 16093 6.7 240 20:20 17.06.2020
1194 Clear 35 1014 9 16093 7.2 240 19:55 17.06.2020
1195 Clear 34 1014 9 16093 7.2 240 19:36 17.06.2020
1196 Clear 34 1014 9 16093 7.2 240 19:18 17.06.2020
1197 Clear 33 1014 12 0 2.68 200 18:41 17.06.2020
1198 Clear 31 1015 10 16093 5.1 260 18:23 17.06.2020
1199 Clear 31 1009 14 0 1.34 66 17:44 17.06.2020
1200 Clear 30 1016 10 16093 3.1 130 17:22 17.06.2020
1201 Clear 29 1015 12 16093 2.1 190 16:57 17.06.2020
1202 Clear 28 1015 12 16093 2.1 190 16:38 17.06.2020
1203 Clear 27 1015 12 16093 2.1 190 16:20 17.06.2020
1204 Clear 26 1014 16 16093 4.1 170 15:56 17.06.2020
1205 Clear 24 1014 16 16093 4.1 170 15:38 17.06.2020
1206 Clear 22 1014 16 16093 4.1 170 15:18 17.06.2020
1207 Clear 21 1014 16 16093 4.6 190 14:56 17.06.2020
1208 Clear 21 1014 16 16093 4.6 190 14:38 17.06.2020
1209 Clear 22 1014 16 16093 4.6 190 14:19 17.06.2020
1210 Clear 23 1014 15 16093 2.1 140 13:42 17.06.2020
1211 Clear 23 1014 15 16093 2.1 140 13:22 17.06.2020
1212 Clear 23 1014 13 16093 3.6 170 12:58 17.06.2020
1213 Clear 24 1014 13 16093 3.6 170 12:40 17.06.2020
1214 Clear 23 1014 13 16093 3.6 170 12:20 17.06.2020
1215 Clear 24 1014 7 16093 2.1 230 11:44 17.06.2020
1216 Clear 24 1014 7 16093 2.1 230 11:24 17.06.2020
1217 Clear 25 1014 9 16093 3.1 170 10:55 17.06.2020
1218 Clear 25 1014 9 16093 3.1 170 10:37 17.06.2020
1219 Clear 25 1014 9 16093 3.1 170 10:18 17.06.2020
1220 Clear 25 1014 9 16093 2.6 190 09:54 17.06.2020
1221 Clear 25 1014 9 16093 2.6 190 09:36 17.06.2020
1222 Clear 25 1014 9 16093 2.6 190 09:18 17.06.2020
1223 Clear 27 1014 10 16093 2.1 190 08:41 17.06.2020
1224 Clear 28 1014 10 16093 2.1 190 08:19 17.06.2020
1225 Clear 30 1013 11 16093 2.1 190 07:43 17.06.2020
1226 Clear 30 1013 11 16093 2.1 190 07:23 17.06.2020
1227 Clear 31 1013 8 16093 2.6 250 06:57 17.06.2020
1228 Clear 32 1013 8 16093 2.6 250 06:38 17.06.2020
1229 Clear 32 1013 8 16093 2.6 250 06:20 17.06.2020
1230 Clear 33 1012 8 16093 5.7 260 05:45 17.06.2020
1231 Clear 35 1011 8 16093 6.2 250 04:18 17.06.2020
1232 Clear 39 1011 7 16093 7.7 270 01:55 17.06.2020
1233 Clear 39 1011 10 16093 8.7 250 00:48 17.06.2020
1234 Clear 39 1011 12 16093 8.7 250 00:25 17.06.2020
1235 Clear 39 1012 12 16093 5.7 260 23:57 16.06.2020
1236 Clear 39 1012 9 16093 8.2 220 23:38 16.06.2020
1237 Clear 39 1012 9 16093 8.2 220 23:38 16.06.2020
1238 Clear 39 1012 9 16093 8.2 220 23:20 16.06.2020
1239 Clear 39 1013 9 16093 5.1 210 22:56 16.06.2020
1240 Clear 39 1013 11 16093 6.7 230 22:37 16.06.2020
1241 Clear 39 1013 11 16093 6.7 230 22:19 16.06.2020
1242 Clear 38 1013 10 16093 6.2 250 21:54 16.06.2020
1243 Clear 38 1014 13 16093 4.1 260 21:36 16.06.2020
1244 Clear 37 1014 13 16093 4.1 260 21:18 16.06.2020
1245 Clear 37 1014 19 16093 3.6 290 20:42 16.06.2020
1246 Clear 36 1014 19 16093 3.6 290 20:19 16.06.2020
1247 Clear 36 1005 22 0 0.45 352 19:58 16.06.2020
1248 Clear 35 1015 23 16093 3.1 170 19:39 16.06.2020
1249 Clear 35 1015 23 16093 3.1 170 19:21 16.06.2020
1250 Clear 34 1016 22 16093 4.1 150 18:55 16.06.2020
1251 Clear 33 1015 27 16093 3.6 210 18:36 16.06.2020
1252 Clear 32 1015 28 16093 3.6 150 18:18 16.06.2020
1253 Clear 32 1016 25 16093 3.1 140 17:54 16.06.2020
1254 Clear 31 1016 25 16093 3.1 140 17:36 16.06.2020
1255 Clear 31 1016 25 16093 3.1 140 17:18 16.06.2020
1256 Clear 30 1015 30 0 1.34 107 16:42 16.06.2020
1257 Clear 30 1015 30 0 1.34 107 16:42 16.06.2020
1258 Clear 30 1015 30 16093 5.7 160 16:20 16.06.2020
1259 Clear 29 1015 33 0 0.89 0 15:58 16.06.2020
1260 Clear 29 1015 33 0 0.89 0 15:58 16.06.2020
1261 Clear 28 1015 35 0 0.89 0 15:40 16.06.2020
1262 Clear 27 1015 36 16093 6.2 170 15:21 16.06.2020
1263 Clear 27 1015 36 16093 6.7 160 14:57 16.06.2020
1264 Clear 26 1015 36 16093 6.7 160 14:38 16.06.2020
1265 Clear 26 1015 36 16093 6.7 160 14:20 16.06.2020
1266 Clear 27 1015 34 16093 5.7 170 13:48 16.06.2020
1267 Clear 26 1015 34 16093 5.7 170 13:26 16.06.2020
1268 Clear 27 1014 34 16093 4.6 160 12:57 16.06.2020
1269 Clear 27 1014 34 16093 4.6 160 12:38 16.06.2020
1270 Clear 27 1014 34 16093 4.6 160 12:19 16.06.2020
1271 Clear 27 1015 39 16093 6.2 190 11:54 16.06.2020
1272 Clear 27 1015 39 16093 6.2 190 11:36 16.06.2020
1273 Clear 27 1015 39 16093 6.2 190 11:18 16.06.2020
1274 Clear 28 1015 36 16093 6.2 160 10:42 16.06.2020
1275 Clear 28 1015 36 16093 6.2 160 10:20 16.06.2020
1276 Clear 28 1015 36 16093 6.2 160 10:20 16.06.2020
1277 Clear 28 1015 30 16093 5.7 160 09:48 16.06.2020
1278 Clear 28 1015 30 16093 5.7 160 09:27 16.06.2020
1279 Clear 28 1015 30 16093 3.6 180 08:59 16.06.2020
1280 Clear 29 1015 30 16093 3.6 180 08:41 16.06.2020
1281 Clear 29 1015 30 16093 3.6 180 08:22 16.06.2020
1282 Clear 30 1015 30 16093 2.1 140 07:45 16.06.2020
1283 Clear 30 1015 30 16093 2.1 140 07:26 16.06.2020
1284 Clouds 31 1014 29 16093 6.75 115 06:44 16.06.2020
1285 Clouds 31 1014 29 16093 6.3 125 06:19 16.06.2020
1286 Clouds 33 1013 27 16093 7.2 160 05:26 16.06.2020
1287 Clouds 35 1013 21 16093 7.7 150 04:26 16.06.2020
1288 Clouds 39 1012 10 16093 5.1 280 02:47 16.06.2020
1289 Clouds 39 1012 11 16093 4.6 300 01:36 16.06.2020
1290 Clouds 40 1013 8 16093 6.2 270 00:58 16.06.2020
1291 Clear 39 1013 10 16093 7.2 210 00:29 16.06.2020
1292 Clouds 39 1013 11 14484 7.7 270 23:59 15.06.2020
1293 Clear 39 1014 15 16093 6.2 310 23:41 15.06.2020
1294 Clear 39 1014 15 16093 6.2 310 23:21 15.06.2020
1295 Clear 39 1014 15 16093 6.2 310 23:21 15.06.2020
1296 Clear 38 1015 14 16093 2.1 0 22:42 15.06.2020
1297 Clear 38 1015 14 16093 2.1 0 22:42 15.06.2020
1298 Clear 38 1015 14 16093 2.1 0 22:23 15.06.2020
1299 Clear 37 1016 16 16093 2.1 0 21:59 15.06.2020
1300 Clear 37 1016 16 16093 2.1 0 21:38 15.06.2020
1301 Clear 35 1016 20 12874 1.2 211 21:20 15.06.2020
1302 Clear 35 1016 23 16093 1.5 50 20:59 15.06.2020
1303 Clear 35 1016 23 16093 1.5 50 20:39 15.06.2020
1304 Clear 35 1016 23 16093 1.5 50 20:20 15.06.2020
1305 Clear 34 1017 22 16093 1.5 0 19:59 15.06.2020
1306 Clear 34 1017 22 16093 1.5 0 19:59 15.06.2020
1307 Clear 34 1017 22 16093 1.5 0 19:40 15.06.2020
1308 Clear 34 1017 22 16093 1.5 0 19:21 15.06.2020
1309 Clear 33 1016 27 0 0.89 192 18:57 15.06.2020
1310 Clear 33 1016 29 0 0.89 302 18:39 15.06.2020
1311 Clear 32 1017 31 16093 2.6 70 18:19 15.06.2020
1312 Clear 31 1017 20 16093 1.5 330 17:56 15.06.2020
1313 Clear 31 1017 20 16093 1.5 330 17:56 15.06.2020
1314 Clear 31 1017 20 16093 1.5 330 17:37 15.06.2020
1315 Clear 30 1017 30 16093 2.1 350 17:19 15.06.2020
1316 Clear 28 1016 30 16093 0.91 210 16:42 15.06.2020
1317 Clear 27 1016 30 16093 0.7 192 16:19 15.06.2020
1318 Clear 26 1016 38 16093 3.1 180 15:57 15.06.2020
1319 Clear 24 1016 38 16093 3.1 180 15:39 15.06.2020
1320 Clear 23 1016 38 16093 3.1 180 15:19 15.06.2020
1321 Clear 22 1015 31 16093 4.1 170 14:55 15.06.2020
1322 Clear 22 1015 31 16093 4.1 170 14:37 15.06.2020
1323 Clear 22 1015 23 16093 0.45 165 14:18 15.06.2020
1324 Clear 22 1015 23 16093 0.45 165 13:42 15.06.2020
1325 Clear 22 1015 23 16093 1.49 170 13:23 15.06.2020
1326 Clear 22 1015 16 16093 2.6 160 12:58 15.06.2020
1327 Clear 22 1015 16 16093 2.6 160 12:39 15.06.2020
1328 Clear 23 1014 19 16093 3.1 190 12:21 15.06.2020
1329 Clear 23 1014 19 16093 3.1 190 11:45 15.06.2020
1330 Clear 23 1014 19 16093 3.1 190 11:26 15.06.2020
1331 Clear 24 1014 17 16093 1.5 140 10:56 15.06.2020
1332 Clear 24 1014 17 16093 1.5 140 10:38 15.06.2020
1333 Clear 24 1014 17 16093 1.5 140 10:19 15.06.2020
1334 Clear 24 1014 17 16093 1.5 140 10:19 15.06.2020
1335 Clear 25 1014 16 16093 1.5 210 09:41 15.06.2020
1336 Clear 26 1014 16 16093 1.5 210 09:22 15.06.2020
1337 Clear 28 1014 14 16093 2.1 350 08:43 15.06.2020
1338 Clear 28 1014 14 16093 2.1 350 08:24 15.06.2020
1339 Clear 29 1014 12 16093 2.1 320 07:50 15.06.2020
1340 Clear 30 1014 12 16093 2.1 320 07:32 15.06.2020
1341 Clear 31 1012 11 16093 5.1 310 06:53 15.06.2020
1342 Clear 31 1012 11 16093 5.1 310 06:26 15.06.2020
1343 Clear 33 1011 14 16093 3.6 280 05:48 15.06.2020
1344 Clear 33 1011 14 16093 3.6 280 05:27 15.06.2020
1345 Clear 35 1010 11 16093 5.1 260 04:21 15.06.2020
1346 Clear 37 1010 9 16093 7.7 260 03:48 15.06.2020
1347 Clear 38 1010 8 16093 7.2 220 02:55 15.06.2020
1348 Clear 39 1011 10 14484 7.2 240 01:59 15.06.2020
1349 Clear 39 1011 10 14484 7.2 240 01:39 15.06.2020
1350 Clear 39 1011 10 14484 7.2 240 01:21 15.06.2020
1351 Clouds 39 1011 10 14484 6.7 240 00:40 15.06.2020
1352 Clouds 39 1011 10 14484 6.7 240 00:20 15.06.2020
1353 Clear 39 1011 11 14484 7.2 220 23:47 14.06.2020
1354 Clear 39 1012 13 14484 6.2 230 23:26 14.06.2020
1355 Clear 38 1012 14 14484 6.2 240 22:58 14.06.2020
1356 Clouds 38 1012 15 16093 8.2 270 22:40 14.06.2020
1357 Clear 38 1013 13 16093 6.7 250 22:21 14.06.2020
1358 Clear 38 1003 16 0 3.13 72 21:58 14.06.2020
1359 Clear 37 1013 16 16093 6.7 270 21:40 14.06.2020
1360 Clear 37 1013 16 16093 6.7 270 21:19 14.06.2020
1361 Clear 36 1014 15 16093 4.1 240 20:59 14.06.2020
1362 Clear 36 1014 13 16093 6.7 190 20:40 14.06.2020
1363 Clear 36 1014 15 16093 4.1 240 20:21 14.06.2020
1364 Clear 35 1014 14 16093 2.6 210 19:59 14.06.2020
1365 Clear 35 1014 14 16093 2.6 210 19:59 14.06.2020
1366 Clear 35 1014 14 16093 2.6 210 19:59 14.06.2020
1367 Clear 35 1013 15 0 1.34 327 19:40 14.06.2020
1368 Clear 35 1013 15 0 1.34 327 19:40 14.06.2020
1369 Clear 35 1013 15 0 1.34 327 19:40 14.06.2020
1370 Clear 34 1014 14 16093 2.6 210 19:20 14.06.2020
1371 Clear 34 1014 13 0 1.34 253 18:58 14.06.2020
1372 Clear 34 1014 13 0 1.34 253 18:58 14.06.2020
1373 Clear 33 1014 13 16093 2.6 130 18:40 14.06.2020
1374 Clear 32 1014 13 16093 2.6 130 18:21 14.06.2020
1375 Clear 31 1014 16 16093 1.5 150 17:58 14.06.2020
1376 Clear 30 1014 16 16093 1.5 150 17:39 14.06.2020
1377 Clear 30 1014 16 16093 1.5 150 17:20 14.06.2020
1378 Clear 29 1014 23 16093 1.13 202 16:57 14.06.2020
1379 Clear 28 1014 23 16093 1.13 202 16:38 14.06.2020
1380 Clear 28 1014 14 16093 0.97 185 16:19 14.06.2020
1381 Clear 23 1013 24 16093 2.6 130 15:41 14.06.2020
1382 Clear 21 1013 24 16093 2.6 130 15:20 14.06.2020
1383 Clear 21 1013 19 16093 4.1 130 14:59 14.06.2020
1384 Clear 21 1013 19 16093 4.1 130 14:41 14.06.2020
1385 Clear 22 1013 19 16093 4.1 130 14:22 14.06.2020
1386 Clear 22 1013 15 16093 3.6 150 13:58 14.06.2020
1387 Clear 22 1013 15 16093 3.6 150 13:40 14.06.2020
1388 Clear 22 1013 15 16093 3.6 150 13:21 14.06.2020
1389 Clear 22 1013 15 16093 3.6 150 13:21 14.06.2020
1390 Clear 22 1012 18 16093 1.66 131 12:57 14.06.2020
1391 Clear 22 1012 18 16093 1.66 131 12:38 14.06.2020
1392 Clear 23 1012 18 16093 1.34 133 12:20 14.06.2020
1393 Clear 23 1012 18 16093 1.34 133 12:20 14.06.2020
1394 Clouds 23 1012 12 16093 1.34 133 11:56 14.06.2020
1395 Clouds 24 1012 12 16093 1.34 133 11:38 14.06.2020
1396 Clouds 24 1012 12 16093 0.97 160 11:19 14.06.2020
1397 Clear 24 1012 11 16093 3.1 180 10:42 14.06.2020
1398 Clear 25 1012 11 16093 3.1 180 10:20 14.06.2020
1399 Clear 25 1012 9 16093 4.1 130 09:48 14.06.2020
1400 Clear 25 1012 9 16093 4.1 130 09:25 14.06.2020
1401 Clear 27 1012 8 16093 3.1 180 08:57 14.06.2020
1402 Clear 26 1012 8 16093 3.1 180 08:39 14.06.2020
1403 Clear 27 1012 8 16093 3.1 180 08:18 14.06.2020
1404 Clear 28 1012 6 16093 1.5 280 07:50 14.06.2020
1405 Clear 30 1012 6 16093 1.5 280 07:32 14.06.2020
1406 Clear 31 1011 6 16093 2.6 290 06:31 14.06.2020
1407 Clear 33 1010 8 16093 5.1 300 05:43 14.06.2020
1408 Clear 34 1010 10 0 2.68 0 04:55 14.06.2020
1409 Clear 35 1009 8 16093 7.2 290 04:30 14.06.2020
1410 Clear 38 1008 8 16093 6.7 250 03:23 14.06.2020
1411 Clear 39 1008 7 16093 5.7 230 02:27 14.06.2020
1412 Clouds 40 1009 7 16093 6.7 220 01:41 14.06.2020
1413 Clear 41 1009 7 16093 8.2 220 00:56 14.06.2020
1414 Clear 40 1009 7 16093 8.2 220 00:37 14.06.2020
1415 Clear 40 1009 7 16093 8.2 220 00:18 14.06.2020
1416 Clear 40 1011 7 16093 6.2 210 23:42 13.06.2020
1417 Clear 40 1011 7 16093 6.2 210 23:23 13.06.2020
1418 Clear 40 1011 7 16093 6.7 210 22:56 13.06.2020
1419 Clouds 40 1011 8 16093 7.7 230 22:37 13.06.2020
1420 Clear 40 1012 7 16093 6.7 180 22:18 13.06.2020
1421 Clear 39 1013 8 14484 6.7 240 21:43 13.06.2020
1422 Clear 39 1013 8 14484 6.7 240 21:25 13.06.2020
1423 Clear 38 1014 11 16093 5.1 220 21:00 13.06.2020
1424 Clear 38 1014 11 16093 5.1 220 20:41 13.06.2020
1425 Clear 37 1014 11 16093 7.2 160 20:19 13.06.2020
1426 Clear 36 1014 14 0 1.79 150 19:42 13.06.2020
1427 Clear 36 1014 14 16093 3.1 220 19:21 13.06.2020
1428 Clear 36 1014 14 16093 3.1 220 19:21 13.06.2020
1429 Clear 35 1015 17 16093 3.58 191 18:59 13.06.2020
1430 Clear 34 1015 17 16093 3.58 191 18:41 13.06.2020
1431 Clear 33 1015 17 16093 3.54 162 18:20 13.06.2020
1432 Clear 32 1015 15 16093 2.1 180 17:59 13.06.2020
1433 Clear 32 1015 15 16093 2.1 180 17:40 13.06.2020
1434 Clear 31 1015 15 16093 2.1 180 17:22 13.06.2020
1435 Clear 30 1015 26 16093 1.5 160 16:56 13.06.2020
1436 Clear 29 1015 26 16093 1.5 160 16:37 13.06.2020
1437 Clear 28 1015 26 16093 1.5 160 16:18 13.06.2020
1438 Clear 24 1015 25 16093 2.6 180 15:44 13.06.2020
1439 Clear 23 1015 25 16093 2.6 180 15:26 13.06.2020
1440 Clear 23 1014 25 16093 2.6 200 14:45 13.06.2020
1441 Clear 23 1014 29 16093 2.6 200 14:26 13.06.2020
1442 Clear 23 1014 17 16093 4.6 190 13:59 13.06.2020
1443 Clear 23 1014 17 16093 4.6 190 13:40 13.06.2020
1444 Clear 24 1014 17 16093 4.6 190 13:22 13.06.2020
1445 Clouds 25 1014 22 16093 1.5 180 12:44 13.06.2020
1446 Clouds 25 1014 22 16093 1.5 180 12:44 13.06.2020
1447 Clouds 26 1014 22 16093 1.5 180 12:26 13.06.2020
1448 Clouds 26 1014 15 14484 1.5 170 11:59 13.06.2020
1449 Clouds 26 1014 15 14484 1.5 170 11:39 13.06.2020
1450 Clouds 26 1015 15 16093 3.6 150 11:19 13.06.2020
1451 Clouds 27 1015 15 16093 3.6 150 10:56 13.06.2020
1452 Clouds 27 1015 15 16093 3.6 150 10:38 13.06.2020
1453 Clouds 27 1015 15 16093 3.6 150 10:18 13.06.2020
1454 Clouds 28 1015 15 16093 3.1 130 09:44 13.06.2020
1455 Clouds 28 1015 15 16093 3.1 130 09:22 13.06.2020
1456 Clouds 30 1015 25 16093 3.86 82 08:49 13.06.2020
1457 Clouds 30 1015 25 16093 3.86 82 08:30 13.06.2020
1458 Clouds 30 1015 25 16093 3.86 82 08:30 13.06.2020
1459 Clear 31 1015 12 16093 1.5 300 07:54 13.06.2020
1460 Clear 32 1015 12 16093 1.5 300 07:28 13.06.2020
1461 Clear 33 1015 9 16093 3.6 280 06:50 13.06.2020
1462 Clear 33 1015 9 16093 3.6 310 06:30 13.06.2020
1463 Clear 35 1014 8 16093 4.1 290 05:45 13.06.2020
1464 Clear 35 1014 8 16093 4.1 290 05:24 13.06.2020
1465 Clear 39 1013 7 16093 6.2 270 03:47 13.06.2020
1466 Clear 40 1013 7 16093 5.1 240 02:54 13.06.2020
1467 Clear 41 1013 7 16093 5.1 240 02:29 13.06.2020
1468 Clear 41 1014 8 16093 4.1 260 01:41 13.06.2020
1469 Clear 41 1014 8 16093 4.1 260 01:18 13.06.2020
1470 Clear 41 1015 8 16093 4.1 280 00:42 13.06.2020
1471 Clear 41 1015 8 16093 4.1 280 00:23 13.06.2020
1472 Clear 41 1016 8 16093 6.7 250 23:41 12.06.2020
1473 Clouds 41 1016 8 16093 7.2 240 23:19 12.06.2020
1474 Clouds 41 1016 8 16093 7.2 240 23:19 12.06.2020
1475 Clouds 41 1016 8 16093 7.2 240 22:56 12.06.2020
1476 Rain 41 1017 8 16093 5.1 290 22:38 12.06.2020
1477 Rain 40 1017 9 16093 5.1 290 22:18 12.06.2020
1478 Clear 40 1018 10 16093 3.6 210 21:44 12.06.2020
1479 Clear 38 1018 12 16093 4.1 250 21:24 12.06.2020
1480 Clear 38 1019 13 16093 4.1 250 20:58 12.06.2020
1481 Clear 38 1019 11 16093 4.6 220 20:39 12.06.2020
1482 Clear 38 1019 13 16093 4.1 250 20:20 12.06.2020
1483 Clear 37 1009 17 0 0.45 8 19:46 12.06.2020
1484 Clear 36 1019 19 16093 4.6 140 19:22 12.06.2020
1485 Clear 36 1019 19 0 0.89 96 18:59 12.06.2020
1486 Clear 35 1019 20 0 1.34 59 18:37 12.06.2020
1487 Clear 33 1020 19 16093 5.1 130 18:18 12.06.2020
1488 Clear 32 1020 25 16093 8.2 150 17:44 12.06.2020
1489 Clear 31 1020 25 16093 8.2 150 17:26 12.06.2020
1490 Clear 29 1011 27 0 4.33 103 16:47 12.06.2020
1491 Clear 27 1020 26 16093 3.1 170 16:24 12.06.2020
1492 Clear 26 1019 22 16093 3.1 180 15:59 12.06.2020
1493 Clear 25 1019 22 16093 3.1 180 15:41 12.06.2020
1494 Clear 23 1019 22 16093 3.1 180 15:19 12.06.2020
1495 Clear 22 1019 25 16093 4.1 130 14:42 12.06.2020
1496 Clear 22 1019 18 16093 3.6 130 14:22 12.06.2020
1497 Clear 22 1019 18 16093 3.6 130 13:57 12.06.2020
1498 Clear 22 1019 18 16093 3.6 130 13:39 12.06.2020
1499 Clear 23 1019 18 16093 3.1 160 13:18 12.06.2020
1500 Clear 23 1019 18 16093 3.1 160 12:40 12.06.2020
1501 Clear 23 1019 18 16093 3.1 160 12:40 12.06.2020
1502 Clear 24 1019 18 16093 3.1 160 12:19 12.06.2020
1503 Clear 24 1019 16 16093 2.1 150 11:49 12.06.2020
1504 Clear 24 1019 16 16093 2.1 150 11:23 12.06.2020
1505 Clear 25 1019 17 16093 3.6 210 10:58 12.06.2020
1506 Clear 25 1019 17 16093 3.6 210 10:40 12.06.2020
1507 Clear 25 1019 17 16093 3.6 210 10:21 12.06.2020
1508 Clear 26 1018 15 16093 3.6 190 09:44 12.06.2020
1509 Clear 28 1018 15 16093 3.6 190 09:21 12.06.2020
1510 Clear 30 1018 12 16093 1.5 310 08:43 12.06.2020
1511 Clear 30 1018 12 16093 1.5 310 08:24 12.06.2020
1512 Clear 32 1018 11 16093 3.6 280 07:43 12.06.2020
1513 Clear 32 1018 11 16093 3.6 280 07:24 12.06.2020
1514 Clear 31 1017 8 16093 1.5 260 06:44 12.06.2020
1515 Clear 32 1017 8 16093 1.5 260 06:24 12.06.2020
1516 Clear 33 1016 6 16093 2.6 310 05:50 12.06.2020
1517 Clear 34 1016 6 16093 2.6 310 05:26 12.06.2020
1518 Clouds 38 1015 7 16093 3.6 280 03:58 12.06.2020
1519 Clouds 40 1015 6 16093 4.6 330 02:43 12.06.2020
1520 Clouds 40 1015 7 16093 4.6 310 01:51 12.06.2020
1521 Clouds 40 1015 7 16093 4.6 310 01:21 12.06.2020
1522 Clear 40 1016 6 16093 3.6 340 00:41 12.06.2020
1523 Clear 40 1016 6 16093 3.6 340 00:22 12.06.2020
1524 Clear 40 1017 7 16093 2.64 242 23:58 11.06.2020
1525 Clear 40 1017 7 16093 2.64 242 23:39 11.06.2020
1526 Clear 39 1017 7 16093 1.08 249 23:20 11.06.2020
1527 Clear 39 1017 6 16093 3.1 320 22:56 11.06.2020
1528 Clear 39 1017 6 16093 3.1 320 22:38 11.06.2020
1529 Clear 39 1017 6 16093 3.1 320 22:38 11.06.2020
1530 Clear 39 1017 6 16093 3.1 320 22:19 11.06.2020
1531 Clear 39 1019 5 16093 3.1 270 21:43 11.06.2020
1532 Clear 37 1018 6 16093 2.1 90 21:20 11.06.2020
1533 Clear 36 1018 6 16093 2.1 120 20:58 11.06.2020
1534 Clear 36 1018 6 16093 2.1 120 20:40 11.06.2020
1535 Clear 36 1019 6 16093 2.1 40 20:21 11.06.2020
1536 Clear 35 1018 9 0 1.34 206 19:44 11.06.2020
1537 Clear 34 1018 7 16093 1.06 179 19:23 11.06.2020
1538 Clear 34 1018 11 0 0.45 204 18:57 11.06.2020
1539 Clear 32 1019 8 16093 1.06 179 18:39 11.06.2020
1540 Clear 32 1019 8 16093 1.06 179 18:39 11.06.2020
1541 Clear 32 1019 8 16093 1.42 179 18:20 11.06.2020
1542 Clear 31 1010 13 0 1.42 179 17:55 11.06.2020
1543 Clear 30 1019 10 16093 1.5 220 17:37 11.06.2020
1544 Clear 29 1019 10 16093 1.5 220 17:18 11.06.2020
1545 Clear 26 1018 12 16093 3.1 210 16:43 11.06.2020
1546 Clear 25 1018 12 16093 3.1 210 16:25 11.06.2020
1547 Clear 22 1017 18 16093 2.6 210 15:58 11.06.2020
1548 Clear 21 1017 18 16093 2.6 210 15:39 11.06.2020
1549 Clear 21 1017 18 16093 2.6 210 15:21 11.06.2020
1550 Clear 20 1017 15 16093 3.6 160 14:46 11.06.2020
1551 Clear 20 1017 15 16093 3.6 160 14:21 11.06.2020
1552 Clouds 20 1017 15 16093 3.1 180 13:57 11.06.2020
1553 Clouds 21 1017 15 16093 3.1 180 13:39 11.06.2020
1554 Clear 21 1016 14 16093 2.6 170 13:21 11.06.2020
1555 Clear 21 1016 14 16093 2.6 170 12:57 11.06.2020
1556 Clear 21 1016 14 16093 2.6 170 12:39 11.06.2020
1557 Clear 22 1016 14 16093 2.6 170 12:19 11.06.2020
1558 Clear 22 1016 14 16093 3.1 190 11:57 11.06.2020
1559 Clear 22 1016 14 16093 3.1 190 11:38 11.06.2020
1560 Clear 23 1016 14 16093 3.1 190 11:20 11.06.2020
1561 Clear 23 1016 12 16093 2.1 220 10:57 11.06.2020
1562 Clear 23 1016 12 16093 2.1 220 10:38 11.06.2020
1563 Clear 23 1016 12 16093 2.1 220 10:18 11.06.2020
1564 Clear 24 1016 12 16093 3.1 180 09:41 11.06.2020
1565 Clear 25 1016 12 16093 3.1 180 09:23 11.06.2020
1566 Clear 26 1016 11 16093 2.6 180 08:44 11.06.2020
1567 Clear 26 1016 11 16093 2.6 180 08:20 11.06.2020
1568 Clear 31 1016 7 16093 3.1 320 07:42 11.06.2020
1569 Clear 30 1016 7 16093 3.1 320 07:24 11.06.2020
1570 Clear 32 1015 7 16093 3.1 320 06:40 11.06.2020
1571 Clear 32 1015 7 16093 3.1 320 06:22 11.06.2020
1572 Clear 33 1014 7 16093 6.2 320 05:29 11.06.2020
1573 Clear 37 1013 5 16093 4.1 290 03:30 11.06.2020
1574 Clear 38 1013 5 16093 4.1 320 02:50 11.06.2020
1575 Clear 38 1013 5 16093 4.1 320 02:32 11.06.2020
1576 Clear 39 1014 5 16093 2.1 20 01:46 11.06.2020
1577 Clear 39 1014 5 16093 2.1 20 01:22 11.06.2020
1578 Clear 38 1015 5 12874 3.6 280 00:45 11.06.2020
1579 Clear 38 1015 5 12874 3.6 280 00:26 11.06.2020
1580 Clear 38 1015 6 16093 2.6 140 23:44 10.06.2020
1581 Clear 38 1015 6 16093 2.6 140 23:25 10.06.2020
1582 Clear 37 1017 5 16093 1.74 231 22:56 10.06.2020
1583 Clouds 37 1016 6 16093 3.6 50 22:37 10.06.2020
1584 Clouds 37 1016 6 16093 3.6 50 22:37 10.06.2020
1585 Clouds 37 1016 6 16093 3.6 50 22:19 10.06.2020
1586 Clear 37 1017 7 16093 2.6 0 21:55 10.06.2020
1587 Clear 36 1017 7 16093 2.6 0 21:37 10.06.2020
1588 Clouds 35 1017 5 14484 2.6 230 21:18 10.06.2020
1589 Clouds 35 1017 5 14484 2.6 230 21:18 10.06.2020
1590 Clear 35 1017 5 16093 1.94 203 20:56 10.06.2020
1591 Clear 35 1017 5 16093 1.94 203 20:38 10.06.2020
1592 Clear 34 1017 5 16093 2.08 167 20:19 10.06.2020
1593 Clear 33 1017 6 16093 3.1 70 19:40 10.06.2020
1594 Clear 32 1018 7 16093 2.26 149 19:19 10.06.2020
1595 Clear 31 1010 9 0 0.45 343 18:58 10.06.2020
1596 Clear 30 1018 8 16093 2.1 220 18:40 10.06.2020
1597 Clear 29 1018 8 16093 2.1 220 18:19 10.06.2020
1598 Clear 27 1018 9 16093 3.1 180 17:55 10.06.2020
1599 Clear 27 1018 9 16093 3.1 180 17:37 10.06.2020
1600 Clear 25 1018 9 16093 3.1 180 17:18 10.06.2020
1601 Clear 24 1018 11 16093 4.1 160 16:56 10.06.2020
1602 Clear 23 1018 11 16093 4.1 160 16:38 10.06.2020
1603 Clear 21 1018 11 16093 4.1 160 16:18 10.06.2020
1604 Clear 18 1017 16 16093 3.1 170 15:40 10.06.2020
1605 Clear 18 1017 16 16093 3.1 170 15:40 10.06.2020
1606 Clear 17 1017 16 16093 3.1 170 15:21 10.06.2020
1607 Clear 16 1017 14 16093 3.1 160 14:56 10.06.2020
1608 Clear 16 1017 14 16093 3.1 160 14:37 10.06.2020
1609 Clear 16 1017 14 16093 3.1 160 14:19 10.06.2020
1610 Clear 17 1017 14 16093 3.6 160 13:40 10.06.2020
1611 Clear 17 1017 14 16093 3.6 160 13:21 10.06.2020
1612 Clear 17 1017 13 16093 3.6 150 12:43 10.06.2020
1613 Clear 17 1017 13 16093 3.6 150 12:20 10.06.2020
1614 Clear 18 1017 15 16093 3.6 130 11:57 10.06.2020
1615 Clear 18 1017 15 16093 3.6 130 11:39 10.06.2020
1616 Clear 18 1017 15 16093 3.6 130 11:19 10.06.2020
1617 Clear 18 1017 15 16093 3.6 130 11:19 10.06.2020
1618 Clear 19 1017 13 16093 3.6 140 10:55 10.06.2020
1619 Clear 19 1017 13 16093 3.6 140 10:36 10.06.2020
1620 Clear 19 1017 13 16093 3.6 140 10:18 10.06.2020
1621 Rain 20 1017 12 16093 3.1 170 09:40 10.06.2020
1622 Rain 21 1017 12 16093 3.1 170 09:22 10.06.2020
1623 Rain 22 1017 11 16093 2.6 290 08:44 10.06.2020
1624 Clear 22 1017 11 16093 2.6 290 08:23 10.06.2020
1625 Clear 23 1017 9 16093 4.6 320 07:54 10.06.2020
1626 Clear 23 1017 9 16093 4.6 320 07:36 10.06.2020
1627 Clear 23 1017 9 16093 4.6 320 07:18 10.06.2020
1628 Clear 25 1016 7 16093 4.1 310 06:44 10.06.2020
1629 Clear 26 1016 7 16093 4.1 310 06:20 10.06.2020
1630 Clear 27 1016 7 16093 6.2 330 05:55 10.06.2020
1631 Clear 27 1016 7 16093 6.2 330 05:23 10.06.2020
1632 Clear 29 1015 6 16093 6.7 330 04:32 10.06.2020
1633 Clear 32 1015 4 16093 3.6 310 02:50 10.06.2020
1634 Clear 33 1016 3 16093 2.42 302 01:54 10.06.2020
1635 Clear 33 1016 3 16093 2.31 293 01:31 10.06.2020
1636 Clear 33 1016 2 16093 1.5 320 00:39 10.06.2020
1637 Clear 32 1016 2 16093 1.5 320 00:21 10.06.2020
1638 Clear 32 1018 2 16093 1.5 0 23:55 09.06.2020
1639 Clear 32 1018 2 16093 1.5 0 23:36 09.06.2020
1640 Clear 32 1017 2 16093 2 282 23:18 09.06.2020
1641 Clouds 31 1018 5 16093 2.6 360 22:54 09.06.2020
1642 Clear 31 1017 4 0 1.79 202 22:36 09.06.2020
1643 Clouds 31 1018 5 16093 2.6 360 22:18 09.06.2020
1644 Clear 30 1018 4 0 1.34 203 21:54 09.06.2020
1645 Clear 30 1018 5 16093 1.5 30 21:36 09.06.2020
1646 Clear 30 1018 5 16093 1.5 30 21:36 09.06.2020
1647 Clear 29 1018 5 16093 1.5 30 21:18 09.06.2020
1648 Clear 28 1019 5 16093 3.1 0 20:55 09.06.2020
1649 Clear 28 1019 5 16093 2.1 350 20:37 09.06.2020
1650 Clear 28 1019 5 16093 2.1 350 20:18 09.06.2020
1651 Clear 27 1019 4 16093 0.97 123 19:54 09.06.2020
1652 Clear 27 1019 4 16093 0.97 123 19:36 09.06.2020
1653 Clouds 26 1019 6 16093 1.5 100 19:18 09.06.2020
1654 Clear 25 1019 5 16093 1.5 70 18:42 09.06.2020
1655 Clear 24 1019 5 16093 1.5 70 18:24 09.06.2020
1656 Clear 23 1019 6 16093 3.6 80 17:57 09.06.2020
1657 Clear 23 1019 6 16093 3.6 80 17:38 09.06.2020
1658 Clear 22 1019 6 16093 3.6 80 17:20 09.06.2020
1659 Haze 21 1019 9 9656 1.5 160 16:46 09.06.2020
1660 Haze 20 1019 9 9656 1.5 160 16:28 09.06.2020
1661 Clear 17 1019 15 14484 4.1 120 15:59 09.06.2020
1662 Clear 15 1019 15 14484 4.1 120 15:39 09.06.2020
1663 Clear 15 1019 15 14484 4.1 120 15:21 09.06.2020
1664 Clear 14 1018 17 16093 2.6 90 14:55 09.06.2020
1665 Clear 14 1018 17 16093 2.6 90 14:37 09.06.2020
1666 Clear 14 1018 17 16093 2.6 90 14:18 09.06.2020
1667 Clear 15 1017 13 16093 1.5 110 13:43 09.06.2020
1668 Clear 15 1017 13 16093 1.5 110 13:21 09.06.2020
1669 Clear 15 1017 12 16093 3.1 90 12:59 09.06.2020
1670 Clear 15 1017 12 16093 3.1 90 12:41 09.06.2020
1671 Clear 16 1017 12 16093 3.1 90 12:19 09.06.2020
1672 Clear 16 1017 11 16093 3.6 110 11:55 09.06.2020
1673 Clear 16 1017 11 16093 3.6 110 11:37 09.06.2020
1674 Clear 17 1017 11 16093 3.6 110 11:19 09.06.2020
1675 Clear 17 1017 10 16093 2.6 200 10:44 09.06.2020
1676 Clear 17 1017 10 16093 2.6 200 10:25 09.06.2020
1677 Clear 18 1017 8 16093 3.6 230 09:44 09.06.2020
1678 Clear 19 1017 8 16093 3.6 230 09:25 09.06.2020
1679 Clear 19 1017 8 16093 2.6 280 08:58 09.06.2020
1680 Clear 21 1017 8 16093 2.6 280 08:39 09.06.2020
1681 Clear 21 1017 8 16093 2.6 280 08:20 09.06.2020
1682 Clear 22 1017 7 16093 3.6 310 07:40 09.06.2020
1683 Clear 22 1017 7 16093 3.6 310 07:21 09.06.2020
1684 Clear 23 1016 6 16093 7.7 320 06:54 09.06.2020
1685 Clear 23 1016 6 16093 7.7 320 06:35 09.06.2020
1686 Clear 25 1015 7 16093 8.2 330 05:36 09.06.2020
1687 Clear 27 1014 9 0 4.47 346 03:50 09.06.2020
1688 Clear 31 1013 14 16093 6.7 290 01:45 09.06.2020
1689 Clear 31 1013 14 16093 6.7 290 01:20 09.06.2020
1690 Clear 31 1013 13 16093 7.2 310 00:58 09.06.2020
1691 Clear 31 1013 13 16093 6.2 300 00:38 09.06.2020
1692 Clear 31 1013 15 16093 6.2 300 00:18 09.06.2020
1693 Clear 31 1013 14 16093 6.7 290 23:40 08.06.2020
1694 Clear 31 1014 15 16093 4.1 290 23:20 08.06.2020
1695 Clear 31 1014 19 16093 6.7 280 22:55 08.06.2020
1696 Clear 31 1014 18 16093 6.2 300 22:37 08.06.2020
1697 Clear 31 1015 16 16093 5.7 290 22:19 08.06.2020
1698 Clear 31 1015 16 16093 5.7 290 21:55 08.06.2020
1699 Clear 30 1015 16 16093 5.7 290 21:36 08.06.2020
1700 Clear 30 1015 18 16093 7.2 290 21:18 08.06.2020
1701 Clear 30 1015 18 16093 7.2 290 20:54 08.06.2020
1702 Clear 30 1015 18 16093 7.2 290 20:54 08.06.2020
1703 Clear 30 1015 18 16093 7.2 290 20:54 08.06.2020
1704 Clear 29 1015 18 16093 7.2 290 20:36 08.06.2020
1705 Clear 29 1014 21 16093 4.94 274 20:18 08.06.2020
1706 Clear 28 1014 21 16093 4.94 274 19:42 08.06.2020
1707 Clear 28 1014 27 0 2.24 19 19:20 08.06.2020
1708 Clear 27 1014 27 16093 1.5 0 18:42 08.06.2020
1709 Haze 25 1013 33 6437 5.1 240 18:20 08.06.2020
1710 Haze 25 1013 33 6437 5.1 240 18:20 08.06.2020
1711 Haze 26 1013 33 6437 5.1 240 17:57 08.06.2020
1712 Haze 25 1013 33 6437 5.1 240 17:39 08.06.2020
1713 Haze 25 1013 33 6437 5.1 240 17:21 08.06.2020
1714 Clear 24 1013 38 16093 2.1 210 16:57 08.06.2020
1715 Clear 24 1013 38 16093 2.1 210 16:39 08.06.2020
1716 Clear 24 1013 38 16093 2.1 210 16:20 08.06.2020
1717 Clear 24 1013 38 16093 2.1 210 16:20 08.06.2020
1718 Clear 22 1013 42 16093 2.1 180 15:42 08.06.2020
1719 Clear 21 1013 42 16093 2.1 180 15:21 08.06.2020
1720 Clear 19 1012 45 16093 3.6 160 14:57 08.06.2020
1721 Clear 19 1012 45 16093 3.6 160 14:38 08.06.2020
1722 Clear 19 1012 45 16093 3.6 160 14:18 08.06.2020
1723 Clear 20 1011 40 16093 2.1 150 13:42 08.06.2020
1724 Clear 20 1011 40 16093 2.1 150 13:21 08.06.2020
1725 Clear 22 1011 37 16093 2.1 150 12:42 08.06.2020
1726 Clear 21 1011 37 16093 2.1 150 12:20 08.06.2020
1727 Clear 21 1011 33 16093 2.1 150 11:58 08.06.2020
1728 Clear 21 1011 33 16093 2.1 150 11:40 08.06.2020
1729 Clear 22 1011 33 16093 2.1 150 11:21 08.06.2020
1730 Clear 22 1011 31 16093 2.83 190 10:56 08.06.2020
1731 Clear 22 1011 31 16093 2.83 190 10:37 08.06.2020
1732 Clear 22 1011 31 16093 1.77 197 10:19 08.06.2020
1733 Clear 22 1011 31 16093 1.77 197 10:19 08.06.2020
1734 Clear 24 1012 29 16093 2.6 290 09:47 08.06.2020
1735 Clear 24 1012 29 16093 2.6 290 09:23 08.06.2020
1736 Clear 25 1011 27 16093 2.1 280 08:50 08.06.2020
1737 Clear 25 1011 27 16093 2.1 280 08:25 08.06.2020
1738 Clear 26 1011 28 0 1.79 355 07:59 08.06.2020
1739 Clear 26 1011 22 16093 3.1 300 07:39 08.06.2020
1740 Clear 26 1011 22 16093 3.1 300 07:20 08.06.2020
1741 Clear 27 1010 23 16093 4.1 300 06:41 08.06.2020
1742 Clear 27 1010 23 16093 4.1 300 06:21 08.06.2020
1743 Clear 28 1009 20 16093 3.6 290 05:42 08.06.2020
1744 Clear 32 1009 14 16093 5.1 250 03:26 08.06.2020
1745 Clear 33 1009 15 16093 7.2 270 02:26 08.06.2020
1746 Clear 34 1009 13 16093 7.2 280 01:44 08.06.2020
1747 Clear 34 1009 12 16093 5.7 230 00:58 08.06.2020
1748 Clear 34 1009 13 16093 5.1 230 00:25 08.06.2020
1749 Clear 34 1010 15 16093 6.2 240 23:40 07.06.2020
1750 Clear 34 1010 15 16093 8.2 260 23:19 07.06.2020
1751 Clouds 34 1011 16 16093 5.7 280 22:58 07.06.2020
1752 Clouds 33 1011 16 16093 5.7 280 22:38 07.06.2020
1753 Clouds 33 1011 16 16093 5.7 280 22:18 07.06.2020
1754 Clouds 33 1011 14 16093 4.1 310 21:58 07.06.2020
1755 Clouds 32 1011 14 16093 4.1 310 21:37 07.06.2020
1756 Clouds 32 1011 14 16093 4.1 310 21:19 07.06.2020
1757 Clear 31 1011 16 16093 3.1 220 20:40 07.06.2020
1758 Clear 31 1011 16 16093 3.1 220 20:21 07.06.2020
1759 Clear 31 1012 16 16093 4.6 300 19:58 07.06.2020
1760 Clear 31 1012 16 16093 4.6 300 19:39 07.06.2020
1761 Clear 30 1011 17 16093 4.1 320 19:21 07.06.2020
1762 Clear 29 1011 17 16093 4.83 217 18:59 07.06.2020
1763 Clear 29 1011 17 16093 4.83 217 18:38 07.06.2020
1764 Clear 27 1011 17 16093 2.5 199 18:20 07.06.2020
1765 Clear 27 1012 19 16093 2.1 210 17:57 07.06.2020
1766 Clear 27 1012 19 16093 2.1 210 17:38 07.06.2020
1767 Clear 26 1012 19 16093 2.1 210 17:20 07.06.2020
1768 Clear 25 1011 27 16093 4.6 130 16:43 07.06.2020
1769 Clear 24 1011 27 16093 4.6 130 16:21 07.06.2020
1770 Clear 22 1011 34 16093 4.1 120 15:44 07.06.2020
1771 Clear 22 1011 34 16093 4.1 120 15:44 07.06.2020
1772 Clear 22 1011 34 16093 4.1 120 15:44 07.06.2020
1773 Clear 22 1011 34 16093 4.1 120 15:44 07.06.2020
1774 Clear 20 1011 34 16093 4.1 120 15:22 07.06.2020
1775 Clear 18 1011 34 16093 2.6 140 14:41 07.06.2020
1776 Clear 18 1011 34 16093 2.6 140 14:22 07.06.2020
1777 Clear 19 1010 34 16093 3.6 120 13:50 07.06.2020
1778 Clear 19 1010 34 16093 3.6 120 13:23 07.06.2020
1779 Clear 19 1010 32 16093 2.1 80 12:58 07.06.2020
1780 Clear 20 1010 32 16093 2.1 80 12:40 07.06.2020
1781 Clear 20 1010 32 16093 2.1 80 12:20 07.06.2020
1782 Clear 21 1010 28 16093 2.6 150 11:55 07.06.2020
1783 Clear 21 1010 28 16093 2.6 150 11:37 07.06.2020
1784 Clear 21 1010 28 16093 2.6 150 11:37 07.06.2020
1785 Clear 21 1010 28 16093 2.6 150 11:18 07.06.2020
1786 Clear 22 1010 24 16093 2.1 130 10:45 07.06.2020
1787 Clear 22 1010 24 16093 2.1 130 10:21 07.06.2020
1788 Clear 23 1010 26 16093 3.1 200 09:59 07.06.2020
1789 Clear 23 1010 26 16093 3.1 200 09:39 07.06.2020
1790 Clear 24 1010 26 16093 3.1 200 09:21 07.06.2020
1791 Clear 25 1011 22 16093 2.6 230 08:58 07.06.2020
1792 Clear 25 1011 22 16093 2.6 230 08:58 07.06.2020
1793 Clear 25 1011 22 16093 2.6 230 08:39 07.06.2020
1794 Clear 25 1011 22 16093 2.6 230 08:21 07.06.2020
1795 Clear 25 1011 22 16093 2.6 230 08:21 07.06.2020
1796 Clear 27 1011 18 16093 3.1 280 07:39 07.06.2020
1797 Clear 28 1010 18 16093 2.6 320 06:54 07.06.2020
1798 Clear 29 1009 14 16093 4.1 310 05:54 07.06.2020
1799 Clear 31 1009 11 16093 4.6 300 04:22 07.06.2020
1800 Clear 32 1008 11 16093 5.7 320 03:48 07.06.2020
1801 Clear 34 1009 9 16093 5.7 300 02:18 07.06.2020
1802 Clear 34 1009 9 16093 3.6 350 01:26 07.06.2020
1803 Clear 34 1010 9 16093 4.1 340 00:48 07.06.2020
1804 Clear 34 1010 9 16093 4.1 340 00:20 07.06.2020
1805 Clear 34 1010 9 16093 6.2 310 23:59 06.06.2020
1806 Clear 33 1010 9 16093 6.2 310 23:38 06.06.2020
1807 Clear 33 1011 9 16093 3.1 280 23:20 06.06.2020
1808 Clear 33 1011 9 16093 3.1 280 23:20 06.06.2020
1809 Clear 33 1012 11 16093 4.1 310 22:56 06.06.2020
1810 Clear 33 1012 11 16093 4.1 310 22:38 06.06.2020
1811 Clear 33 1012 11 16093 4.1 310 22:19 06.06.2020
1812 Clear 32 1013 11 16093 3.1 250 21:47 06.06.2020
1813 Clear 31 1012 13 16093 5.1 260 21:23 06.06.2020
1814 Clear 30 1013 17 16093 2.6 320 20:58 06.06.2020
1815 Clear 30 1012 16 0 1.34 322 20:40 06.06.2020
1816 Clear 29 1013 17 16093 2.6 320 20:19 06.06.2020
1817 Clear 28 1014 19 16093 3.6 360 19:57 06.06.2020
1818 Clear 28 1014 19 16093 3.6 360 19:38 06.06.2020
1819 Clear 27 1013 22 16093 3.6 320 19:20 06.06.2020
1820 Clear 27 1013 19 16093 3.6 310 18:55 06.06.2020
1821 Clear 26 1013 19 16093 3.6 310 18:36 06.06.2020
1822 Clear 25 1013 19 16093 3.6 310 18:18 06.06.2020
1823 Clear 25 1013 22 16093 3.6 320 17:41 06.06.2020
1824 Clear 24 1012 23 16093 3.1 130 17:20 06.06.2020
1825 Clear 24 1012 23 16093 3.1 130 16:55 06.06.2020
1826 Clear 24 1012 23 16093 3.1 130 16:37 06.06.2020
1827 Clear 23 1012 28 0 1.34 0 16:19 06.06.2020
1828 Clear 23 1011 28 16093 4.1 110 15:44 06.06.2020
1829 Clear 21 1011 28 16093 4.1 110 15:20 06.06.2020
1830 Clear 20 1011 24 16093 2.1 100 14:56 06.06.2020
1831 Clear 20 1011 24 16093 2.1 100 14:56 06.06.2020
1832 Clear 20 1011 24 16093 2.1 100 14:37 06.06.2020
1833 Clear 20 1011 24 16093 2.1 100 14:19 06.06.2020
1834 Clouds 22 1011 27 16093 2.6 230 13:45 06.06.2020
1835 Clouds 23 1010 22 16093 4.6 240 13:19 06.06.2020
1836 Clouds 23 1010 22 16093 4.6 240 12:55 06.06.2020
1837 Clouds 24 1010 22 16093 4.6 240 12:37 06.06.2020
1838 Clouds 24 1010 22 16093 4.6 240 12:18 06.06.2020
1839 Clouds 24 1008 33 16093 2.6 280 11:39 06.06.2020
1840 Clouds 24 1008 33 16093 2.6 280 11:20 06.06.2020
1841 Clouds 25 1008 27 16093 5.1 260 10:59 06.06.2020
1842 Clouds 25 1008 27 16093 5.1 260 10:59 06.06.2020
1843 Clouds 25 1008 27 16093 5.1 260 10:40 06.06.2020
1844 Clouds 25 1008 27 16093 5.1 260 10:21 06.06.2020
1845 Clouds 26 1008 24 16093 2.1 140 09:58 06.06.2020
1846 Clouds 26 1008 24 16093 2.1 140 09:40 06.06.2020
1847 Rain 28 1008 24 16093 2.1 140 09:21 06.06.2020
1848 Thunderstorm 30 1008 20 16093 3.1 120 08:43 06.06.2020
1849 Clouds 30 1008 17 16093 4.6 110 08:23 06.06.2020
1850 Clouds 31 1008 15 16093 5.1 180 07:49 06.06.2020
1851 Clear 31 1009 14 16093 4.1 160 07:23 06.06.2020
1852 Clear 31 1009 14 16093 4.1 160 07:23 06.06.2020
1853 Clouds 31 1007 15 16093 1.5 300 06:50 06.06.2020
1854 Clouds 32 1007 15 16093 1.5 300 06:31 06.06.2020
1855 Clouds 33 1007 17 16093 1.72 320 05:58 06.06.2020
1856 Clouds 33 1007 17 16093 2.95 292 05:30 06.06.2020
1857 Clouds 34 1006 15 16093 2.95 292 04:46 06.06.2020
1858 Clouds 36 1007 13 16093 2.6 190 02:52 06.06.2020
1859 Clouds 36 1007 14 16093 2.6 40 01:57 06.06.2020
1860 Clouds 35 1007 14 16093 2.6 40 01:19 06.06.2020
1861 Clouds 35 1008 13 16093 1.5 150 00:46 06.06.2020
1862 Clouds 36 1008 13 16093 1.5 150 00:27 06.06.2020
1863 Clouds 37 1009 12 16093 5.1 280 23:58 05.06.2020
1864 Clouds 37 1009 12 16093 5.1 280 23:39 05.06.2020
1865 Clouds 37 1009 12 16093 5.1 280 23:18 05.06.2020
1866 Clouds 38 1009 13 16093 4.6 280 22:55 05.06.2020
1867 Clouds 38 1009 13 16093 4.6 280 22:37 05.06.2020
1868 Clouds 38 1009 13 16093 4.6 280 22:18 05.06.2020
1869 Clouds 38 1009 13 16093 4.6 280 22:18 05.06.2020
1870 Clouds 38 1009 15 16093 3.1 360 21:41 05.06.2020
1871 Clouds 37 1009 15 16093 3.1 360 21:22 05.06.2020
1872 Clear 37 1010 13 16093 1.45 244 20:57 05.06.2020
1873 Clear 36 1010 13 16093 1.45 244 20:38 05.06.2020
1874 Clouds 35 1009 17 16093 3.1 320 20:20 05.06.2020
1875 Clouds 35 1010 18 16093 3.1 290 19:42 05.06.2020
1876 Clouds 35 1010 18 16093 3.1 290 19:23 05.06.2020
1877 Clouds 35 1010 15 16093 1.5 360 18:56 05.06.2020
1878 Clouds 35 1010 15 16093 1.5 360 18:38 05.06.2020
1879 Clouds 33 1010 15 16093 1.5 360 18:19 05.06.2020
1880 Clear 32 1010 17 16093 2.1 100 17:57 05.06.2020
1881 Clear 31 1010 17 16093 2.1 100 17:38 05.06.2020
1882 Clear 31 1010 17 16093 2.1 100 17:18 05.06.2020
1883 Clear 29 1010 23 16093 2.6 110 16:38 05.06.2020
1884 Clear 27 1010 23 16093 2.6 110 16:20 05.06.2020
1885 Clear 25 1010 29 16093 2.6 120 15:43 05.06.2020
1886 Clear 25 1010 29 16093 2.6 120 15:22 05.06.2020
1887 Clear 24 1009 29 16093 2.1 90 14:58 05.06.2020
1888 Clear 24 1009 29 16093 2.1 90 14:40 05.06.2020
1889 Clear 24 1009 29 16093 2.1 90 14:22 05.06.2020
1890 Clear 24 1009 27 16093 4.1 100 13:57 05.06.2020
1891 Clear 24 1009 27 16093 4.1 100 13:38 05.06.2020
1892 Clear 24 1009 27 16093 4.1 100 13:19 05.06.2020
1893 Clear 25 1009 29 16093 3.1 140 12:41 05.06.2020
1894 Clear 26 1009 29 16093 3.1 140 12:19 05.06.2020
1895 Clear 26 1009 26 16093 0.87 51 11:55 05.06.2020
1896 Clear 26 1009 26 16093 0.87 51 11:37 05.06.2020
1897 Clear 26 1009 26 16093 1.03 8 11:18 05.06.2020
1898 Clear 27 1009 26 16093 2.1 140 10:42 05.06.2020
1899 Clear 28 1009 26 16093 2.1 140 10:21 05.06.2020
1900 Clear 28 1010 24 16093 2.1 230 09:57 05.06.2020
1901 Clear 28 1010 24 16093 2.1 230 09:39 05.06.2020
1902 Clear 29 1010 24 16093 2.1 230 09:20 05.06.2020
1903 Clear 30 1010 19 16093 1.84 353 08:58 05.06.2020
1904 Clear 30 1010 19 16093 1.84 353 08:40 05.06.2020
1905 Clear 31 1010 19 16093 2.53 352 08:19 05.06.2020
1906 Clear 32 1010 21 16093 2.53 352 07:52 05.06.2020
1907 Clear 32 1010 21 16093 2.53 352 07:33 05.06.2020
1908 Clear 33 1009 16 16093 2.1 290 06:50 05.06.2020
1909 Clear 36 1008 11 16093 3.1 260 05:23 05.06.2020
1910 Clear 38 1008 12 16093 3.1 270 04:28 05.06.2020
1911 Clouds 39 1008 13 0 1.79 240 03:38 05.06.2020
1912 Clear 41 1008 9 16093 5.7 240 02:30 05.06.2020
1913 Clouds 41 1008 11 16093 7.7 260 01:59 05.06.2020
1914 Clear 41 1008 11 16093 5.13 222 01:33 05.06.2020
1915 Clouds 41 1009 11 16093 3.1 190 00:46 05.06.2020
1916 Clouds 40 1009 11 16093 3.1 190 00:22 05.06.2020
1917 Clouds 40 1010 12 16093 2.1 150 23:58 04.06.2020
1918 Clouds 40 1010 12 16093 2.1 150 23:40 04.06.2020
1919 Clouds 40 1010 12 16093 2.1 150 23:21 04.06.2020
1920 Clouds 39 1011 14 16093 2.1 350 22:42 04.06.2020
1921 Clear 40 1012 11 16093 2.1 0 22:21 04.06.2020
1922 Clouds 39 1002 14 0 2.36 239 21:58 04.06.2020
1923 -273 0 0 0 0 0 21:58 04.06.2020
1924 Clouds 39 1011 15 0 0.89 59 21:38 04.06.2020
1925 Clouds 37 1012 14 16093 2.1 340 21:20 04.06.2020
1926 Clear 37 1013 19 16093 1.76 253 20:57 04.06.2020
1927 Clear 37 1013 19 16093 1.76 253 20:38 04.06.2020
1928 Clear 36 1013 19 16093 1.55 262 20:19 04.06.2020
1929 Clear 36 1014 18 16093 1.55 262 19:55 04.06.2020
1930 Clear 35 1014 18 16093 1.55 262 19:36 04.06.2020
1931 Clouds 35 1013 22 0 1.34 300 19:18 04.06.2020
1932 Clear 34 1014 19 16093 2.1 0 18:38 04.06.2020
1933 Clear 33 1014 22 16093 1.5 310 18:20 04.06.2020
1934 Clear 33 1014 22 16093 1.5 310 18:20 04.06.2020
1935 Clear 31 1014 26 16093 1.04 254 17:44 04.06.2020
1936 Clear 30 1014 26 16093 0.8 204 17:24 04.06.2020
1937 Clear 29 1013 30 16093 3.1 160 16:59 04.06.2020
1938 Clear 29 1013 30 16093 3.1 160 16:40 04.06.2020
1939 Clear 28 1013 30 16093 3.1 160 16:20 04.06.2020
1940 Clear 28 1013 30 16093 3.1 160 16:20 04.06.2020
1941 Clear 25 1013 33 16093 2.6 120 15:44 04.06.2020
1942 Clear 25 1013 33 16093 2.6 120 15:26 04.06.2020
1943 Clear 24 1012 36 16093 3.6 120 14:42 04.06.2020
1944 Clear 24 1012 36 16093 3.6 120 14:24 04.06.2020
1945 Clear 25 1012 36 16093 2.1 150 13:59 04.06.2020
1946 Clear 25 1012 36 16093 2.1 150 13:59 04.06.2020
1947 Clear 25 1012 36 16093 2.1 150 13:40 04.06.2020
1948 Clear 25 1012 36 16093 2.1 150 13:21 04.06.2020
1949 Clear 25 1012 33 16093 3.1 130 12:59 04.06.2020
1950 Clear 25 1012 33 16093 3.1 130 12:41 04.06.2020
1951 Clear 26 1012 33 16093 3.1 130 12:22 04.06.2020
1952 Clear 26 1012 34 16093 2.6 130 11:55 04.06.2020
1953 Clear 26 1012 34 16093 2.6 130 11:37 04.06.2020
1954 Clear 26 1012 34 16093 2.6 130 11:19 04.06.2020
1955 Clear 28 1012 30 16093 2.6 130 10:41 04.06.2020
1956 Clear 28 1012 30 16093 2.6 130 10:23 04.06.2020
1957 Clear 30 1013 23 16093 1.57 335 09:57 04.06.2020
1958 Clear 30 1013 23 16093 1.57 335 09:38 04.06.2020
1959 Clear 30 1013 23 16093 1.58 332 09:20 04.06.2020
1960 Clear 31 1012 21 16093 3.1 270 08:42 04.06.2020
1961 Clear 32 1012 21 16093 3.1 270 08:24 04.06.2020
1962 Clear 33 1012 21 16093 5.1 270 07:46 04.06.2020
1963 Clear 33 1011 19 16093 2.6 310 07:22 04.06.2020
1964 Clear 34 1011 19 16093 2.6 310 06:42 04.06.2020
1965 Clear 34 1011 19 16093 2.6 310 06:23 04.06.2020
1966 Clear 35 1011 16 16093 3.6 330 05:34 04.06.2020
1967 Clear 38 1010 12 16093 4.1 330 03:54 04.06.2020
1968 Clear 40 1010 12 16093 3.6 320 02:38 04.06.2020
1969 Clear 40 1011 11 16093 6.2 330 01:42 04.06.2020
1970 Clear 40 1011 11 16093 6.2 330 01:19 04.06.2020
1971 Clear 40 1012 10 16093 2.1 0 00:28 04.06.2020
1972 Clear 39 1013 13 16093 2.1 300 23:41 03.06.2020
1973 Clear 39 1013 13 16093 2.1 300 23:20 03.06.2020
1974 Clouds 39 1013 13 16093 2.6 340 22:57 03.06.2020
1975 Clouds 38 1013 13 16093 2.6 340 22:38 03.06.2020
1976 Clouds 38 1013 13 16093 2.6 340 22:18 03.06.2020
1977 Clouds 38 1014 14 16093 2.6 260 21:56 03.06.2020
1978 Clouds 37 1014 14 16093 2.6 260 21:37 03.06.2020
1979 Clouds 37 1014 14 16093 2.6 260 21:19 03.06.2020
1980 Clear 36 1015 19 16093 2.1 260 20:43 03.06.2020
1981 Clear 36 1015 19 16093 2.1 260 20:21 03.06.2020
1982 Clear 34 1015 22 16093 2.13 276 19:58 03.06.2020
1983 Clear 34 1015 22 16093 2.13 276 19:40 03.06.2020
1984 Clear 34 1015 22 16093 2.03 271 19:21 03.06.2020
1985 Clear 34 1006 28 0 2.03 271 18:59 03.06.2020
1986 Clear 33 1016 25 16093 2.03 271 18:41 03.06.2020
1987 Clear 32 1016 25 16093 1.55 255 18:20 03.06.2020
1988 Clear 31 1015 30 0 0.89 122 17:45 03.06.2020
1989 Clear 30 1016 34 16093 2.1 120 17:23 03.06.2020
1990 Clear 29 1015 34 0 0.89 123 16:59 03.06.2020
1991 Clear 28 1009 41 0 0.89 112 16:41 03.06.2020
1992 Clear 27 1015 44 16093 3.6 130 16:20 03.06.2020
1993 Clear 24 1015 46 16093 3.6 130 15:55 03.06.2020
1994 Clear 24 1015 46 16093 3.6 130 15:37 03.06.2020
1995 Clear 23 1015 46 16093 3.6 130 15:18 03.06.2020
1996 Clear 22 1015 43 16093 2.1 140 14:44 03.06.2020
1997 Clear 23 1015 43 16093 2.1 140 14:24 03.06.2020
1998 Clear 23 1015 43 16093 3.6 110 13:40 03.06.2020
1999 Clear 23 1014 44 16093 3.1 160 13:22 03.06.2020
2000 Clear 23 1014 44 16093 3.1 160 12:57 03.06.2020
2001 Clear 24 1014 44 16093 3.1 160 12:39 03.06.2020
2002 Clear 25 1015 44 16093 2.6 150 12:19 03.06.2020
2003 Clear 25 1015 44 16093 2.6 150 11:44 03.06.2020
2004 Clear 25 1015 44 16093 2.6 150 11:25 03.06.2020
2005 Clear 26 1015 41 16093 2.6 150 10:44 03.06.2020
2006 Clear 26 1015 41 16093 2.6 150 10:25 03.06.2020
2007 Clear 26 1016 39 16093 3.1 160 09:58 03.06.2020
2008 Clear 27 1016 39 16093 3.1 160 09:37 03.06.2020
2009 Clear 28 1016 39 16093 3.1 160 09:18 03.06.2020
2010 Clear 29 1015 32 16093 2.6 240 08:47 03.06.2020
2011 Clear 29 1015 32 16093 2.6 240 08:22 03.06.2020
2012 Clear 30 1015 28 16093 3.6 270 07:50 03.06.2020
2013 Clear 30 1015 27 16093 2.6 270 07:24 03.06.2020
2014 Clear 31 1015 27 16093 2.6 270 06:59 03.06.2020
2015 Clear 31 1015 27 16093 2.6 270 06:41 03.06.2020
2016 Clear 32 1015 27 16093 2.6 270 06:21 03.06.2020
2017 Clear 33 1014 25 16093 3.1 250 05:44 03.06.2020
2018 Clear 35 1013 20 16093 3.6 240 04:19 03.06.2020
2019 Clouds 36 1013 18 16093 4.1 250 03:41 03.06.2020
2020 Clouds 38 1013 13 16093 5.7 210 02:33 03.06.2020
2021 Clouds 38 1013 13 16093 4.95 313 01:34 03.06.2020
2022 Clear 39 1013 14 16093 5.7 20 00:38 03.06.2020
2023 Clear 39 1013 14 16093 5.7 20 00:19 03.06.2020
2024 Clear 39 1014 14 16093 3.1 0 23:43 02.06.2020
2025 Clear 38 1014 17 16093 4.1 350 23:24 02.06.2020
2026 Clear 38 1015 14 16093 3.1 0 22:40 02.06.2020
2027 Clear 37 1014 19 16093 2.6 320 22:19 02.06.2020
2028 Clear 37 1016 15 16093 2.1 0 21:57 02.06.2020
2029 Clear 37 1016 15 16093 2.1 0 21:39 02.06.2020
2030 Clear 36 1015 20 16093 2.37 254 21:21 02.06.2020
2031 Clear 36 1015 20 16093 2.37 254 21:21 02.06.2020
2032 Clear 35 1016 22 16093 2.6 270 20:59 02.06.2020
2033 Clear 35 1016 17 16093 4.1 330 20:40 02.06.2020
2034 Clear 33 1016 22 16093 2.6 270 20:22 02.06.2020
2035 Clear 34 1017 21 16093 1.5 0 19:46 02.06.2020
2036 Clear 34 1017 21 16093 1.5 0 19:26 02.06.2020
2037 Clear 33 1017 23 16093 1.5 0 18:59 02.06.2020
2038 Clear 33 1017 23 16093 1.5 0 18:40 02.06.2020
2039 Clear 33 1017 23 16093 1.5 0 18:40 02.06.2020
2040 Clear 31 1017 23 16093 1.5 0 18:21 02.06.2020
2041 Clear 31 1017 30 16093 2.1 160 17:59 02.06.2020
2042 Clear 30 1017 30 16093 2.1 160 17:40 02.06.2020
2043 Clear 30 1017 30 16093 2.1 160 17:21 02.06.2020
2044 Clear 29 1017 36 0 1.68 312 16:56 02.06.2020
2045 Clear 28 1017 36 0 1.68 312 16:37 02.06.2020
2046 Clear 27 1017 36 16093 2.6 160 16:19 02.06.2020
2047 Clear 24 1016 53 16093 2.6 90 15:40 02.06.2020
2048 Clear 23 1016 53 16093 2.6 90 15:22 02.06.2020
2049 Clear 23 1016 49 16093 3.1 80 14:48 02.06.2020
2050 Clear 23 1016 49 16093 3.1 80 14:28 02.06.2020
2051 Clouds 24 1016 41 16093 4.6 210 13:57 02.06.2020
2052 Clouds 24 1016 41 16093 4.6 210 13:37 02.06.2020
2053 Rain 24 1016 41 16093 4.6 210 13:19 02.06.2020
2054 Rain 24 1016 49 16093 3.1 170 12:57 02.06.2020
2055 Rain 24 1016 49 16093 3.1 170 12:38 02.06.2020
2056 Clouds 24 1016 49 16093 3.1 170 12:20 02.06.2020
2057 Clouds 24 1015 50 16093 4.1 130 11:43 02.06.2020
2058 Clouds 24 1015 50 16093 4.1 130 11:24 02.06.2020
2059 Clouds 24 1016 38 16093 4.6 170 10:59 02.06.2020
2060 Clouds 24 1016 38 16093 4.6 170 10:41 02.06.2020
2061 Clouds 24 1016 38 16093 4.6 170 10:41 02.06.2020
2062 Clouds 25 1016 38 16093 4.6 170 10:22 02.06.2020
2063 Clear 25 1015 44 16093 3.6 160 09:43 02.06.2020
2064 Clear 25 1015 47 16093 3.6 130 09:21 02.06.2020
2065 Clear 26 1015 47 16093 3.6 130 08:57 02.06.2020
2066 Clear 26 1015 47 16093 3.6 130 08:29 02.06.2020
2067 Clear 27 1016 30 16093 3.6 180 07:59 02.06.2020
2068 Clear 27 1016 30 16093 3.6 180 07:39 02.06.2020
2069 Clouds 27 1015 32 16093 2.6 30 07:19 02.06.2020
2070 Clouds 28 1015 32 16093 2.6 30 06:43 02.06.2020
2071 Clouds 29 1014 34 16093 3.6 110 05:45 02.06.2020
2072 Rain 30 1013 37 16093 3.6 100 04:52 02.06.2020
2073 Rain 31 1013 39 9656 7.2 240 03:19 02.06.2020
2074 Thunderstorm 34 1012 18 16093 6.2 220 02:18 02.06.2020
2075 Clear 38 1012 14 16093 2.6 300 00:51 02.06.2020
2076 Clear 37 1012 14 16093 2.6 300 00:22 02.06.2020
2077 Clear 37 1013 16 16093 1.5 340 23:39 01.06.2020
2078 Clear 37 1013 16 16093 1.5 340 23:20 01.06.2020
2079 Clear 37 1015 17 16093 2.1 0 22:58 01.06.2020
2080 Clear 37 1015 17 16093 2.1 0 22:39 01.06.2020
2081 Haze 37 1014 19 6437 1.5 310 22:19 01.06.2020
2082 Clear 36 1015 21 16093 1.5 300 21:42 01.06.2020
2083 Clear 35 1015 21 16093 1.5 300 21:22 01.06.2020
2084 Clear 34 1016 24 16093 1.5 20 20:59 01.06.2020
2085 Clear 34 1016 24 16093 1.5 20 20:41 01.06.2020
2086 Clear 34 1016 21 16093 2.1 0 20:20 01.06.2020
2087 Clear 33 1016 27 16093 0.95 201 19:58 01.06.2020
2088 Clear 33 1016 27 16093 0.95 201 19:58 01.06.2020
2089 Clear 33 1016 27 16093 0.95 201 19:39 01.06.2020
2090 Clear 32 1016 27 16093 0.89 188 19:20 01.06.2020
2091 Clear 32 1016 30 16093 2.6 120 18:57 01.06.2020
2092 Clear 31 1016 30 16093 2.6 120 18:38 01.06.2020
2093 Clear 30 1016 30 16093 2.6 120 18:19 01.06.2020
2094 Clear 29 1016 39 16093 1.5 140 17:41 01.06.2020
2095 Clear 28 1016 39 16093 1.5 140 17:21 01.06.2020
2096 Clear 28 1016 41 16093 3.1 120 16:58 01.06.2020
2097 Clear 27 1016 41 16093 3.1 120 16:39 01.06.2020
2098 Clear 27 1016 41 16093 3.1 120 16:19 01.06.2020
2099 Clear 25 1016 38 16093 3.1 120 15:54 01.06.2020
2100 Clear 24 1016 38 16093 2.1 90 15:36 01.06.2020
2101 Clear 23 1016 38 16093 2.1 90 15:18 01.06.2020
2102 Clear 22 1015 38 16093 2.6 100 14:41 01.06.2020
2103 Clear 23 1015 38 16093 2.6 100 14:23 01.06.2020
2104 Clear 23 1015 38 16093 3.6 60 13:58 01.06.2020
2105 Clear 24 1015 38 16093 3.6 60 13:39 01.06.2020
2106 Clear 24 1015 38 16093 3.6 60 13:20 01.06.2020
2107 Clouds 24 1015 38 16093 2.1 170 12:57 01.06.2020
2108 Clouds 24 1015 38 16093 2.1 170 12:39 01.06.2020
2109 Clouds 25 1015 41 16093 4.6 150 12:20 01.06.2020
2110 Clouds 24 1015 41 16093 4.6 150 11:41 01.06.2020
2111 Clouds 24 1015 41 16093 4.6 150 11:23 01.06.2020
2112 Haze 25 1014 38 6437 3.1 150 10:59 01.06.2020
2113 Haze 24 1014 38 6437 3.1 150 10:39 01.06.2020
2114 Haze 25 1014 38 6437 3.1 150 10:20 01.06.2020
2115 Clear 25 1014 33 16093 3.1 190 09:56 01.06.2020
2116 Clear 25 1014 33 16093 3.1 190 09:37 01.06.2020
2117 Clear 25 1014 33 16093 3.1 190 09:19 01.06.2020
2118 Clear 26 1014 29 16093 2 118 08:45 01.06.2020
2119 Clear 26 1014 29 16093 2.1 142 08:25 01.06.2020
2120 Clear 27 1014 28 16093 1.5 10 07:45 01.06.2020
2121 Clear 28 1014 28 16093 1.5 10 07:27 01.06.2020
2122 Clear 28 1013 26 16093 2.04 152 06:54 01.06.2020
2123 Clear 29 1013 26 16093 2.48 143 06:20 01.06.2020
2124 Clear 30 1013 25 16093 4.1 150 05:50 01.06.2020
2125 Clouds 32 1012 21 16093 5.7 140 04:23 01.06.2020
2126 Clouds 33 1012 21 16093 3.6 130 03:45 01.06.2020
2127 Clouds 32 1012 21 16093 3.6 130 03:18 01.06.2020
2128 Clouds 34 1011 18 16093 3.6 220 01:47 01.06.2020
2129 Clouds 34 1011 18 16093 3.6 220 01:28 01.06.2020
2130 Thunderstorm 35 1012 23 16093 5.7 220 00:57 01.06.2020
2131 Clouds 36 1011 18 16093 8.2 280 00:39 01.06.2020
2132 Clouds 37 1011 18 16093 8.2 280 00:20 01.06.2020
2133 Clear 37 1011 12 16093 2.1 300 23:54 31.05.2020
2134 Clear 37 1011 12 16093 2.1 300 23:36 31.05.2020
2135 Clear 37 1012 13 16093 2.1 30 23:18 31.05.2020
2136 Clear 38 1012 13 16093 2.1 30 22:42 31.05.2020
2137 Clear 38 1012 13 16093 2.1 30 22:42 31.05.2020
2138 Clear 38 1012 13 16093 2.1 30 22:24 31.05.2020
2139 Clouds 38 1013 15 16093 1.5 350 21:58 31.05.2020
2140 Clouds 37 1013 15 16093 1.5 350 21:39 31.05.2020
2141 Clouds 36 1013 15 16093 1.5 350 21:21 31.05.2020
2142 Clouds 36 1013 15 16093 1.5 350 21:21 31.05.2020
2143 Clouds 35 1014 17 16093 2.1 250 20:48 31.05.2020
2144 Clouds 36 1014 17 16093 2.1 250 20:25 31.05.2020
2145 Clouds 35 1013 19 0 0.89 203 19:57 31.05.2020
2146 Clouds 35 1013 22 0 0.89 319 19:38 31.05.2020
2147 Clear 34 1014 21 16093 3.6 210 19:20 31.05.2020
2148 Clear 34 1014 25 16093 2.1 200 18:58 31.05.2020
2149 Clear 33 1014 25 16093 2.1 200 18:39 31.05.2020
2150 Clear 31 1014 25 16093 2.1 200 18:21 31.05.2020
2151 Clear 31 1014 25 16093 2.1 200 18:21 31.05.2020
2152 Clear 30 1014 22 16093 1.5 160 17:42 31.05.2020
2153 Clear 30 1014 22 16093 1.5 160 17:24 31.05.2020
2154 Clear 28 1014 30 16093 4.1 110 16:42 31.05.2020
2155 Clear 28 1014 30 16093 4.1 110 16:22 31.05.2020
2156 Clear 26 1014 33 16093 2.6 130 15:57 31.05.2020
2157 Clear 25 1014 33 16093 4.1 120 15:37 31.05.2020
2158 Clear 24 1014 33 16093 4.1 120 15:19 31.05.2020
2159 Clear 24 1013 33 16093 1.5 80 14:42 31.05.2020
2160 Clear 24 1013 33 16093 1.5 80 14:19 31.05.2020
2161 Clouds 24 1013 29 16093 2.6 150 13:56 31.05.2020
2162 Clouds 25 1013 29 16093 2.6 150 13:37 31.05.2020
2163 Clouds 25 1013 29 16093 2.6 150 13:19 31.05.2020
2164 Clouds 25 1013 31 16093 3.1 140 12:46 31.05.2020
2165 Clouds 25 1013 31 16093 3.1 140 12:24 31.05.2020
2166 Clouds 26 1012 28 16093 3.1 60 11:59 31.05.2020
2167 Clouds 27 1012 28 16093 3.1 60 11:39 31.05.2020
2168 Clouds 26 1012 28 16093 3.1 60 11:21 31.05.2020
2169 Clouds 28 1013 26 16093 2.1 130 10:45 31.05.2020
2170 Clouds 27 1013 26 16093 2.1 130 10:27 31.05.2020
2171 Clouds 29 1013 26 16093 3.1 230 09:59 31.05.2020
2172 Clouds 29 1013 26 16093 3.1 230 09:41 31.05.2020
2173 Clouds 29 1013 26 16093 3.1 230 09:21 31.05.2020
2174 Clouds 30 1012 23 16093 2.1 120 08:43 31.05.2020
2175 Clouds 31 1012 23 16093 2.1 120 08:24 31.05.2020
2176 Clouds 31 1012 22 16093 3.1 360 07:52 31.05.2020
2177 Clouds 31 1012 22 16093 3.1 360 07:22 31.05.2020
2178 Clouds 31 1012 24 0 2.99 290 06:57 31.05.2020
2179 Clouds 31 1012 21 16093 2.99 290 06:36 31.05.2020
2180 Clouds 32 1013 22 16093 6.7 270 05:55 31.05.2020
2181 Clouds 32 1013 22 16093 6.7 270 05:37 31.05.2020
2182 Clouds 33 1012 16 16093 3.1 280 04:18 31.05.2020
2183 Clouds 34 1010 17 16093 4.6 260 03:44 31.05.2020
2184 Clouds 36 1010 10 16093 6.2 220 02:49 31.05.2020
2185 Clouds 35 1010 16 16093 5.7 240 01:46 31.05.2020
2186 Clouds 37 1011 13 16093 6.2 190 00:42 31.05.2020
2187 Clouds 38 1011 13 16093 6.2 190 00:24 31.05.2020
2188 Clouds 39 1011 11 16093 2.1 270 23:42 30.05.2020
2189 Clouds 39 1011 11 16093 2.1 270 23:24 30.05.2020
2190 Clouds 39 1012 14 16093 2.77 154 22:56 30.05.2020
2191 Clouds 39 1012 14 16093 2.77 154 22:38 30.05.2020
2192 Clouds 39 1012 14 16093 1.8 267 22:20 30.05.2020
2193 Clouds 38 1013 16 16093 2.1 210 21:43 30.05.2020
2194 Clouds 37 1013 16 16093 2.1 210 21:22 30.05.2020
2195 Clouds 37 1013 16 16093 2.1 210 21:22 30.05.2020
2196 Clouds 37 1014 17 16093 4.1 270 20:58 30.05.2020
2197 Clouds 37 1014 17 16093 4.1 270 20:39 30.05.2020
2198 Clouds 37 1014 17 16093 4.1 270 20:21 30.05.2020
2199 Clear 36 1014 17 16093 2.6 10 19:56 30.05.2020
2200 Clear 36 1014 17 16093 2.6 10 19:38 30.05.2020
2201 Clear 36 1014 17 16093 2.6 10 19:18 30.05.2020
2202 Clouds 34 1015 18 16093 1.14 188 18:43 30.05.2020
2203 Clouds 33 1015 18 16093 1.4 199 18:19 30.05.2020
2204 Clear 31 1015 23 16093 1.5 140 17:42 30.05.2020
2205 Clear 31 1015 23 16093 1.5 140 17:24 30.05.2020
2206 Rain 30 1017 27 0 1.34 142 16:58 30.05.2020
2207 Clouds 29 1015 28 16093 4.6 130 16:39 30.05.2020
2208 Rain 28 1014 30 0 1.79 177 16:20 30.05.2020
2209 Clouds 27 1015 31 16093 3.1 130 15:42 30.05.2020
2210 Clouds 25 1015 31 16093 3.1 130 15:24 30.05.2020
2211 Clear 24 1014 33 16093 1.5 90 14:44 30.05.2020
2212 Clear 24 1014 33 16093 1.5 90 14:25 30.05.2020
2213 Clear 25 1014 30 16093 4.6 120 13:44 30.05.2020
2214 Clear 25 1014 30 16093 4.6 120 13:24 30.05.2020
2215 Clouds 27 1014 28 16093 3.6 100 12:42 30.05.2020
2216 Clouds 27 1014 28 16093 3.6 100 12:21 30.05.2020
2217 Clouds 27 1014 26 16093 1.5 100 11:58 30.05.2020
2218 Clouds 28 1014 26 16093 1.5 100 11:40 30.05.2020
2219 Clouds 28 1014 26 16093 1.5 100 11:22 30.05.2020
2220 Clouds 28 1014 26 16093 1.5 100 11:22 30.05.2020
2221 Clouds 29 1015 23 16093 3.1 90 10:41 30.05.2020
2222 Clouds 29 1015 23 16093 3.1 90 10:21 30.05.2020
2223 Clear 30 1015 23 16093 2.09 90 09:51 30.05.2020
2224 Clear 31 1015 23 16093 1.97 79 09:33 30.05.2020
2225 Clouds 31 1015 18 16093 7.7 130 08:52 30.05.2020
2226 Clouds 32 1015 18 16093 7.7 130 08:33 30.05.2020
2227 Clear 31 1015 21 16093 3.1 90 07:50 30.05.2020
2228 Clear 32 1015 21 16093 3.1 90 07:27 30.05.2020
2229 Clouds 32 1014 19 16093 7.7 60 06:59 30.05.2020
2230 Clouds 32 1014 19 16093 7.7 60 06:25 30.05.2020
2231 Clouds 33 1014 19 16093 3.6 20 05:49 30.05.2020
2232 Clouds 34 1014 16 16093 6.2 50 04:21 30.05.2020
2233 Clouds 36 1014 15 16093 4.6 20 02:33 30.05.2020
2234 Clouds 36 1014 13 16093 5.1 40 01:52 30.05.2020
2235 Clouds 36 1013 16 11265 11.3 150 00:42 30.05.2020
2236 Clouds 37 1013 16 11265 11.3 150 00:21 30.05.2020
2237 Clear 39 1013 9 16093 5.51 196 23:58 29.05.2020
2238 Clear 40 1013 9 16093 5.51 196 23:38 29.05.2020
2239 Clear 41 1013 9 16093 2.71 103 23:19 29.05.2020
2240 Clear 41 1014 12 16093 5.1 90 22:42 29.05.2020
2241 Clear 41 1014 12 16093 5.1 90 22:21 29.05.2020
2242 Clear 40 1015 14 16093 6.2 90 21:59 29.05.2020
2243 Clear 41 1016 12 16093 4.6 90 21:39 29.05.2020
2244 Clear 40 1015 14 16093 6.2 90 21:20 29.05.2020
2245 Clear 39 1016 13 16093 5.7 100 20:54 29.05.2020
2246 Clear 39 1016 14 16093 4.6 150 20:36 29.05.2020
2247 Clear 38 1016 14 16093 4.6 150 20:18 29.05.2020
2248 Clear 37 1017 14 16093 1.5 50 19:42 29.05.2020
2249 Clear 36 1017 14 16093 1.5 50 19:23 29.05.2020
2250 Clear 35 1017 15 16093 6.39 103 18:47 29.05.2020
2251 Clear 33 1017 15 16093 5.92 94 18:21 29.05.2020
2252 Clear 32 1017 15 16093 2.6 150 17:57 29.05.2020
2253 Clear 32 1017 15 16093 2.6 150 17:38 29.05.2020
2254 -273 0 0 0 0 0 17:38 29.05.2020
2255 Clear 31 1017 15 16093 2.6 150 17:19 29.05.2020
2256 Clear 29 1017 19 16093 2.6 160 16:45 29.05.2020
2257 Clear 27 1017 19 16093 2.6 160 16:27 29.05.2020
2258 Clear 25 1017 16 16093 1.5 140 15:57 29.05.2020
2259 Clear 24 1017 16 16093 1.5 140 15:38 29.05.2020
2260 Clear 22 1017 15 16093 1.5 140 15:20 29.05.2020
2261 Clear 22 1016 15 16093 1.5 150 14:51 29.05.2020
2262 Clear 22 1016 16 16093 1.5 150 14:24 29.05.2020
2263 Clear 22 1016 24 16093 2.6 190 13:58 29.05.2020
2264 Clear 22 1016 24 16093 2.6 190 13:39 29.05.2020
2265 Clear 22 1016 24 16093 2.6 190 13:18 29.05.2020
2266 Clear 23 1016 23 16093 1.5 160 12:44 29.05.2020
2267 Clear 24 1016 23 16093 1.5 160 12:25 29.05.2020
2268 Clear 24 1016 20 16093 0.89 13 11:46 29.05.2020
2269 Clear 24 1016 20 16093 1.09 28 11:27 29.05.2020
2270 Clear 27 1016 18 16093 2.6 150 10:58 29.05.2020
2271 Clear 28 1016 18 16093 2.6 150 10:40 29.05.2020
2272 Clear 28 1016 18 16093 2.6 150 10:21 29.05.2020
2273 Clear 29 1015 15 16093 2.6 280 09:45 29.05.2020
2274 Clear 29 1015 15 16093 2.6 280 09:21 29.05.2020
2275 Clear 29 1015 14 16093 2.6 280 08:57 29.05.2020
2276 Clear 29 1015 14 16093 2.6 280 08:39 29.05.2020
2277 Clear 30 1015 14 16093 2.6 280 08:20 29.05.2020
2278 Clear 31 1015 12 16093 2.1 300 07:44 29.05.2020
2279 Clear 32 1015 12 16093 2.1 300 07:26 29.05.2020
2280 Clear 32 1014 12 16093 3.1 320 06:49 29.05.2020
2281 Clear 33 1014 11 16093 3.1 320 06:28 29.05.2020
2282 Clear 34 1014 9 16093 3.1 330 05:56 29.05.2020
2283 Clear 37 1012 10 0 2.24 319 03:55 29.05.2020
2284 Clear 40 1013 7 16093 4.6 350 01:47 29.05.2020
2285 Clear 40 1013 7 16093 4.6 350 01:25 29.05.2020
2286 Clear 40 1013 7 16093 4.6 350 01:25 29.05.2020
2287 Clear 40 1013 7 16093 6.2 340 00:47 29.05.2020
2288 Clear 39 1014 7 16093 4.1 330 00:22 29.05.2020
2289 Clear 39 1014 8 16093 8.2 330 23:41 28.05.2020
2290 Clear 39 1014 8 16093 8.2 330 23:19 28.05.2020
2291 Clear 39 1016 7 16093 5.7 360 22:45 28.05.2020
2292 Clouds 38 1015 8 16093 6.2 310 22:27 28.05.2020
2293 Clear 38 1016 6 16093 4.1 350 21:59 28.05.2020
2294 Clouds 38 1016 8 16093 3.1 300 21:40 28.05.2020
2295 Clouds 37 1016 8 16093 3.1 300 21:20 28.05.2020
2296 Clear 36 1016 10 16093 4.1 320 20:58 28.05.2020
2297 Clear 36 1016 10 16093 4.1 320 20:39 28.05.2020
2298 Clear 35 1016 10 16093 4.1 320 20:19 28.05.2020
2299 Clear 34 1017 9 16093 3.1 280 19:57 28.05.2020
2300 Clear 34 1017 9 16093 3.1 280 19:57 28.05.2020
2301 Clear 34 1017 11 16093 2.1 0 19:39 28.05.2020
2302 Clear 34 1017 11 16093 2.1 0 19:39 28.05.2020
2303 Clear 34 1017 11 16093 2.1 0 19:20 28.05.2020
2304 Clear 32 1017 11 16093 2.49 287 18:43 28.05.2020
2305 Clear 31 1017 13 16093 1.16 263 18:25 28.05.2020
2306 Clear 30 1016 17 16093 1.5 180 17:57 28.05.2020
2307 Clear 29 1016 17 16093 1.5 180 17:39 28.05.2020
2308 Clear 29 1016 17 16093 1.5 180 17:19 28.05.2020
2309 Clear 27 1016 14 16093 1.07 184 16:45 28.05.2020
2310 Clear 26 1016 15 16093 1.41 145 16:21 28.05.2020
2311 Clear 22 1015 15 16093 1.41 145 15:47 28.05.2020
2312 Clear 21 1015 18 16093 1.21 134 15:25 28.05.2020
2313 Clear 20 1015 22 16093 3.1 130 14:59 28.05.2020
2314 Clear 20 1015 22 16093 3.1 130 14:40 28.05.2020
2315 Clear 21 1015 22 16093 3.1 130 14:22 28.05.2020
2316 Clear 21 1015 22 16093 3.1 130 14:22 28.05.2020
2317 Clear 21 1015 21 16093 3.6 120 13:45 28.05.2020
2318 Clear 21 1015 21 16093 3.6 120 13:27 28.05.2020
2319 Clear 22 1014 21 16093 3.6 130 12:43 28.05.2020
2320 Clear 22 1014 18 16093 3.6 120 12:20 28.05.2020
2321 Clear 23 1014 18 16093 3.6 120 11:54 28.05.2020
2322 Clear 23 1014 18 16093 3.6 120 11:36 28.05.2020
2323 Clear 23 1014 18 16093 3.6 120 11:36 28.05.2020
2324 Clear 23 1014 18 16093 3.6 120 11:36 28.05.2020
2325 Clear 23 1014 18 16093 3.6 120 11:18 28.05.2020
2326 Clear 26 1014 19 16093 2.1 130 10:42 28.05.2020
2327 Clear 26 1014 19 16093 2.1 130 10:24 28.05.2020
2328 Clear 27 1014 17 16093 2.6 250 09:41 28.05.2020
2329 Clear 27 1014 17 16093 2.6 250 09:22 28.05.2020
2330 Clear 29 1014 12 16093 5.7 280 08:57 28.05.2020
2331 Clear 29 1014 12 16093 5.7 280 08:39 28.05.2020
2332 Clear 30 1014 12 16093 5.7 280 08:20 28.05.2020
2333 Clear 29 1013 13 16093 3.1 340 07:41 28.05.2020
2334 Clear 30 1013 13 16093 3.1 340 07:23 28.05.2020
2335 Clear 31 1013 12 16093 3.1 340 06:44 28.05.2020
2336 Clear 31 1013 12 16093 3.1 340 06:26 28.05.2020
2337 Clear 32 1012 10 16093 3.1 340 05:38 28.05.2020
2338 Clear 35 1012 7 16093 5.7 330 04:36 28.05.2020
2339 Clear 36 1011 7 16093 5.1 330 03:53 28.05.2020
2340 Clear 37 1011 7 16093 6.7 350 02:55 28.05.2020
2341 Clear 38 1011 7 16093 6.7 350 02:28 28.05.2020
2342 Clear 38 1012 6 12874 6.7 330 01:44 28.05.2020
2343 Clear 38 1012 6 14484 6.2 320 00:47 28.05.2020
2344 Clear 38 1012 6 16093 6.2 330 00:19 28.05.2020
2345 Clear 38 1013 7 16093 6.2 310 23:56 27.05.2020
2346 Clear 38 1013 7 16093 6.2 310 23:36 27.05.2020
2347 Clear 37 1013 7 16093 6.2 310 23:18 27.05.2020
2348 Clear 37 1014 7 16093 4.1 310 22:41 27.05.2020
2349 Clear 37 1014 7 16093 4.1 310 22:23 27.05.2020
2350 Clouds 36 1014 6 16093 5.1 330 21:56 27.05.2020
2351 Clouds 37 1014 6 16093 5.1 330 21:37 27.05.2020
2352 Clouds 35 1014 6 16093 5.1 330 21:19 27.05.2020
2353 Clear 35 1015 9 16093 3.6 290 20:57 27.05.2020
2354 Clear 35 1015 9 16093 3.6 290 20:38 27.05.2020
2355 Clear 34 1015 8 16093 2.6 0 20:18 27.05.2020
2356 Clear 33 1016 10 16093 2.82 285 19:43 27.05.2020
2357 Clear 33 1016 10 16093 1.85 262 19:20 27.05.2020
2358 Clear 32 1015 12 16093 1.85 262 18:45 27.05.2020
2359 Clear 30 1015 12 16093 1.11 210 18:20 27.05.2020
2360 Clear 29 1007 17 0 0.45 258 17:59 27.05.2020
2361 Clear 28 1015 16 16093 1.5 140 17:40 27.05.2020
2362 Clear 27 1015 16 16093 1.5 140 17:21 27.05.2020
2363 Clear 26 1015 18 16093 3.6 140 16:56 27.05.2020
2364 Clear 25 1015 18 16093 3.6 140 16:38 27.05.2020
2365 Clear 23 1015 19 16093 2.1 130 16:19 27.05.2020
2366 Clear 20 1015 19 16093 2.1 130 15:47 27.05.2020
2367 Clear 19 1015 19 16093 2.1 130 15:22 27.05.2020
2368 Clear 18 1014 19 16093 2.6 110 14:46 27.05.2020
2369 Clear 18 1014 19 16093 2.6 110 14:46 27.05.2020
2370 Clear 18 1014 19 16093 2.6 110 14:46 27.05.2020
2371 Clear 19 1014 19 16093 2.6 110 14:22 27.05.2020
2372 Clear 19 1014 19 16093 2.6 110 14:22 27.05.2020
2373 Clear 19 1014 17 16093 1.32 148 13:58 27.05.2020
2374 Clear 19 1014 17 16093 1.32 148 13:39 27.05.2020
2375 Clear 19 1014 17 16093 0.63 152 13:21 27.05.2020
2376 Clear 19 1014 17 16093 0.63 152 13:21 27.05.2020
2377 Clear 20 1014 18 16093 4.6 120 12:42 27.05.2020
2378 Clear 21 1014 18 16093 4.6 120 12:23 27.05.2020
2379 Clear 21 1014 18 16093 4.6 120 12:23 27.05.2020
2380 Clear 21 1014 18 16093 4.1 110 11:56 27.05.2020
2381 Clear 21 1014 18 16093 4.1 110 11:36 27.05.2020
2382 Clear 21 1014 15 16093 3.1 90 11:18 27.05.2020
2383 Clear 22 1014 15 16093 3.1 90 10:43 27.05.2020
2384 Clear 22 1014 15 16093 3.1 90 10:24 27.05.2020
2385 Clear 24 1014 14 16093 3.6 220 09:56 27.05.2020
2386 Clear 26 1014 14 16093 3.6 220 09:38 27.05.2020
2387 Clear 23 1014 14 16093 3.6 220 09:20 27.05.2020
2388 Clear 26 1014 11 16093 3.6 270 08:42 27.05.2020
2389 Clear 25 1014 11 16093 3.6 270 08:24 27.05.2020
2390 Clear 26 1013 9 16093 1.5 290 07:53 27.05.2020
2391 Clear 27 1013 9 16093 1.5 290 07:34 27.05.2020
2392 Clear 28 1012 8 16093 3.1 350 06:55 27.05.2020
2393 Clear 29 1012 8 16093 3.1 350 06:24 27.05.2020
2394 Clear 31 1012 6 16093 3.6 330 05:50 27.05.2020
2395 Clear 31 1012 6 16093 3.6 330 05:25 27.05.2020
2396 Clear 35 1011 5 16093 4.6 330 03:21 27.05.2020
2397 Clear 36 1012 4 16093 3.6 300 02:27 27.05.2020
2398 Clear 36 1012 5 16093 2.1 220 01:32 27.05.2020
2399 Clear 36 1012 5 16093 2.1 220 00:50 27.05.2020
2400 Clear 36 1012 5 16093 2.1 220 00:24 27.05.2020
2401 Clear 36 1013 6 16093 1.8 290 23:59 26.05.2020
2402 Clear 36 1013 5 16093 1.5 230 23:40 26.05.2020
2403 Clear 35 1013 6 16093 2.08 290 23:22 26.05.2020
2404 Clear 36 1013 5 16093 1.5 230 22:58 26.05.2020
2405 Clear 35 1013 5 16093 3.6 330 22:37 26.05.2020
2406 Clear 35 1014 5 16093 2.1 0 22:19 26.05.2020
2407 Clear 35 1014 5 16093 2.1 270 21:55 26.05.2020
2408 Clear 35 1014 5 16093 2.1 270 21:36 26.05.2020
2409 Clear 34 1014 5 16093 2.1 270 21:18 26.05.2020
2410 Clear 33 1014 6 16093 0.99 257 20:42 26.05.2020
2411 Clear 33 1014 6 16093 0.99 257 20:41 26.05.2020
2412 Clear 33 1014 6 16093 1.5 90 20:20 26.05.2020
2413 Clear 32 1014 6 16093 1.5 90 19:41 26.05.2020
2414 Clear 32 1014 6 16093 1.5 90 19:22 26.05.2020
2415 Clear 31 1015 9 16093 2.1 100 18:59 26.05.2020
2416 Clear 30 1015 9 16093 2.1 100 18:39 26.05.2020
2417 Clear 28 1015 9 16093 2.1 100 18:21 26.05.2020
2418 Clear 27 1015 13 16093 3.1 140 17:42 26.05.2020
2419 Clear 26 1015 13 16093 3.1 140 17:24 26.05.2020
2420 Clear 24 1014 19 0 0.89 174 16:55 26.05.2020
2421 Clear 23 1014 19 16093 3.1 120 16:36 26.05.2020
2422 Clear 22 1015 22 16093 5.1 150 16:18 26.05.2020
2423 Clear 18 1014 18 16093 3.6 120 15:41 26.05.2020
2424 Clear 17 1014 18 16093 3.6 120 15:20 26.05.2020
2425 Clear 17 1013 21 16093 3.1 110 14:56 26.05.2020
2426 Clear 16 1013 21 16093 3.1 110 14:37 26.05.2020
2427 Clear 17 1013 21 16093 3.1 110 14:18 26.05.2020
2428 Clear 17 1013 18 16093 1.5 340 13:41 26.05.2020
2429 Clear 17 1013 18 16093 1.5 340 13:23 26.05.2020
2430 Clear 17 1013 18 16093 3.1 130 12:44 26.05.2020
2431 Clear 18 1013 18 16093 3.1 130 12:23 26.05.2020
2432 Clear 19 1013 17 16093 3.6 110 11:59 26.05.2020
2433 Clear 19 1013 17 16093 3.6 110 11:41 26.05.2020
2434 Clear 19 1013 17 16093 3.6 110 11:20 26.05.2020
2435 Clear 19 1013 15 16093 3.6 130 10:47 26.05.2020
2436 Clear 20 1013 15 16093 3.6 130 10:19 26.05.2020
2437 Clear 20 1013 15 16093 3.6 170 09:57 26.05.2020
2438 Clear 20 1013 15 16093 3.6 170 09:57 26.05.2020
2439 Clear 20 1013 15 16093 3.6 170 09:37 26.05.2020
2440 Clear 21 1013 12 16093 2.6 180 09:18 26.05.2020
2441 Clear 21 1013 12 16093 2.1 220 08:40 26.05.2020
2442 Clear 21 1013 12 16093 2.1 220 08:22 26.05.2020
2443 Clear 24 1012 11 16093 1 351 07:42 26.05.2020
2444 Clear 24 1012 11 16093 1.76 356 07:23 26.05.2020
2445 Clear 27 1012 9 16093 3.6 340 06:52 26.05.2020
2446 Clear 27 1012 9 16093 3.6 340 06:52 26.05.2020
2447 Clear 26 1012 9 16093 3.6 340 06:28 26.05.2020
2448 Clear 26 1012 9 16093 3.6 340 06:28 26.05.2020
2449 Clear 28 1011 8 16093 4.1 340 05:42 26.05.2020
2450 Clear 28 1011 8 16093 4.1 340 05:18 26.05.2020
2451 Clear 29 1011 6 16093 4.1 330 04:47 26.05.2020
2452 Clear 30 1011 6 16093 4.1 330 04:28 26.05.2020
2453 Clear 32 1010 7 16093 4.1 330 03:45 26.05.2020
2454 Clear 32 1010 7 16093 4.1 330 03:45 26.05.2020
2455 Clear 33 1010 6 16093 4.6 340 02:34 26.05.2020
2456 Clear 33 1009 7 16093 4.1 330 01:43 26.05.2020
2457 Clear 33 1010 6 16093 3.6 310 00:40 26.05.2020
2458 Clear 33 1010 6 16093 3.6 310 00:40 26.05.2020
2459 Clear 33 1010 6 16093 3.6 310 00:21 26.05.2020
2460 Clear 33 1012 6 16093 2.1 0 23:59 25.05.2020
2461 Clear 33 1011 7 16093 1.5 320 23:39 25.05.2020
2462 Clear 33 1011 7 16093 1.5 320 23:20 25.05.2020
2463 Clear 32 1012 6 16093 1.5 310 22:56 25.05.2020
2464 Clear 32 1012 6 16093 1.5 310 22:56 25.05.2020
2465 Clear 32 1012 6 16093 1.5 310 22:37 25.05.2020
2466 Clear 32 1012 6 16093 1.5 310 22:37 25.05.2020
2467 Clear 32 1012 6 16093 1.5 310 22:19 25.05.2020
2468 Clear 31 1013 7 16093 2.09 274 21:58 25.05.2020
2469 Clear 32 1011 11 0 0.89 351 21:38 25.05.2020
2470 Clear 29 1013 11 16093 1.5 350 21:18 25.05.2020
2471 Clear 29 1013 11 16093 1.5 350 20:57 25.05.2020
2472 Clear 29 1013 11 16093 1.5 350 20:38 25.05.2020
2473 Clear 29 1013 11 16093 1.5 350 20:20 25.05.2020
2474 Clear 29 1013 11 16093 1.5 230 19:42 25.05.2020
2475 Clear 28 1013 11 16093 1.5 230 19:20 25.05.2020
2476 Clear 28 1014 14 16093 2.6 320 18:58 25.05.2020
2477 Clear 27 1014 14 16093 2.6 320 18:40 25.05.2020
2478 Clear 26 1013 15 16093 1.5 280 18:21 25.05.2020
2479 Clear 25 1013 23 16093 1.23 239 17:44 25.05.2020
2480 Clear 24 1013 23 16093 1.02 188 17:25 25.05.2020
2481 Clear 23 1013 25 0 1.34 0 16:58 25.05.2020
2482 Clear 23 1013 25 0 1.34 0 16:58 25.05.2020
2483 Clear 22 1012 20 16093 3.1 130 16:40 25.05.2020
2484 Clear 21 1012 22 16093 3.1 130 16:21 25.05.2020
2485 Clear 19 1012 29 16093 0.82 120 15:45 25.05.2020
2486 Clear 18 1012 29 16093 0.82 120 15:45 25.05.2020
2487 Clear 17 1012 29 16093 1.05 111 15:21 25.05.2020
2488 Clear 16 1012 29 16093 3.1 110 14:59 25.05.2020
2489 Clear 16 1012 29 16093 3.1 110 14:41 25.05.2020
2490 Clear 16 1012 29 16093 3.1 110 14:23 25.05.2020
2491 Clear 17 1011 27 16093 3.6 110 13:56 25.05.2020
2492 Clear 17 1011 27 16093 3.6 110 13:37 25.05.2020
2493 Clear 17 1011 27 16093 3.6 110 13:37 25.05.2020
2494 Clear 17 1011 27 16093 3.6 110 13:19 25.05.2020
2495 Clear 17 1011 28 16093 4.1 110 12:39 25.05.2020
2496 Clear 18 1011 28 16093 4.1 110 12:21 25.05.2020
2497 Clear 19 1012 23 16093 4.6 100 11:57 25.05.2020
2498 Clear 19 1012 23 16093 4.6 100 11:37 25.05.2020
2499 Clear 20 1012 28 16093 1.98 257 11:18 25.05.2020
2500 Clear 21 1012 28 16093 1.98 257 10:41 25.05.2020
2501 Clear 21 1012 27 16093 2.67 273 10:21 25.05.2020
2502 Clear 21 1012 15 16093 3.1 270 09:56 25.05.2020
2503 Clear 21 1012 15 16093 3.1 270 09:38 25.05.2020
2504 Clear 21 1012 15 16093 3.1 270 09:19 25.05.2020
2505 Clear 22 1011 11 16093 3.1 300 08:43 25.05.2020
2506 Clear 22 1011 11 16093 3.1 300 08:24 25.05.2020
2507 Clear 23 1011 11 16093 3.1 300 07:58 25.05.2020
2508 Clear 24 1011 11 16093 3.1 300 07:39 25.05.2020
2509 Clear 26 1011 9 16093 3.6 320 07:19 25.05.2020
2510 Clear 26 1011 9 16093 3.6 320 06:41 25.05.2020
2511 Clear 26 1011 9 16093 3.6 320 06:41 25.05.2020
2512 Clear 26 1011 9 16093 3.6 320 06:21 25.05.2020
2513 Clear 30 1009 8 16093 4.6 300 03:32 25.05.2020
2514 Clear 31 1009 8 16093 5.1 280 02:57 25.05.2020
2515 Clear 31 1009 8 16093 5.1 280 02:36 25.05.2020
2516 Clear 32 1010 9 16093 4.1 310 01:42 25.05.2020
2517 Clear 31 1011 8 16093 7.2 320 00:49 25.05.2020
2518 Clear 31 1011 10 16093 5.1 320 00:31 25.05.2020
2519 Clear 31 1012 11 16093 4.1 270 23:59 24.05.2020
2520 Clear 31 1012 11 16093 4.1 270 23:39 24.05.2020
2521 Clear 31 1012 11 16093 4.1 270 23:21 24.05.2020
2522 Clear 31 1012 12 16093 3.6 290 22:56 24.05.2020
2523 Clear 30 1012 12 16093 3.6 290 22:37 24.05.2020
2524 Clear 30 1012 12 16093 3.6 290 22:18 24.05.2020
2525 Clear 30 1012 12 16093 3.6 290 22:18 24.05.2020
2526 Clear 30 1013 13 16093 2.6 340 21:55 24.05.2020
2527 Clear 30 1013 13 16093 2.6 340 21:36 24.05.2020
2528 Clear 29 1013 13 16093 2.6 340 21:18 24.05.2020
2529 Clear 28 1013 15 16093 1.5 300 20:43 24.05.2020
2530 Clear 28 1013 15 16093 1.5 300 20:21 24.05.2020
2531 Clear 28 1014 15 16093 2.6 0 19:56 24.05.2020
2532 Clear 27 1014 15 16093 2.6 0 19:38 24.05.2020
2533 Clear 27 1014 15 16093 2.6 0 19:18 24.05.2020
2534 Clear 26 1013 21 0 0.45 81 18:42 24.05.2020
2535 Clear 24 1014 21 16093 1.64 198 18:23 24.05.2020
2536 Clear 24 1014 17 16093 3.6 140 17:57 24.05.2020
2537 Clear 24 1014 17 16093 3.6 140 17:38 24.05.2020
2538 Clear 23 1014 17 16093 3.6 140 17:19 24.05.2020
2539 Clear 22 1007 22 0 1.98 166 16:56 24.05.2020
2540 Clear 22 1013 19 16093 3.6 140 16:37 24.05.2020
2541 Clear 21 1013 19 16093 3.6 140 16:19 24.05.2020
2542 Clear 20 1013 23 16093 2.6 120 15:55 24.05.2020
2543 Clear 20 1013 23 16093 2.6 120 15:55 24.05.2020
2544 Clear 19 1013 23 16093 2.6 120 15:36 24.05.2020
2545 Clear 17 1013 23 16093 2.6 120 15:18 24.05.2020
2546 Clear 17 1013 23 16093 2.6 120 15:18 24.05.2020
2547 Clear 16 1012 25 16093 3.6 140 14:41 24.05.2020
2548 Clear 16 1012 25 16093 3.6 140 14:22 24.05.2020
2549 Clear 16 1012 25 16093 3.6 130 13:56 24.05.2020
2550 Clear 17 1012 25 16093 3.6 130 13:38 24.05.2020
2551 Clear 17 1012 25 16093 2.6 110 13:19 24.05.2020
2552 Clear 17 1012 25 16093 2.6 110 12:57 24.05.2020
2553 Clear 17 1012 25 16093 2.6 110 12:38 24.05.2020
2554 Clear 18 1012 25 16093 2.6 110 12:19 24.05.2020
2555 Clear 18 1012 22 16093 2.6 130 11:54 24.05.2020
2556 Clear 19 1012 22 16093 2.6 130 11:36 24.05.2020
2557 Clear 19 1012 22 16093 2.1 150 11:18 24.05.2020
2558 Clear 21 1012 22 16093 2.1 150 10:42 24.05.2020
2559 Clear 21 1012 22 16093 2.1 150 10:23 24.05.2020
2560 Clear 22 1012 26 16093 2.1 220 09:57 24.05.2020
2561 Clear 23 1013 20 16093 1.5 210 09:39 24.05.2020
2562 Clear 22 1012 24 16093 2.1 220 09:18 24.05.2020
2563 Clear 24 1012 23 16093 3.1 240 08:42 24.05.2020
2564 Clear 24 1012 21 16093 3.1 240 08:24 24.05.2020
2565 Clear 25 1011 21 16093 1.5 280 07:59 24.05.2020
2566 Clear 25 1011 21 16093 1.5 280 07:40 24.05.2020
2567 Clear 25 1011 20 16093 1.5 280 07:21 24.05.2020
2568 Clouds 26 1010 16 16093 5.1 300 06:39 24.05.2020
2569 Clear 27 1010 15 16093 6.7 280 05:50 24.05.2020
2570 Clouds 30 1009 12 0 2.68 0 03:57 24.05.2020
2571 Clouds 31 1008 11 0 2.24 307 03:37 24.05.2020
2572 Clear 32 1008 7 16093 6.7 260 02:24 24.05.2020
2573 Clear 33 1008 6 16093 7.2 280 01:18 24.05.2020
2574 Clear 33 1009 6 16093 5.7 220 00:37 24.05.2020
2575 Clear 33 1009 6 16093 5.7 220 00:19 24.05.2020
2576 Clear 33 1010 8 16093 4.1 250 23:39 23.05.2020
2577 Clear 33 1010 8 16093 4.1 250 23:20 23.05.2020
2578 Clear 33 1010 9 16093 7.2 210 22:55 23.05.2020
2579 Clear 32 1010 10 16093 2.6 200 22:37 23.05.2020
2580 Clear 32 1010 10 16093 2.6 200 22:19 23.05.2020
2581 Clear 31 1011 12 16093 3.1 270 21:56 23.05.2020
2582 Clear 31 1011 12 16093 3.1 270 21:36 23.05.2020
2583 Clear 31 1011 12 16093 3.1 270 21:18 23.05.2020
2584 Clear 30 1011 15 0 1.34 184 20:40 23.05.2020
2585 Clear 29 1012 14 16093 4.1 140 20:20 23.05.2020
2586 Clear 29 1012 11 16093 3.6 160 19:59 23.05.2020
2587 Clear 28 1012 11 16093 3.6 160 19:40 23.05.2020
2588 Clear 28 1012 11 16093 3.6 160 19:19 23.05.2020
2589 Clear 27 1012 16 0 1.79 182 18:42 23.05.2020
2590 Clear 25 1013 15 16093 1.5 160 18:23 23.05.2020
2591 Clear 25 1013 19 16093 3.6 150 17:58 23.05.2020
2592 Clear 25 1013 19 16093 3.6 150 17:40 23.05.2020
2593 Clear 24 1013 19 16093 3.6 150 17:21 23.05.2020
2594 Clear 23 1013 22 16093 3.6 120 16:59 23.05.2020
2595 Clear 23 1013 22 16093 3.6 120 16:41 23.05.2020
2596 Clear 23 1013 22 16093 3.6 120 16:41 23.05.2020
2597 Clear 22 1013 22 16093 3.6 120 16:20 23.05.2020
2598 Clear 21 1012 24 16093 2.6 110 15:57 23.05.2020
2599 Clear 21 1012 24 16093 2.6 110 15:57 23.05.2020
2600 Clear 19 1012 30 0 0.89 89 15:39 23.05.2020
2601 Clear 17 1012 26 16093 2.15 145 15:20 23.05.2020
2602 Clear 16 1012 26 16093 2.15 145 14:42 23.05.2020
2603 Clear 16 1012 26 16093 1.97 144 14:24 23.05.2020
2604 Clear 17 1012 27 16093 3.1 110 13:56 23.05.2020
2605 Clear 17 1012 27 16093 3.1 110 13:37 23.05.2020
2606 Clear 18 1011 29 16093 2.6 120 13:18 23.05.2020
2607 Clear 18 1011 29 16093 2.6 120 12:41 23.05.2020
2608 Clear 18 1011 29 16093 2.6 120 12:20 23.05.2020
2609 Clear 19 1012 27 16093 3.6 110 11:57 23.05.2020
2610 Clear 19 1012 27 16093 3.6 110 11:37 23.05.2020
2611 Clear 19 1012 27 16093 3.6 110 11:19 23.05.2020
2612 Clear 20 1012 24 16093 1.5 140 10:55 23.05.2020
2613 Clear 20 1012 24 16093 1.5 140 10:36 23.05.2020
2614 Clear 20 1012 24 16093 1.5 140 10:18 23.05.2020
2615 Clear 22 1012 19 16093 2.6 110 09:42 23.05.2020
2616 Clear 20 1012 19 16093 2.6 110 09:24 23.05.2020
2617 Clear 22 1012 19 16093 3.1 230 08:57 23.05.2020
2618 Clear 23 1012 19 16093 3.1 230 08:37 23.05.2020
2619 Clear 23 1012 18 16093 3.1 230 08:18 23.05.2020
2620 Clear 25 1011 17 16093 2.1 270 07:44 23.05.2020
2621 Clear 25 1011 17 16093 2.1 270 07:22 23.05.2020
2622 Clear 26 1010 11 16093 2.1 230 06:42 23.05.2020
2623 Clear 28 1009 8 16093 3.1 240 05:55 23.05.2020
2624 Clear 31 1009 6 16093 5.1 250 03:52 23.05.2020
2625 Clear 32 1009 6 16093 5.1 250 03:23 23.05.2020
2626 Clear 33 1009 6 16093 6.7 270 02:33 23.05.2020
2627 Clear 33 1009 6 16093 5.7 230 01:46 23.05.2020
2628 Clear 34 1009 6 16093 7.2 240 01:18 23.05.2020
2629 Clear 34 1010 7 16093 3.6 210 00:41 23.05.2020
2630 Clear 33 1011 6 16093 3.6 260 23:59 22.05.2020
2631 Clear 33 1011 6 16093 3.6 260 23:40 22.05.2020
2632 Clear 33 1011 6 16093 3.6 260 23:22 22.05.2020
2633 Clear 33 1012 7 16093 2.1 320 22:58 22.05.2020
2634 Clear 33 1012 7 16093 2.1 320 22:39 22.05.2020
2635 Clear 32 1012 7 16093 2.1 320 22:20 22.05.2020
2636 Clear 32 1013 8 16093 2.6 210 21:46 22.05.2020
2637 Clear 31 1013 8 16093 2.6 210 21:22 22.05.2020
2638 Clear 30 1013 8 16093 2.6 210 20:56 22.05.2020
2639 Clear 30 1013 8 16093 2.6 210 20:38 22.05.2020
2640 Clear 30 1013 8 16093 2.6 210 20:19 22.05.2020
2641 Clear 29 1013 7 16093 3.1 160 19:44 22.05.2020
2642 Clear 29 1013 7 16093 3.1 160 19:25 22.05.2020
2643 Clear 28 1013 12 0 0.89 155 18:54 22.05.2020
2644 Clear 27 1013 9 16093 1.5 100 18:36 22.05.2020
2645 Clear 26 1013 9 16093 1.5 100 18:18 22.05.2020
2646 Clear 24 1014 11 16093 2.6 110 17:40 22.05.2020
2647 Clear 23 1014 11 16093 2.6 110 17:19 22.05.2020
2648 Clear 22 1013 19 0 1.34 0 16:56 22.05.2020
2649 Clear 21 1014 15 16093 3.1 120 16:37 22.05.2020
2650 Clear 20 1014 15 16093 3.1 120 16:19 22.05.2020
2651 Clear 16 1013 18 16093 2.1 150 15:42 22.05.2020
2652 Clear 14 1013 18 16093 2.1 150 15:22 22.05.2020
2653 Clear 14 1013 19 16093 1.69 132 14:45 22.05.2020
2654 Clear 14 1013 19 16093 1.58 132 14:26 22.05.2020
2655 Clear 14 1013 19 16093 3.1 160 13:56 22.05.2020
2656 Clear 14 1013 19 16093 3.1 160 13:37 22.05.2020
2657 Clear 15 1013 19 16093 3.1 160 13:19 22.05.2020
2658 Clear 15 1013 18 16093 3.6 150 12:40 22.05.2020
2659 Clear 16 1013 18 16093 3.6 150 12:21 22.05.2020
2660 Clear 16 1013 15 16093 3.6 140 11:45 22.05.2020
2661 Clear 16 1013 15 16093 3.6 140 11:22 22.05.2020
2662 Clear 16 1013 13 16093 3.1 170 10:58 22.05.2020
2663 Clear 16 1013 13 16093 3.1 170 10:38 22.05.2020
2664 Clear 17 1013 13 16093 3.1 170 10:20 22.05.2020
2665 Clear 17 1013 14 16093 3.1 200 09:48 22.05.2020
2666 Clear 18 1013 14 16093 3.1 200 09:21 22.05.2020
2667 Clear 19 1013 12 16093 2.6 160 08:58 22.05.2020
2668 Clear 18 1013 12 16093 2.6 160 08:39 22.05.2020
2669 Clear 18 1013 12 16093 2.6 160 08:39 22.05.2020
2670 Clear 19 1013 12 16093 2.6 160 08:18 22.05.2020
2671 Clear 20 1013 11 16093 0.5 333 07:52 22.05.2020
2672 Clear 20 1013 11 16093 1.05 9 07:23 22.05.2020
2673 Clear 22 1012 8 16093 2.6 320 06:52 22.05.2020
2674 Clear 23 1012 8 16093 2.6 320 06:29 22.05.2020
2675 Clear 26 1011 7 16093 2.6 330 05:37 22.05.2020
2676 Clear 27 1011 5 16093 4.1 330 04:49 22.05.2020
2677 Clear 27 1011 5 16093 4.1 330 04:49 22.05.2020
2678 Clear 29 1011 5 16093 5.7 340 03:52 22.05.2020
2679 Clear 29 1011 5 16093 5.7 340 03:32 22.05.2020
2680 Clear 30 1011 5 16093 5.1 320 02:35 22.05.2020
2681 Clear 31 1012 5 16093 2.1 310 01:43 22.05.2020
2682 Clear 31 1012 5 16093 2.1 310 01:21 22.05.2020
2683 Clear 30 1012 6 16093 4.6 340 00:34 22.05.2020
2684 Clear 30 1013 5 16093 2.6 340 23:57 21.05.2020
2685 Clear 30 1013 5 16093 2.6 340 23:39 21.05.2020
2686 Clear 30 1013 5 16093 2.6 340 23:21 21.05.2020
2687 Clear 30 1014 4 16093 1.5 240 22:57 21.05.2020
2688 Clear 30 1014 4 16093 1.5 240 22:37 21.05.2020
2689 Clear 29 1014 4 16093 1.5 240 22:19 21.05.2020
2690 Clear 29 1015 5 16093 3.1 0 21:47 21.05.2020
2691 Clouds 27 1014 6 16093 2.6 280 21:27 21.05.2020
2692 Clouds 27 1014 6 16093 2.6 280 21:27 21.05.2020
2693 Clear 27 1014 7 16093 1.5 220 20:57 21.05.2020
2694 Clear 27 1014 7 16093 1.5 220 20:38 21.05.2020
2695 Clear 26 1015 8 16093 3.1 30 20:20 21.05.2020
2696 Clear 26 1009 10 0 0.45 16 19:39 21.05.2020
2697 Clear 26 1015 9 16093 0.86 237 19:19 21.05.2020
2698 Clear 25 1015 9 16093 0.86 237 18:55 21.05.2020
2699 Clear 25 1015 9 16093 0.86 237 18:36 21.05.2020
2700 Clear 23 1016 10 16093 0.64 237 18:18 21.05.2020
2701 Clear 22 1015 11 16093 2.6 100 17:41 21.05.2020
2702 Clear 21 1015 11 16093 2.6 100 17:22 21.05.2020
2703 Clear 21 1015 11 16093 2.6 100 17:22 21.05.2020
2704 Clear 20 1015 16 16093 3.1 110 16:47 21.05.2020
2705 Clear 19 1015 16 16093 3.1 110 16:27 21.05.2020
2706 Clear 14 1014 20 16093 3.6 110 15:57 21.05.2020
2707 Clear 14 1014 20 16093 3.6 110 15:38 21.05.2020
2708 Clear 14 1014 20 16093 3.6 110 15:38 21.05.2020
2709 Clear 12 1014 20 16093 3.6 110 15:20 21.05.2020
2710 Clear 12 1014 20 16093 2.6 140 14:41 21.05.2020
2711 Clear 12 1014 20 16093 2.6 140 14:19 21.05.2020
2712 Clear 13 1013 19 16093 2.1 150 13:42 21.05.2020
2713 Clear 13 1013 19 16093 2.1 150 13:23 21.05.2020
2714 Clear 13 1013 17 16093 3.6 190 12:59 21.05.2020
2715 Clear 13 1013 17 16093 3.6 190 12:38 21.05.2020
2716 Clear 14 1013 17 16093 3.6 190 12:19 21.05.2020
2717 Clear 14 1013 16 16093 3.1 180 11:42 21.05.2020
2718 Clear 15 1013 16 16093 3.1 180 11:24 21.05.2020
2719 Clear 15 1014 16 16093 2.6 190 10:59 21.05.2020
2720 Clear 15 1014 16 16093 2.6 190 10:39 21.05.2020
2721 Clear 14 1014 16 16093 2.6 190 10:20 21.05.2020
2722 Clear 15 1014 12 16093 2.1 240 09:55 21.05.2020
2723 Clear 15 1014 12 16093 2.1 240 09:37 21.05.2020
2724 Clear 16 1014 12 16093 2.1 240 09:19 21.05.2020
2725 Clear 17 1014 11 16093 2.6 260 08:45 21.05.2020
2726 Clear 17 1014 11 16093 2.6 260 08:45 21.05.2020
2727 Clear 18 1014 9 16093 2.6 280 08:26 21.05.2020
2728 Clear 18 1014 9 16093 2.6 300 07:47 21.05.2020
2729 Clear 19 1014 9 16093 2.6 300 07:27 21.05.2020
2730 Clear 21 1013 7 16093 2.6 320 06:52 21.05.2020
2731 Clear 22 1013 8 16093 2.6 320 05:58 21.05.2020
2732 Clear 23 1013 8 16093 2.6 320 05:22 21.05.2020
2733 Clear 27 1013 7 16093 5.1 360 03:22 21.05.2020
2734 Clear 27 1013 7 16093 5.1 360 03:22 21.05.2020
2735 Clear 27 1013 7 16093 5.1 360 03:22 21.05.2020
2736 Clear 28 1013 7 16093 4.6 340 02:45 21.05.2020
2737 Clear 28 1013 7 16093 4.6 340 02:26 21.05.2020
2738 Clear 29 1013 7 16093 5.1 350 01:45 21.05.2020
2739 Clear 29 1013 7 16093 5.1 350 01:21 21.05.2020
2740 Clear 29 1013 6 16093 6.2 10 00:51 21.05.2020
2741 Clear 29 1014 5 16093 2.6 340 00:23 21.05.2020
2742 Clear 28 1015 8 16093 2.1 350 23:43 20.05.2020
2743 Clear 28 1015 8 16093 2.1 350 23:20 20.05.2020
2744 Clouds 28 1015 8 16093 2.1 290 22:58 20.05.2020
2745 Clouds 28 1015 8 16093 2.1 290 22:39 20.05.2020
2746 Clouds 28 1015 8 16093 2.1 290 22:20 20.05.2020
2747 Clear 27 1016 7 16093 2.6 220 21:40 20.05.2020
2748 Clear 26 1016 7 16093 2.6 220 21:22 20.05.2020
2749 Clear 26 1016 13 16093 1.5 160 20:45 20.05.2020
2750 Clear 25 1016 13 16093 1.5 160 20:26 20.05.2020
2751 Clear 24 1016 12 16093 1.5 100 19:58 20.05.2020
2752 Clear 25 1016 17 0 0.89 287 19:38 20.05.2020
2753 Clear 24 1016 12 16093 1.5 100 19:20 20.05.2020
2754 Clear 24 1016 12 16093 1.49 246 18:47 20.05.2020
2755 Clear 22 1016 12 16093 1.25 260 18:28 20.05.2020
2756 Clear 21 1010 18 0 1.25 260 17:46 20.05.2020
2757 Clear 21 1010 19 0 1.05 270 17:24 20.05.2020
2758 Clear 20 1016 17 16093 2.1 170 16:59 20.05.2020
2759 Clear 19 1016 17 16093 2.1 170 16:41 20.05.2020
2760 Clear 18 1016 17 16093 2.1 170 16:21 20.05.2020
2761 Clear 17 1016 25 0 0.89 0 15:55 20.05.2020
2762 Clear 16 1015 22 16093 2.1 170 15:36 20.05.2020
2763 Clear 13 1015 22 16093 2.6 180 15:18 20.05.2020
2764 Clear 13 1015 22 16093 2.6 180 14:41 20.05.2020
2765 Clear 13 1015 22 16093 2.6 180 14:20 20.05.2020
2766 Clear 13 1015 20 16093 1.5 190 13:40 20.05.2020
2767 Clear 13 1015 20 16093 1.5 190 13:19 20.05.2020
2768 Clear 14 1015 16 16093 1.5 300 12:43 20.05.2020
2769 Clear 15 1015 16 16093 1.5 300 12:21 20.05.2020
2770 Clear 15 1015 16 16093 1.5 300 12:21 20.05.2020
2771 Clear 16 1015 15 16093 2.1 290 11:57 20.05.2020
2772 Clear 17 1015 15 16093 2.1 290 11:36 20.05.2020
2773 Clear 17 1015 15 16093 2.6 310 11:18 20.05.2020
2774 Clear 17 1015 15 16093 2.1 290 11:18 20.05.2020
2775 Clear 19 1015 15 16093 2.6 310 10:42 20.05.2020
2776 Clear 19 1015 16 16093 2.1 290 10:19 20.05.2020
2777 Clear 20 1015 16 16093 2.1 290 09:44 20.05.2020
2778 Clear 20 1015 16 16093 2.1 290 09:21 20.05.2020
2779 Clear 21 1014 16 16093 5.1 310 08:44 20.05.2020
2780 Clear 21 1014 16 16093 5.1 310 08:20 20.05.2020
2781 Clear 22 1014 16 16093 4.1 300 07:55 20.05.2020
2782 Clear 22 1014 16 16093 4.1 300 07:37 20.05.2020
2783 Clear 23 1014 16 16093 4.1 300 07:19 20.05.2020
2784 Clear 24 1013 15 16093 8.2 290 06:28 20.05.2020
2785 Clear 27 1012 13 16093 5.1 270 05:18 20.05.2020
2786 Clear 28 1011 13 16093 6.7 270 04:25 20.05.2020
2787 Clear 30 1010 10 16093 7.7 260 03:37 20.05.2020
2788 Clear 32 1011 9 16093 7.7 210 01:58 20.05.2020
2789 Clear 33 1010 9 16093 8.2 240 01:25 20.05.2020
2790 Clear 33 1011 9 16093 5.7 250 00:42 20.05.2020
2791 Clear 33 1011 9 16093 5.7 250 00:23 20.05.2020
2792 Clear 33 1012 11 16093 4.1 210 23:39 19.05.2020
2793 Clear 33 1012 8 14484 6.7 230 23:19 19.05.2020
2794 Clear 33 1012 8 14484 6.7 230 22:55 19.05.2020
2795 Clear 33 1012 8 14484 6.7 230 22:37 19.05.2020
2796 Clear 33 1012 8 14484 6.7 230 22:18 19.05.2020
2797 Clear 32 1013 9 16093 7.2 240 21:55 19.05.2020
2798 Clear 32 1013 9 16093 8.2 220 21:36 19.05.2020
2799 Clear 32 1013 9 16093 7.2 240 21:18 19.05.2020
2800 Clear 32 1013 8 16093 5.7 170 20:56 19.05.2020
2801 Clear 32 1013 8 16093 5.7 170 20:38 19.05.2020
2802 Clear 31 1013 8 16093 5.7 170 20:19 19.05.2020
2803 Clear 30 1014 9 16093 6.7 210 19:39 19.05.2020
2804 Clear 30 1013 9 16093 8.7 170 19:20 19.05.2020
2805 Clear 29 1005 15 0 0.45 20 18:46 19.05.2020
2806 Clear 27 1014 15 16093 3.6 190 18:24 19.05.2020
2807 Clear 27 1013 21 16093 3.1 150 17:59 19.05.2020
2808 Clear 27 1013 21 16093 3.1 150 17:40 19.05.2020
2809 Clear 26 1013 21 16093 3.1 150 17:20 19.05.2020
2810 Clear 25 1013 24 0 0.89 0 16:56 19.05.2020
2811 Clear 24 1013 24 16093 4.1 120 16:37 19.05.2020
2812 Clear 23 1013 24 16093 4.1 120 16:19 19.05.2020
2813 Clear 20 1013 23 16093 5.7 90 15:43 19.05.2020
2814 Clear 18 1013 26 16093 5.7 90 15:21 19.05.2020
2815 Clear 18 1012 26 16093 3.6 160 14:55 19.05.2020
2816 Clear 18 1012 26 16093 3.6 160 14:37 19.05.2020
2817 Clear 18 1012 26 16093 3.6 160 14:19 19.05.2020
2818 Clear 18 1012 25 16093 3.1 150 13:56 19.05.2020
2819 Clear 18 1012 25 16093 3.1 150 13:37 19.05.2020
2820 Clear 18 1012 25 16093 3.1 150 13:37 19.05.2020
2821 Clear 18 1012 26 16093 2.6 60 13:18 19.05.2020
2822 Clear 20 1012 26 16093 2.6 60 12:55 19.05.2020
2823 Clear 21 1012 26 16093 2.6 60 12:36 19.05.2020
2824 Clear 21 1013 26 16093 2.6 90 12:18 19.05.2020
2825 Clear 21 1013 26 16093 2.6 90 11:41 19.05.2020
2826 Clear 21 1013 26 16093 2.6 90 11:22 19.05.2020
2827 Clear 22 1013 24 16093 3.6 120 10:56 19.05.2020
2828 Clear 22 1013 24 16093 3.6 120 10:38 19.05.2020
2829 Clear 21 1013 24 16093 3.6 120 10:18 19.05.2020
2830 Clear 22 1014 23 16093 3.1 130 09:43 19.05.2020
2831 Clear 22 1014 23 16093 3.1 130 09:24 19.05.2020
2832 Clear 23 1014 17 16093 2.1 160 08:47 19.05.2020
2833 Clear 24 1014 17 16093 2.1 160 08:25 19.05.2020
2834 Clear 26 1013 22 16093 3.1 290 07:48 19.05.2020
2835 Clear 26 1013 21 16093 3.1 290 07:27 19.05.2020
2836 Clear 27 1012 13 16093 2.1 260 06:55 19.05.2020
2837 Clear 28 1012 13 16093 2.1 260 06:31 19.05.2020
2838 Clear 30 1012 9 16093 2.6 250 05:42 19.05.2020
2839 Clear 30 1012 9 16093 2.6 250 05:19 19.05.2020
2840 Clear 31 1011 12 0 1.34 230 04:35 19.05.2020
2841 Clear 35 1012 6 16093 6.7 240 02:23 19.05.2020
2842 Clear 36 1012 7 16093 6.2 230 00:48 19.05.2020
2843 Clear 36 1012 7 16093 6.2 230 00:48 19.05.2020
2844 Clear 36 1012 7 16093 6.2 230 00:29 19.05.2020
2845 -273 0 0 0 0 0 23:59 18.05.2020
2846 Clear 36 1013 7 16093 4.6 240 23:59 18.05.2020
2847 Clear 36 1013 7 16093 4.6 240 23:40 18.05.2020
2848 Clear 36 1013 7 16093 4.6 240 23:20 18.05.2020
2849 Clear 36 1014 10 16093 4.6 210 22:42 18.05.2020
2850 Clear 36 1014 10 16093 4.6 210 22:42 18.05.2020
2851 Clear 35 1014 10 16093 4.6 210 22:22 18.05.2020
2852 Clouds 35 1014 9 16093 7.2 180 21:59 18.05.2020
2853 Clear 35 1014 9 16093 7.2 190 21:40 18.05.2020
2854 Clear 34 1014 9 16093 7.2 190 21:20 18.05.2020
2855 Clear 34 1015 14 16093 5.7 190 20:57 18.05.2020
2856 Clear 34 1015 14 16093 5.7 190 20:37 18.05.2020
2857 Clear 33 1015 13 16093 1.5 80 20:18 18.05.2020
2858 Clear 32 1016 12 16093 4.6 150 19:41 18.05.2020
2859 Clear 32 1016 12 16093 4.6 150 19:19 18.05.2020
2860 Clear 32 1016 12 16093 4.6 150 19:19 18.05.2020
2861 Clear 31 1015 15 0 0.89 145 18:55 18.05.2020
2862 Clear 30 1016 13 16093 3.6 140 18:36 18.05.2020
2863 Clear 29 1015 14 16093 2.1 130 18:18 18.05.2020
2864 Clear 27 1016 14 16093 3.6 150 17:37 18.05.2020
2865 Clear 26 1016 14 16093 3.6 150 17:18 18.05.2020
2866 Clear 26 1016 14 16093 3.6 150 17:18 18.05.2020
2867 Clear 26 1016 14 16093 3.6 150 17:18 18.05.2020
2868 Clear 25 1015 18 16093 2.1 150 16:55 18.05.2020
2869 Clear 24 1015 18 16093 2.1 150 16:36 18.05.2020
2870 Clear 23 1015 18 16093 2.1 150 16:18 18.05.2020
2871 Clear 19 1015 25 16093 4.6 120 15:42 18.05.2020
2872 Clear 18 1015 25 16093 4.6 120 15:23 18.05.2020
2873 Clear 17 1014 23 16093 3.1 90 14:59 18.05.2020
2874 Clear 18 1014 23 16093 3.1 90 14:39 18.05.2020
2875 Clear 18 1014 23 16093 3.1 90 14:21 18.05.2020
2876 Clear 18 1014 23 16093 3.6 100 13:42 18.05.2020
2877 Clear 18 1014 23 16093 3.6 100 13:22 18.05.2020
2878 Clear 18 1014 22 16093 4.1 120 12:58 18.05.2020
2879 Clear 18 1014 22 16093 4.1 120 12:40 18.05.2020
2880 Clear 19 1014 22 16093 4.1 120 12:20 18.05.2020
2881 Clear 19 1014 19 16093 2.6 110 11:59 18.05.2020
2882 Clear 20 1014 19 16093 2.6 110 11:40 18.05.2020
2883 Clear 20 1014 19 16093 2.6 110 11:22 18.05.2020
2884 Clear 20 1014 19 16093 2.6 80 10:46 18.05.2020
2885 Clear 20 1014 19 16093 2.6 80 10:46 18.05.2020
2886 Clear 20 1014 19 16093 2.6 80 10:24 18.05.2020
2887 Clear 23 1014 19 16093 1.5 210 09:46 18.05.2020
2888 Clear 24 1014 19 16093 1.5 210 09:27 18.05.2020
2889 Clear 25 1014 16 16093 2.6 210 08:57 18.05.2020
2890 Clear 25 1014 16 16093 2.6 210 08:39 18.05.2020
2891 Clear 25 1014 16 16093 2.6 210 08:20 18.05.2020
2892 Clear 26 1014 13 16093 2.6 230 07:42 18.05.2020
2893 Clear 26 1014 13 16093 2.6 230 07:21 18.05.2020
2894 Clear 27 1013 11 16093 1.8 289 06:47 18.05.2020
2895 Clear 27 1013 11 16093 3.76 248 06:22 18.05.2020
2896 Clear 30 1013 9 16093 3.1 240 05:42 18.05.2020
2897 Clear 34 1012 6 16093 5.7 240 03:38 18.05.2020
2898 Clear 36 1012 7 16093 5.7 240 02:35 18.05.2020
2899 Clear 36 1012 7 16093 4.1 270 01:45 18.05.2020
2900 Clear 37 1012 9 16093 3.1 230 00:38 18.05.2020
2901 Clear 37 1012 9 16093 3.1 230 00:38 18.05.2020
2902 Clear 36 1012 9 16093 3.1 230 00:18 18.05.2020
2903 Clear 36 1013 10 16093 1.5 360 23:42 17.05.2020
2904 Clear 36 1013 10 16093 1.5 360 23:20 17.05.2020
2905 Clear 35 1014 10 16093 5.1 210 22:59 17.05.2020
2906 Clear 35 1014 10 16093 5.1 210 22:39 17.05.2020
2907 Clear 35 1014 10 16093 5.1 210 22:21 17.05.2020
2908 Clear 34 1015 11 16093 2.6 30 21:59 17.05.2020
2909 Clear 34 1015 11 16093 2.6 30 21:41 17.05.2020
2910 Clear 33 1015 13 16093 3.1 340 21:19 17.05.2020
2911 Clear 33 1015 14 16093 3.1 150 20:55 17.05.2020
2912 Clear 33 1015 14 16093 3.1 150 20:36 17.05.2020
2913 Clear 32 1015 14 16093 3.1 150 20:18 17.05.2020
2914 Clear 31 1015 17 0 0.45 154 19:42 17.05.2020
2915 Clear 31 1015 20 0 0.89 260 19:23 17.05.2020
2916 Clear 30 1015 19 0 0.89 61 18:55 17.05.2020
2917 Clear 29 1015 20 16093 2.3 205 18:37 17.05.2020
2918 Clear 28 1015 20 16093 1.84 187 18:19 17.05.2020
2919 Clear 27 1015 23 16093 5.1 140 17:40 17.05.2020
2920 Clear 27 1015 23 16093 5.1 140 17:40 17.05.2020
2921 Clear 27 1015 23 16093 5.1 140 17:40 17.05.2020
2922 Clear 26 1015 23 16093 5.1 140 17:21 17.05.2020
2923 Clear 26 1015 23 16093 5.1 140 17:21 17.05.2020
2924 Clear 25 1015 27 16093 3.6 110 16:56 17.05.2020
2925 Clear 24 1015 27 16093 3.6 110 16:37 17.05.2020
2926 Clear 23 1015 27 16093 3.6 110 16:19 17.05.2020
2927 Clear 19 1014 32 16093 3.1 110 15:45 17.05.2020
2928 Clear 18 1014 32 16093 3.1 110 15:24 17.05.2020
2929 Clear 18 1014 32 16093 2.6 110 14:57 17.05.2020
2930 Clear 18 1014 32 16093 2.6 110 14:38 17.05.2020
2931 Clear 18 1014 32 16093 2.6 110 14:19 17.05.2020
2932 Clear 18 1014 32 16093 2.6 110 14:19 17.05.2020
2933 Clear 18 1013 30 16093 2.1 130 13:41 17.05.2020
2934 Clear 19 1013 30 16093 2.1 130 13:20 17.05.2020
2935 Clear 29 1011 14 16093 3.1 330 05:22 17.05.2020
2936 Clear 33 1010 10 16093 2.6 30 03:31 17.05.2020
2937 Clear 34 1010 9 16093 4.6 340 02:26 17.05.2020
2938 Clear 34 1010 9 16093 4.1 290 01:53 17.05.2020
2939 Clear 34 1011 9 16093 2.1 230 00:46 17.05.2020
2940 Clear 34 1011 9 16093 2.1 230 00:26 17.05.2020
2941 Clear 33 1012 10 16093 0.93 256 23:42 16.05.2020
2942 Clear 34 1012 10 16093 1.27 253 23:23 16.05.2020
2943 Clear 33 1012 9 16093 1.5 70 22:59 16.05.2020
2944 Clear 33 1012 9 16093 1.5 70 22:41 16.05.2020
2945 Clear 33 1012 9 16093 1.5 70 22:22 16.05.2020
2946 Clear 33 1013 11 16093 2.1 0 21:56 16.05.2020
2947 Clear 32 1013 14 16093 2.6 210 21:37 16.05.2020
2948 Clear 31 1013 14 16093 2.6 210 21:19 16.05.2020
2949 Clear 30 1014 18 16093 2.1 280 20:55 16.05.2020
2950 Clear 30 1014 18 16093 2.1 280 20:55 16.05.2020
2951 Clear 30 1014 18 16093 2.1 280 20:36 16.05.2020
2952 Clear 30 1014 18 16093 2.1 280 20:18 16.05.2020
2953 Clear 29 1015 18 16093 2.1 0 19:41 16.05.2020
2954 Clear 29 1015 18 16093 2.1 0 19:22 16.05.2020
2955 Clear 28 1014 22 0 0.89 180 18:57 16.05.2020
2956 Clear 28 1015 21 16093 1.5 0 18:37 16.05.2020
2957 Clear 27 1015 21 16093 1.5 0 18:18 16.05.2020
2958 Clear 25 1014 28 0 0.45 134 17:41 16.05.2020
2959 Clear 24 1015 28 16093 0.84 189 17:20 16.05.2020
2960 Clear 24 1015 28 16093 0.84 189 17:20 16.05.2020
2961 Clear 23 1014 30 0 0.84 189 16:43 16.05.2020
2962 Clear 22 1014 30 16093 2.6 160 16:24 16.05.2020
2963 Clear 19 1013 36 16093 3.1 170 15:59 16.05.2020
2964 Clear 18 1013 36 16093 3.1 170 15:41 16.05.2020
2965 Clear 17 1013 36 16093 3.1 170 15:21 16.05.2020
2966 Clear 17 1013 36 16093 2.6 140 14:56 16.05.2020
2967 Clear 17 1013 36 16093 2.6 140 14:37 16.05.2020
2968 Clear 17 1013 36 16093 2.6 140 14:37 16.05.2020
2969 Clear 17 1013 36 16093 2.6 140 14:19 16.05.2020
2970 Clear 17 1012 33 16093 2.1 170 13:42 16.05.2020
2971 Clear 18 1012 33 16093 2.1 170 13:23 16.05.2020
2972 Clear 17 1012 32 16093 0.62 284 12:57 16.05.2020
2973 Clear 18 1012 32 16093 0.62 284 12:39 16.05.2020
2974 Clear 19 1012 26 16093 2.1 150 12:18 16.05.2020
2975 Clear 19 1012 26 16093 2.1 150 11:41 16.05.2020
2976 Clear 19 1012 26 16093 2.1 150 11:41 16.05.2020
2977 Clear 20 1012 26 16093 2.1 150 11:22 16.05.2020
2978 Clear 21 1012 28 16093 3.1 220 10:57 16.05.2020
2979 Clear 21 1012 28 16093 3.1 220 10:38 16.05.2020
2980 Clear 21 1012 28 16093 3.1 220 10:19 16.05.2020
2981 Clear 22 1012 23 16093 3.1 250 09:46 16.05.2020
2982 Clear 22 1012 23 16093 3.1 250 09:28 16.05.2020
2983 Clear 23 1012 21 16093 4.1 270 08:46 16.05.2020
2984 Clear 23 1012 19 16093 4.1 270 08:24 16.05.2020
2985 Clear 24 1012 16 16093 3.6 310 07:58 16.05.2020
2986 Clear 24 1012 16 16093 3.6 310 07:40 16.05.2020
2987 Clear 25 1012 16 16093 3.6 310 07:21 16.05.2020
2988 Clear 26 1011 13 16093 3.1 310 06:46 16.05.2020
2989 Clear 26 1011 13 16093 3.1 310 06:19 16.05.2020
2990 Clear 27 1010 10 16093 3.1 310 05:41 16.05.2020
2991 Clear 28 1009 9 16093 4.1 320 04:53 16.05.2020
2992 Clear 31 1009 8 16093 4.6 340 03:27 16.05.2020
2993 Clear 32 1009 8 16093 3.1 260 02:42 16.05.2020
2994 Clear 32 1009 8 16093 3.1 260 02:18 16.05.2020
2995 Clear 33 1009 11 16093 3.6 320 01:39 16.05.2020
2996 Clear 33 1010 9 16093 2.6 280 00:57 16.05.2020
2997 Clear 33 1010 9 16093 2.6 280 00:57 16.05.2020
2998 Clear 33 1010 9 16093 2.6 280 00:38 16.05.2020
2999 Clear 33 1010 9 16093 2.6 280 00:19 16.05.2020
3000 Clear 32 1012 13 16093 1.5 340 23:39 15.05.2020
3001 Clear 32 1012 14 16093 1.5 340 23:19 15.05.2020
3002 Clear 32 1012 14 16093 3.6 310 22:41 15.05.2020
3003 Clear 31 1012 14 16093 3.6 310 22:20 15.05.2020
3004 Clear 31 1013 15 16093 1.39 299 21:57 15.05.2020
3005 Clear 31 1013 15 16093 1.39 299 21:38 15.05.2020
3006 Clear 30 1013 17 16093 1.33 264 21:20 15.05.2020
3007 Clear 28 1013 18 12874 1.5 310 20:54 15.05.2020
3008 Clear 29 1013 18 12874 1.5 310 20:36 15.05.2020
3009 Clear 29 1013 18 12874 1.5 310 20:18 15.05.2020
3010 Clear 28 1013 21 16093 1.43 224 19:42 15.05.2020
3011 Clear 28 1013 21 16093 1.46 198 19:23 15.05.2020
3012 Clear 27 1014 24 16093 1.46 198 18:48 15.05.2020
3013 Clear 26 1014 24 16093 1.29 193 18:28 15.05.2020
3014 Clear 25 1014 28 16093 1.5 80 17:59 15.05.2020
3015 Clear 24 1014 28 16093 1.5 80 17:37 15.05.2020
3016 Clear 24 1014 28 16093 1.5 80 17:19 15.05.2020
3017 Clear 23 1014 31 0 0.45 0 16:56 15.05.2020
3018 Clear 22 1013 30 16093 1.5 100 16:37 15.05.2020
3019 Clear 21 1013 30 16093 1.5 100 16:18 15.05.2020
3020 Clear 17 1013 39 16093 3.1 110 15:41 15.05.2020
3021 Clear 16 1013 41 16093 4.6 130 15:20 15.05.2020
3022 Clear 16 1013 41 16093 4.6 130 14:57 15.05.2020
3023 Clear 15 1013 41 16093 4.6 130 14:39 15.05.2020
3024 Clear 16 1013 41 16093 4.6 130 14:21 15.05.2020
3025 Clear 17 1013 38 16093 3.1 190 13:42 15.05.2020
3026 Clear 17 1013 38 16093 3.1 190 13:22 15.05.2020
3027 Clear 17 1013 29 16093 2.6 160 12:56 15.05.2020
3028 Clear 17 1013 29 16093 2.6 160 12:37 15.05.2020
3029 Clear 18 1013 29 16093 2.6 160 12:18 15.05.2020
3030 Clear 18 1013 29 16093 2.6 160 12:18 15.05.2020
3031 Clear 18 1013 32 16093 1.06 305 11:56 15.05.2020
3032 Clear 19 1013 32 16093 1.06 305 11:37 15.05.2020
3033 Clear 19 1013 32 16093 1.62 306 11:18 15.05.2020
3034 Clear 20 1013 30 16093 2.1 210 10:54 15.05.2020
3035 Clear 20 1013 30 16093 2.1 210 10:36 15.05.2020
3036 Clear 21 1013 30 16093 2.1 210 10:18 15.05.2020
3037 Clear 22 1013 28 16093 2.24 312 09:40 15.05.2020
3038 Clear 22 1013 28 16093 2.36 303 09:20 15.05.2020
3039 Clear 22 1013 20 16093 2.1 280 08:58 15.05.2020
3040 Clear 23 1013 20 16093 2.1 280 08:37 15.05.2020
3041 Clear 23 1013 20 16093 2.1 280 08:19 15.05.2020
3042 Clear 23 1013 19 16093 2.1 230 07:44 15.05.2020
3043 Clear 24 1013 19 16093 2.1 230 07:25 15.05.2020
3044 Clouds 24 1012 16 16093 2.1 310 06:54 15.05.2020
3045 Clouds 25 1012 13 16093 3.1 310 05:53 15.05.2020
3046 Clear 28 1012 12 16093 3.1 290 04:28 15.05.2020
3047 Clouds 30 1011 9 16093 4.6 290 03:48 15.05.2020
3048 Clear 31 1012 10 16093 3.6 310 02:35 15.05.2020
3049 Clear 31 1012 10 16093 4.6 290 01:31 15.05.2020
3050 Clear 31 1013 10 16093 3.1 330 00:56 15.05.2020
3051 Clear 31 1013 10 16093 3.1 330 00:37 15.05.2020
3052 Clear 30 1013 10 16093 3.1 330 00:19 15.05.2020
3053 Clear 30 1013 13 16093 2.6 340 23:40 14.05.2020
3054 Clouds 29 1014 13 16093 1.5 320 23:18 14.05.2020
3055 Clouds 29 1014 13 16093 1.5 320 22:41 14.05.2020
3056 Clouds 28 1014 13 16093 1.5 320 22:19 14.05.2020
3057 Clouds 28 1015 13 16093 3.65 245 21:58 14.05.2020
3058 Clouds 28 1015 13 16093 3.65 245 21:39 14.05.2020
3059 Clouds 28 1015 13 16093 2.7 232 21:19 14.05.2020
3060 Clear 27 1016 13 16093 3.1 10 20:55 14.05.2020
3061 Clouds 27 1015 16 16093 1.5 260 20:37 14.05.2020
3062 Clouds 27 1015 16 16093 1.5 260 20:18 14.05.2020
3063 Clouds 26 1015 17 0 0.89 101 19:41 14.05.2020
3064 Clouds 26 1015 19 0 1.34 114 19:21 14.05.2020
3065 Clouds 25 1015 19 0 1.34 178 18:59 14.05.2020
3066 Clouds 24 1015 23 0 0.89 0 18:38 14.05.2020
3067 Clear 23 1015 21 16093 1.5 120 18:20 14.05.2020
3068 Clear 23 1015 20 16093 3.6 130 17:59 14.05.2020
3069 Clear 22 1015 20 16093 3.6 130 17:38 14.05.2020
3070 Clouds 21 1015 28 0 0.89 198 17:19 14.05.2020
3071 Clouds 20 1015 35 0 0.45 0 16:58 14.05.2020
3072 Clear 19 1015 22 16093 3.6 130 16:38 14.05.2020
3073 Clear 19 1015 25 16093 3.6 130 16:19 14.05.2020
3074 Clear 17 1014 36 16093 3.1 140 15:56 14.05.2020
3075 Clear 16 1014 36 16093 3.1 140 15:38 14.05.2020
3076 Clear 15 1014 36 16093 3.1 140 15:18 14.05.2020
3077 Clear 15 1014 38 16093 4.6 120 14:55 14.05.2020
3078 Clear 15 1014 38 16093 4.6 120 14:36 14.05.2020
3079 Clear 15 1014 38 16093 4.6 120 14:18 14.05.2020
3080 Clear 15 1014 38 16093 3.6 130 13:42 14.05.2020
3081 Clear 16 1014 38 16093 3.6 130 13:20 14.05.2020
3082 Clear 16 1014 36 16093 2.1 120 12:59 14.05.2020
3083 Clear 16 1014 36 16093 2.1 120 12:39 14.05.2020
3084 Clear 17 1014 36 16093 2.1 120 12:20 14.05.2020
3085 Clear 17 1014 29 16093 0.84 147 11:58 14.05.2020
3086 Clear 17 1014 29 16093 0.84 147 11:39 14.05.2020
3087 Clear 17 1014 29 16093 1.33 158 11:21 14.05.2020
3088 Clear 18 1014 28 16093 2.1 160 10:56 14.05.2020
3089 Clear 18 1014 28 16093 2.1 160 10:37 14.05.2020
3090 Clear 18 1014 28 16093 2.1 160 10:37 14.05.2020
3091 Clear 19 1014 28 16093 2.1 160 10:19 14.05.2020
3092 Clear 20 1014 34 16093 1.46 164 09:42 14.05.2020
3093 Clear 20 1014 34 16093 1.16 207 09:22 14.05.2020
3094 Clear 22 1014 28 16093 1.5 300 08:42 14.05.2020
3095 Clear 22 1014 28 16093 1.5 300 08:21 14.05.2020
3096 Clear 23 1014 25 16093 2.6 270 07:46 14.05.2020
3097 Clear 24 1014 25 16093 2.6 270 07:25 14.05.2020
3098 Clear 24 1014 27 0 0.89 321 06:55 14.05.2020
3099 Clear 25 1013 22 16093 5.1 280 06:31 14.05.2020
3100 Clear 26 1012 25 16093 4.6 270 05:56 14.05.2020
3101 Clear 27 1012 25 16093 4.6 270 05:35 14.05.2020
3102 Clear 28 1011 9 16093 4.1 260 04:26 14.05.2020
3103 Clear 30 1011 8 16093 5.7 260 03:27 14.05.2020
3104 Clear 31 1011 8 16093 7.2 280 02:42 14.05.2020
3105 Clear 32 1011 8 16093 5.1 270 01:56 14.05.2020
3106 Clear 32 1011 8 16093 5.1 270 01:24 14.05.2020
3107 Clear 32 1011 10 16093 5.7 260 00:48 14.05.2020
3108 Clear 32 1011 10 16093 5.7 260 00:24 14.05.2020
3109 Clear 32 1012 10 16093 2.1 240 23:44 13.05.2020
3110 Clear 32 1012 10 16093 2.1 240 23:21 13.05.2020
3111 Clear 32 1012 10 16093 2.1 240 23:21 13.05.2020
3112 Clear 31 1012 12 0 1.79 0 22:54 13.05.2020
3113 Clear 31 1012 12 0 1.79 0 22:54 13.05.2020
3114 Clear 31 1013 11 12874 5.7 280 22:36 13.05.2020
3115 Clear 31 1013 11 12874 5.7 280 22:18 13.05.2020
3116 Clear 30 1014 13 12874 2.6 320 21:55 13.05.2020
3117 Clear 30 1014 13 12874 2.6 320 21:36 13.05.2020
3118 Clear 29 1014 13 12874 2.6 320 21:18 13.05.2020
3119 Clear 29 1014 13 12874 2.6 320 21:18 13.05.2020
3120 Clear 28 1014 14 16093 5.3 225 20:40 13.05.2020
3121 Clear 28 1014 14 16093 3.16 209 20:22 13.05.2020
3122 Clear 27 1014 15 16093 3.16 209 19:43 13.05.2020
3123 Clear 27 1014 15 16093 2.18 190 19:24 13.05.2020
3124 Clear 26 1014 20 0 1.34 252 18:56 13.05.2020
3125 Clear 26 1015 18 16093 2.18 190 18:37 13.05.2020
3126 Clear 24 1015 21 16093 0.85 190 18:18 13.05.2020
3127 Clear 24 1014 21 16093 0.85 190 17:39 13.05.2020
3128 Clear 23 1014 25 16093 0.57 290 17:19 13.05.2020
3129 Clear 22 1014 25 16093 2.1 150 16:55 13.05.2020
3130 Clear 22 1014 25 16093 2.1 150 16:55 13.05.2020
3131 Clear 21 1014 25 16093 2.1 150 16:37 13.05.2020
3132 Clear 21 1014 28 16093 2.1 150 16:18 13.05.2020
3133 Clear 18 1014 38 16093 4.1 130 15:42 13.05.2020
3134 Clear 16 1014 38 16093 4.1 130 15:19 13.05.2020
3135 Clear 16 1013 41 16093 2.1 130 14:57 13.05.2020
3136 Clear 16 1013 41 16093 2.1 130 14:39 13.05.2020
3137 Clear 16 1013 41 16093 2.1 130 14:20 13.05.2020
3138 Clear 17 1013 36 16093 2.1 140 13:56 13.05.2020
3139 Clear 16 1013 36 16093 2.1 140 13:38 13.05.2020
3140 Clear 17 1013 36 16093 2.1 140 13:19 13.05.2020
3141 Clear 17 1013 34 16093 3.1 180 12:43 13.05.2020
3142 Clear 18 1013 34 16093 3.1 180 12:22 13.05.2020
3143 Clear 19 1013 30 16093 2.6 230 11:57 13.05.2020
3144 Clear 19 1013 30 16093 2.6 230 11:38 13.05.2020
3145 Clear 19 1005 42 0 1.53 220 11:20 13.05.2020
3146 Clear 20 1013 30 16093 4.1 190 10:59 13.05.2020
3147 Clear 21 1013 28 16093 2.1 230 10:39 13.05.2020
3148 Clear 22 1013 28 16093 2.1 230 10:20 13.05.2020
3149 Clear 23 1013 29 16093 4.1 190 09:57 13.05.2020
3150 Clear 23 1013 29 16093 4.1 190 09:38 13.05.2020
3151 Clear 23 1013 29 16093 4.1 190 09:20 13.05.2020
3152 Clear 24 1013 31 16093 3.6 200 08:40 13.05.2020
3153 Clear 24 1013 31 16093 3.6 200 08:21 13.05.2020
3154 Clear 25 1013 27 16093 5.7 270 07:58 13.05.2020
3155 Clear 26 1013 27 16093 5.7 270 07:36 13.05.2020
3156 Clear 26 1012 24 16093 5.1 280 06:55 13.05.2020
3157 Clear 26 1012 24 16093 5.1 280 06:36 13.05.2020
3158 Clear 27 1011 20 16093 6.7 270 05:48 13.05.2020
3159 Clear 30 1010 12 16093 5.7 270 04:21 13.05.2020
3160 Clear 32 1010 7 16093 4.1 310 02:43 13.05.2020
3161 Clear 33 1011 7 16093 5.1 270 01:47 13.05.2020
3162 Clear 33 1011 7 16093 5.1 270 01:20 13.05.2020
3163 Clear 33 1012 8 16093 6.82 233 00:30 13.05.2020
3164 Clear 33 1013 11 16093 2.1 300 23:59 12.05.2020
3165 Clear 33 1013 11 16093 2.1 300 23:39 12.05.2020
3166 Clear 33 1013 11 16093 2.1 300 23:20 12.05.2020
3167 Clear 32 1014 10 16093 3.6 280 22:43 12.05.2020
3168 Clear 32 1014 10 16093 3.6 280 22:23 12.05.2020
3169 Clear 32 1014 10 16093 3.6 280 22:23 12.05.2020
3170 Clear 32 1014 10 16093 3.6 280 22:23 12.05.2020
3171 Clear 31 1014 16 16093 3.6 310 21:59 12.05.2020
3172 Clear 31 1014 16 16093 3.6 310 21:40 12.05.2020
3173 Clear 30 1014 16 16093 3.6 310 21:22 12.05.2020
3174 Clear 30 1015 18 16093 3.1 230 20:59 12.05.2020
3175 Clear 30 1015 18 16093 3.1 230 20:41 12.05.2020
3176 Clear 30 1015 18 16093 3.1 230 20:23 12.05.2020
3177 Clear 29 1016 18 16093 3.6 240 19:59 12.05.2020
3178 Clear 29 1016 18 16093 3.6 240 19:41 12.05.2020
3179 Clear 28 1016 18 16093 3.6 240 19:22 12.05.2020
3180 Clear 28 1015 24 0 1.79 271 18:58 12.05.2020
3181 Clear 28 1015 26 0 1.34 169 18:39 12.05.2020
3182 Clear 26 1015 24 16093 3.1 140 18:21 12.05.2020
3183 Clear 26 1016 23 16093 3.6 130 17:43 12.05.2020
3184 Clear 25 1016 23 16093 3.6 130 17:24 12.05.2020
3185 Clear 24 1015 28 16093 4.1 130 16:47 12.05.2020
3186 Clear 23 1015 30 16093 4.1 120 16:26 12.05.2020
3187 Clear 22 1015 39 0 0.89 0 15:57 12.05.2020
3188 Clear 20 1015 39 16093 3.1 120 15:39 12.05.2020
3189 Clear 19 1015 39 16093 3.1 120 15:20 12.05.2020
3190 Clear 19 1014 39 16093 3.6 120 14:58 12.05.2020
3191 Clear 19 1014 39 16093 3.6 120 14:39 12.05.2020
3192 Clear 19 1014 39 16093 3.6 120 14:21 12.05.2020
3193 Clear 19 1014 32 16093 1.5 80 13:59 12.05.2020
3194 Clear 19 1014 32 16093 1.5 80 13:41 12.05.2020
3195 Clear 20 1014 32 16093 1.5 80 13:20 12.05.2020
3196 Clear 20 1014 32 16093 3.1 130 12:59 12.05.2020
3197 Clear 20 1014 32 16093 3.1 130 12:41 12.05.2020
3198 Clear 20 1014 32 16093 3.1 130 12:22 12.05.2020
3199 Clear 20 1014 30 16093 2.1 120 11:59 12.05.2020
3200 Clear 21 1014 30 16093 2.1 120 11:39 12.05.2020
3201 Clear 21 1014 30 16093 2.1 120 11:21 12.05.2020
3202 Clear 21 1014 32 16093 2.1 90 10:59 12.05.2020
3203 Clear 21 1014 32 16093 2.1 90 10:59 12.05.2020
3204 Clear 22 1014 32 16093 2.1 90 10:41 12.05.2020
3205 Clear 22 1014 32 16093 2.1 90 10:22 12.05.2020
3206 Clear 22 1014 28 16093 2.1 120 09:59 12.05.2020
3207 Clear 22 1014 28 16093 2.1 120 09:40 12.05.2020
3208 Clear 23 1014 28 16093 2.1 120 09:21 12.05.2020
3209 Clear 24 1014 29 16093 2.6 200 08:57 12.05.2020
3210 Clear 24 1014 29 16093 2.6 200 08:38 12.05.2020
3211 Clear 25 1014 29 16093 2.6 200 08:19 12.05.2020
3212 Clear 26 1013 26 16093 3.1 290 07:42 12.05.2020
3213 Clear 26 1013 26 16093 3.1 290 07:22 12.05.2020
3214 Clear 26 1013 21 16093 2.1 280 06:49 12.05.2020
3215 Clear 27 1013 21 16093 2.1 280 06:27 12.05.2020
3216 Clear 27 1012 14 16093 4.1 260 05:50 12.05.2020
3217 Clear 28 1012 14 16093 4.1 260 05:30 12.05.2020
3218 Clear 32 1011 7 16093 4.6 270 03:27 12.05.2020
3219 Clear 33 1011 6 16093 6.7 230 02:44 12.05.2020
3220 Clear 34 1011 6 16093 6.7 230 02:24 12.05.2020
3221 Clear 34 1011 7 16093 5.7 290 01:27 12.05.2020
3222 Clear 35 1012 6 16093 2.6 250 00:27 12.05.2020
3223 Clear 35 1012 7 16093 6.2 270 23:58 11.05.2020
3224 Clear 35 1012 7 16093 6.2 270 23:40 11.05.2020
3225 Clear 35 1012 7 16093 6.2 270 23:20 11.05.2020
3226 Clear 35 1013 7 16093 6.7 190 22:58 11.05.2020
3227 Clear 35 1013 7 16093 6.7 190 22:58 11.05.2020
3228 Clear 35 1013 7 16093 6.7 190 22:40 11.05.2020
3229 Clear 34 1013 7 16093 6.7 190 22:20 11.05.2020
3230 Clouds 33 1014 11 16093 6.2 210 21:58 11.05.2020
3231 Clouds 33 1014 11 16093 6.2 210 21:39 11.05.2020
3232 Clouds 32 1014 12 16093 6.2 210 21:19 11.05.2020
3233 Clear 32 1015 14 16093 4.1 230 20:57 11.05.2020
3234 Clear 32 1015 14 16093 4.1 230 20:57 11.05.2020
3235 Clear 32 1015 14 16093 4.1 230 20:57 11.05.2020
3236 Clear 32 1015 14 16093 4.1 230 20:39 11.05.2020
3237 Clear 31 1015 14 16093 4.1 230 20:20 11.05.2020
3238 Clear 31 1015 23 16093 3.49 212 19:55 11.05.2020
3239 Clear 30 1015 23 16093 3.49 212 19:36 11.05.2020
3240 Clear 30 1015 23 16093 3.07 183 19:18 11.05.2020
3241 Clouds 29 1015 27 0 1.34 159 18:55 11.05.2020
3242 Clear 27 1015 28 16093 3.1 140 18:36 11.05.2020
3243 Clear 27 1016 22 16093 4.1 180 18:18 11.05.2020
3244 Clear 27 1016 22 16093 4.1 180 18:18 11.05.2020
3245 Clear 26 1015 31 16093 3.6 120 17:41 11.05.2020
3246 Clear 25 1015 31 16093 3.6 120 17:22 11.05.2020
3247 Clouds 24 1015 38 0 0.45 0 16:59 11.05.2020
3248 Clear 23 1015 37 11265 3.1 120 16:39 11.05.2020
3249 Clear 23 1015 37 11265 3.1 120 16:21 11.05.2020
3250 Clear 21 1015 45 11265 3.1 110 15:57 11.05.2020
3251 Clear 20 1015 45 11265 3.1 110 15:39 11.05.2020
3252 Clear 19 1015 42 16093 2.1 190 15:18 11.05.2020
3253 Clear 19 1015 42 16093 2.1 190 14:42 11.05.2020
3254 Clear 19 1015 42 16093 2.1 190 14:42 11.05.2020
3255 Clear 20 1015 42 16093 2.1 190 14:23 11.05.2020
3256 Clear 20 1015 35 16093 1.5 300 13:59 11.05.2020
3257 Clear 20 1015 35 16093 1.5 300 13:41 11.05.2020
3258 Clouds 20 1015 37 16093 3.1 70 13:19 11.05.2020
3259 Clear 20 1015 35 16093 2.01 143 12:58 11.05.2020
3260 Clear 20 1015 35 16093 2.01 143 12:39 11.05.2020
3261 Clear 21 1015 35 16093 2.52 118 12:21 11.05.2020
3262 Clear 21 1015 35 16093 3.6 100 11:55 11.05.2020
3263 Clear 21 1015 35 16093 3.6 100 11:37 11.05.2020
3264 Clear 21 1015 35 16093 3.6 100 11:18 11.05.2020
3265 Clear 21 1015 35 16093 3.6 100 11:18 11.05.2020
3266 Clear 21 1015 33 16093 1.5 200 10:54 11.05.2020
3267 Clear 22 1015 33 16093 3.1 120 10:36 11.05.2020
3268 Clear 22 1015 33 16093 1.5 200 10:18 11.05.2020
3269 Clear 23 1015 33 16093 3.6 160 09:42 11.05.2020
3270 Clear 23 1015 33 16093 3.6 160 09:22 11.05.2020
3271 Clouds 23 1015 29 16093 3.6 180 08:58 11.05.2020
3272 Clouds 23 1015 29 16093 3.6 180 08:58 11.05.2020
3273 Clouds 24 1015 29 16093 3.6 180 08:38 11.05.2020
3274 Clouds 25 1015 29 16093 3.6 180 08:18 11.05.2020
3275 Clouds 26 1015 27 16093 5.1 80 07:47 11.05.2020
3276 Clouds 26 1015 27 16093 5.1 80 07:28 11.05.2020
3277 Clear 26 1015 26 16093 2.1 290 06:52 11.05.2020
3278 Clear 26 1015 26 16093 2.1 290 06:18 11.05.2020
3279 Clear 27 1014 24 16093 2.6 360 05:28 11.05.2020
3280 Clear 28 1014 20 16093 3.6 350 04:35 11.05.2020
3281 Clouds 29 1013 23 16093 3.6 360 03:33 11.05.2020
3282 Clear 29 1014 25 16093 8.7 310 02:33 11.05.2020
3283 Clear 30 1014 21 16093 5.7 30 01:43 11.05.2020
3284 Rain 30 1014 19 16093 4.1 340 00:53 11.05.2020
3285 Rain 30 1014 19 16093 4.1 340 00:20 11.05.2020
3286 Clouds 33 1014 18 16093 2.6 60 23:44 10.05.2020
3287 Clouds 33 1014 18 16093 2.6 60 23:24 10.05.2020
3288 Clouds 33 1015 18 16093 5.7 40 22:57 10.05.2020
3289 Clouds 33 1015 18 16093 5.7 40 22:38 10.05.2020
3290 Clouds 33 1015 18 16093 5.7 40 22:20 10.05.2020
3291 Drizzle 32 1015 19 16093 10.3 20 21:44 10.05.2020
3292 Drizzle 32 1015 19 16093 10.3 20 21:44 10.05.2020
3293 Clouds 30 1016 19 16093 3.6 290 21:20 10.05.2020
3294 Clouds 29 1016 19 16093 3.6 290 20:55 10.05.2020
3295 Clouds 30 1016 19 16093 3.6 290 20:36 10.05.2020
3296 Clouds 30 1016 19 16093 3.6 290 20:36 10.05.2020
3297 Clouds 31 1016 19 16093 3.6 290 20:18 10.05.2020
3298 Clouds 31 1016 20 16093 1.5 60 19:40 10.05.2020
3299 Clouds 32 1016 20 16093 1.5 60 19:22 10.05.2020
3300 Clouds 31 1016 25 16093 1.5 110 18:57 10.05.2020
3301 Clouds 31 1016 25 16093 1.5 110 18:57 10.05.2020
3302 Clouds 31 1016 25 16093 1.5 110 18:37 10.05.2020
3303 Clouds 29 1016 25 16093 1.5 110 18:19 10.05.2020
3304 Clouds 28 1017 28 16093 3.1 110 17:59 10.05.2020
3305 Clouds 28 1017 28 16093 3.1 110 17:40 10.05.2020
3306 Clouds 28 1017 28 16093 3.1 110 17:21 10.05.2020
3307 Clouds 27 1016 30 16093 4.1 100 16:57 10.05.2020
3308 Clouds 27 1016 30 16093 4.1 100 16:38 10.05.2020
3309 Clouds 26 1016 30 16093 4.1 100 16:19 10.05.2020
3310 Clouds 25 1016 33 16093 6.2 100 15:44 10.05.2020
3311 Clouds 24 1016 33 16093 6.2 100 15:25 10.05.2020
3312 Clouds 23 1015 33 16093 2.6 150 14:58 10.05.2020
3313 Clouds 23 1015 33 16093 2.6 150 14:38 10.05.2020
3314 Clouds 23 1015 33 16093 2.6 150 14:38 10.05.2020
3315 Clouds 23 1015 33 16093 2.6 150 14:19 10.05.2020
3316 Clouds 23 1015 36 16093 2.1 140 13:58 10.05.2020
3317 Clouds 23 1015 36 16093 2.1 140 13:58 10.05.2020
3318 Clouds 23 1015 36 16093 2.1 140 13:38 10.05.2020
3319 Clouds 23 1015 36 16093 2.1 140 13:20 10.05.2020
3320 Clouds 24 1015 31 16093 3.6 90 12:57 10.05.2020
3321 Clouds 24 1015 31 16093 3.6 90 12:38 10.05.2020
3322 Clouds 25 1015 31 16093 3.6 90 12:20 10.05.2020
3323 Clouds 25 1016 31 16093 3.6 90 11:55 10.05.2020
3324 Clouds 25 1016 31 16093 3.6 90 11:55 10.05.2020
3325 Clouds 25 1016 31 16093 3.6 90 11:36 10.05.2020
3326 Clouds 25 1016 31 16093 3.6 90 11:18 10.05.2020
3327 Clouds 26 1016 31 16093 5.1 120 10:43 10.05.2020
3328 Clouds 26 1016 31 16093 5.1 120 10:25 10.05.2020
3329 Clouds 26 1016 29 16093 4.6 120 09:56 10.05.2020
3330 Clouds 26 1016 29 16093 4.6 120 09:38 10.05.2020
3331 Clouds 26 1016 29 16093 4.6 120 09:38 10.05.2020
3332 Clouds 26 1016 28 16093 2.6 250 09:19 10.05.2020
3333 Clouds 26 1016 28 16093 2.6 250 08:44 10.05.2020
3334 Clouds 26 1016 28 16093 2.6 250 08:23 10.05.2020
3335 Clouds 27 1016 23 16093 2.1 240 07:44 10.05.2020
3336 Clouds 27 1016 23 16093 2.1 240 07:19 10.05.2020
3337 Clouds 28 1015 21 16093 1.5 150 06:51 10.05.2020
3338 Clouds 28 1015 21 16093 1.5 150 06:29 10.05.2020
3339 Clouds 30 1014 21 16093 3.1 190 05:48 10.05.2020
3340 Clouds 31 1014 20 16093 7.7 170 04:49 10.05.2020
3341 Clouds 31 1014 20 16093 7.7 170 04:29 10.05.2020
3342 Clouds 31 1013 23 16093 7.2 150 03:52 10.05.2020
3343 Clouds 31 1013 23 16093 7.2 150 03:30 10.05.2020
3344 Clear 34 1012 12 16093 2.6 340 02:25 10.05.2020
3345 Clear 35 1013 13 16093 2.1 10 01:59 10.05.2020
3346 -273 0 0 0 0 0 01:59 10.05.2020
3347 Clear 35 1013 13 16093 2.1 10 01:40 10.05.2020
3348 Clear 35 1013 13 16093 2.1 10 01:19 10.05.2020
3349 Clouds 35 1013 13 16093 2.6 30 00:53 10.05.2020
3350 Clouds 35 1012 14 0 1.79 329 00:22 10.05.2020
3351 Clear 35 1014 14 16093 1.5 20 23:41 09.05.2020
3352 Clear 35 1014 14 16093 1.5 20 23:23 09.05.2020
3353 Clouds 35 1015 16 16093 2.6 360 22:59 09.05.2020
3354 Clouds 35 1015 16 16093 2.6 360 22:41 09.05.2020
3355 Clouds 34 1015 16 16093 2.6 360 22:22 09.05.2020
3356 Clear 34 1016 17 16093 3.6 280 21:57 09.05.2020
3357 Clear 34 1016 17 16093 3.6 280 21:39 09.05.2020
3358 Clear 33 1016 17 16093 3.6 280 21:20 09.05.2020
3359 Clear 32 1016 21 16093 1.5 220 20:57 09.05.2020
3360 Clear 33 1016 21 16093 1.5 220 20:38 09.05.2020
3361 Clear 32 1016 21 16093 1.5 220 20:19 09.05.2020
3362 Clear 31 1017 22 16093 3.1 250 19:54 09.05.2020
3363 Clear 31 1017 22 16093 3.1 250 19:36 09.05.2020
3364 Clear 31 1017 22 16093 3.1 250 19:36 09.05.2020
3365 Clear 31 1017 22 16093 3.1 250 19:18 09.05.2020
3366 Clear 30 1017 26 16093 1.5 240 18:41 09.05.2020
3367 Clear 28 1017 26 16093 1.5 240 18:21 09.05.2020
3368 Clear 27 1016 31 16093 1.33 312 17:44 09.05.2020
3369 Clear 26 1016 31 16093 0.54 187 17:23 09.05.2020
3370 Clear 25 1017 35 16093 4.1 160 16:56 09.05.2020
3371 Clear 24 1016 37 16093 3.6 140 16:38 09.05.2020
3372 Clear 24 1016 37 16093 3.6 140 16:18 09.05.2020
3373 Clear 20 1015 42 16093 4.1 140 15:42 09.05.2020
3374 Clear 20 1015 42 16093 4.1 140 15:22 09.05.2020
3375 Clear 20 1015 42 16093 4.1 140 15:22 09.05.2020
3376 Clear 20 1015 42 16093 4.1 130 14:56 09.05.2020
3377 Clear 19 1015 42 16093 4.1 130 14:37 09.05.2020
3378 Clear 20 1015 42 16093 4.1 130 14:18 09.05.2020
3379 Clear 20 1015 42 16093 3.6 140 13:43 09.05.2020
3380 Clear 20 1015 42 16093 3.6 140 13:22 09.05.2020
3381 Clear 21 1014 40 16093 2.6 170 12:59 09.05.2020
3382 Clear 20 1014 40 16093 2.6 170 12:39 09.05.2020
3383 Clear 21 1014 40 16093 2.6 170 12:21 09.05.2020
3384 Clear 22 1015 35 16093 5.1 120 11:45 09.05.2020
3385 Clear 22 1015 35 16093 5.1 120 11:20 09.05.2020
3386 Clear 22 1015 35 16093 5.1 130 10:54 09.05.2020
3387 Clear 22 1015 35 16093 5.1 130 10:36 09.05.2020
3388 Clear 22 1015 35 16093 5.1 130 10:18 09.05.2020
3389 Clear 23 1015 31 16093 4.6 120 09:43 09.05.2020
3390 Clear 24 1015 31 16093 4.6 120 09:20 09.05.2020
3391 Clear 25 1015 26 16093 5.1 130 08:55 09.05.2020
3392 Clear 25 1015 26 16093 5.1 130 08:36 09.05.2020
3393 Clear 26 1015 26 16093 6.2 170 07:56 09.05.2020
3394 Clear 26 1015 26 16093 6.2 170 07:38 09.05.2020
3395 Clear 26 1015 26 16093 6.2 170 07:20 09.05.2020
3396 Clouds 27 1015 18 16093 3.1 170 06:27 09.05.2020
3397 Clouds 28 1014 21 0 0.45 188 05:50 09.05.2020
3398 Clouds 28 1014 19 0 0.45 188 05:20 09.05.2020
3399 Clouds 32 1013 13 16093 4.1 310 03:39 09.05.2020
3400 Clouds 32 1013 14 16093 4.1 310 02:54 09.05.2020
3401 Clouds 32 1013 14 16093 4.1 310 02:30 09.05.2020
3402 Clear 33 1013 13 16093 8.2 360 01:49 09.05.2020
3403 Clouds 33 1014 10 16093 7.2 300 01:21 09.05.2020
3404 Clouds 34 1014 10 16093 7.2 300 00:42 09.05.2020
3405 Clouds 34 1014 10 16093 7.2 300 00:18 09.05.2020
3406 Clouds 34 1014 9 16093 3.6 20 23:43 08.05.2020
3407 Clouds 34 1015 8 16093 1.5 30 23:25 08.05.2020
3408 Clouds 35 1015 8 16093 1.5 30 22:56 08.05.2020
3409 Clouds 35 1015 8 16093 1.5 30 22:37 08.05.2020
3410 Clouds 35 1015 8 16093 1.5 30 22:19 08.05.2020
3411 Clouds 34 1015 14 16093 2.6 10 21:54 08.05.2020
3412 Clouds 34 1015 14 16093 2.6 10 21:36 08.05.2020
3413 Clouds 34 1016 13 16093 1.5 50 21:18 08.05.2020
3414 Clouds 34 1016 13 16093 1.5 50 20:55 08.05.2020
3415 Clouds 33 1016 13 16093 1.5 50 20:36 08.05.2020
3416 Clouds 33 1016 13 16093 1.5 50 20:36 08.05.2020
3417 Clouds 33 1016 13 16093 1.5 50 20:18 08.05.2020
3418 Clear 33 1016 14 16093 1.5 260 19:41 08.05.2020
3419 Clear 33 1016 15 16093 1.5 260 19:21 08.05.2020
3420 Clear 31 1015 15 16093 4.1 160 18:45 08.05.2020
3421 Clear 30 1015 15 16093 4.1 160 18:27 08.05.2020
3422 Clear 29 1015 17 16093 4.1 190 17:43 08.05.2020
3423 Clear 28 1015 17 16093 4.1 190 17:20 08.05.2020
3424 Clear 26 1015 16 16093 3.1 130 16:56 08.05.2020
3425 Clear 26 1015 16 16093 3.1 130 16:38 08.05.2020
3426 Clear 25 1015 17 16093 3.1 130 16:19 08.05.2020
3427 Clear 20 1014 21 16093 2.1 90 15:43 08.05.2020
3428 Clear 20 1014 21 16093 2.1 90 15:22 08.05.2020
3429 Clear 20 1014 24 16093 2.1 70 14:57 08.05.2020
3430 Clear 20 1014 24 16093 2.1 70 14:39 08.05.2020
3431 Clear 20 1014 24 16093 2.1 70 14:19 08.05.2020
3432 Clear 21 1014 19 16093 3.6 120 13:55 08.05.2020
3433 Clear 21 1014 19 16093 3.6 120 13:36 08.05.2020
3434 Clear 21 1014 19 16093 3.6 120 13:18 08.05.2020
3435 Clear 21 1013 19 16093 4.1 110 12:42 08.05.2020
3436 Clear 22 1013 19 16093 4.1 110 12:23 08.05.2020
3437 Clear 22 1013 18 16093 3.1 130 11:44 08.05.2020
3438 Clear 23 1013 18 16093 3.1 130 11:23 08.05.2020
3439 Clear 23 1013 18 16093 3.1 130 11:23 08.05.2020
3440 Clear 23 1014 17 16093 4.1 120 10:59 08.05.2020
3441 Clear 24 1014 17 16093 4.1 120 10:41 08.05.2020
3442 Clear 24 1014 17 16093 4.1 120 10:19 08.05.2020
3443 Clear 24 1014 15 16093 4.6 100 09:56 08.05.2020
3444 Clear 25 1014 15 16093 4.6 100 09:38 08.05.2020
3445 Clear 26 1014 15 16093 4.6 100 09:18 08.05.2020
3446 Clear 27 1013 13 16093 1.5 310 08:42 08.05.2020
3447 Clear 28 1013 13 16093 1.5 310 08:22 08.05.2020
3448 Clear 29 1013 12 16093 4.1 280 07:43 08.05.2020
3449 Clear 29 1013 12 16093 4.1 280 07:24 08.05.2020
3450 Clear 30 1012 9 16093 3.1 310 06:51 08.05.2020
3451 Clear 30 1012 9 16093 3.1 310 06:24 08.05.2020
3452 Clear 31 1011 8 16093 2.6 320 05:51 08.05.2020
3453 Clear 34 1011 7 16093 5.1 320 04:38 08.05.2020
3454 Clear 37 1011 5 16093 5.7 280 02:34 08.05.2020
3455 Clear 38 1011 5 16093 7.2 290 01:53 08.05.2020
3456 Clear 38 1011 5 16093 5.7 290 01:28 08.05.2020
3457 Clear 38 1011 4 16093 7.7 290 00:52 08.05.2020
3458 Clear 38 1012 6 16093 4.6 290 00:30 08.05.2020
3459 Clear 38 1012 5 16093 5.1 280 23:59 07.05.2020
3460 Clear 38 1012 5 16093 5.1 280 23:40 07.05.2020
3461 Clear 38 1012 5 16093 5.1 280 23:40 07.05.2020
3462 Clear 38 1012 5 16093 5.1 280 23:40 07.05.2020
3463 Clear 38 1012 5 16093 5.1 280 23:21 07.05.2020
3464 Clear 38 1013 5 16093 5.7 290 22:56 07.05.2020
3465 Clear 38 1013 5 16093 5.7 290 22:37 07.05.2020
3466 Clear 37 1013 5 16093 5.7 290 22:19 07.05.2020
3467 Clear 37 1014 6 16093 2.6 0 21:55 07.05.2020
3468 Clouds 36 1014 6 16093 2.6 250 21:36 07.05.2020
3469 Clouds 36 1014 6 16093 2.6 250 21:18 07.05.2020
3470 Clear 35 1014 7 16093 3.1 320 20:42 07.05.2020
3471 Clear 35 1014 7 16093 3.1 320 20:22 07.05.2020
3472 Clear 35 1015 9 16093 1.5 0 19:54 07.05.2020
3473 Clear 34 1015 9 16093 1.5 0 19:36 07.05.2020
3474 Clear 34 1015 9 16093 1.5 0 19:18 07.05.2020
3475 Clear 33 1015 10 16093 1.5 90 18:42 07.05.2020
3476 Clear 31 1015 10 16093 1.5 90 18:24 07.05.2020
3477 Clear 29 1015 13 16093 2.1 90 17:43 07.05.2020
3478 Clear 28 1015 13 16093 2.1 90 17:21 07.05.2020
3479 Clear 28 1015 13 16093 2.1 90 17:21 07.05.2020
3480 Clear 26 1015 15 16093 3.1 130 16:58 07.05.2020
3481 Clear 25 1015 15 16093 3.1 130 16:40 07.05.2020
3482 Clear 24 1015 15 16093 3.1 130 16:18 07.05.2020
3483 Clear 24 1015 15 16093 3.1 130 16:18 07.05.2020
3484 Clear 20 1014 18 16093 2.6 90 15:55 07.05.2020
3485 Clear 20 1014 18 16093 2.6 90 15:37 07.05.2020
3486 Clear 19 1014 18 16093 2.6 90 15:18 07.05.2020
3487 Clear 18 1014 19 16093 3.6 120 14:43 07.05.2020
3488 Clear 19 1014 19 16093 3.6 120 14:20 07.05.2020
3489 Clear 20 1014 16 16093 4.1 120 13:44 07.05.2020
3490 Clear 20 1014 16 16093 4.1 120 13:25 07.05.2020
3491 Clear 20 1014 15 16093 3.6 150 12:45 07.05.2020
3492 Clear 20 1014 15 16093 3.6 150 12:45 07.05.2020
3493 Clear 21 1014 15 16093 3.6 150 12:20 07.05.2020
3494 Clear 21 1014 13 16093 3.6 170 11:59 07.05.2020
3495 -273 0 0 0 0 0 11:59 07.05.2020
3496 Clear 21 1014 13 16093 3.6 170 11:59 07.05.2020
3497 Clear 22 1014 13 16093 3.6 170 11:39 07.05.2020
3498 Clear 22 1014 13 16093 3.6 170 11:20 07.05.2020
3499 Clear 23 1015 12 16093 3.1 150 10:42 07.05.2020
3500 Clear 23 1015 12 16093 3.1 150 10:23 07.05.2020
3501 Clear 25 1015 12 16093 2.1 190 09:41 07.05.2020
3502 Clear 25 1015 12 16093 2.1 190 09:20 07.05.2020
3503 Clear 27 1014 10 16093 3.1 230 08:57 07.05.2020
3504 Clear 28 1014 10 16093 3.1 230 08:39 07.05.2020
3505 Clear 28 1014 10 16093 3.1 230 08:20 07.05.2020
3506 Clear 29 1014 9 16093 2.6 270 07:46 07.05.2020
3507 Clear 30 1014 9 16093 2.6 270 07:28 07.05.2020
3508 Clear 31 1013 7 16093 3.1 300 06:52 07.05.2020
3509 Clear 32 1013 7 16093 3.1 300 06:33 07.05.2020
3510 Clear 33 1013 5 16093 3.1 300 05:32 07.05.2020
3511 Clear 35 1012 5 16093 4.1 310 04:24 07.05.2020
3512 Clear 37 1012 5 16093 6.2 310 03:26 07.05.2020
3513 Clear 38 1012 5 16093 5.7 300 02:53 07.05.2020
3514 Clear 39 1012 4 16093 5.7 300 01:46 07.05.2020
3515 Clear 40 1012 4 16093 5.7 300 01:24 07.05.2020
3516 Clear 40 1013 5 16093 5.1 330 00:47 07.05.2020
3517 Clear 40 1013 5 16093 5.1 330 00:28 07.05.2020
3518 Clear 40 1014 4 16093 5.7 300 23:48 06.05.2020
3519 Clear 39 1014 4 16093 5.7 300 23:26 06.05.2020
3520 Clear 39 1015 4 16093 4.1 10 22:58 06.05.2020
3521 Clear 39 1014 5 16093 2.6 10 22:40 06.05.2020
3522 Clear 38 1014 5 16093 2.6 10 22:20 06.05.2020
3523 Clear 38 1016 5 16093 1.5 40 21:58 06.05.2020
3524 Clear 38 1016 5 16093 1.5 40 21:40 06.05.2020
3525 Clear 38 1016 5 16093 1.5 40 21:40 06.05.2020
3526 Clear 37 1015 7 16093 1.91 209 21:21 06.05.2020
3527 Clear 36 1016 7 16093 1.5 100 20:43 06.05.2020
3528 Clear 36 1016 6 16093 2.6 20 20:25 06.05.2020
3529 Clear 35 1016 10 0 0.89 355 19:59 06.05.2020
3530 Clear 35 1016 9 16093 1.8 158 19:39 06.05.2020
3531 Clear 34 1016 9 16093 2.36 132 19:21 06.05.2020
3532 Clear 33 1016 12 16093 1.5 180 18:59 06.05.2020
3533 Clear 32 1016 12 16093 1.5 180 18:41 06.05.2020
3534 Clear 30 1016 12 16093 1.5 180 18:22 06.05.2020
3535 Clear 29 1016 14 16093 3.1 150 17:59 06.05.2020
3536 Clear 28 1016 14 16093 3.1 150 17:40 06.05.2020
3537 Clear 27 1016 14 16093 3.1 150 17:22 06.05.2020
3538 Clear 25 1016 18 16093 3.6 120 16:58 06.05.2020
3539 Clear 25 1016 18 16093 3.6 120 16:58 06.05.2020
3540 Clear 24 1016 18 16093 3.6 120 16:40 06.05.2020
3541 Clear 21 1016 18 16093 3.6 120 16:21 06.05.2020
3542 Clear 19 1015 20 16093 1.97 117 15:58 06.05.2020
3543 Clear 19 1015 20 16093 1.97 117 15:40 06.05.2020
3544 Clear 18 1015 20 16093 1.16 118 15:21 06.05.2020
3545 Clear 17 1015 23 16093 2.6 110 14:55 06.05.2020
3546 Clear 17 1015 23 16093 2.6 110 14:36 06.05.2020
3547 Clear 18 1015 23 16093 2.6 110 14:18 06.05.2020
3548 Clear 18 1015 22 16093 4.1 130 13:43 06.05.2020
3549 Clear 19 1015 22 16093 4.1 130 13:24 06.05.2020
3550 Clear 19 1015 18 16093 2.6 110 12:56 06.05.2020
3551 Clear 19 1015 18 16093 2.6 110 12:37 06.05.2020
3552 Clear 19 1015 18 16093 2.6 110 12:19 06.05.2020
3553 Clear 20 1015 19 16093 4.1 110 11:40 06.05.2020
3554 Clear 21 1015 19 16093 4.1 110 11:21 06.05.2020
3555 Clear 21 1016 16 16093 3.1 110 10:57 06.05.2020
3556 Clear 21 1016 16 16093 3.1 110 10:38 06.05.2020
3557 Clear 21 1016 16 16093 3.1 110 10:19 06.05.2020
3558 Clear 22 1016 15 16093 2.6 160 09:44 06.05.2020
3559 Clear 23 1016 15 16093 2.6 160 09:23 06.05.2020
3560 Clear 24 1016 16 16093 2.1 160 08:49 06.05.2020
3561 Clear 24 1016 16 16093 2.1 160 08:24 06.05.2020
3562 Clear 25 1015 13 16093 0.97 349 07:59 06.05.2020
3563 Clear 27 1015 13 16093 0.97 349 07:39 06.05.2020
3564 Clear 26 1015 13 16093 1.74 3 07:20 06.05.2020
3565 Clear 28 1015 10 16093 2.1 320 06:53 06.05.2020
3566 Clear 29 1015 10 16093 2.1 320 06:22 06.05.2020
3567 Clear 30 1014 8 16093 3.1 330 05:55 06.05.2020
3568 Clear 31 1014 8 16093 3.1 330 05:37 06.05.2020
3569 Clear 31 1014 8 16093 3.1 330 05:37 06.05.2020
3570 Clear 33 1013 5 16093 5.7 340 04:38 06.05.2020
3571 Clear 35 1013 4 16093 3.6 350 03:40 06.05.2020
3572 Clear 36 1013 4 16093 4.6 330 03:20 06.05.2020
3573 Clear 37 1013 4 16093 4.6 330 02:30 06.05.2020
3574 Clear 37 1013 3 0 4.1 330 01:54 06.05.2020
3575 Clear 37 1013 3 0 4.1 330 01:31 06.05.2020
3576 Clear 37 1014 5 16093 2.6 210 00:53 06.05.2020
3577 Clear 37 1014 5 16093 2.6 210 00:26 06.05.2020
3578 Clear 37 1014 6 16093 2.1 350 23:56 05.05.2020
3579 Clear 37 1014 7 16093 2.7 299 23:37 05.05.2020
3580 Clear 37 1015 5 16093 3.6 340 23:18 05.05.2020
3581 Clear 36 1015 6 16093 1.96 280 22:41 05.05.2020
3582 Clear 36 1015 6 16093 1.08 238 22:19 05.05.2020
3583 Clear 36 1015 6 16093 1.08 238 21:57 05.05.2020
3584 Clear 35 1015 6 16093 1.08 238 21:38 05.05.2020
3585 Clear 34 1015 6 16093 0.44 170 21:20 05.05.2020
3586 Clear 34 1016 7 16093 2.6 120 20:56 05.05.2020
3587 Clear 34 1016 7 16093 2.6 120 20:38 05.05.2020
3588 Clear 33 1016 7 16093 2.6 120 20:18 05.05.2020
3589 Clear 32 1016 12 0 0.89 173 19:42 05.05.2020
3590 Clear 32 1016 9 16093 2.37 126 19:24 05.05.2020
3591 Clear 31 1016 12 16093 1.5 210 18:58 05.05.2020
3592 Clear 30 1016 12 16093 1.5 210 18:40 05.05.2020
3593 Clear 28 1017 13 16093 2.6 180 18:20 05.05.2020
3594 Clear 27 1016 16 16093 2.1 140 17:58 05.05.2020
3595 Clear 27 1016 16 16093 2.1 140 17:58 05.05.2020
3596 Clear 27 1016 16 16093 2.1 140 17:39 05.05.2020
3597 Clear 26 1016 16 16093 2.1 140 17:21 05.05.2020
3598 Clear 24 1016 20 16093 3.6 120 16:55 05.05.2020
3599 Clear 23 1016 28 0 2.5 133 16:36 05.05.2020
3600 Clear 20 1015 26 16093 3.1 130 16:18 05.05.2020
3601 Clear 17 1015 26 16093 3.1 130 15:40 05.05.2020
3602 Clear 17 1015 26 16093 3.1 130 15:21 05.05.2020
3603 Clear 16 1015 26 16093 3.6 120 14:56 05.05.2020
3604 Clear 16 1015 26 16093 3.6 120 14:38 05.05.2020
3605 Clear 16 1015 26 16093 3.6 120 14:19 05.05.2020
3606 Clear 16 1015 25 16093 4.1 120 13:57 05.05.2020
3607 Clear 17 1015 25 16093 4.1 120 13:38 05.05.2020
3608 Clear 17 1015 25 16093 4.1 120 13:19 05.05.2020
3609 Clear 17 1015 22 16093 2.6 120 12:57 05.05.2020
3610 Clear 17 1015 22 16093 2.6 120 12:38 05.05.2020
3611 Clear 18 1015 22 16093 2.6 120 12:19 05.05.2020
3612 Clear 18 1015 22 16093 3.1 130 11:41 05.05.2020
3613 Clear 19 1015 22 16093 3.1 130 11:20 05.05.2020
3614 Clear 19 1015 19 16093 2.1 120 10:56 05.05.2020
3615 Clear 19 1015 19 16093 2.1 120 10:38 05.05.2020
3616 Clear 20 1015 19 16093 2.1 120 10:19 05.05.2020
3617 Clear 20 1015 18 16093 2.6 190 09:55 05.05.2020
3618 Clear 20 1015 18 16093 2.6 190 09:37 05.05.2020
3619 Clear 22 1014 15 16093 3.6 220 09:18 05.05.2020
3620 Clear 22 1014 15 16093 3.6 220 08:41 05.05.2020
3621 Clear 22 1014 15 16093 3.6 220 08:19 05.05.2020
3622 Clear 22 1014 15 16093 1.5 280 07:45 05.05.2020
3623 Clear 23 1014 15 16093 1.5 280 07:23 05.05.2020
3624 Clear 26 1014 10 16093 2.1 330 06:59 05.05.2020
3625 Clear 26 1014 10 16093 2.1 330 06:40 05.05.2020
3626 Clear 26 1014 10 16093 2.1 330 06:20 05.05.2020
3627 Clear 28 1013 11 16093 3.6 340 05:28 05.05.2020
3628 Clear 33 1012 12 0 2.68 351 02:57 05.05.2020
3629 Clear 34 1013 6 16093 5.7 330 01:20 05.05.2020
3630 Clear 34 1013 7 16093 6.2 310 00:49 05.05.2020
3631 Clear 34 1014 9 16093 2.1 310 23:57 04.05.2020
3632 Clear 34 1014 9 16093 2.1 310 23:38 04.05.2020
3633 Clear 34 1015 7 16093 1.5 0 23:19 04.05.2020
3634 Clear 33 1015 8 16093 1.5 240 22:55 04.05.2020
3635 Clear 34 1014 12 0 1.79 348 22:36 04.05.2020
3636 Clear 33 1014 12 0 1.79 223 22:18 04.05.2020
3637 Clear 33 1015 11 16093 1.5 300 21:51 04.05.2020
3638 Clear 33 1015 11 16093 1.5 300 21:51 04.05.2020
3639 Clear 33 1015 11 16093 1.5 300 21:50 04.05.2020
3640 Clear 33 1015 11 16093 1.5 300 21:50 04.05.2020
3641 Clear 33 1015 11 16093 1.5 300 21:49 04.05.2020
3642 Clear 32 1015 11 16093 1.5 300 21:25 04.05.2020
3643 Clear 32 1015 11 16093 1.5 300 21:25 04.05.2020
3644 Clear 32 1015 11 16093 1.5 300 21:25 04.05.2020
3645 Clear 32 1015 11 16093 1.5 300 21:24 04.05.2020
3646 Clear 32 1015 11 16093 1.5 300 21:24 04.05.2020
3647 Clear 31 1016 10 16093 1.71 263 20:43 04.05.2020
3648 Clear 31 1016 10 16093 1.23 252 20:21 04.05.2020
3649 Clear 30 1015 17 0 1.79 191 19:58 04.05.2020
3650 Clear 30 1016 18 0 0.89 188 19:40 04.05.2020
3651 Clear 30 1016 18 0 0.89 188 19:40 04.05.2020
3652 Clear 30 1016 18 0 0.89 188 19:40 04.05.2020
3653 Clear 29 1017 15 16093 0.66 224 19:19 04.05.2020
3654 Clear 29 1016 19 16093 1.5 100 18:54 04.05.2020
3655 Clear 28 1016 19 16093 1.5 100 18:36 04.05.2020
3656 Clear 27 1017 16 16093 2.1 0 18:18 04.05.2020
3657 Clear 26 1016 22 0 0.68 168 17:41 04.05.2020
3658 Clear 25 1017 21 16093 2.1 160 17:21 04.05.2020
3659 Clear 24 1016 26 0 0.89 141 16:59 04.05.2020
3660 Clear 23 1016 13 16093 3.1 120 16:41 04.05.2020
3661 Clear 21 1016 14 16093 3.1 120 16:19 04.05.2020
3662 Clear 21 1016 14 16093 3.1 120 16:19 04.05.2020
3663 Clear 17 1015 29 16093 3.1 130 15:42 04.05.2020
3664 Clear 17 1015 29 16093 3.1 130 15:22 04.05.2020
3665 Clear 16 1015 29 16093 3.6 120 14:54 04.05.2020
3666 Clear 16 1015 29 16093 3.6 120 14:54 04.05.2020
3667 Clear 16 1015 29 16093 3.6 120 14:54 04.05.2020
3668 Clear 16 1015 29 16093 3.6 120 14:54 04.05.2020
3669 Clear 16 1015 29 16093 3.6 120 14:54 04.05.2020
3670 Clear 17 1015 29 16093 3.6 120 14:29 04.05.2020
3671 Clear 17 1015 29 16093 3.6 120 14:28 04.05.2020
3672 Clear 17 1015 29 16093 3.6 120 14:28 04.05.2020
3673 Clear 17 1015 29 16093 3.6 120 14:28 04.05.2020
3674 Clear 17 1015 29 16093 3.6 120 14:27 04.05.2020
3675 Clear 18 1015 25 16093 4.1 150 13:36 04.05.2020
3676 Clear 18 1015 25 16093 4.1 150 13:36 04.05.2020
3677 Clear 18 1015 25 16093 4.1 150 13:32 04.05.2020
3678 Clear 18 1015 25 16093 4.1 150 13:32 04.05.2020
3679 Clear 18 1015 27 11265 2.6 130 12:44 04.05.2020
3680 Clear 18 1015 27 11265 2.6 130 12:44 04.05.2020
3681 Clear 18 1015 27 11265 2.6 130 12:44 04.05.2020
3682 Clear 18 1015 27 11265 2.6 130 12:44 04.05.2020
3683 Clear 18 1015 27 11265 2.6 130 12:44 04.05.2020
3684 Clear 19 1015 24 16093 2.1 130 11:29 04.05.2020
3685 Clear 19 1015 24 16093 2.1 130 11:29 04.05.2020
3686 Clear 19 1015 24 16093 2.1 130 11:29 04.05.2020
3687 Clear 19 1015 24 16093 2.1 130 11:29 04.05.2020
3688 Clear 19 1015 24 16093 2.1 130 11:29 04.05.2020
3689 Clear 22 1015 18 16093 3.1 150 09:31 04.05.2020
3690 Clear 25 1016 13 16093 2.6 280 07:58 04.05.2020
3691 Clear 25 1016 13 16093 2.6 280 07:38 04.05.2020
3692 Clear 27 1015 12 16093 3.6 280 06:25 04.05.2020
3693 Clear 27 1015 12 16093 3.6 280 06:24 04.05.2020
3694 Clear 27 1015 12 16093 3.6 280 06:24 04.05.2020
3695 Clear 30 1013 12 0 1.34 0 04:53 04.05.2020
3696 Clear 33 1013 6 16093 4.6 300 03:18 04.05.2020
3697 Clear 34 1013 9 16093 5.7 310 02:29 04.05.2020
3698 Clear 35 1013 9 16093 2.1 40 00:33 04.05.2020
3699 Clear 35 1013 9 16093 2.1 40 00:33 04.05.2020
3700 Clear 35 1013 9 16093 2.1 40 00:33 04.05.2020
3701 Clear 34 1015 8 16093 3.6 280 23:45 03.05.2020
3702 Clear 34 1015 8 16093 3.6 280 23:24 03.05.2020
3703 Clear 34 1015 10 16093 2.1 290 22:45 03.05.2020
3704 Clear 34 1015 10 16093 2.1 290 22:25 03.05.2020
3705 Clear 33 1015 15 0 1.79 189 21:57 03.05.2020
3706 Clear 33 1016 8 16093 1.5 200 21:39 03.05.2020
3707 Clear 32 1016 16 16093 3.42 241 21:20 03.05.2020
3708 Clear 32 1017 9 16093 2.6 200 20:46 03.05.2020
3709 Clear 32 1017 9 16093 2.6 200 20:46 03.05.2020
3710 Clear 31 1016 16 16093 2.87 228 20:21 03.05.2020
3711 Clear 31 1017 20 16093 2.87 228 19:50 03.05.2020
3712 Clear 31 1017 20 16093 2.87 228 19:50 03.05.2020
3713 Clear 31 1017 20 16093 2.87 228 19:50 03.05.2020
3714 Clear 31 1017 20 16093 2.87 228 19:50 03.05.2020
3715 Clear 30 1017 20 16093 2.87 228 19:31 03.05.2020
3716 Clear 30 1016 23 0 0.89 90 18:59 03.05.2020
3717 Clear 30 1016 23 0 0.89 90 18:59 03.05.2020
3718 Clear 30 1016 23 0 0.89 90 18:59 03.05.2020
3719 Clear 30 1016 23 0 0.89 90 18:59 03.05.2020
3720 Clear 29 1018 20 16093 3.6 150 18:38 03.05.2020
3721 Clear 29 1018 20 16093 3.6 150 18:38 03.05.2020
3722 Clear 29 1018 20 16093 3.6 150 18:38 03.05.2020
3723 Clear 29 1018 20 16093 3.6 150 18:38 03.05.2020
3724 Clear 29 1018 20 16093 3.6 150 18:38 03.05.2020
3725 Clear 28 1017 24 16093 2.1 120 18:19 03.05.2020
3726 Clear 28 1017 24 16093 2.1 120 18:19 03.05.2020
3727 Clear 26 1009 28 0 0.45 6 17:41 03.05.2020
3728 Clear 25 1017 29 16093 4.1 120 17:22 03.05.2020
3729 Clear 24 1017 30 16093 4.1 140 16:46 03.05.2020
3730 Clear 22 1017 30 16093 4.1 140 16:21 03.05.2020
3731 Clear 22 1017 30 16093 4.1 140 16:21 03.05.2020
3732 Clear 21 1016 39 16093 3.6 150 15:59 03.05.2020
3733 Clear 19 1016 39 16093 3.6 150 15:40 03.05.2020
3734 Clear 18 1016 39 16093 3.6 150 15:21 03.05.2020
3735 Clear 18 1016 34 16093 3.1 120 14:58 03.05.2020
3736 Clear 18 1016 34 16093 3.1 120 14:40 03.05.2020
3737 Clear 18 1016 34 16093 3.1 120 14:40 03.05.2020
3738 Clear 18 1016 34 16093 3.1 120 14:40 03.05.2020
3739 Clear 18 1016 34 16093 3.1 120 14:21 03.05.2020
3740 Clear 19 1016 28 16093 3.1 100 13:55 03.05.2020
3741 Clear 19 1016 28 16093 3.6 90 13:22 03.05.2020
3742 Clear 19 1016 28 16093 3.6 90 13:22 03.05.2020
3743 Clear 19 1016 28 16093 3.1 100 13:22 03.05.2020
3744 Clear 19 1016 28 16093 3.1 100 13:22 03.05.2020
3745 Clear 19 1016 28 16093 3.6 90 12:45 03.05.2020
3746 Clear 20 1016 28 16093 3.6 90 12:18 03.05.2020
3747 Clear 21 1017 28 16093 2.6 90 11:56 03.05.2020
3748 Clear 21 1017 28 16093 2.6 90 11:37 03.05.2020
3749 Clear 21 1017 28 16093 2.6 90 11:19 03.05.2020
3750 Clear 21 1017 28 16093 3.1 130 10:46 03.05.2020
3751 Clear 21 1017 28 16093 3.1 130 10:46 03.05.2020
3752 Clear 21 1017 28 16093 3.1 130 10:46 03.05.2020
3753 Clear 21 1017 28 16093 3.1 130 10:46 03.05.2020
3754 Clear 23 1017 27 16093 2.6 170 09:58 03.05.2020
3755 Clear 23 1017 27 16093 2.6 170 09:58 03.05.2020
3756 Clear 24 1017 27 16093 2.6 170 09:34 03.05.2020
3757 Clear 25 1017 25 16093 2.6 270 08:56 03.05.2020
3758 Clear 25 1017 25 16093 2.6 270 08:56 03.05.2020
3759 Clear 25 1017 25 16093 2.6 270 08:56 03.05.2020
3760 Clear 26 1017 25 16093 2.6 270 08:26 03.05.2020
3761 Clear 26 1017 25 16093 2.6 270 08:26 03.05.2020
3762 Clear 27 1016 22 16093 3.1 280 07:39 03.05.2020
3763 Clear 27 1016 22 16093 3.1 280 07:39 03.05.2020
3764 Clear 27 1016 22 16093 3.1 280 07:39 03.05.2020
3765 Clear 29 1015 20 16093 4.1 300 06:20 03.05.2020
3766 Clear 29 1015 21 0 2.68 0 05:47 03.05.2020
3767 Clear 31 1014 19 0 2.68 0 04:54 03.05.2020
3768 Clear 32 1014 16 0 1.79 0 04:26 03.05.2020
3769 Clear 35 1013 11 16093 4.6 220 02:59 03.05.2020
3770 Clear 35 1013 11 16093 4.6 220 02:59 03.05.2020
3771 Clear 35 1013 11 16093 4.6 220 02:24 03.05.2020
3772 Clear 36 1013 9 16093 6.7 230 01:44 03.05.2020
3773 Clear 36 1013 9 16093 6.7 230 01:24 03.05.2020
3774 Clear 36 1014 11 16093 5.7 220 00:42 03.05.2020
3775 Clear 36 1014 11 16093 5.7 220 00:21 03.05.2020
3776 Clear 36 1015 12 16093 3.6 250 23:59 02.05.2020
3777 Clear 36 1015 12 16093 3.6 250 23:41 02.05.2020
3778 Clear 36 1015 12 16093 3.6 250 23:21 02.05.2020
3779 Clear 35 1015 8 16093 6.7 240 22:43 02.05.2020
3780 Clear 35 1015 8 16093 6.7 240 22:23 02.05.2020
3781 Clear 35 1016 12 16093 6.2 220 21:56 02.05.2020
3782 Clear 35 1016 13 16093 3.6 250 21:38 02.05.2020
3783 Clear 34 1016 13 16093 3.6 250 21:18 02.05.2020
3784 Clear 34 1016 13 16093 3.6 250 21:18 02.05.2020
3785 Clear 34 1017 14 16093 4.6 140 20:56 02.05.2020
3786 Clear 34 1017 14 16093 4.6 140 20:37 02.05.2020
3787 Clear 33 1017 14 16093 4.1 170 20:19 02.05.2020
3788 Clear 32 1017 15 16093 5.7 170 19:56 02.05.2020
3789 Clear 32 1017 15 16093 5.7 170 19:37 02.05.2020
3790 Clear 31 1017 17 16093 5.1 150 19:18 02.05.2020
3791 Clear 30 1017 21 0 1.79 173 18:40 02.05.2020
3792 Clear 28 1017 21 16093 4.6 180 18:22 02.05.2020
3793 Clear 28 1017 22 16093 2.6 80 17:57 02.05.2020
3794 Clear 28 1017 22 16093 2.6 80 17:39 02.05.2020
3795 Clear 27 1017 22 16093 2.6 80 17:20 02.05.2020
3796 Clear 25 1017 25 16093 2.6 110 16:57 02.05.2020
3797 Clear 25 1017 25 16093 2.6 110 16:39 02.05.2020
3798 Clear 24 1017 25 16093 2.6 110 16:21 02.05.2020
3799 Clear 20 1016 29 16093 4.1 120 15:42 02.05.2020
3800 Clear 19 1016 29 16093 4.1 120 15:20 02.05.2020
3801 Clear 19 1015 29 16093 4.1 110 14:46 02.05.2020
3802 Clear 19 1015 29 16093 4.1 110 14:28 02.05.2020
3803 Clear 19 1015 28 16093 3.6 110 13:59 02.05.2020
3804 Clear 19 1015 28 16093 3.6 110 13:40 02.05.2020
3805 Clear 20 1015 28 16093 3.6 110 13:20 02.05.2020
3806 Clear 20 1015 28 16093 3.6 110 12:43 02.05.2020
3807 Clear 21 1015 28 16093 3.6 110 12:24 02.05.2020
3808 Clear 21 1015 28 16093 3.1 130 11:58 02.05.2020
3809 Clear 21 1015 28 16093 3.1 130 11:39 02.05.2020
3810 Clear 21 1015 28 16093 3.1 130 11:21 02.05.2020
3811 Clear 21 1015 26 16093 2.05 183 10:56 02.05.2020
3812 Clear 21 1015 26 16093 2.05 183 10:38 02.05.2020
3813 Clear 21 1015 26 16093 2.33 162 10:20 02.05.2020
3814 Clear 21 1015 26 16093 2.33 162 10:20 02.05.2020
3815 Clear 22 1015 23 16093 3.1 130 09:54 02.05.2020
3816 Clear 22 1015 23 16093 3.1 130 09:36 02.05.2020
3817 Clear 23 1016 22 16093 2.1 160 09:18 02.05.2020
3818 Clear 24 1015 20 16093 2.1 250 08:44 02.05.2020
3819 Clear 24 1015 20 16093 2.1 250 08:25 02.05.2020
3820 Clear 26 1015 16 16093 2.6 180 07:47 02.05.2020
3821 Clear 27 1015 16 16093 2.6 180 07:27 02.05.2020
3822 Clear 28 1014 12 16093 3.1 250 06:50 02.05.2020
3823 Clear 31 1013 10 16093 5.1 260 05:28 02.05.2020
3824 Clear 32 1013 9 16093 5.7 260 04:37 02.05.2020
3825 Clear 32 1013 9 16093 5.7 260 04:18 02.05.2020
3826 Clear 35 1012 7 16093 6.2 280 02:43 02.05.2020
3827 Clear 36 1012 7 16093 6.2 280 02:19 02.05.2020
3828 Clear 36 1012 6 16093 6.7 260 01:33 02.05.2020
3829 Clear 37 1013 6 16093 5.7 250 00:45 02.05.2020
3830 Clear 37 1013 6 16093 5.7 250 00:24 02.05.2020
3831 Clear 37 1014 4 16093 3.6 230 23:57 01.05.2020
3832 Clear 37 1014 4 16093 3.6 230 23:37 01.05.2020
3833 Clear 37 1014 4 16093 3.6 230 23:19 01.05.2020
3834 Clear 37 1014 4 16093 5.1 230 22:42 01.05.2020
3835 Clear 36 1014 4 16093 5.1 230 22:21 01.05.2020
3836 Clear 36 1014 4 16093 5.7 260 21:59 01.05.2020
3837 Clear 36 1014 4 16093 5.1 210 21:41 01.05.2020
3838 Clear 36 1014 4 16093 5.1 210 21:21 01.05.2020
3839 Clear 36 1014 4 16093 5.1 210 21:21 01.05.2020
3840 Clear 35 1015 5 16093 1.5 40 20:58 01.05.2020
3841 Clear 35 1015 5 16093 1.5 40 20:40 01.05.2020
3842 Clear 34 1015 5 16093 1.5 40 20:20 01.05.2020
3843 Clear 34 1015 5 16093 1.5 40 20:20 01.05.2020
3844 Clear 34 1015 8 0 0.89 5 19:58 01.05.2020
3845 Clear 33 1016 6 16093 2.1 0 19:40 01.05.2020
3846 Clear 33 1016 6 16093 2.1 0 19:20 01.05.2020
3847 Clear 32 1015 9 0 0.45 125 18:56 01.05.2020
3848 Clear 31 1016 8 16093 4.72 207 18:37 01.05.2020
3849 Clear 30 1016 8 16093 3.6 172 18:19 01.05.2020
3850 Clear 28 1015 10 16093 1.5 200 17:40 01.05.2020
3851 Clear 26 1015 10 16093 1.5 200 17:22 01.05.2020
3852 Clear 24 1015 12 16093 6.2 150 16:57 01.05.2020
3853 Clear 24 1015 12 16093 6.2 150 16:39 01.05.2020
3854 Clear 22 1014 16 16093 3.1 120 16:20 01.05.2020
3855 Clear 19 1014 20 16093 6.2 120 15:57 01.05.2020
3856 Clear 19 1014 20 16093 6.2 120 15:57 01.05.2020
3857 Clear 18 1014 20 16093 6.2 120 15:39 01.05.2020
3858 Clear 18 1014 20 16093 6.2 120 15:19 01.05.2020
3859 Clear 19 1014 16 16093 3.6 140 14:44 01.05.2020
3860 Clear 19 1014 16 16093 3.6 140 14:24 01.05.2020
3861 Clear 19 1013 16 16093 5.1 110 13:56 01.05.2020
3862 Clear 19 1013 16 16093 5.1 110 13:38 01.05.2020
3863 Clear 20 1013 16 16093 5.1 110 13:19 01.05.2020
3864 Clear 20 1013 15 16093 4.6 120 12:54 01.05.2020
3865 Clear 21 1013 15 16093 4.6 120 12:36 01.05.2020
3866 Clear 21 1013 15 16093 4.6 120 12:18 01.05.2020
3867 Clear 22 1013 11 16093 0.33 165 11:41 01.05.2020
3868 Clear 22 1013 11 16093 0.82 181 11:21 01.05.2020
3869 Clear 22 1013 11 16093 0.82 181 11:21 01.05.2020
3870 Clear 22 1014 11 16093 3.6 150 10:56 01.05.2020
3871 Clouds 23 1013 10 16093 4.1 150 10:37 01.05.2020
3872 Clouds 23 1013 10 16093 4.1 150 10:19 01.05.2020
3873 Clouds 24 1014 10 16093 3.1 170 09:43 01.05.2020
3874 Clouds 24 1014 10 16093 3.1 170 09:19 01.05.2020
3875 Clear 25 1013 12 16093 3.1 190 08:47 01.05.2020
3876 Clear 26 1013 12 16093 3.1 190 08:28 01.05.2020
3877 Clear 27 1013 12 16093 0.47 356 07:59 01.05.2020
3878 Clear 28 1013 12 16093 0.47 356 07:40 01.05.2020
3879 Clear 28 1013 12 16093 1.41 267 07:21 01.05.2020
3880 Clear 28 1013 12 16093 1.41 267 07:21 01.05.2020
3881 Clear 29 1013 9 16093 2.6 270 06:39 01.05.2020
3882 Clear 30 1012 8 16093 2.6 250 05:26 01.05.2020
3883 Clear 32 1011 9 16093 3.6 270 04:19 01.05.2020
3884 Clouds 34 1011 13 0 2.24 340 02:57 01.05.2020
3885 Clear 35 1011 8 16093 3.6 270 02:38 01.05.2020
3886 Clear 36 1011 7 16093 5.7 200 01:54 01.05.2020
3887 Clear 36 1011 7 16093 5.7 200 01:27 01.05.2020
3888 Clear 37 1011 7 16093 5.1 250 00:41 01.05.2020
3889 Clear 37 1011 7 16093 5.1 250 00:41 01.05.2020
3890 Clear 37 1011 7 16093 5.1 250 00:22 01.05.2020
3891 Clear 37 1012 8 16093 4.6 310 23:57 30.04.2020
3892 Clear 37 1012 8 16093 4.6 310 23:39 30.04.2020
3893 Clear 37 1012 8 16093 4.6 310 23:21 30.04.2020
3894 Clouds 37 1013 8 16093 5.59 233 22:59 30.04.2020
3895 Clouds 37 1013 8 16093 5.59 233 22:39 30.04.2020
3896 Clouds 37 1013 8 16093 3.26 240 22:19 30.04.2020
3897 Haze 36 1014 12 9656 2.1 310 21:43 30.04.2020
3898 Haze 36 1014 12 9656 2.1 310 21:23 30.04.2020
3899 Clouds 35 1013 16 0 1.34 257 20:58 30.04.2020
3900 Clouds 35 1014 16 0 0.89 274 20:40 30.04.2020
3901 Clouds 34 1014 14 14484 1.5 40 20:18 30.04.2020
3902 Clear 34 1015 15 16093 1.5 350 19:47 30.04.2020
3903 Clear 33 1015 15 16093 1.5 350 19:27 30.04.2020
3904 Clouds 32 1015 18 0 0.45 313 18:59 30.04.2020
3905 Clear 31 1015 17 16093 2.64 142 18:39 30.04.2020
3906 Clear 29 1015 17 16093 2.64 121 18:21 30.04.2020
3907 Clear 28 1015 19 16093 2.6 120 17:58 30.04.2020
3908 Clear 27 1015 19 16093 2.6 120 17:40 30.04.2020
3909 Clear 26 1015 19 16093 2.6 120 17:21 30.04.2020
3910 Clear 25 1015 25 16093 4.6 120 16:57 30.04.2020
3911 Clear 25 1015 25 16093 4.6 120 16:38 30.04.2020
3912 Clear 23 1015 25 16093 4.6 120 16:19 30.04.2020
3913 Clear 20 1015 28 16093 3.1 100 15:48 30.04.2020
3914 Clear 20 1015 28 16093 3.1 100 15:25 30.04.2020
3915 Clear 20 1015 28 14484 4.1 110 14:57 30.04.2020
3916 Clear 20 1015 28 14484 4.1 110 14:39 30.04.2020
3917 Clear 20 1015 28 14484 4.1 110 14:19 30.04.2020
3918 Clear 20 1015 28 16093 3.6 130 13:55 30.04.2020
3919 Clear 21 1015 28 16093 3.6 130 13:36 30.04.2020
3920 Clear 21 1015 28 16093 3.6 130 13:18 30.04.2020
3921 Clear 21 1014 26 16093 1.5 130 12:41 30.04.2020
3922 Clear 22 1014 26 16093 1.5 130 12:20 30.04.2020
3923 Clear 22 1015 24 16093 3.1 110 11:58 30.04.2020
3924 Clear 22 1015 24 16093 3.1 110 11:36 30.04.2020
3925 Clear 23 1015 24 16093 3.1 110 11:18 30.04.2020
3926 Clear 23 1015 23 16093 1.5 110 10:41 30.04.2020
3927 Clear 23 1015 23 16093 1.5 110 10:22 30.04.2020
3928 Clear 25 1016 15 16093 1.5 0 09:57 30.04.2020
3929 Clear 26 1016 15 16093 5.1 250 09:39 30.04.2020
3930 Clear 26 1016 14 16093 5.1 250 09:20 30.04.2020
3931 Clear 27 1016 14 16093 5.1 250 08:46 30.04.2020
3932 Clear 27 1016 13 16093 5.1 250 08:26 30.04.2020
3933 Clear 29 1015 13 16093 2.67 280 07:45 30.04.2020
3934 Clear 29 1015 12 16093 2.37 279 07:26 30.04.2020
3935 Clear 30 1014 15 16093 3.6 290 06:55 30.04.2020
3936 Clear 30 1014 15 16093 3.6 290 06:29 30.04.2020
3937 Clear 32 1014 11 16093 4.6 290 05:46 30.04.2020
3938 Clear 34 1013 8 16093 2.6 300 04:43 30.04.2020
3939 Clear 34 1013 8 16093 2.6 300 04:20 30.04.2020
3940 Clear 38 1013 7 16093 3.6 320 02:48 30.04.2020
3941 Clear 38 1013 7 16093 3.6 320 02:26 30.04.2020
3942 Clear 38 1013 8 16093 4.1 280 01:37 30.04.2020
3943 Clear 38 1014 7 16093 3.1 260 00:42 30.04.2020
3944 Clear 37 1015 7 16093 2.1 290 00:20 30.04.2020
3945 Clear 37 1015 7 16093 2.1 290 23:58 29.04.2020
3946 Clear 37 1015 7 16093 2.1 290 23:39 29.04.2020
3947 Clear 37 1015 7 16093 2.1 290 23:21 29.04.2020
3948 Clear 36 1016 8 16093 0.6 279 22:54 29.04.2020
3949 Clear 37 1016 8 16093 0.6 279 22:36 29.04.2020
3950 Clear 37 1016 8 16093 0.65 253 22:18 29.04.2020
3951 Clear 36 1016 11 0 1.34 259 21:38 29.04.2020
3952 Clear 33 1017 9 16093 0.68 205 21:19 29.04.2020
3953 Clear 34 1018 10 16093 2.1 80 20:57 29.04.2020
3954 Clear 34 1018 10 16093 2.1 80 20:38 29.04.2020
3955 Clear 34 1018 10 16093 2.1 80 20:18 29.04.2020
3956 Clear 32 1018 14 0 0.89 156 19:43 29.04.2020
3957 Clear 31 1018 13 16093 2.1 100 19:22 29.04.2020
3958 Clear 30 1018 16 0 0.89 113 18:57 29.04.2020
3959 Clear 29 1018 11 16093 0.66 155 18:38 29.04.2020
3960 Clear 28 1018 12 16093 1.18 132 18:18 29.04.2020
3961 Clear 26 1018 12 16093 3.1 130 17:42 29.04.2020
3962 Clear 25 1018 13 16093 3.1 130 17:21 29.04.2020
3963 Clear 23 1018 22 16093 4.1 140 16:55 29.04.2020
3964 Clear 22 1018 22 16093 4.1 140 16:36 29.04.2020
3965 Clear 19 1018 22 16093 4.1 140 16:18 29.04.2020
3966 Clear 18 1018 29 16093 2.1 110 15:54 29.04.2020
3967 Clear 17 1018 29 16093 2.1 110 15:36 29.04.2020
3968 Clear 17 1017 27 16093 3.1 110 15:18 29.04.2020
3969 Clear 17 1017 27 16093 3.1 110 14:41 29.04.2020
3970 Clear 17 1017 27 16093 3.1 110 14:23 29.04.2020
3971 Clear 18 1017 27 16093 3.6 120 13:56 29.04.2020
3972 Clear 18 1017 27 16093 3.6 120 13:37 29.04.2020
3973 Clear 18 1017 27 16093 3.6 120 13:18 29.04.2020
3974 Clear 18 1017 25 16093 3.1 120 12:41 29.04.2020
3975 Clear 19 1017 25 16093 3.1 120 12:19 29.04.2020
3976 Clear 20 1017 22 16093 2.6 90 11:58 29.04.2020
3977 Clear 20 1017 22 16093 2.6 90 11:58 29.04.2020
3978 Clear 20 1017 22 16093 2.6 90 11:36 29.04.2020
3979 Clear 20 1017 19 16093 3.1 160 11:18 29.04.2020
3980 Clear 21 1017 19 16093 3.1 160 10:38 29.04.2020
3981 Clear 21 1017 19 16093 3.6 150 10:20 29.04.2020
3982 Clear 21 1017 19 16093 3.6 150 09:58 29.04.2020
3983 Clear 22 1017 19 16093 3.6 150 09:40 29.04.2020
3984 Clear 22 1017 19 16093 3.6 150 09:18 29.04.2020
3985 Clear 23 1017 19 16093 4.6 210 08:43 29.04.2020
3986 Clear 23 1017 19 16093 4.6 210 08:24 29.04.2020
3987 Clear 23 1016 16 16093 1.25 353 07:50 29.04.2020
3988 Clear 24 1016 16 16093 1.91 8 07:27 29.04.2020
3989 Clear 25 1016 12 16093 2.1 340 06:52 29.04.2020
3990 Clear 25 1016 12 16093 2.1 340 06:31 29.04.2020
3991 Clear 27 1015 12 16093 2.6 340 05:38 29.04.2020
3992 Clear 28 1015 12 16093 2.6 340 05:18 29.04.2020
3993 Clear 31 1015 8 14484 3.6 330 04:19 29.04.2020
3994 Clear 34 1015 7 14484 3.1 10 02:50 29.04.2020
3995 Clear 34 1015 7 16093 5.1 330 01:45 29.04.2020
3996 Clear 35 1015 7 16093 5.1 330 01:26 29.04.2020
3997 Clear 35 1015 7 16093 3.6 300 00:50 29.04.2020
3998 Clear 35 1015 7 16093 3.6 300 00:20 29.04.2020
3999 Clear 35 1016 7 16093 4.6 300 23:56 28.04.2020
4000 Clear 34 1016 7 16093 4.6 300 23:37 28.04.2020
4001 Clear 34 1016 7 16093 4.6 300 23:18 28.04.2020
4002 Clear 34 1017 7 16093 2.6 350 22:38 28.04.2020
4003 Clear 34 1017 7 16093 2.6 350 22:38 28.04.2020
4004 Clear 34 1017 7 16093 2.6 350 22:19 28.04.2020
4005 Clear 34 1018 9 16093 4.1 300 21:57 28.04.2020
4006 Clear 33 1018 9 16093 4.1 300 21:39 28.04.2020
4007 Clear 33 1017 10 16093 2.1 330 21:21 28.04.2020
4008 Clear 31 1018 13 16093 1.5 290 20:56 28.04.2020
4009 Clear 32 1018 13 16093 1.5 290 20:38 28.04.2020
4010 Clear 31 1018 13 16093 1.5 290 20:19 28.04.2020
4011 Clear 31 1018 15 0 0.89 233 19:43 28.04.2020
4012 Clear 30 1018 14 16093 2.1 230 19:22 28.04.2020
4013 Clear 29 1018 18 0 0.45 86 18:59 28.04.2020
4014 Clear 29 1018 13 16093 2.6 210 18:41 28.04.2020
4015 Clear 27 1018 13 16093 2.6 210 18:20 28.04.2020
4016 Clear 26 1018 17 16093 1.5 130 17:58 28.04.2020
4017 Clear 25 1018 17 16093 1.5 130 17:37 28.04.2020
4018 Clear 24 1019 19 16093 3.1 190 17:18 28.04.2020
4019 Clear 23 1018 26 0 0.45 0 16:45 28.04.2020
4020 Clear 21 1017 25 16093 3.6 120 16:24 28.04.2020
4021 Clear 17 1017 27 16093 2.6 110 15:59 28.04.2020
4022 Clear 17 1017 27 16093 2.6 110 15:59 28.04.2020
4023 Clear 16 1017 27 16093 2.6 110 15:40 28.04.2020
4024 Clear 16 1017 27 16093 2.6 110 15:21 28.04.2020
4025 Clear 16 1017 27 16093 2.6 110 15:21 28.04.2020
4026 Clear 16 1016 23 16093 3.6 120 14:59 28.04.2020
4027 Clear 16 1016 23 16093 3.6 120 14:41 28.04.2020
4028 Clear 16 1016 23 16093 3.6 120 14:21 28.04.2020
4029 Clear 17 1017 27 16093 3.6 110 13:58 28.04.2020
4030 Clear 17 1017 27 16093 3.6 110 13:38 28.04.2020
4031 Clear 17 1017 27 16093 3.6 110 13:20 28.04.2020
4032 Clear 18 1016 25 16093 2.1 120 12:46 28.04.2020
4033 Clear 18 1016 25 16093 2.1 120 12:26 28.04.2020
4034 Clear 19 1016 20 16093 2.1 150 11:56 28.04.2020
4035 Clear 19 1016 20 16093 2.1 150 11:37 28.04.2020
4036 Clear 19 1016 20 16093 2.1 150 11:37 28.04.2020
4037 Clear 19 1016 20 16093 2.1 150 11:18 28.04.2020
4038 Clear 20 1016 20 16093 1.5 280 10:39 28.04.2020
4039 Clear 20 1016 20 16093 1.5 280 10:39 28.04.2020
4040 Clear 20 1016 20 16093 1.5 280 10:19 28.04.2020
4041 Clear 21 1016 18 16093 3.1 110 09:59 28.04.2020
4042 Clear 21 1016 18 16093 3.1 110 09:40 28.04.2020
4043 Clear 21 1016 18 16093 3.1 110 09:21 28.04.2020
4044 Clear 22 1016 15 16093 2.6 90 08:46 28.04.2020
4045 Clear 22 1016 15 16093 2.6 90 08:27 28.04.2020
4046 Haze 24 1016 14 16093 3.6 140 07:46 28.04.2020
4047 Haze 25 1016 14 16093 3.6 140 07:21 28.04.2020
4048 Clear 26 1015 11 16093 2.6 270 06:55 28.04.2020
4049 Clear 28 1015 11 16093 2.6 270 06:22 28.04.2020
4050 Clear 29 1015 9 16093 5.1 290 05:43 28.04.2020
4051 Clear 29 1015 9 16093 5.1 290 05:25 28.04.2020
4052 Clear 31 1014 7 16093 4.6 270 04:27 28.04.2020
4053 Clear 35 1013 6 16093 6.7 260 02:34 28.04.2020
4054 Clear 36 1014 6 16093 4.6 270 01:23 28.04.2020
4055 Clear 36 1014 6 16093 4.6 270 01:23 28.04.2020
4056 Clear 36 1014 6 16093 4.6 270 01:23 28.04.2020
4057 Clear 36 1014 7 16093 5.1 240 00:56 28.04.2020
4058 Clear 36 1014 8 16093 3.1 260 00:25 28.04.2020
4059 Clouds 35 1015 8 16093 2.1 0 23:47 27.04.2020
4060 Clouds 35 1015 8 16093 2.1 0 23:47 27.04.2020
4061 Clouds 35 1015 8 16093 2.1 0 23:24 27.04.2020
4062 Clear 35 1016 9 16093 4.28 245 22:56 27.04.2020
4063 Clear 35 1016 9 16093 4.28 245 22:38 27.04.2020
4064 Clear 34 1016 9 16093 3.43 241 22:19 27.04.2020
4065 Clear 34 1017 11 16093 3.1 110 21:56 27.04.2020
4066 Clear 33 1017 11 16093 3.1 110 21:38 27.04.2020
4067 Clear 33 1017 11 16093 3.1 110 21:18 27.04.2020
4068 Clouds 32 1017 12 16093 2.4 213 20:43 27.04.2020
4069 Clouds 32 1017 12 16093 2.03 195 20:22 27.04.2020
4070 Clouds 32 1017 12 16093 2.03 195 20:22 27.04.2020
4071 Clouds 31 1017 13 16093 2.03 195 19:58 27.04.2020
4072 Clouds 31 1017 13 16093 2.03 195 19:39 27.04.2020
4073 Clouds 30 1017 13 16093 1.53 186 19:20 27.04.2020
4074 Clouds 29 1017 20 0 0.45 156 18:58 27.04.2020
4075 Clear 28 1017 18 16093 2.1 120 18:40 27.04.2020
4076 Clear 28 1017 18 16093 2.1 120 18:19 27.04.2020
4077 Clear 28 1017 18 16093 2.1 120 18:19 27.04.2020
4078 Clear 26 1017 23 16093 2.1 170 17:43 27.04.2020
4079 Clear 25 1017 23 16093 2.1 170 17:24 27.04.2020
4080 Clear 23 1016 26 16093 3.1 130 16:58 27.04.2020
4081 Clear 21 1016 26 16093 3.1 130 16:39 27.04.2020
4082 Clear 21 1016 26 16093 3.1 130 16:39 27.04.2020
4083 Clear 20 1016 26 16093 3.1 130 16:21 27.04.2020
4084 Clear 18 1015 27 16093 4.1 120 15:56 27.04.2020
4085 Clear 18 1015 27 16093 4.1 120 15:38 27.04.2020
4086 Clear 18 1015 27 16093 4.1 120 15:18 27.04.2020
4087 Clear 18 1015 27 12874 1.5 120 14:42 27.04.2020
4088 Clear 18 1015 27 12874 1.5 120 14:23 27.04.2020
4089 Clear 19 1015 24 16093 2.6 110 13:59 27.04.2020
4090 Clear 19 1015 24 16093 2.6 110 13:59 27.04.2020
4091 Clear 19 1015 24 16093 2.6 110 13:41 27.04.2020
4092 Clear 19 1014 22 16093 3.6 130 13:20 27.04.2020
4093 Clear 19 1014 22 16093 3.6 130 12:56 27.04.2020
4094 Clear 19 1014 22 16093 3.6 130 12:38 27.04.2020
4095 Clear 20 1014 22 16093 3.6 130 12:19 27.04.2020
4096 Clear 21 1014 17 16093 3.1 140 11:41 27.04.2020
4097 Clear 21 1014 17 16093 3.1 140 11:19 27.04.2020
4098 Clear 21 1015 21 16093 1.5 100 10:56 27.04.2020
4099 Clear 21 1015 21 16093 1.5 100 10:38 27.04.2020
4100 Clear 22 1015 21 16093 1.5 100 10:19 27.04.2020
4101 Clear 22 1015 18 16093 4.1 170 09:43 27.04.2020
4102 Clear 23 1015 18 16093 4.1 170 09:19 27.04.2020
4103 Clear 23 1015 17 16093 2.6 180 08:56 27.04.2020
4104 Clear 25 1015 17 16093 2.6 180 08:36 27.04.2020
4105 Clear 25 1015 17 16093 2.6 180 08:18 27.04.2020
4106 Clear 25 1014 15 16093 2.17 229 07:44 27.04.2020
4107 Clear 25 1014 15 16093 2.17 229 07:19 27.04.2020
4108 Clear 27 1014 14 16093 4.1 260 06:40 27.04.2020
4109 Clear 27 1014 14 16093 4.1 260 06:21 27.04.2020
4110 Clear 28 1013 11 16093 2.44 334 05:48 27.04.2020
4111 Clear 31 1013 8 16093 3.6 310 04:41 27.04.2020
4112 Clear 34 1012 11 0 1.34 5 03:49 27.04.2020
4113 Clear 36 1013 6 16093 2.1 240 02:41 27.04.2020
4114 Clear 36 1014 5 16093 4.6 270 01:23 27.04.2020
4115 Clear 37 1014 6 16093 3.6 190 00:46 27.04.2020
4116 Clear 36 1014 6 16093 3.6 190 00:19 27.04.2020
4117 Clear 36 1015 6 16093 2.6 250 23:55 26.04.2020
4118 Clear 36 1015 6 16093 2.6 250 23:37 26.04.2020
4119 Clear 36 1015 6 16093 2.6 250 23:18 26.04.2020
4120 Clear 36 1015 5 16093 3.6 300 22:55 26.04.2020
4121 Clear 36 1015 5 16093 3.6 300 22:37 26.04.2020
4122 Clear 36 1014 9 0 1.34 290 22:18 26.04.2020
4123 Clear 35 1017 6 16093 2.98 279 21:56 26.04.2020
4124 Clear 35 1017 6 16093 3.65 295 21:37 26.04.2020
4125 Clear 33 1017 8 16093 1.5 350 21:18 26.04.2020
4126 Clear 33 1017 8 16093 1.5 350 20:39 26.04.2020
4127 Clear 33 1017 8 16093 1.5 350 20:20 26.04.2020
4128 Clear 33 1017 10 16093 0.99 272 19:59 26.04.2020
4129 Clear 32 1017 10 16093 0.99 272 19:38 26.04.2020
4130 Clear 31 1017 10 16093 0.99 272 19:19 26.04.2020
4131 Clear 30 1017 12 16093 0.99 272 18:44 26.04.2020
4132 Clear 28 1017 12 16093 0.56 129 18:25 26.04.2020
4133 Clear 27 1017 19 16093 1.5 150 17:57 26.04.2020
4134 Clear 26 1017 19 16093 1.5 150 17:39 26.04.2020
4135 Clear 25 1017 19 16093 1.5 150 17:19 26.04.2020
4136 Clear 22 1017 22 16093 2.1 130 16:42 26.04.2020
4137 Clear 19 1017 22 16093 2.1 130 16:23 26.04.2020
4138 Clear 17 1016 26 16093 3.6 130 15:59 26.04.2020
4139 Clear 17 1016 26 16093 3.6 130 15:40 26.04.2020
4140 Clear 17 1016 26 16093 3.6 130 15:40 26.04.2020
4141 Clear 17 1016 26 16093 3.6 130 15:21 26.04.2020
4142 Clear 16 1016 25 16093 4.6 120 14:56 26.04.2020
4143 Clear 17 1016 25 16093 4.6 120 14:38 26.04.2020
4144 Clear 17 1016 25 16093 4.6 120 14:18 26.04.2020
4145 Clear 17 1016 25 16093 3.6 110 13:54 26.04.2020
4146 Clear 17 1016 25 16093 3.6 110 13:36 26.04.2020
4147 Clear 17 1016 25 16093 4.6 110 13:18 26.04.2020
4148 Clear 17 1016 25 16093 4.6 110 12:40 26.04.2020
4149 Clear 18 1016 25 16093 4.6 110 12:21 26.04.2020
4150 Clear 18 1016 23 16093 2.6 100 11:59 26.04.2020
4151 Clear 18 1016 23 16093 2.6 100 11:40 26.04.2020
4152 Clear 19 1016 23 16093 2.6 100 11:21 26.04.2020
4153 Clear 19 1016 22 16093 4.1 110 10:56 26.04.2020
4154 Clear 19 1016 22 16093 4.1 110 10:56 26.04.2020
4155 Clear 19 1016 22 16093 4.1 110 10:37 26.04.2020
4156 Clear 20 1016 22 16093 4.1 110 10:18 26.04.2020
4157 Clear 20 1016 19 16093 2.1 130 09:40 26.04.2020
4158 Clear 21 1016 19 16093 2.1 130 09:21 26.04.2020
4159 Clear 21 1016 18 16093 0.61 316 08:56 26.04.2020
4160 Clear 22 1016 18 16093 0.61 316 08:37 26.04.2020
4161 Clear 22 1016 13 16093 3.1 190 08:18 26.04.2020
4162 Clear 22 1016 15 16093 2.6 310 07:46 26.04.2020
4163 Clear 23 1016 15 16093 2.6 310 07:21 26.04.2020
4164 Clear 25 1015 12 16093 3.1 320 06:43 26.04.2020
4165 Clear 27 1015 12 16093 3.1 310 05:57 26.04.2020
4166 Clear 27 1015 12 16093 3.1 310 05:38 26.04.2020
4167 Clear 29 1014 9 16093 4.1 320 04:56 26.04.2020
4168 Clear 30 1014 9 16093 4.1 320 04:22 26.04.2020
4169 Clear 34 1014 6 16093 4.1 300 02:47 26.04.2020
4170 Clear 34 1014 6 16093 4.1 300 02:28 26.04.2020
4171 Clear 35 1014 6 16093 4.1 320 01:46 26.04.2020
4172 Clear 35 1014 6 16093 4.1 320 01:25 26.04.2020
4173 Clear 35 1015 6 16093 3.73 316 00:39 26.04.2020
4174 Clear 34 1015 6 16093 3.73 324 00:19 26.04.2020
4175 Clear 34 1016 6 16093 2.6 60 23:39 25.04.2020
4176 Clear 34 1016 6 16093 2.6 60 23:20 25.04.2020
4177 Clear 34 1016 6 16093 2.6 60 23:20 25.04.2020
4178 Clear 34 1017 7 16093 1.5 0 22:58 25.04.2020
4179 Clear 34 1016 10 16093 3.1 340 22:39 25.04.2020
4180 Clear 34 1016 10 16093 3.1 340 22:19 25.04.2020
4181 Clear 34 1016 10 16093 3.1 340 22:19 25.04.2020
4182 Clear 33 1017 8 16093 2.6 350 21:40 25.04.2020
4183 Clear 32 1017 11 16093 2.1 250 21:20 25.04.2020
4184 Clear 31 1017 11 16093 2.1 250 20:58 25.04.2020
4185 Clear 31 1017 11 16093 2.1 250 20:40 25.04.2020
4186 Clear 31 1017 11 16093 2.1 250 20:22 25.04.2020
4187 Clear 30 1017 14 0 1.34 239 19:55 25.04.2020
4188 Clear 30 1017 16 0 0.89 177 19:37 25.04.2020
4189 Clear 29 1018 14 16093 1.53 309 19:18 25.04.2020
4190 Clear 28 1017 16 16093 2.1 60 18:39 25.04.2020
4191 Clear 27 1017 16 16093 2.1 60 18:21 25.04.2020
4192 Clear 26 1017 13 16093 2.6 130 17:58 25.04.2020
4193 Clear 26 1017 13 16093 2.6 130 17:58 25.04.2020
4194 Clear 25 1017 13 16093 2.6 130 17:38 25.04.2020
4195 Clear 24 1017 13 16093 2.6 130 17:19 25.04.2020
4196 Clear 22 1016 13 16093 4.1 110 16:56 25.04.2020
4197 Clear 21 1016 13 16093 4.1 110 16:38 25.04.2020
4198 Clear 19 1016 13 16093 4.1 110 16:19 25.04.2020
4199 Clear 16 1016 13 16093 4.1 110 15:41 25.04.2020
4200 Clear 16 1016 21 16093 4.1 110 15:20 25.04.2020
4201 Clear 16 1015 21 16093 4.1 120 14:58 25.04.2020
4202 Clear 16 1015 21 16093 4.1 120 14:39 25.04.2020
4203 Clear 16 1015 21 16093 4.1 120 14:20 25.04.2020
4204 Clear 17 1015 29 16093 3.6 120 13:44 25.04.2020
4205 Clear 18 1015 29 16093 3.6 120 13:22 25.04.2020
4206 Clear 18 1015 27 16093 3.6 130 12:59 25.04.2020
4207 Clear 18 1015 27 16093 3.6 130 12:41 25.04.2020
4208 Clear 18 1015 27 16093 3.6 130 12:21 25.04.2020
4209 Clear 19 1015 20 16093 3.1 100 11:59 25.04.2020
4210 Clear 19 1015 20 16093 3.1 100 11:40 25.04.2020
4211 Clear 19 1015 20 16093 3.1 100 11:22 25.04.2020
4212 Clear 19 1015 20 16093 3.1 100 11:22 25.04.2020
4213 Clear 20 1015 20 16093 2.6 150 10:45 25.04.2020
4214 Clear 20 1015 20 16093 2.6 150 10:25 25.04.2020
4215 Clear 21 1015 20 16093 3.1 140 09:55 25.04.2020
4216 Clear 21 1015 20 16093 3.1 140 09:36 25.04.2020
4217 Clear 21 1015 18 16093 3.1 140 09:18 25.04.2020
4218 Clear 22 1015 18 16093 3.1 220 08:40 25.04.2020
4219 Clear 22 1015 18 16093 3.1 220 08:21 25.04.2020
4220 Clear 23 1015 18 16093 2.6 250 07:59 25.04.2020
4221 Clear 24 1015 18 16093 2.6 250 07:40 25.04.2020
4222 Clear 26 1014 19 16093 2.1 260 06:56 25.04.2020
4223 Clear 26 1014 19 16093 2.1 260 06:36 25.04.2020
4224 Clear 27 1013 14 16093 4.6 300 05:42 25.04.2020
4225 Clear 28 1013 14 16093 4.6 300 05:21 25.04.2020
4226 Clear 32 1013 10 16093 5.1 290 03:19 25.04.2020
4227 Clear 33 1012 10 16093 7.2 290 02:25 25.04.2020
4228 Clear 33 1013 10 16093 5.1 340 01:54 25.04.2020
4229 Clear 34 1013 9 16093 3.1 0 01:35 25.04.2020
4230 Clear 33 1013 16 16093 5.7 300 00:58 25.04.2020
4231 Clear 33 1013 16 16093 5.7 300 00:34 25.04.2020
4232 Clear 33 1014 17 16093 3.1 350 23:55 24.04.2020
4233 Clear 33 1014 17 16093 3.1 350 23:37 24.04.2020
4234 Clear 33 1014 17 16093 3.1 350 23:19 24.04.2020
4235 Clear 33 1015 11 16093 1.5 0 22:40 24.04.2020
4236 Clear 32 1015 11 16093 1.5 0 22:20 24.04.2020
4237 Clear 32 1015 14 16093 2.6 270 21:57 24.04.2020
4238 Clear 32 1015 14 16093 2.6 270 21:39 24.04.2020
4239 Clear 31 1015 14 16093 2.6 270 21:20 24.04.2020
4240 Clear 31 1016 17 16093 3.6 250 20:56 24.04.2020
4241 Clear 31 1016 17 16093 3.6 250 20:38 24.04.2020
4242 Clear 30 1016 17 16093 2.1 230 20:18 24.04.2020
4243 Clear 29 1016 17 16093 2.1 230 19:43 24.04.2020
4244 Clear 29 1016 17 16093 2.1 230 19:24 24.04.2020
4245 Clear 28 1016 19 16093 1.5 190 18:46 24.04.2020
4246 Clear 26 1016 19 16093 1.5 190 18:28 24.04.2020
4247 Clear 25 1009 26 0 1.34 215 17:59 24.04.2020
4248 Clear 24 1016 24 16093 2.1 130 17:39 24.04.2020
4249 Clear 23 1016 24 16093 2.1 130 17:20 24.04.2020
4250 Clear 22 1016 30 0 0.45 0 16:58 24.04.2020
4251 Clear 21 1016 14 16093 3.6 120 16:40 24.04.2020
4252 Clear 19 1016 14 16093 3.6 120 16:21 24.04.2020
4253 Clear 15 1015 33 16093 3.1 150 15:42 24.04.2020
4254 Clear 15 1015 33 16093 3.1 150 15:21 24.04.2020
4255 Clear 15 1015 23 16093 3.1 160 14:59 24.04.2020
4256 Clear 15 1015 23 16093 3.1 160 14:39 24.04.2020
4257 Clear 15 1015 24 16093 3.1 160 14:20 24.04.2020
4258 Clear 16 1015 31 16093 3.6 170 13:42 24.04.2020
4259 Clear 16 1015 31 16093 3.6 170 13:22 24.04.2020
4260 Clear 16 1014 29 16093 3.6 140 12:59 24.04.2020
4261 Clear 17 1014 29 16093 3.6 140 12:41 24.04.2020
4262 Clear 17 1014 29 16093 3.6 140 12:20 24.04.2020
4263 Clear 18 1014 27 16093 3.1 180 11:56 24.04.2020
4264 Clear 18 1014 27 16093 3.1 180 11:37 24.04.2020
4265 Clear 18 1014 27 16093 3.1 180 11:18 24.04.2020
4266 Clear 19 1014 25 16093 3.1 170 10:38 24.04.2020
4267 Clear 19 1014 25 16093 3.1 170 10:20 24.04.2020
4268 Clear 19 1014 25 16093 3.1 180 09:58 24.04.2020
4269 Clear 20 1014 25 16093 3.1 180 09:39 24.04.2020
4270 Clear 20 1014 21 16093 3.6 230 09:20 24.04.2020
4271 Clear 21 1014 21 16093 3.6 230 08:43 24.04.2020
4272 Clear 21 1014 21 16093 3.6 230 08:21 24.04.2020
4273 Clear 21 1014 21 16093 2.57 257 07:59 24.04.2020
4274 Clear 21 1014 21 16093 2.57 257 07:41 24.04.2020
4275 Clear 22 1014 21 16093 2.57 257 07:22 24.04.2020
4276 Clear 23 1014 17 16093 2.1 330 06:45 24.04.2020
4277 Clear 24 1014 17 16093 2.1 330 06:23 24.04.2020
4278 Clear 26 1013 16 16093 2.1 330 05:39 24.04.2020
4279 Clear 30 1013 10 16093 4.1 330 03:41 24.04.2020
4280 Clear 31 1012 11 16093 6.2 340 02:51 24.04.2020
4281 Clear 31 1012 11 16093 6.2 340 02:31 24.04.2020
4282 Clear 31 1013 10 16093 7.7 350 01:46 24.04.2020
4283 Clear 32 1014 9 16093 4.1 280 00:54 24.04.2020
4284 Clear 31 1013 10 16093 4.1 360 00:19 24.04.2020
4285 Clear 31 1014 10 16093 6.2 10 23:47 23.04.2020
4286 Clear 31 1014 11 16093 7.2 330 23:27 23.04.2020
4287 Clear 31 1015 11 16093 4.6 310 22:58 23.04.2020
4288 -273 0 0 0 0 0 22:39 23.04.2020
4289 Clear 31 1015 11 16093 4.6 310 22:39 23.04.2020
4290 Clear 30 1015 11 16093 4.6 310 22:20 23.04.2020
4291 Clear 30 1016 13 16093 3.6 320 21:57 23.04.2020
4292 Clear 30 1016 13 16093 3.6 320 21:57 23.04.2020
4293 Clear 30 1016 13 16093 3.6 320 21:39 23.04.2020
4294 Clear 29 1016 13 16093 3.6 320 21:20 23.04.2020
4295 Clear 29 1016 13 16093 3.6 320 21:20 23.04.2020
4296 Clear 29 1018 13 16093 2.6 260 20:56 23.04.2020
4297 Clear 28 1017 15 16093 3.78 302 20:38 23.04.2020
4298 Clear 28 1017 15 16093 3.78 302 20:19 23.04.2020
4299 Clear 27 1018 14 16093 2.1 0 19:55 23.04.2020
4300 Clear 27 1018 14 16093 2.1 0 19:37 23.04.2020
4301 Clear 27 1018 14 16093 2.1 0 19:19 23.04.2020
4302 Clear 25 1018 19 16093 3.78 302 18:40 23.04.2020
4303 Clear 24 1018 19 16093 1.77 232 18:22 23.04.2020
4304 Clear 23 1017 16 16093 2.1 120 17:58 23.04.2020
4305 Clear 23 1017 16 16093 2.1 120 17:39 23.04.2020
4306 Clear 21 1017 16 16093 2.1 120 17:21 23.04.2020
4307 Clear 20 1017 16 14484 3.6 130 16:55 23.04.2020
4308 Clear 18 1017 16 14484 3.6 130 16:37 23.04.2020
4309 Clear 16 1017 16 14484 3.6 130 16:18 23.04.2020
4310 Clear 13 1017 16 16093 5.1 110 15:41 23.04.2020
4311 Clear 13 1017 16 16093 5.1 110 15:41 23.04.2020
4312 Clear 14 1017 23 16093 5.1 110 15:22 23.04.2020
4313 Clear 14 1017 23 16093 4.6 130 14:54 23.04.2020
4314 Clear 14 1017 23 16093 4.6 130 14:36 23.04.2020
4315 Clear 14 1017 23 16093 4.6 130 14:18 23.04.2020
4316 Clear 14 1016 23 16093 4.6 120 13:40 23.04.2020
4317 Clear 15 1016 23 16093 4.6 120 13:22 23.04.2020
4318 Clear 15 1017 23 16093 4.1 120 12:58 23.04.2020
4319 Clear 15 1017 23 16093 4.1 120 12:40 23.04.2020
4320 Clear 15 1017 22 16093 4.1 120 12:21 23.04.2020
4321 Clear 16 1017 22 16093 3.1 120 11:47 23.04.2020
4322 Clear 16 1017 22 16093 3.1 120 11:28 23.04.2020
4323 Clear 16 1017 22 16093 3.6 140 10:59 23.04.2020
4324 Clear 16 1017 22 16093 3.6 140 10:40 23.04.2020
4325 Clear 17 1017 22 16093 3.6 140 10:20 23.04.2020
4326 Clear 17 1017 29 16093 3.6 150 09:40 23.04.2020
4327 Clear 18 1017 22 16093 3.1 170 09:19 23.04.2020
4328 Clear 18 1017 22 16093 3.1 170 08:51 23.04.2020
4329 Clear 18 1017 22 16093 3.1 170 08:32 23.04.2020
4330 Clear 18 1017 31 0 1.7 205 07:58 23.04.2020
4331 Clear 19 1017 31 0 0.45 0 07:39 23.04.2020
4332 Clear 19 1011 32 0 1.7 205 07:21 23.04.2020
4333 Clear 20 1016 31 0 0.45 331 06:45 23.04.2020
4334 Clear 22 1016 21 16093 2.1 310 05:50 23.04.2020
4335 Clear 23 1017 19 16093 3.6 310 05:21 23.04.2020
4336 Clear 26 1015 18 16093 9.3 330 03:32 23.04.2020
4337 Clear 28 1015 18 16093 6.7 310 02:23 23.04.2020
4338 Clear 28 1015 17 16093 5.7 300 01:38 23.04.2020
4339 Clear 28 1015 18 16093 6.7 310 00:55 23.04.2020
4340 Clear 28 1015 18 16093 6.7 310 00:27 23.04.2020
4341 Clear 27 1016 19 16093 3.1 290 23:58 22.04.2020
4342 Clear 27 1016 19 16093 3.1 290 23:40 22.04.2020
4343 Clear 27 1016 19 16093 3.1 290 23:19 22.04.2020
4344 Clear 27 1017 21 16093 3.1 330 22:40 22.04.2020
4345 Clear 26 1017 21 16093 3.1 330 22:20 22.04.2020
4346 Clear 26 1018 19 16093 4.6 340 21:58 22.04.2020
4347 Clear 26 1017 23 16093 5.7 270 21:40 22.04.2020
4348 Clear 26 1017 23 16093 5.7 270 21:21 22.04.2020
4349 Clear 25 1018 22 16093 6.2 270 20:56 22.04.2020
4350 Clear 25 1018 25 16093 3.6 310 20:37 22.04.2020
4351 Clear 24 1018 23 16093 1.5 0 20:18 22.04.2020
4352 Clear 24 1019 23 16093 3.6 310 19:56 22.04.2020
4353 Clear 23 1019 23 16093 3.6 310 19:36 22.04.2020
4354 Clear 23 1018 26 16093 4.1 280 19:18 22.04.2020
4355 Clear 22 1019 19 16093 2.1 280 18:55 22.04.2020
4356 Clear 22 1019 19 16093 2.1 280 18:55 22.04.2020
4357 Clear 22 1018 28 16093 2.1 250 18:37 22.04.2020
4358 Clear 21 1018 28 16093 2.1 250 18:18 22.04.2020
4359 Clear 19 1018 31 16093 1.5 150 17:42 22.04.2020
4360 Clear 18 1018 31 16093 1.5 150 17:23 22.04.2020
4361 Clear 17 1018 41 16093 2.6 120 16:47 22.04.2020
4362 Clear 15 1018 41 16093 2.6 120 16:28 22.04.2020
4363 Clear 12 1017 24 16093 2.6 140 15:59 22.04.2020
4364 Clear 11 1017 24 16093 2.6 140 15:38 22.04.2020
4365 Clear 12 1017 31 16093 2.6 140 15:19 22.04.2020
4366 Clear 11 1017 31 16093 3.1 120 14:55 22.04.2020
4367 Clear 11 1017 31 16093 3.1 120 14:36 22.04.2020
4368 Clear 11 1017 31 16093 3.1 120 14:36 22.04.2020
4369 Clear 12 1017 31 16093 3.1 120 14:18 22.04.2020
4370 Clear 12 1017 31 16093 3.1 140 13:43 22.04.2020
4371 Clear 13 1017 31 16093 3.1 140 13:20 22.04.2020
4372 Clear 13 1017 31 16093 3.1 110 12:43 22.04.2020
4373 Clear 13 1017 27 16093 3.1 110 12:23 22.04.2020
4374 Clear 13 1017 27 16093 3.1 200 11:58 22.04.2020
4375 Clear 13 1017 27 16093 3.1 200 11:58 22.04.2020
4376 Clear 13 1017 27 16093 3.1 200 11:39 22.04.2020
4377 Clear 14 1017 27 16093 2.6 230 11:19 22.04.2020
4378 Clear 14 1017 27 16093 2.6 230 10:44 22.04.2020
4379 Clear 15 1017 27 16093 2.6 230 10:24 22.04.2020
4380 Clear 15 1018 29 16093 2.6 270 09:55 22.04.2020
4381 Clear 15 1018 29 16093 2.6 270 09:36 22.04.2020
4382 Clear 16 1017 23 16093 2.6 240 09:18 22.04.2020
4383 Clear 17 1017 23 16093 2.6 240 08:41 22.04.2020
4384 Clear 17 1017 23 16093 2.6 240 08:41 22.04.2020
4385 Clear 17 1017 23 16093 2.6 240 08:23 22.04.2020
4386 Clear 18 1017 29 16093 3.1 310 07:55 22.04.2020
4387 Clear 18 1017 29 16093 3.1 310 07:36 22.04.2020
4388 Clear 19 1017 29 16093 3.1 310 07:18 22.04.2020
4389 Clear 20 1016 30 16093 4.6 320 06:41 22.04.2020
4390 Clear 21 1015 26 16093 6.2 330 05:39 22.04.2020
4391 Clear 21 1015 26 16093 6.2 330 05:39 22.04.2020
4392 Clear 22 1014 17 16093 4.6 300 04:42 22.04.2020
4393 Clear 26 1013 10 16093 6.7 290 02:59 22.04.2020
4394 Clear 27 1013 10 16093 6.7 290 02:18 22.04.2020
4395 Clear 27 1013 9 16093 8.7 300 01:38 22.04.2020
4396 Clear 28 1013 9 16093 8.7 300 01:19 22.04.2020
4397 Clear 28 1013 9 16093 8.7 270 00:41 22.04.2020
4398 Clear 28 1013 9 16093 8.7 270 00:20 22.04.2020
4399 Clear 28 1014 8 16093 5.1 300 23:44 21.04.2020
4400 Clear 28 1014 8 16093 5.1 300 23:22 21.04.2020
4401 Clear 28 1014 8 16093 6.7 330 22:55 21.04.2020
4402 Clear 28 1014 8 16093 6.7 330 22:37 21.04.2020
4403 Clear 28 1014 8 16093 6.7 330 22:19 21.04.2020
4404 Clear 27 1015 11 16093 5.1 290 21:43 21.04.2020
4405 Clear 26 1015 11 16093 5.1 290 21:24 21.04.2020
4406 Clear 26 1016 11 16093 5.96 251 20:59 21.04.2020
4407 Clear 26 1016 11 16093 5.96 251 20:40 21.04.2020
4408 Clear 26 1016 11 16093 5.28 254 20:22 21.04.2020
4409 Clear 25 1016 15 16093 5.28 254 19:56 21.04.2020
4410 Clear 24 1016 15 16093 5.28 254 19:36 21.04.2020
4411 Clear 24 1017 13 16093 5.96 251 19:18 21.04.2020
4412 Clear 24 1016 19 0 0.89 171 18:54 21.04.2020
4413 Clear 23 1016 19 0 0.89 74 18:36 21.04.2020
4414 Clear 22 1016 18 16093 2.6 170 18:18 21.04.2020
4415 Clear 20 1016 24 16093 1.5 110 17:39 21.04.2020
4416 Clear 19 1017 22 16093 2.6 160 17:19 21.04.2020
4417 Clear 18 1016 26 16093 4.6 120 16:54 21.04.2020
4418 Clear 17 1016 26 16093 4.6 120 16:36 21.04.2020
4419 Clear 15 1016 34 16093 4.6 120 16:18 21.04.2020
4420 Clear 12 1016 34 16093 4.6 120 15:54 21.04.2020
4421 Clear 12 1016 34 16093 4.6 120 15:36 21.04.2020
4422 Clear 12 1016 34 16093 4.6 120 15:18 21.04.2020
4423 Clear 12 1016 32 16093 3.6 140 14:43 21.04.2020
4424 Clear 12 1016 32 16093 3.6 140 14:23 21.04.2020
4425 Clear 13 1016 34 16093 2.1 120 13:54 21.04.2020
4426 Clear 13 1016 34 16093 2.1 120 13:36 21.04.2020
4427 Clear 13 1016 34 16093 2.1 120 13:18 21.04.2020
4428 Clear 13 1015 32 16093 4.1 120 12:38 21.04.2020
4429 Clear 14 1015 32 16093 4.1 120 12:19 21.04.2020
4430 Clear 14 1016 28 16093 2.1 110 11:57 21.04.2020
4431 Clear 14 1016 28 16093 2.1 110 11:38 21.04.2020
4432 Clear 15 1016 28 16093 2.1 110 11:18 21.04.2020
4433 Clear 15 1016 25 16093 1.5 160 10:58 21.04.2020
4434 Clear 15 1016 25 16093 1.5 160 10:39 21.04.2020
4435 Clear 16 1016 25 16093 1.5 160 10:20 21.04.2020
4436 Clear 17 1016 22 16093 1.2 246 09:38 21.04.2020
4437 Clear 17 1016 22 16093 2.53 209 09:20 21.04.2020
4438 Clear 18 1016 22 16093 2.53 209 09:20 21.04.2020
4439 Clear 18 1016 19 16093 2.53 209 08:58 21.04.2020
4440 Clear 19 1016 19 16093 2.53 209 08:40 21.04.2020
4441 Clear 20 1016 19 16093 2.53 209 08:19 21.04.2020
4442 Clear 21 1016 19 16093 5.1 280 07:49 21.04.2020
4443 Clear 21 1016 19 16093 5.1 280 07:49 21.04.2020
4444 Clear 21 1016 19 16093 5.1 280 07:24 21.04.2020
4445 Clear 22 1015 18 16093 5.1 280 06:50 21.04.2020
4446 Clear 22 1015 18 16093 5.1 280 06:22 21.04.2020
4447 Clear 23 1014 14 16093 3.6 290 05:49 21.04.2020
4448 Clear 25 1013 13 16093 4.1 300 04:24 21.04.2020
4449 Clear 26 1013 15 0 2.24 0 03:45 21.04.2020
4450 Clear 29 1013 9 16093 3.6 330 01:53 21.04.2020
4451 Clear 29 1013 9 16093 3.6 330 01:29 21.04.2020
4452 Clear 29 1014 9 16093 4.6 300 00:37 21.04.2020
4453 Clear 28 1015 13 16093 2.1 340 23:48 20.04.2020
4454 Clear 28 1015 13 16093 2.1 340 23:26 20.04.2020
4455 Clear 28 1015 13 16093 2.6 30 22:59 20.04.2020
4456 Clear 28 1015 13 16093 2.6 30 22:40 20.04.2020
4457 Clear 27 1015 13 16093 2.6 30 22:21 20.04.2020
4458 Clear 27 1015 13 16093 2.6 30 22:21 20.04.2020
4459 Clear 27 1016 13 16093 2.6 320 21:58 20.04.2020
4460 Clear 27 1016 13 16093 2.6 320 21:39 20.04.2020
4461 Clear 26 1017 15 16093 2.6 230 21:20 20.04.2020
4462 Clear 25 1017 15 16093 2.6 230 20:59 20.04.2020
4463 Clear 25 1017 15 16093 2.6 230 20:40 20.04.2020
4464 Clear 25 1017 15 16093 2.6 230 20:19 20.04.2020
4465 Clear 24 1016 16 16093 1.5 110 19:58 20.04.2020
4466 Clear 24 1016 16 16093 1.5 110 19:58 20.04.2020
4467 Clear 24 1016 16 16093 1.5 110 19:39 20.04.2020
4468 Clear 24 1016 16 16093 1.5 110 19:39 20.04.2020
4469 Clear 24 1017 13 16093 2.6 0 19:19 20.04.2020
4470 Clouds 23 1016 19 0 0.89 170 18:54 20.04.2020
4471 Clouds 23 1016 19 0 0.89 170 18:54 20.04.2020
4472 Clear 23 1016 22 16093 3.1 170 18:36 20.04.2020
4473 Clear 23 1016 22 16093 3.1 170 18:36 20.04.2020
4474 Clear 22 1017 21 16093 1.5 180 18:18 20.04.2020
4475 Clear 20 1016 20 16093 3.6 190 17:40 20.04.2020
4476 Clear 19 1016 20 16093 3.6 190 17:22 20.04.2020
4477 Clouds 18 1016 35 0 1.34 0 16:59 20.04.2020
4478 Clear 17 1016 33 16093 2.1 160 16:40 20.04.2020
4479 Clear 16 1016 33 16093 2.1 160 16:19 20.04.2020
4480 Clear 13 1015 20 16093 3.6 120 15:45 20.04.2020
4481 Clear 12 1015 33 16093 3.6 120 15:25 20.04.2020
4482 Clear 13 1015 33 16093 2.6 150 14:59 20.04.2020
4483 Clear 13 1015 32 16093 2.6 150 14:40 20.04.2020
4484 Clear 13 1015 32 16093 2.6 150 14:19 20.04.2020
4485 Clear 13 1015 41 16093 2.1 150 13:56 20.04.2020
4486 Clear 13 1015 41 16093 2.1 150 13:37 20.04.2020
4487 Clear 14 1015 41 16093 2.1 150 13:19 20.04.2020
4488 Clear 14 1015 32 16093 3.6 150 12:42 20.04.2020
4489 Clear 15 1015 28 16093 3.6 150 12:21 20.04.2020
4490 Clear 15 1015 33 16093 2.1 170 11:42 20.04.2020
4491 Clear 15 1015 33 16093 2.1 170 11:23 20.04.2020
4492 Clear 16 1015 29 16093 2.1 190 10:57 20.04.2020
4493 Clear 16 1015 29 16093 2.1 190 10:39 20.04.2020
4494 Clear 16 1015 29 16093 2.1 190 10:20 20.04.2020
4495 Clear 17 1016 22 16093 2.6 170 09:58 20.04.2020
4496 Clear 17 1016 22 16093 2.6 170 09:39 20.04.2020
4497 Clear 17 1015 22 16093 1.5 230 09:21 20.04.2020
4498 Clear 18 1015 22 16093 1.5 230 08:42 20.04.2020
4499 Clear 18 1015 22 16093 1.5 230 08:23 20.04.2020
4500 Clear 19 1015 22 16093 2.6 230 07:53 20.04.2020
4501 Clear 19 1015 22 16093 2.6 230 07:30 20.04.2020
4502 Clear 19 1014 22 16093 2.6 300 06:58 20.04.2020
4503 Clear 19 1014 22 16093 2.6 300 06:37 20.04.2020
4504 Clear 20 1013 21 16093 1.5 300 05:48 20.04.2020
4505 Clouds 23 1013 22 0 0.45 0 04:33 20.04.2020
4506 Clear 25 1013 14 16093 3.6 340 02:47 20.04.2020
4507 Clear 26 1013 14 16093 3.6 340 02:19 20.04.2020
4508 Clear 26 1013 13 16093 3.1 270 01:29 20.04.2020
4509 Clear 26 1014 14 16093 4.6 340 00:42 20.04.2020
4510 Clear 26 1015 15 16093 3.6 50 23:59 19.04.2020
4511 Clear 26 1015 15 16093 3.6 50 23:39 19.04.2020
4512 Clear 26 1015 15 16093 3.6 50 23:39 19.04.2020
4513 Clear 26 1015 15 16093 3.6 50 23:21 19.04.2020
4514 Clear 26 1015 14 16093 4.6 310 22:55 19.04.2020
4515 Clear 26 1015 14 16093 4.6 310 22:36 19.04.2020
4516 Clear 25 1015 14 16093 4.6 310 22:18 19.04.2020
4517 Clear 24 1016 17 16093 3.42 284 21:42 19.04.2020
4518 Clear 23 1016 17 16093 1.52 274 21:23 19.04.2020
4519 Clear 22 1017 21 16093 1.52 274 20:56 19.04.2020
4520 Clear 22 1017 21 16093 1.52 274 20:38 19.04.2020
4521 Clear 22 1017 21 16093 1.52 274 20:20 19.04.2020
4522 Clear 22 1017 21 16093 1.52 274 20:20 19.04.2020
4523 Clear 21 1017 28 16093 1.52 274 19:55 19.04.2020
4524 Clear 21 1017 28 16093 1.52 274 19:37 19.04.2020
4525 Clear 21 1017 28 0 0.89 0 19:19 19.04.2020
4526 Clear 21 1017 29 0 1.34 182 18:54 19.04.2020
4527 Clear 20 1017 31 0 0.89 85 18:36 19.04.2020
4528 Clear 19 1018 26 16093 2.1 130 18:18 19.04.2020
4529 Clear 17 1012 37 0 0.89 300 17:42 19.04.2020
4530 Clear 17 1012 37 0 0.89 300 17:42 19.04.2020
4531 Clear 16 1017 38 16093 2.6 190 17:23 19.04.2020
4532 Clear 16 1018 40 0 0.45 0 17:00 19.04.2020
4533 Clear 14 1017 44 0 0.89 0 16:39 19.04.2020
4534 Clear 14 1017 44 0 0.89 0 16:39 19.04.2020
4535 Clear 13 1017 26 16093 3.1 170 16:21 19.04.2020
4536 Clear 13 1017 26 16093 3.1 170 16:21 19.04.2020
4537 Clear 11 1016 26 16093 3.1 160 15:54 19.04.2020
4538 Clear 10 1016 26 16093 3.1 160 15:36 19.04.2020
4539 Clear 10 1016 26 16093 3.1 160 15:36 19.04.2020
4540 Clear 10 1016 53 16093 3.1 150 15:18 19.04.2020
4541 Clear 10 1016 53 16093 3.1 150 14:38 19.04.2020
4542 Clear 11 1016 53 16093 3.1 150 14:20 19.04.2020
4543 Clear 11 1016 50 16093 3.6 150 13:56 19.04.2020
4544 Clear 11 1016 50 16093 3.6 150 13:56 19.04.2020
4545 Clear 11 1016 50 16093 3.6 150 13:36 19.04.2020
4546 Clear 11 1015 46 16093 3.6 200 13:18 19.04.2020
4547 Clear 12 1015 46 16093 3.6 200 12:43 19.04.2020
4548 Clear 12 1015 46 16093 3.6 200 12:24 19.04.2020
4549 Clear 12 1015 32 16093 3.6 210 11:39 19.04.2020
4550 Clear 12 1015 32 16093 3.6 210 11:20 19.04.2020
4551 Clear 13 1016 32 16093 3.1 190 10:59 19.04.2020
4552 Clear 13 1016 32 16093 3.1 190 10:41 19.04.2020
4553 Clear 13 1016 32 16093 3.1 190 10:20 19.04.2020
4554 Clear 15 1016 35 16093 3.6 180 09:55 19.04.2020
4555 Clear 15 1016 35 16093 3.6 180 09:36 19.04.2020
4556 Clear 15 1016 35 16093 3.6 180 09:18 19.04.2020
4557 Clear 16 1016 36 16093 2.6 240 08:39 19.04.2020
4558 Clear 17 1016 36 16093 2.6 240 08:20 19.04.2020
4559 Clear 17 1015 34 16093 2.6 250 07:45 19.04.2020
4560 Clear 18 1015 34 16093 2.6 250 07:25 19.04.2020
4561 Clear 18 1015 29 16093 5.1 280 06:55 19.04.2020
4562 Clear 19 1015 29 16093 5.1 280 06:19 19.04.2020
4563 Clear 20 1013 28 0 1.79 0 04:56 19.04.2020
4564 Clear 23 1012 22 0 2.68 0 03:24 19.04.2020
4565 Clouds 24 1012 11 16093 7.2 290 02:22 19.04.2020
4566 Clouds 25 1012 12 16093 8.7 280 01:39 19.04.2020
4567 Clouds 25 1012 11 16093 5.7 290 01:19 19.04.2020
4568 Clouds 25 1013 10 16093 7.7 260 00:40 19.04.2020
4569 Clouds 25 1013 10 16093 7.7 260 00:19 19.04.2020
4570 Clouds 26 1013 9 16093 6.7 250 23:41 18.04.2020
4571 Clouds 25 1013 9 16093 6.7 250 23:19 18.04.2020
4572 Clouds 25 1013 10 16093 7.7 250 22:43 18.04.2020
4573 Clouds 25 1013 10 16093 7.7 250 22:23 18.04.2020
4574 Clouds 25 1014 11 16093 8.2 300 21:58 18.04.2020
4575 Clouds 25 1014 13 16093 5.1 270 21:39 18.04.2020
4576 Clouds 24 1014 13 16093 5.1 270 21:21 18.04.2020
4577 Clouds 24 1015 13 16093 5.1 210 20:56 18.04.2020
4578 Clouds 24 1015 15 16093 2.1 300 20:37 18.04.2020
4579 Clouds 23 1015 15 16093 2.1 300 20:18 18.04.2020
4580 Clouds 22 1015 17 16093 6.7 260 19:40 18.04.2020
4581 Clouds 22 1015 17 16093 6.7 260 19:22 18.04.2020
4582 Clouds 21 1015 19 16093 3.6 180 18:39 18.04.2020
4583 Clouds 20 1015 19 16093 3.6 180 18:20 18.04.2020
4584 Clouds 19 1015 20 16093 4.81 184 17:57 18.04.2020
4585 Clouds 19 1015 20 16093 4.81 184 17:39 18.04.2020
4586 Clear 18 1016 18 16093 1.5 120 17:18 18.04.2020
4587 Clouds 16 1015 26 0 0.45 0 16:43 18.04.2020
4588 Clear 15 1015 26 16093 3.1 110 16:22 18.04.2020
4589 Clear 13 1015 34 16093 2.6 100 15:55 18.04.2020
4590 Clear 12 1015 34 16093 2.6 100 15:37 18.04.2020
4591 Clear 11 1015 29 16093 3.6 100 15:19 18.04.2020
4592 Clear 11 1015 29 16093 3.6 100 14:44 18.04.2020
4593 Clear 11 1015 27 16093 2.96 179 14:20 18.04.2020
4594 Clear 12 1015 27 16093 2.96 179 13:43 18.04.2020
4595 Clear 12 1015 27 16093 2.96 179 13:21 18.04.2020
4596 Clear 12 1015 27 16093 1.5 80 12:44 18.04.2020
4597 Clear 13 1015 27 16093 1.5 80 12:26 18.04.2020
4598 Clear 14 1015 22 16093 2.6 120 11:59 18.04.2020
4599 Clear 14 1015 22 16093 2.6 120 11:40 18.04.2020
4600 Clear 14 1015 22 16093 2.6 120 11:21 18.04.2020
4601 Clear 15 1016 24 16093 3.74 183 10:56 18.04.2020
4602 Clear 15 1016 24 16093 3.74 183 10:36 18.04.2020
4603 Clear 16 1016 24 16093 3.74 183 10:18 18.04.2020
4604 Clear 16 1015 19 16093 2.6 250 09:41 18.04.2020
4605 Clear 16 1015 19 16093 2.6 250 09:21 18.04.2020
4606 Clear 17 1015 21 16093 1.5 240 08:43 18.04.2020
4607 Clear 17 1015 21 16093 1.5 240 08:23 18.04.2020
4608 Clear 19 1015 18 16093 4.55 196 07:49 18.04.2020
4609 Clear 19 1015 18 16093 4.55 196 07:30 18.04.2020
4610 Clear 20 1014 16 16093 2.1 180 06:50 18.04.2020
4611 Clear 22 1013 12 16093 3.6 240 05:50 18.04.2020
4612 Clouds 23 1013 11 16093 6.2 240 04:57 18.04.2020
4613 Clouds 24 1013 11 16093 6.2 240 04:32 18.04.2020
4614 Clouds 24 1013 11 16093 6.2 240 04:32 18.04.2020
4615 Clear 25 1012 9 16093 7.2 230 03:43 18.04.2020
4616 Clear 26 1012 9 16093 7.2 230 02:42 18.04.2020
4617 Clear 26 1012 9 16093 7.2 230 02:21 18.04.2020
4618 Clear 26 1012 9 16093 7.2 230 02:21 18.04.2020
4619 Clouds 27 1012 10 16093 6.7 220 01:48 18.04.2020
4620 Clouds 27 1012 10 16093 6.7 220 01:27 18.04.2020
4621 Clouds 27 1013 12 16093 4.6 230 00:38 18.04.2020
4622 Clouds 27 1013 12 16093 5.7 220 00:18 18.04.2020
4623 Clouds 27 1014 13 16093 6.7 180 23:41 17.04.2020
4624 Clouds 27 1014 11 16093 6.7 170 23:20 17.04.2020
4625 Clouds 27 1014 11 16093 6.7 170 22:59 17.04.2020
4626 Clouds 27 1014 11 16093 6.7 170 22:40 17.04.2020
4627 Clear 27 1014 12 16093 5.7 180 22:20 17.04.2020
4628 Clear 27 1014 12 16093 5.7 180 21:58 17.04.2020
4629 Clear 27 1015 12 16093 5.1 200 21:39 17.04.2020
4630 Clear 26 1016 14 16093 4.1 200 21:19 17.04.2020
4631 Clear 26 1016 14 16093 4.1 200 20:55 17.04.2020
4632 Clear 26 1016 14 16093 4.1 200 20:36 17.04.2020
4633 Clear 25 1016 13 16093 6.7 220 20:18 17.04.2020
4634 Clouds 25 1015 19 0 1.34 0 19:46 17.04.2020
4635 Clear 24 1016 16 16093 2.1 30 19:24 17.04.2020
4636 Clouds 24 1016 19 0 0.89 44 18:55 17.04.2020
4637 Clouds 23 1016 19 0 0.89 117 18:36 17.04.2020
4638 Clear 22 1016 16 16093 1.5 70 18:18 17.04.2020
4639 Clouds 21 1016 22 0 1.34 0 17:38 17.04.2020
4640 Clear 20 1017 18 16093 3.1 150 17:19 17.04.2020
4641 Clouds 18 1016 25 0 0.45 0 16:44 17.04.2020
4642 Clear 17 1016 24 16093 3.6 110 16:24 17.04.2020
4643 Clear 14 1015 24 16093 3.6 160 15:59 17.04.2020
4644 Clear 12 1015 24 16093 3.6 160 15:39 17.04.2020
4645 Clear 13 1015 24 16093 3.6 160 15:20 17.04.2020
4646 Clouds 13 1014 22 16093 2.1 120 14:42 17.04.2020
4647 Clouds 14 1014 22 16093 2.1 120 14:23 17.04.2020
4648 Clouds 14 1014 19 16093 3.1 60 13:58 17.04.2020
4649 Clouds 14 1014 19 16093 3.1 60 13:37 17.04.2020
4650 Clear 13 1014 19 16093 3.1 80 13:19 17.04.2020
4651 Clear 14 1014 19 16093 3.1 80 12:48 17.04.2020
4652 Clear 14 1014 19 16093 3.1 80 12:26 17.04.2020
4653 Clear 14 1014 15 16093 2.6 50 11:58 17.04.2020
4654 Clear 15 1014 15 16093 2.6 50 11:37 17.04.2020
4655 Clear 15 1014 15 16093 2.6 50 11:18 17.04.2020
4656 Clear 15 1015 14 16093 4.6 170 10:39 17.04.2020
4657 Clear 15 1015 14 16093 3.1 180 10:19 17.04.2020
4658 Clear 15 1015 14 16093 3.1 180 09:55 17.04.2020
4659 Clear 15 1015 14 16093 3.1 180 09:36 17.04.2020
4660 Clear 16 1015 14 16093 3.1 180 09:18 17.04.2020
4661 Clear 16 1014 16 0 1.34 0 08:45 17.04.2020
4662 Clear 16 1014 11 16093 2.6 120 08:25 17.04.2020
4663 Clear 16 1014 11 16093 2.6 120 07:44 17.04.2020
4664 Clear 16 1014 11 16093 2.6 120 07:25 17.04.2020
4665 Clear 16 1014 11 16093 2.1 240 06:57 17.04.2020
4666 Clear 18 1014 11 16093 2.1 240 06:27 17.04.2020
4667 Clear 20 1013 9 16093 2.1 240 05:38 17.04.2020
4668 Clear 27 1012 5 16093 4.6 270 03:22 17.04.2020
4669 Clear 27 1012 5 16093 4.6 270 03:22 17.04.2020
4670 Clear 28 1012 5 16093 5.1 260 02:37 17.04.2020
4671 Clear 28 1012 4 16093 7.2 250 01:30 17.04.2020
4672 Clear 29 1012 5 16093 5.1 230 00:58 17.04.2020
4673 Clear 28 1012 5 16093 5.1 230 00:20 17.04.2020
4674 Clear 28 1013 4 16093 5.1 270 23:45 16.04.2020
4675 Clear 28 1013 4 16093 5.1 270 23:23 16.04.2020
4676 Clear 28 1014 6 16093 3.1 270 22:58 16.04.2020
4677 Clear 28 1014 6 16093 3.1 270 22:39 16.04.2020
4678 Clear 27 1014 6 16093 3.1 270 22:20 16.04.2020
4679 Clear 27 1014 7 16093 5.1 10 21:56 16.04.2020
4680 Clear 26 1014 7 16093 5.1 10 21:37 16.04.2020
4681 Clear 26 1014 7 16093 5.1 10 21:18 16.04.2020
4682 Clear 25 1015 8 16093 4.73 212 20:40 16.04.2020
4683 Clear 24 1015 8 16093 4.73 212 20:22 16.04.2020
4684 Clear 24 1015 11 16093 3.1 150 19:56 16.04.2020
4685 Clear 24 1015 11 16093 3.1 150 19:38 16.04.2020
4686 Clear 23 1015 11 16093 3.1 150 19:19 16.04.2020
4687 Clear 22 1015 15 16093 2.1 120 18:45 16.04.2020
4688 Clear 21 1015 15 16093 2.1 120 18:26 16.04.2020
4689 Clear 19 1016 23 16093 2.6 190 17:58 16.04.2020
4690 Clear 18 1016 23 16093 2.6 190 17:40 16.04.2020
4691 Clear 17 1016 23 16093 2.6 190 17:21 16.04.2020
4692 Clear 14 1016 27 16093 4.1 160 16:44 16.04.2020
4693 Clear 12 1016 27 16093 4.1 160 16:26 16.04.2020
4694 Clear 10 1015 34 16093 3.1 160 15:57 16.04.2020
4695 Clear 10 1015 34 16093 3.1 160 15:39 16.04.2020
4696 Clear 9 1015 34 16093 3.1 160 15:18 16.04.2020
4697 Clear 10 1014 34 16093 4.1 160 14:45 16.04.2020
4698 Clear 10 1014 34 16093 4.1 160 14:45 16.04.2020
4699 Clear 10 1014 34 16093 4.1 160 14:25 16.04.2020
4700 Clear 10 1015 31 16093 2.6 140 13:59 16.04.2020
4701 Clear 10 1015 31 16093 2.6 140 13:40 16.04.2020
4702 Clear 11 1015 31 16093 2.6 140 13:22 16.04.2020
4703 Clear 11 1014 27 16093 3.1 160 12:58 16.04.2020
4704 Clear 11 1014 27 16093 3.1 160 12:39 16.04.2020
4705 Clear 12 1014 27 16093 3.1 160 12:19 16.04.2020
4706 Clear 12 1015 25 16093 3.1 130 11:57 16.04.2020
4707 Clear 12 1015 25 16093 3.1 130 11:39 16.04.2020
4708 Clear 12 1015 25 16093 3.1 130 11:20 16.04.2020
4709 Clear 12 1015 23 16093 3.1 170 10:55 16.04.2020
4710 Clear 12 1015 23 16093 3.1 170 10:37 16.04.2020
4711 Clear 13 1015 23 16093 3.1 170 10:18 16.04.2020
4712 Clear 13 1015 24 16093 3.1 200 09:39 16.04.2020
4713 Clear 13 1015 24 16093 3.1 200 09:20 16.04.2020
4714 Clear 14 1015 22 16093 2.6 180 08:56 16.04.2020
4715 Clear 14 1015 22 16093 2.6 180 08:36 16.04.2020
4716 Clear 14 1015 22 16093 2.6 180 08:18 16.04.2020
4717 Clear 15 1015 21 16093 2.6 220 07:43 16.04.2020
4718 Clear 15 1015 21 16093 2.6 220 07:21 16.04.2020
4719 Clear 16 1014 12 16093 1.5 350 06:41 16.04.2020
4720 Clear 17 1014 13 16093 2.97 338 06:23 16.04.2020
4721 Clear 20 1013 11 16093 4.6 360 04:54 16.04.2020
4722 Clear 24 1014 7 16093 4.6 330 03:29 16.04.2020
4723 Clear 25 1014 7 16093 3.6 270 02:59 16.04.2020
4724 Clear 25 1014 7 16093 3.6 270 02:39 16.04.2020
4725 Clear 26 1014 7 16093 3.6 300 01:40 16.04.2020
4726 Clear 26 1015 9 16093 3.6 320 00:57 16.04.2020
4727 Clear 26 1015 9 16093 3.6 320 00:26 16.04.2020
4728 Clear 25 1016 7 16093 2.6 270 23:55 15.04.2020
4729 Clear 25 1016 7 16093 2.6 270 23:37 15.04.2020
4730 Clear 25 1016 7 16093 2.6 270 23:19 15.04.2020
4731 Clear 24 1016 10 16093 2.6 210 22:39 15.04.2020
4732 Clear 24 1016 10 16093 2.6 210 22:21 15.04.2020
4733 Clear 24 1017 11 16093 2.6 230 21:56 15.04.2020
4734 Clear 24 1017 11 16093 2.6 230 21:38 15.04.2020
4735 Clear 23 1017 11 16093 2.6 230 21:20 15.04.2020
4736 Clear 23 1018 12 16093 2.1 30 20:55 15.04.2020
4737 Clear 23 1018 12 16093 2.1 30 20:55 15.04.2020
4738 Clear 22 1018 12 16093 2.1 30 20:37 15.04.2020
4739 Clear 22 1018 12 16093 2.1 30 20:19 15.04.2020
4740 Clear 22 1018 16 16093 1.5 140 19:41 15.04.2020
4741 Clear 21 1018 16 16093 1.5 140 19:20 15.04.2020
4742 Clear 21 1018 16 16093 1.5 140 19:20 15.04.2020
4743 Clear 20 1019 20 16093 1.67 27 18:43 15.04.2020
4744 Clear 19 1019 20 16093 1.5 71 18:23 15.04.2020
4745 Clear 18 1019 24 16093 1.5 160 17:58 15.04.2020
4746 Clear 17 1019 24 16093 1.5 160 17:40 15.04.2020
4747 Clear 17 1019 24 16093 1.5 160 17:40 15.04.2020
4748 Clear 16 1019 24 16093 1.5 160 17:20 15.04.2020
4749 Clear 14 1018 32 16093 4.6 120 16:57 15.04.2020
4750 Clear 13 1018 32 16093 4.6 120 16:38 15.04.2020
4751 Clear 11 1018 32 16093 4.6 120 16:19 15.04.2020
4752 Clear 11 1018 32 16093 4.6 120 16:19 15.04.2020
4753 Clear 11 1018 32 16093 4.6 120 16:19 15.04.2020
4754 Clear 9 1018 36 16093 3.6 110 15:57 15.04.2020
4755 Clear 9 1018 36 16093 3.6 110 15:39 15.04.2020
4756 Clear 8 1018 36 16093 3.6 110 15:19 15.04.2020
4757 Clear 8 1018 39 16093 3.6 110 14:57 15.04.2020
4758 Clear 9 1018 39 16093 3.6 110 14:39 15.04.2020
4759 Clear 9 1018 39 16093 3.6 110 14:39 15.04.2020
4760 Clear 9 1018 39 16093 3.6 110 14:21 15.04.2020
4761 Clear 9 1018 36 16093 3.6 120 13:57 15.04.2020
4762 Clear 10 1018 36 16093 3.6 120 13:38 15.04.2020
4763 Clear 10 1018 36 16093 3.6 120 13:19 15.04.2020
4764 Clear 10 1018 36 16093 3.1 130 12:43 15.04.2020
4765 Clear 11 1018 36 16093 3.1 130 12:24 15.04.2020
4766 Clear 11 1018 31 16093 3.1 120 11:59 15.04.2020
4767 -273 0 0 0 0 0 11:59 15.04.2020
4768 Clear 11 1018 31 16093 3.1 120 11:41 15.04.2020
4769 Clear 12 1018 31 16093 3.1 120 11:23 15.04.2020
4770 Clear 12 1018 29 16093 0.91 82 10:56 15.04.2020
4771 Clear 12 1018 29 16093 0.91 82 10:36 15.04.2020
4772 Clear 12 1018 29 16093 0.91 82 10:36 15.04.2020
4773 Clear 12 1018 29 16093 0.91 82 10:18 15.04.2020
4774 Clear 13 1018 22 16093 0.91 82 09:54 15.04.2020
4775 Clear 13 1018 22 16093 0.91 82 09:36 15.04.2020
4776 Clear 14 1018 22 16093 2.51 17 09:18 15.04.2020
4777 Clear 14 1018 21 16093 2.51 17 08:40 15.04.2020
4778 Clear 15 1018 21 16093 2.51 17 08:19 15.04.2020
4779 Clear 15 1018 18 16093 3.6 350 07:54 15.04.2020
4780 Clear 16 1018 18 16093 3.6 350 07:32 15.04.2020
4781 Clear 17 1018 17 16093 3.1 320 06:34 15.04.2020
4782 Clear 18 1017 15 16093 5.7 330 05:51 15.04.2020
4783 Clear 19 1017 15 16093 5.7 330 05:19 15.04.2020
4784 Clear 19 1016 12 16093 5.7 320 04:44 15.04.2020
4785 Clear 22 1016 11 16093 7.7 330 03:34 15.04.2020
4786 Clear 23 1016 11 16093 7.2 290 02:57 15.04.2020
4787 Clear 24 1016 9 16093 6.2 330 01:57 15.04.2020
4788 Clear 24 1016 9 16093 6.2 330 01:39 15.04.2020
4789 Clear 24 1016 9 16093 4.6 340 01:18 15.04.2020
4790 Clear 24 1016 9 16093 4.6 340 00:36 15.04.2020
4791 Clear 24 1016 9 16093 4.6 340 00:18 15.04.2020
4792 Clear 24 1017 10 16093 2.1 310 23:54 14.04.2020
4793 Clear 24 1017 10 16093 2.1 310 23:36 14.04.2020
4794 Clear 24 1017 10 16093 2.1 310 23:18 14.04.2020
4795 Clear 24 1018 13 16093 4.1 330 22:54 14.04.2020
4796 Clear 24 1018 13 16093 4.1 330 22:36 14.04.2020
4797 Clear 23 1018 13 16093 4.1 330 22:18 14.04.2020
4798 Clear 23 1018 19 16093 2.1 70 21:54 14.04.2020
4799 Clear 23 1018 19 16093 2.1 70 21:36 14.04.2020
4800 Clear 22 1018 19 16093 2.1 70 21:18 14.04.2020
4801 Clear 22 1019 22 16093 1.5 360 20:40 14.04.2020
4802 Clear 21 1019 22 16093 1.5 360 20:22 14.04.2020
4803 Clear 21 1020 28 16093 1.5 160 19:57 14.04.2020
4804 Clear 21 1020 28 16093 1.5 160 19:38 14.04.2020
4805 Clear 21 1020 28 16093 1.5 160 19:20 14.04.2020
4806 Clear 19 1020 39 16093 2.58 358 18:41 14.04.2020
4807 Clear 18 1020 39 16093 0.28 153 18:22 14.04.2020
4808 Clear 18 1020 39 16093 0.28 153 18:22 14.04.2020
4809 Clear 18 1020 44 16093 2.6 200 17:59 14.04.2020
4810 Clear 17 1020 44 16093 2.6 200 17:39 14.04.2020
4811 Clear 16 1020 44 16093 2.6 200 17:21 14.04.2020
4812 Clear 15 1020 54 16093 1.5 150 16:58 14.04.2020
4813 Clear 14 1020 54 16093 1.5 150 16:39 14.04.2020
4814 Clear 13 1020 54 16093 1.5 150 16:21 14.04.2020
4815 Clear 10 1019 66 16093 3.1 160 15:57 14.04.2020
4816 Clear 10 1019 66 16093 3.1 160 15:38 14.04.2020
4817 Clear 10 1019 66 16093 3.1 160 15:19 14.04.2020
4818 Clear 10 1018 61 16093 2.6 160 14:57 14.04.2020
4819 Clear 10 1018 61 16093 2.6 160 14:39 14.04.2020
4820 Clear 10 1018 61 16093 2.6 160 14:21 14.04.2020
4821 Clear 11 1018 57 16093 2.6 180 13:44 14.04.2020
4822 Clear 11 1018 57 16093 2.6 180 13:24 14.04.2020
4823 Clear 11 1018 57 16093 3.1 150 12:57 14.04.2020
4824 Clear 11 1018 57 16093 3.1 150 12:39 14.04.2020
4825 Clear 11 1018 57 16093 3.1 150 12:39 14.04.2020
4826 Clear 12 1018 57 16093 3.1 150 12:20 14.04.2020
4827 Clear 12 1018 50 16093 2.6 180 11:54 14.04.2020
4828 Clear 12 1018 50 16093 2.6 180 11:36 14.04.2020
4829 Clear 13 1018 50 16093 2.6 180 11:18 14.04.2020
4830 Clear 13 1018 47 16093 3.1 190 10:40 14.04.2020
4831 Clear 13 1018 47 16093 3.1 190 10:21 14.04.2020
4832 Clear 14 1018 51 16093 2.1 220 09:42 14.04.2020
4833 Clear 15 1018 51 16093 2.1 220 09:24 14.04.2020
4834 Clear 15 1018 48 16093 3.1 280 08:57 14.04.2020
4835 Clear 15 1018 48 16093 3.1 280 08:39 14.04.2020
4836 Clear 15 1018 48 16093 3.1 280 08:21 14.04.2020
4837 Clear 16 1018 45 16093 3.1 270 07:51 14.04.2020
4838 Clear 17 1018 45 16093 3.1 270 07:27 14.04.2020
4839 Clear 17 1017 37 16093 3.1 280 06:45 14.04.2020
4840 Clear 18 1016 34 16093 5.1 290 05:52 14.04.2020
4841 Clear 21 1014 24 16093 7.7 300 03:48 14.04.2020
4842 Clear 22 1014 23 16093 8.7 310 02:38 14.04.2020
4843 Clouds 23 1014 23 16093 8.2 310 01:28 14.04.2020
4844 Clouds 24 1014 22 16093 7.2 300 00:52 14.04.2020
4845 Clouds 24 1014 19 16093 7.7 280 00:32 14.04.2020
4846 Clouds 24 1014 22 16093 6.7 270 23:59 13.04.2020
4847 Clouds 24 1014 22 16093 6.7 270 23:59 13.04.2020
4848 Clouds 24 1014 22 16093 6.7 270 23:39 13.04.2020
4849 Clouds 24 1014 22 16093 6.7 270 23:19 13.04.2020
4850 Clouds 23 1015 25 16093 7.2 320 22:54 13.04.2020
4851 Clouds 23 1015 25 16093 7.2 320 22:36 13.04.2020
4852 Clouds 23 1015 25 16093 7.2 320 22:18 13.04.2020
4853 Clouds 22 1016 26 16093 6.2 280 21:41 13.04.2020
4854 Clouds 22 1016 26 16093 6.2 280 21:21 13.04.2020
4855 Clear 22 1016 26 16093 6.2 320 20:58 13.04.2020
4856 Clear 22 1016 26 16093 6.2 320 20:58 13.04.2020
4857 Clear 22 1016 26 16093 6.2 320 20:40 13.04.2020
4858 Clear 21 1016 26 16093 6.2 320 20:19 13.04.2020
4859 Clouds 21 1016 32 16093 6.2 280 19:58 13.04.2020
4860 Clear 21 1016 32 16093 3.6 210 19:37 13.04.2020
4861 Clear 20 1016 32 16093 3.6 210 19:18 13.04.2020
4862 Clear 20 1016 32 16093 6.2 210 18:57 13.04.2020
4863 Clear 19 1017 34 16093 1.5 200 18:37 13.04.2020
4864 Clear 17 1017 34 16093 1.5 200 18:18 13.04.2020
4865 Clear 17 1017 41 16093 2.1 120 17:56 13.04.2020
4866 Clear 17 1017 41 16093 2.1 120 17:37 13.04.2020
4867 Clear 16 1017 41 16093 2.1 120 17:19 13.04.2020
4868 Clear 15 1016 50 16093 2.1 110 16:57 13.04.2020
4869 Clear 15 1016 50 16093 2.1 110 16:37 13.04.2020
4870 Clear 14 1016 50 16093 2.1 110 16:19 13.04.2020
4871 Clear 14 1016 50 16093 2.1 110 16:19 13.04.2020
4872 Clear 10 1016 53 16093 2.1 100 15:46 13.04.2020
4873 Clear 10 1016 53 16093 2.1 100 15:28 13.04.2020
4874 Clear 10 1016 46 16093 2.1 30 14:59 13.04.2020
4875 Clear 10 1016 46 16093 2.1 30 14:40 13.04.2020
4876 Clear 11 1016 46 16093 2.1 30 14:22 13.04.2020
4877 Clear 11 1016 53 16093 2.6 60 13:56 13.04.2020
4878 Clear 11 1016 53 16093 2.6 60 13:38 13.04.2020
4879 Clear 11 1016 53 16093 2.6 60 13:20 13.04.2020
4880 Clear 12 1015 47 16093 1.5 140 12:58 13.04.2020
4881 Clear 12 1015 47 16093 1.5 140 12:39 13.04.2020
4882 Clear 12 1015 47 16093 1.5 140 12:19 13.04.2020
4883 Clear 12 1015 50 16093 3.6 130 11:57 13.04.2020
4884 Clear 12 1015 50 16093 3.6 130 11:39 13.04.2020
4885 Clear 12 1015 50 16093 3.6 130 11:18 13.04.2020
4886 Clear 12 1015 47 16093 3.6 110 10:55 13.04.2020
4887 Clear 12 1015 47 16093 3.6 110 10:36 13.04.2020
4888 Clear 13 1015 47 16093 3.6 110 10:18 13.04.2020
4889 Clear 13 1016 44 16093 2.6 130 09:43 13.04.2020
4890 Clear 13 1016 44 16093 2.6 130 09:25 13.04.2020
4891 Clear 13 1016 41 16093 3.1 170 08:45 13.04.2020
4892 Clear 14 1016 41 16093 3.1 170 08:27 13.04.2020
4893 Clear 14 1016 38 16093 2.51 218 07:56 13.04.2020
4894 Clear 15 1016 38 16093 2.51 218 07:37 13.04.2020
4895 Clear 15 1016 38 16093 2.51 218 07:18 13.04.2020
4896 Clear 17 1015 34 16093 2.1 270 06:42 13.04.2020
4897 Clear 18 1015 29 16093 4.1 280 05:51 13.04.2020
4898 Clear 18 1015 29 16093 4.1 280 05:19 13.04.2020
4899 Clear 18 1015 29 16093 4.1 280 05:19 13.04.2020
4900 Clear 20 1014 26 16093 3.1 280 04:31 13.04.2020
4901 Clear 20 1014 26 16093 5.7 310 03:55 13.04.2020
4902 Clear 21 1014 26 16093 5.7 310 03:34 13.04.2020
4903 Clear 22 1014 25 16093 4.1 300 02:41 13.04.2020
4904 Clear 23 1014 25 16093 4.1 320 01:46 13.04.2020
4905 Clear 23 1014 25 16093 4.1 320 01:28 13.04.2020
4906 Clear 22 1015 28 16093 4.1 310 00:48 13.04.2020
4907 Clear 22 1015 28 16093 4.1 310 00:25 13.04.2020
4908 Clear 21 1016 30 16093 4.6 330 23:56 12.04.2020
4909 Clear 21 1016 30 16093 4.6 330 23:38 12.04.2020
4910 Clear 21 1016 30 16093 4.6 330 23:20 12.04.2020
4911 Clear 21 1016 37 16093 2.1 300 22:54 12.04.2020
4912 Clear 20 1016 37 16093 2.1 300 22:36 12.04.2020
4913 Clear 20 1016 37 16093 2.1 300 22:18 12.04.2020
4914 Clear 18 1017 42 16093 2.64 257 21:37 12.04.2020
4915 Clear 18 1017 42 16093 2.75 255 21:19 12.04.2020
4916 Clear 18 1017 48 16093 3.6 120 20:43 12.04.2020
4917 Clear 17 1017 48 16093 3.6 120 20:23 12.04.2020
4918 Clouds 16 1017 51 16093 1.5 200 19:58 12.04.2020
4919 Clouds 16 1017 51 16093 1.5 200 19:40 12.04.2020
4920 Clouds 16 1017 51 16093 1.5 200 19:19 12.04.2020
4921 Clear 15 1017 58 16093 3.1 160 18:57 12.04.2020
4922 Clear 14 1017 58 16093 3.1 160 18:38 12.04.2020
4923 Clear 13 1018 58 16093 2.6 190 18:19 12.04.2020
4924 Clear 12 1017 71 16093 2.6 160 17:42 12.04.2020
4925 Clear 11 1017 71 16093 2.6 160 17:24 12.04.2020
4926 Clouds 10 1016 81 16093 1.5 140 16:59 12.04.2020
4927 Clouds 9 1016 81 16093 1.5 140 16:40 12.04.2020
4928 Clouds 9 1016 81 16093 1.5 140 16:20 12.04.2020
4929 Rain 7 1015 87 16093 1.89 220 15:50 12.04.2020
4930 Rain 7 1015 87 16093 1.89 220 15:31 12.04.2020
4931 Rain 7 1015 81 16093 3.6 150 14:57 12.04.2020
4932 Rain 7 1015 81 16093 3.6 150 14:37 12.04.2020
4933 Clouds 7 1015 81 16093 3.6 150 14:19 12.04.2020
4934 Clear 7 1015 87 16093 2.6 130 13:43 12.04.2020
4935 Clear 7 1014 87 16093 2.6 140 13:25 12.04.2020
4936 Clear 7 1014 87 16093 2.6 140 13:25 12.04.2020
4937 Clear 7 1014 87 16093 2.6 140 12:56 12.04.2020
4938 Clear 7 1014 87 16093 2.6 140 12:38 12.04.2020
4939 Clear 7 1014 87 16093 2.6 140 12:19 12.04.2020
4940 Clouds 7 1014 87 16093 1.96 219 11:57 12.04.2020
4941 Clouds 7 1014 87 16093 1.96 219 11:36 12.04.2020
4942 Clouds 7 1014 87 16093 1.96 219 11:18 12.04.2020
4943 Clear 8 1014 81 16093 2.1 170 10:55 12.04.2020
4944 Clear 8 1014 81 16093 2.1 170 10:55 12.04.2020
4945 Clear 8 1014 81 16093 2.1 170 10:37 12.04.2020
4946 Clear 8 1014 81 16093 2.1 170 10:18 12.04.2020
4947 Clear 8 1014 76 16093 1.5 180 09:40 12.04.2020
4948 Clear 9 1014 76 16093 1.5 180 09:21 12.04.2020
4949 Clouds 9 1015 71 16093 2.28 249 09:00 12.04.2020
4950 Clouds 9 1015 71 16093 2.28 249 08:41 12.04.2020
4951 Clouds 9 1015 71 16093 2.28 249 08:23 12.04.2020
4952 Clouds 10 1015 71 16093 2.1 270 07:45 12.04.2020
4953 Clouds 10 1015 71 16093 2.1 270 07:19 12.04.2020
4954 Clouds 10 1015 66 16093 2.6 270 06:35 12.04.2020
4955 Clouds 11 1014 66 16093 2.73 249 05:55 12.04.2020
4956 Clouds 11 1014 66 16093 2.73 249 05:36 12.04.2020
4957 Clear 12 1013 58 16093 2.1 240 03:44 12.04.2020
4958 Clear 12 1013 58 16093 2.1 240 03:24 12.04.2020
4959 Rain 13 1013 62 16093 1.5 190 02:34 12.04.2020
4960 Rain 12 1013 71 16093 2.6 140 01:51 12.04.2020
4961 Rain 12 1014 76 16093 2.1 350 00:59 12.04.2020
4962 Rain 11 1014 76 16093 2.1 350 00:41 12.04.2020
4963 Rain 12 1014 76 16093 5.1 330 00:20 12.04.2020
4964 Drizzle 11 1014 76 16093 5.7 310 23:46 11.04.2020
4965 Drizzle 12 1014 76 16093 4.6 300 23:26 11.04.2020
4966 Rain 13 1013 58 16093 8.2 280 22:42 11.04.2020
4967 Drizzle 14 1012 47 16093 4.6 310 22:23 11.04.2020
4968 Rain 15 1013 54 16093 8.2 270 21:58 11.04.2020
4969 Clouds 15 1013 31 16093 3.6 210 21:38 11.04.2020
4970 Clouds 16 1013 33 16093 3.6 210 21:19 11.04.2020
4971 Clouds 16 1014 36 16093 5.1 160 20:58 11.04.2020
4972 Clouds 17 1014 36 16093 5.1 160 20:40 11.04.2020
4973 Clouds 17 1014 36 16093 5.1 160 20:21 11.04.2020
4974 Clouds 17 1014 36 16093 1.5 190 19:59 11.04.2020
4975 Clouds 16 1014 36 16093 1.5 190 19:41 11.04.2020
4976 Clouds 16 1014 36 16093 1.5 190 19:20 11.04.2020
4977 Clouds 15 1014 44 16093 2.1 150 18:58 11.04.2020
4978 Clouds 15 1014 44 16093 2.1 150 18:39 11.04.2020
4979 Clouds 14 1014 44 16093 2.1 150 18:21 11.04.2020
4980 Clouds 14 1014 47 16093 3.1 120 17:59 11.04.2020
4981 Clouds 13 1014 47 16093 3.1 120 17:41 11.04.2020
4982 Clouds 13 1014 47 16093 3.1 120 17:22 11.04.2020
4983 Clouds 12 1014 53 16093 2.5 185 16:59 11.04.2020
4984 Clouds 12 1014 53 16093 2.5 185 16:41 11.04.2020
4985 Clouds 11 1014 53 16093 2.5 185 16:21 11.04.2020
4986 Clouds 11 1014 53 16093 2.5 185 16:21 11.04.2020
4987 Clouds 11 1013 53 16093 1.5 290 15:40 11.04.2020
4988 Clouds 11 1013 53 16093 1.5 290 15:40 11.04.2020
4989 Clouds 11 1013 53 16093 1.5 290 15:20 11.04.2020
4990 Clouds 11 1013 53 16093 1.5 250 14:44 11.04.2020
4991 Clouds 11 1013 53 16093 1.5 250 14:26 11.04.2020
4992 Clouds 11 1013 53 16093 1.5 280 14:00 11.04.2020
4993 Clouds 11 1013 53 16093 1.5 280 13:41 11.04.2020
4994 Clouds 11 1013 53 16093 1.5 280 13:22 11.04.2020
4995 Clear 11 1013 44 16093 2.1 110 12:43 11.04.2020
4996 Clear 11 1013 36 16093 2.1 110 12:22 11.04.2020
4997 Clear 11 1013 36 16093 1.5 100 11:59 11.04.2020
4998 Clear 11 1013 36 16093 1.5 100 11:40 11.04.2020
4999 Clear 11 1013 36 16093 1.5 100 11:20 11.04.2020
5000 Clear 12 1013 35 16093 2.1 130 10:56 11.04.2020
5001 Clear 12 1013 35 16093 2.1 130 10:36 11.04.2020
5002 Clear 13 1013 35 16093 2.1 130 10:18 11.04.2020
5003 Clear 13 1013 37 16093 1.5 210 09:41 11.04.2020
5004 Clear 13 1013 37 16093 1.5 210 09:22 11.04.2020
5005 Clear 14 1013 33 16093 2.6 30 08:59 11.04.2020
5006 Clear 14 1013 33 16093 2.6 30 08:41 11.04.2020
5007 Clear 14 1013 33 16093 2.6 30 08:23 11.04.2020
5008 Clear 15 1013 27 16093 2.6 250 07:42 11.04.2020
5009 Clear 16 1013 27 16093 2.6 250 07:23 11.04.2020
5010 Clear 17 1012 23 16093 3.6 300 06:37 11.04.2020
5011 Clear 18 1012 16 16093 3.6 280 05:57 11.04.2020
5012 Clear 21 1012 11 16093 6.7 240 03:57 11.04.2020
5013 Clear 24 1011 7 16093 4.6 240 02:52 11.04.2020
5014 Clear 25 1011 7 16093 4.6 250 01:26 11.04.2020
5015 Clear 25 1012 11 16093 3.1 280 00:56 11.04.2020
5016 Clear 25 1012 11 16093 3.1 280 00:38 11.04.2020
5017 Clear 25 1012 11 16093 3.1 280 00:18 11.04.2020
5018 Clear 24 1013 10 16093 1.5 180 23:42 10.04.2020
5019 Clear 24 1013 10 16093 1.5 180 23:19 10.04.2020
5020 Clear 24 1014 12 16093 4.1 190 22:58 10.04.2020
5021 Clear 24 1014 12 16093 4.1 190 22:38 10.04.2020
5022 Clear 23 1014 12 16093 4.1 190 22:20 10.04.2020
5023 Clear 22 1015 17 16093 3.1 260 21:42 10.04.2020
5024 Clear 21 1015 17 16093 3.1 260 21:21 10.04.2020
5025 Clear 20 1016 20 16093 2.6 230 20:59 10.04.2020
5026 Clear 20 1016 20 16093 2.6 230 20:40 10.04.2020
5027 Clear 19 1016 20 16093 2.6 230 20:20 10.04.2020
5028 Clear 19 1016 25 16093 2 214 19:56 10.04.2020
5029 Clear 19 1016 25 16093 2 214 19:38 10.04.2020
5030 Clear 19 1016 25 16093 2 214 19:19 10.04.2020
5031 Clear 18 1016 31 16093 1.5 60 18:56 10.04.2020
5032 Clear 17 1016 31 16093 1.5 60 18:38 10.04.2020
5033 Clear 16 1016 31 16093 1.5 60 18:19 10.04.2020
5034 Clear 15 1017 35 16093 1.5 80 17:57 10.04.2020
5035 Clear 15 1017 35 16093 1.5 80 17:39 10.04.2020
5036 Clear 14 1017 35 16093 1.5 80 17:19 10.04.2020
5037 Clear 12 1017 45 16093 3.6 120 16:44 10.04.2020
5038 Clear 10 1017 45 16093 3.6 120 16:23 10.04.2020
5039 Clear 10 1017 45 16093 3.6 120 16:23 10.04.2020
5040 Clear 7 1016 56 16093 2.1 130 15:59 10.04.2020
5041 Clear 7 1016 56 16093 2.1 130 15:39 10.04.2020
5042 Clear 7 1016 56 16093 2.1 130 15:21 10.04.2020
5043 Clear 7 1016 52 16093 2.1 130 14:59 10.04.2020
5044 Clear 8 1016 52 16093 2.1 130 14:40 10.04.2020
5045 Clear 8 1016 52 16093 2.1 130 14:21 10.04.2020
5046 Clear 8 1016 49 16093 3.1 120 13:49 10.04.2020
5047 Clear 8 1016 49 16093 3.1 120 13:23 10.04.2020
5048 Clear 9 1017 45 16093 2.6 110 12:59 10.04.2020
5049 Clear 9 1017 45 16093 2.6 110 12:59 10.04.2020
5050 Clear 9 1017 45 16093 2.6 110 12:41 10.04.2020
5051 Clear 10 1017 45 16093 2.6 110 12:21 10.04.2020
5052 Clear 10 1017 43 16093 1.57 212 11:43 10.04.2020
5053 Clear 11 1017 43 16093 1.57 212 11:24 10.04.2020
5054 Clear 11 1017 40 16093 1.57 212 10:58 10.04.2020
5055 Clear 11 1017 40 16093 1.57 212 10:39 10.04.2020
5056 Clear 11 1017 34 16093 2.6 190 10:19 10.04.2020
5057 Clear 11 1017 34 16093 2.6 190 09:43 10.04.2020
5058 Clear 11 1017 34 16093 2.6 190 09:43 10.04.2020
5059 Clear 12 1017 34 16093 2.6 190 09:22 10.04.2020
5060 Clear 12 1017 35 16093 2.1 250 08:50 10.04.2020
5061 Clear 13 1017 35 16093 2.1 250 08:27 10.04.2020
5062 Clear 13 1017 28 16093 1.5 290 07:55 10.04.2020
5063 Clear 14 1017 28 16093 1.5 290 07:37 10.04.2020
5064 Clear 14 1017 28 16093 1.5 290 07:19 10.04.2020
5065 Clear 16 1017 25 16093 3.6 300 06:31 10.04.2020
5066 Clear 16 1016 25 16093 3.1 320 05:59 10.04.2020
5067 Clear 17 1016 25 16093 3.1 320 05:29 10.04.2020
5068 Clear 18 1015 20 16093 4.6 330 04:55 10.04.2020
5069 Clear 20 1014 19 16093 5.7 330 03:35 10.04.2020
5070 Clear 21 1014 19 16093 4.1 320 02:51 10.04.2020
5071 Clear 22 1014 19 16093 4.1 320 02:32 10.04.2020
5072 Clear 22 1015 18 16093 4.21 261 01:46 10.04.2020
5073 Clear 22 1015 18 16093 4.21 261 01:26 10.04.2020
5074 Clear 22 1016 17 16093 4.6 330 00:46 10.04.2020
5075 Clear 22 1017 19 16093 3.6 280 00:20 10.04.2020
5076 Clear 22 1017 19 16093 3.6 280 23:42 09.04.2020
5077 Clear 21 1017 19 16093 3.6 280 23:24 09.04.2020
5078 Clear 21 1018 24 16093 1.5 10 22:57 09.04.2020
5079 Clear 21 1018 24 16093 1.5 10 22:39 09.04.2020
5080 Clear 20 1018 24 16093 1.5 10 22:21 09.04.2020
5081 Clear 20 1018 17 16093 3.52 240 21:38 09.04.2020
5082 Clear 18 1018 22 16093 1.95 216 21:20 09.04.2020
5083 Clear 18 1019 36 16093 2.6 10 20:47 09.04.2020
5084 Clear 17 1019 36 16093 2.6 10 20:23 09.04.2020
5085 Clear 17 1020 41 16093 1.5 40 19:59 09.04.2020
5086 Clear 17 1020 41 16093 1.5 40 19:39 09.04.2020
5087 Clear 17 1020 41 16093 1.5 40 19:20 09.04.2020
5088 Clear 16 1020 47 16093 1.95 216 18:42 09.04.2020
5089 Clear 14 1020 47 16093 0.44 35 18:21 09.04.2020
5090 Clear 14 1020 50 16093 0.44 35 17:58 09.04.2020
5091 Clear 14 1020 50 16093 0.44 35 17:39 09.04.2020
5092 Clear 13 1020 50 16093 0.44 35 17:19 09.04.2020
5093 Clear 13 1020 50 16093 0.44 35 17:19 09.04.2020
5094 Clear 12 1020 54 16093 1.5 330 16:40 09.04.2020
5095 Clear 11 1020 54 16093 1.5 330 16:20 09.04.2020
5096 Clouds 10 1019 57 16093 2.1 320 15:56 09.04.2020
5097 Clouds 9 1019 57 16093 2.1 320 15:37 09.04.2020
5098 Clouds 9 1019 57 16093 2.1 320 15:19 09.04.2020
5099 Clouds 10 1019 54 16093 4.1 340 14:42 09.04.2020
5100 Clouds 10 1019 54 16093 4.1 340 14:21 09.04.2020
5101 Clouds 11 1019 50 16093 6.7 330 13:58 09.04.2020
5102 Clouds 11 1019 50 16093 6.7 330 13:40 09.04.2020
5103 Clouds 12 1019 50 16093 6.7 330 13:22 09.04.2020
5104 Clouds 12 1019 54 16093 5.1 320 12:54 09.04.2020
5105 Clouds 12 1019 54 16093 5.1 320 12:36 09.04.2020
5106 Clouds 12 1019 54 16093 5.1 320 12:18 09.04.2020
5107 Clouds 13 1019 58 16093 3.1 310 11:42 09.04.2020
5108 Clouds 13 1019 58 16093 3.1 310 11:20 09.04.2020
5109 Clouds 13 1019 58 16093 3.1 310 11:20 09.04.2020
5110 Clouds 13 1019 58 16093 2.1 310 10:58 09.04.2020
5111 Clouds 13 1019 58 16093 2.1 310 10:40 09.04.2020
5112 Clouds 13 1019 58 16093 2.1 310 10:21 09.04.2020
5113 Clear 13 1019 58 16093 3.1 320 09:56 09.04.2020
5114 Clear 13 1019 58 16093 3.1 320 09:38 09.04.2020
5115 Clear 13 1019 58 16093 3.1 320 09:20 09.04.2020
5116 Clouds 14 1018 54 16093 5.1 340 08:44 09.04.2020
5117 Clouds 14 1018 54 16093 5.1 340 08:23 09.04.2020
5118 Clouds 14 1018 51 16093 5.1 320 07:55 09.04.2020
5119 Clouds 15 1018 51 16093 5.1 320 07:27 09.04.2020
5120 Clouds 15 1018 48 16093 4.1 320 06:55 09.04.2020
5121 Clouds 16 1018 48 16093 4.1 320 06:18 09.04.2020
5122 Clouds 16 1017 45 16093 5.7 310 05:39 09.04.2020
5123 Clear 21 1015 37 16093 6.7 260 03:50 09.04.2020
5124 Clouds 25 1012 22 16093 10.8 190 02:27 09.04.2020
5125 Clear 26 1012 19 16093 8.7 190 01:41 09.04.2020
5126 Clear 27 1012 19 16093 8.7 190 01:20 09.04.2020
5127 Clouds 27 1013 17 16093 7.2 180 00:41 09.04.2020
5128 Clouds 27 1013 17 16093 7.2 180 00:20 09.04.2020
5129 Clear 27 1013 21 16093 8.2 150 23:58 08.04.2020
5130 Clear 27 1013 21 16093 8.2 150 23:40 08.04.2020
5131 Clear 27 1013 21 16093 8.2 150 23:20 08.04.2020
5132 Clouds 26 1014 19 16093 9.3 190 22:43 08.04.2020
5133 Clouds 26 1014 19 16093 9.3 190 22:24 08.04.2020
5134 Clear 26 1015 22 16093 8.2 210 21:56 08.04.2020
5135 Clear 26 1015 22 16093 8.2 210 21:37 08.04.2020
5136 Clear 25 1015 24 16093 7.2 190 21:19 08.04.2020
5137 Clouds 25 1016 23 16093 5.7 130 20:56 08.04.2020
5138 Clouds 25 1016 23 16093 5.7 130 20:38 08.04.2020
5139 Clouds 24 1016 23 16093 5.7 130 20:19 08.04.2020
5140 Clouds 23 1017 28 16093 2.6 220 19:42 08.04.2020
5141 Clouds 23 1017 28 16093 2.6 220 19:42 08.04.2020
5142 Clouds 23 1017 28 16093 2.6 220 19:22 08.04.2020
5143 Clear 23 1017 35 16093 1.5 120 18:56 08.04.2020
5144 Clear 22 1017 35 16093 1.5 120 18:38 08.04.2020
5145 Clear 21 1016 39 16093 2.6 120 18:19 08.04.2020
5146 Clear 20 1016 39 16093 2.6 120 17:43 08.04.2020
5147 Clear 19 1016 39 16093 2.6 120 17:22 08.04.2020
5148 Clear 17 1016 51 16093 4.6 110 16:59 08.04.2020
5149 Clear 17 1016 51 16093 4.6 110 16:40 08.04.2020
5150 Clear 16 1016 51 16093 4.6 110 16:22 08.04.2020
5151 Clear 13 1016 58 16093 5.1 110 15:39 08.04.2020
5152 Clear 13 1015 47 16093 5.1 100 15:21 08.04.2020
5153 Clear 13 1015 47 16093 5.1 100 14:59 08.04.2020
5154 Clear 13 1015 47 16093 5.1 100 14:40 08.04.2020
5155 Clear 13 1015 47 16093 5.1 100 14:22 08.04.2020
5156 Clear 13 1016 44 16093 2.1 0 13:44 08.04.2020
5157 Clear 13 1015 47 16093 5.1 90 13:21 08.04.2020
5158 Clear 13 1015 47 16093 5.1 90 13:21 08.04.2020
5159 Clear 13 1016 47 16093 4.6 110 12:58 08.04.2020
5160 Clear 13 1016 47 16093 4.6 110 12:39 08.04.2020
5161 Clear 14 1016 47 16093 4.6 110 12:18 08.04.2020
5162 Clear 14 1017 47 16093 3.1 120 11:42 08.04.2020
5163 Clear 14 1017 47 16093 3.1 120 11:23 08.04.2020
5164 Clear 14 1017 44 16093 3.1 110 10:58 08.04.2020
5165 Clear 14 1017 44 16093 3.1 110 10:40 08.04.2020
5166 Clear 14 1017 44 16093 3.1 110 10:21 08.04.2020
5167 Clear 15 1017 39 16093 2.1 100 09:59 08.04.2020
5168 Clear 15 1017 39 16093 2.1 100 09:59 08.04.2020
5169 Clear 16 1017 39 16093 2.1 100 09:41 08.04.2020
5170 Clear 16 1017 39 16093 2.1 100 09:19 08.04.2020
5171 Clear 17 1017 39 16093 2.1 150 08:57 08.04.2020
5172 Clear 17 1017 39 16093 2.1 150 08:38 08.04.2020
5173 Clear 17 1017 39 16093 2.1 150 08:20 08.04.2020
5174 Clear 18 1017 32 16093 1.5 110 07:43 08.04.2020
5175 Clear 18 1017 32 16093 1.5 110 07:21 08.04.2020
5176 Clear 20 1016 32 16093 2.85 223 06:29 08.04.2020
5177 Clear 23 1015 25 16093 4.1 250 04:58 08.04.2020
5178 Clear 26 1014 18 16093 5.7 260 02:50 08.04.2020
5179 Clear 27 1014 18 16093 5.7 260 02:22 08.04.2020
5180 Clouds 27 1015 18 16093 4.6 220 01:56 08.04.2020
5181 Clouds 27 1015 18 16093 4.6 220 01:28 08.04.2020
5182 Clouds 27 1015 22 16093 3.1 290 00:45 08.04.2020
5183 Clouds 27 1015 22 16093 3.1 290 00:25 08.04.2020
5184 Clear 27 1016 19 16093 5.1 200 23:41 07.04.2020
5185 Clear 26 1016 19 16093 5.1 200 23:23 07.04.2020
5186 Clear 26 1017 22 16093 4.1 190 22:59 07.04.2020
5187 Clear 26 1017 22 16093 4.1 190 22:40 07.04.2020
5188 Clear 26 1017 22 16093 4.1 190 22:21 07.04.2020
5189 Clear 25 1018 22 16093 5.31 214 22:00 07.04.2020
5190 Clear 25 1018 22 16093 5.31 214 21:41 07.04.2020
5191 Clear 24 1018 22 16093 4.63 199 21:21 07.04.2020
5192 Clear 24 1018 22 16093 4.63 199 21:21 07.04.2020
5193 Clear 23 1019 24 16093 1.5 70 20:58 07.04.2020
5194 Clear 23 1019 24 16093 1.5 70 20:39 07.04.2020
5195 Clear 23 1019 24 16093 1.5 70 20:20 07.04.2020
5196 Clear 22 1019 26 16093 4.63 199 19:57 07.04.2020
5197 Clear 22 1019 26 16093 4.63 199 19:37 07.04.2020
5198 Clear 22 1020 29 16093 2.1 0 19:19 07.04.2020
5199 Clear 21 1020 29 16093 2.1 0 18:57 07.04.2020
5200 Clear 21 1020 29 16093 2.1 0 18:39 07.04.2020
5201 Clear 19 1020 29 16093 2.1 0 18:19 07.04.2020
5202 Clear 18 1019 36 16093 3.6 110 17:44 07.04.2020
5203 Clear 18 1019 36 16093 3.6 110 17:21 07.04.2020
5204 Clear 16 1018 41 16093 3.6 90 16:47 07.04.2020
5205 Clear 16 1018 41 16093 3.6 90 16:47 07.04.2020
5206 Clear 14 1018 43 16093 3.1 120 16:28 07.04.2020
5207 Clear 11 1018 43 16093 3.1 120 15:57 07.04.2020
5208 Clear 10 1018 43 16093 3.1 120 15:38 07.04.2020
5209 Clear 11 1017 30 16093 2.6 120 15:20 07.04.2020
5210 Clear 12 1017 30 16093 2.6 120 14:41 07.04.2020
5211 Clear 12 1017 30 16093 2.6 120 14:22 07.04.2020
5212 Clouds 12 1017 31 16093 1.5 250 13:57 07.04.2020
5213 Clouds 12 1017 31 16093 1.5 250 13:37 07.04.2020
5214 Clouds 12 1017 31 16093 1.5 250 13:18 07.04.2020
5215 Clear 13 1017 31 16093 1.57 163 12:55 07.04.2020
5216 Clear 13 1017 31 16093 1.57 163 12:36 07.04.2020
5217 Clear 13 1017 31 16093 1.57 163 12:36 07.04.2020
5218 Clear 14 1017 31 16093 3.1 175 12:18 07.04.2020
5219 Clear 14 1018 29 16093 3.1 175 11:42 07.04.2020
5220 Clear 14 1018 29 16093 3.1 175 11:24 07.04.2020
5221 Clear 15 1018 29 16093 2.1 220 10:58 07.04.2020
5222 Clear 14 1018 29 16093 2.1 220 10:37 07.04.2020
5223 Clear 14 1018 29 16093 2.1 220 10:19 07.04.2020
5224 Clear 15 1018 27 16093 3.1 240 09:45 07.04.2020
5225 Clear 16 1018 27 16093 3.1 240 09:18 07.04.2020
5226 Clouds 16 1018 24 16093 2.6 220 08:55 07.04.2020
5227 Clouds 17 1018 24 16093 2.6 220 08:36 07.04.2020
5228 Clouds 17 1018 24 16093 2.6 220 08:18 07.04.2020
5229 Clouds 18 1017 20 16093 2.6 190 07:40 07.04.2020
5230 Clouds 18 1017 20 16093 2.6 190 07:21 07.04.2020
5231 Clouds 19 1016 19 16093 2.6 210 06:51 07.04.2020
5232 Clouds 20 1016 19 16093 2.6 210 06:21 07.04.2020
5233 Clear 21 1015 17 16093 4.6 210 05:38 07.04.2020
5234 Clear 22 1014 11 16093 4.6 230 04:46 07.04.2020
5235 Clouds 24 1014 11 16093 6.7 220 03:26 07.04.2020
5236 Clear 25 1013 9 16093 7.7 220 02:54 07.04.2020
5237 Clear 26 1013 9 16093 3.1 220 01:48 07.04.2020
5238 Clear 27 1013 9 16093 3.1 220 01:25 07.04.2020
5239 Clouds 27 1013 8 16093 6.2 260 00:29 07.04.2020
5240 Clouds 27 1013 8 16093 6.2 260 00:29 07.04.2020
5241 Clear 27 1013 8 16093 3.6 240 23:55 06.04.2020
5242 Clear 27 1013 8 16093 3.6 240 23:36 06.04.2020
5243 Clear 26 1013 8 16093 3.6 240 23:18 06.04.2020
5244 Clear 26 1014 9 16093 5.7 190 22:39 06.04.2020
5245 Clear 26 1014 9 16093 5.7 190 22:21 06.04.2020
5246 Clear 25 1015 12 16093 6.7 200 21:57 06.04.2020
5247 Clear 25 1015 12 16093 6.7 200 21:38 06.04.2020
5248 Clear 24 1015 12 16093 6.7 200 21:18 06.04.2020
5249 Clear 24 1015 17 16093 4.1 140 20:55 06.04.2020
5250 Clear 24 1015 17 16093 4.1 140 20:37 06.04.2020
5251 Clear 23 1015 17 16093 4.1 140 20:18 06.04.2020
5252 Clear 22 1016 19 16093 3.6 180 19:41 06.04.2020
5253 Clear 22 1016 19 16093 3.6 180 19:23 06.04.2020
5254 Clear 21 1016 18 16093 3.1 90 18:58 06.04.2020
5255 Clear 21 1015 22 16093 1.5 80 18:39 06.04.2020
5256 Clear 19 1015 22 16093 1.5 80 18:20 06.04.2020
5257 Rain 18 1015 29 16093 3.6 30 17:42 06.04.2020
5258 Rain 18 1015 29 16093 3.6 30 17:20 06.04.2020
5259 Rain 16 1015 43 16093 2.6 40 16:50 06.04.2020
5260 Clear 15 1015 43 16093 2.6 40 16:31 06.04.2020
5261 Clear 13 1014 49 16093 4.1 130 15:41 06.04.2020
5262 Clear 13 1013 40 16093 2.6 90 14:00 06.04.2020
5263 Clear 13 1013 40 16093 2.6 90 14:00 06.04.2020
5264 Clear 13 1013 40 16093 2.6 80 13:40 06.04.2020
5265 Clear 13 1013 40 16093 2.6 80 13:40 06.04.2020
5266 Clear 12 1013 40 16093 2.6 80 13:20 06.04.2020
5267 Clear 12 1013 40 16093 2.6 80 13:20 06.04.2020
5268 Clear 12 1013 40 16093 2.6 80 13:20 06.04.2020
5269 Clear 12 1013 40 16093 2.6 80 13:20 06.04.2020
5270 Clear 13 1013 35 16093 1.5 180 12:23 06.04.2020
5271 Clear 13 1013 35 16093 1.5 180 12:23 06.04.2020
5272 Clear 14 1013 35 16093 4.1 110 11:55 06.04.2020
5273 Clear 14 1013 35 16093 4.1 110 11:33 06.04.2020
5274 Clear 14 1013 35 16093 4.1 110 11:33 06.04.2020
5275 Clear 14 1013 35 16093 4.1 110 11:33 06.04.2020
5276 Clear 14 1013 35 16093 4.1 110 11:33 06.04.2020
5277 Clear 14 1013 35 16093 4.1 110 11:33 06.04.2020
5278 Clear 14 1013 31 16093 2.1 80 10:52 06.04.2020
5279 Clear 14 1013 31 16093 2.1 80 10:52 06.04.2020
5280 Clear 14 1013 31 16093 2.1 80 10:52 06.04.2020
5281 Clear 14 1013 31 16093 2.1 80 10:52 06.04.2020
5282 Clear 14 1013 31 16093 2.1 80 10:52 06.04.2020
5283 Clear 15 1013 31 16093 2.1 80 10:22 06.04.2020
5284 Clear 15 1013 29 16093 2.1 70 09:47 06.04.2020
5285 Clear 16 1013 29 16093 2.1 70 09:22 06.04.2020
5286 Clouds 17 1013 27 16093 1.5 160 08:55 06.04.2020
5287 Clouds 18 1013 27 16093 1.5 160 08:31 06.04.2020
5288 Clouds 18 1012 22 16093 1.5 260 07:51 06.04.2020
5289 Clouds 18 1012 22 16093 1.5 260 07:51 06.04.2020
5290 Clouds 18 1012 22 16093 1.5 260 07:50 06.04.2020
5291 Clouds 20 1012 20 16093 3.1 240 06:52 06.04.2020
5292 Clouds 20 1012 20 16093 3.1 240 06:52 06.04.2020
5293 Clouds 20 1012 20 16093 3.1 240 06:25 06.04.2020
5294 Clouds 24 1009 13 16093 4.1 230 04:20 06.04.2020
5295 Clouds 26 1009 10 16093 6.7 240 02:59 06.04.2020
5296 Clear 26 1009 10 16093 6.2 240 02:36 06.04.2020
5297 Clear 27 1009 7 16093 6.2 220 01:28 06.04.2020
5298 Clear 28 1009 7 16093 7.2 240 00:46 06.04.2020
5299 Clear 28 1009 7 16093 7.2 240 00:46 06.04.2020
5300 Clear 27 1009 7 16093 7.2 240 00:24 06.04.2020
5301 Clear 27 1010 10 16093 3.6 220 23:44 05.04.2020
5302 Clear 27 1010 10 16093 3.6 220 23:26 05.04.2020
5303 Clear 27 1011 10 16093 6.7 230 22:55 05.04.2020
5304 Clear 27 1011 10 16093 6.7 230 22:37 05.04.2020
5305 Clear 26 1011 10 16093 6.7 230 22:18 05.04.2020
5306 Clear 26 1012 11 16093 4.1 200 21:46 05.04.2020
5307 Clear 26 1012 11 16093 4.1 200 21:25 05.04.2020
5308 Clear 25 1012 11 16093 4.1 200 20:58 05.04.2020
5309 Clear 25 1012 11 16093 4.1 200 20:58 05.04.2020
5310 Clear 25 1012 11 16093 4.1 200 20:58 05.04.2020
5311 Clear 25 1012 11 16093 4.1 200 20:58 05.04.2020
5312 Clear 25 1012 11 16093 4.1 200 20:58 05.04.2020
5313 Clear 24 1013 13 16093 7.75 191 20:20 05.04.2020
5314 Clear 24 1013 13 16093 7.75 191 20:20 05.04.2020
5315 Clear 24 1013 13 16093 7.75 191 20:20 05.04.2020
5316 Clear 24 1013 13 16093 7.75 191 20:20 05.04.2020
5317 Clear 24 1013 13 16093 7.75 191 20:20 05.04.2020
5318 Clear 23 1013 18 16093 7.75 191 19:38 05.04.2020
5319 Clear 23 1013 18 16093 7.75 191 19:20 05.04.2020
5320 Clear 22 1013 22 16093 3.1 100 18:44 05.04.2020
5321 Clear 22 1013 22 16093 3.1 100 18:44 05.04.2020
5322 Clear 22 1013 22 16093 3.1 100 18:44 05.04.2020
5323 Clear 22 1013 22 16093 3.1 100 18:44 05.04.2020
5324 Clear 22 1013 22 16093 3.1 100 18:44 05.04.2020
5325 Clear 19 1013 27 16093 4.1 150 17:55 05.04.2020
5326 Clear 19 1013 27 16093 4.1 150 17:54 05.04.2020
5327 Clear 19 1013 27 16093 4.1 150 17:54 05.04.2020
5328 Clear 19 1013 27 16093 4.1 150 17:35 05.04.2020
5329 Clear 19 1013 27 16093 4.1 150 17:35 05.04.2020
5330 Clear 17 1013 27 16093 4.1 150 17:07 05.04.2020
5331 Clear 17 1013 27 16093 4.1 150 17:07 05.04.2020
5332 Clear 18 1013 27 16093 4.1 150 17:07 05.04.2020
5333 Clear 17 1013 27 16093 4.1 150 17:02 05.04.2020
5334 Clear 17 1013 27 16093 4.1 150 17:02 05.04.2020
5335 Clear 15 1013 30 16093 6.7 120 16:20 05.04.2020
5336 Clear 13 1012 30 16093 4.1 120 15:52 05.04.2020
5337 Clear 13 1012 30 16093 4.1 120 15:32 05.04.2020
5338 Clear 13 1012 30 16093 5.1 110 14:50 05.04.2020
5339 Clear 13 1012 30 16093 5.1 110 14:26 05.04.2020
5340 Clear 13 1012 24 16093 5.1 80 13:43 05.04.2020
5341 Clear 14 1012 24 16093 2.6 110 12:49 05.04.2020
5342 Clear 14 1012 24 16093 2.6 110 12:49 05.04.2020
5343 Clear 15 1012 24 16093 2.1 130 11:41 05.04.2020
5344 Clear 15 1012 24 16093 2.1 130 11:21 05.04.2020
5345 Clear 15 1012 24 16093 2.1 130 10:58 05.04.2020
5346 Clear 15 1012 23 16093 2.1 130 10:39 05.04.2020
5347 Clear 15 1012 23 16093 2.1 130 10:39 05.04.2020
5348 Clear 15 1012 23 16093 2.1 130 10:39 05.04.2020
5349 Clear 15 1012 23 16093 2.1 130 10:39 05.04.2020
5350 Clear 15 1012 23 16093 2.1 130 10:38 05.04.2020
5351 Clear 15 1012 23 16093 2.1 130 10:18 05.04.2020
5352 Clear 16 1013 26 16093 3.1 140 09:42 05.04.2020
5353 Clear 16 1013 26 16093 3.1 140 09:23 05.04.2020
5354 Clear 16 1013 26 16093 3.1 140 09:23 05.04.2020
5355 Clear 16 1013 26 16093 3.1 140 09:23 05.04.2020
5356 Clear 16 1013 26 16093 3.1 140 09:23 05.04.2020
5357 Clear 16 1013 26 16093 3.1 140 09:23 05.04.2020
5358 Clear 17 1012 22 16093 2.6 170 07:41 05.04.2020
5359 Clear 23 1009 12 16093 5.1 260 04:36 05.04.2020
5360 Clear 25 1009 10 16093 5.1 230 03:32 05.04.2020
5361 Clear 26 1008 10 16093 5.7 250 02:51 05.04.2020
5362 Clear 27 1008 10 16093 6.7 270 01:48 05.04.2020
5363 Clear 27 1008 10 16093 6.7 270 01:28 05.04.2020
5364 Clear 27 1008 10 16093 6.7 270 01:28 05.04.2020
5365 Clear 28 1009 10 16093 5.1 240 00:44 05.04.2020
5366 Clear 27 1009 10 16093 5.1 240 00:21 05.04.2020
5367 Clear 27 1010 9 16093 3.1 320 23:55 04.04.2020
5368 Clear 27 1010 9 16093 3.1 320 23:37 04.04.2020
5369 Clear 27 1010 9 16093 3.1 320 23:18 04.04.2020
5370 Clear 26 1011 11 16093 1.5 290 22:40 04.04.2020
5371 Clear 26 1011 11 16093 1.5 290 22:21 04.04.2020
5372 Clear 26 1011 11 16093 1.5 290 21:58 04.04.2020
5373 Clear 25 1012 12 16093 6.33 225 21:39 04.04.2020
5374 Clear 24 1012 12 16093 4.62 203 21:19 04.04.2020
5375 Clear 24 1012 12 16093 4.71 203 20:58 04.04.2020
5376 Clear 24 1013 11 16093 4.1 170 20:39 04.04.2020
5377 Clear 23 1013 11 16093 4.1 170 20:21 04.04.2020
5378 Clear 23 1013 15 16093 2.6 160 19:57 04.04.2020
5379 Clear 22 1013 15 16093 2.6 160 19:37 04.04.2020
5380 Clear 22 1013 15 16093 2.6 160 19:19 04.04.2020
5381 Clear 22 1013 15 16093 2.6 160 19:19 04.04.2020
5382 Clear 22 1013 19 16093 3.1 100 18:55 04.04.2020
5383 Clear 21 1013 19 16093 3.1 100 18:37 04.04.2020
5384 Clear 19 1013 19 16093 3.1 100 18:18 04.04.2020
5385 Clear 18 1013 23 16093 3.6 120 17:41 04.04.2020
5386 Clear 17 1013 23 16093 3.6 120 17:20 04.04.2020
5387 Clear 16 1012 30 16093 4.6 100 16:56 04.04.2020
5388 Clear 15 1012 30 16093 4.6 100 16:38 04.04.2020
5389 Clear 13 1012 30 16093 4.6 100 16:19 04.04.2020
5390 Clear 10 1012 36 16093 3.6 100 15:41 04.04.2020
5391 Clear 11 1012 36 16093 3.6 100 15:23 04.04.2020
5392 Clear 11 1012 36 16093 3.6 100 14:57 04.04.2020
5393 Clear 11 1012 37 16093 4.1 120 14:39 04.04.2020
5394 Clear 11 1012 37 16093 4.1 120 14:21 04.04.2020
5395 Clear 11 1012 40 16093 3.6 90 13:55 04.04.2020
5396 Clear 11 1012 40 16093 3.6 90 13:37 04.04.2020
5397 Clear 12 1012 40 16093 3.6 90 13:18 04.04.2020
5398 Clear 12 1012 37 16093 3.6 100 12:44 04.04.2020
5399 Clear 13 1012 37 16093 3.6 100 12:23 04.04.2020
5400 Clear 13 1012 37 16093 3.6 100 12:23 04.04.2020
5401 Clear 13 1012 37 16093 2.1 100 11:55 04.04.2020
5402 Clear 13 1012 37 16093 2.1 100 11:37 04.04.2020
5403 Clear 13 1012 37 16093 2.1 100 11:18 04.04.2020
5404 Clear 14 1012 35 16093 4.6 170 10:55 04.04.2020
5405 Clear 14 1012 35 16093 4.6 170 10:37 04.04.2020
5406 Clear 14 1012 35 16093 4.6 170 10:18 04.04.2020
5407 Clear 14 1012 30 16093 3.6 140 09:54 04.04.2020
5408 Clear 15 1012 30 16093 3.6 140 09:36 04.04.2020
5409 Clear 15 1012 27 16093 3.6 140 09:18 04.04.2020
5410 Clear 16 1012 27 16093 3.6 140 08:38 04.04.2020
5411 Clear 16 1012 27 16093 3.6 140 08:19 04.04.2020
5412 Clear 18 1012 27 16093 4.6 150 07:41 04.04.2020
5413 Clear 18 1012 27 16093 4.6 150 07:23 04.04.2020
5414 Clear 20 1011 27 16093 3.6 250 06:46 04.04.2020
5415 Clear 20 1011 19 16093 3.6 250 06:18 04.04.2020
5416 Clear 21 1010 21 16093 3.1 240 05:41 04.04.2020
5417 Clear 21 1010 21 16093 3.1 240 05:22 04.04.2020
5418 Clear 23 1009 17 16093 4.6 230 04:25 04.04.2020
5419 Clear 24 1008 15 16093 6.2 240 03:47 04.04.2020
5420 Clouds 26 1008 13 16093 6.7 230 02:49 04.04.2020
5421 Clouds 26 1008 13 16093 6.7 230 02:30 04.04.2020
5422 Clouds 27 1008 13 16093 7.2 250 01:51 04.04.2020
5423 Clouds 27 1008 13 16093 7.2 250 01:22 04.04.2020
5424 Clouds 27 1009 13 16093 7.2 260 00:47 04.04.2020
5425 Clouds 27 1009 13 16093 7.2 260 00:27 04.04.2020
5426 Clear 27 1009 15 16093 5.1 290 23:39 03.04.2020
5427 Clear 27 1010 13 16093 4.1 360 23:21 03.04.2020
5428 Clear 26 1011 14 16093 3.1 280 22:56 03.04.2020
5429 Clear 26 1011 14 16093 3.1 280 22:38 03.04.2020
5430 Clear 26 1011 14 16093 3.1 280 22:18 03.04.2020
5431 Clear 26 1012 13 16093 3.6 220 21:43 03.04.2020
5432 Clear 26 1012 13 16093 3.6 220 21:23 03.04.2020
5433 Clear 24 1013 19 16093 3.6 140 20:56 03.04.2020
5434 Clear 24 1013 19 16093 3.6 140 20:37 03.04.2020
5435 Clear 24 1013 19 16093 3.6 140 20:19 03.04.2020
5436 Clear 23 1014 17 16093 2.1 110 19:56 03.04.2020
5437 Clear 23 1014 17 16093 2.1 110 19:38 03.04.2020
5438 Clear 23 1014 17 16093 2.1 110 19:19 03.04.2020
5439 Clear 22 1014 24 16093 3.1 100 18:58 03.04.2020
5440 Clear 22 1014 24 16093 3.1 100 18:40 03.04.2020
5441 Clear 21 1014 24 16093 3.1 100 18:22 03.04.2020
5442 Clear 19 1014 31 16093 4.1 110 17:43 03.04.2020
5443 Clear 17 1014 31 16093 4.1 110 17:21 03.04.2020
5444 Clear 17 1014 31 16093 4.1 110 17:21 03.04.2020
5445 Clear 16 1014 37 16093 3.6 110 16:58 03.04.2020
5446 Clear 15 1014 37 16093 3.6 110 16:40 03.04.2020
5447 Clear 12 1014 37 16093 3.6 110 16:21 03.04.2020
5448 Clear 11 1013 46 16093 3.6 110 15:57 03.04.2020
5449 Clear 11 1013 46 16093 3.6 110 15:38 03.04.2020
5450 Clear 11 1013 46 16093 3.6 110 15:19 03.04.2020
5451 Clear 11 1012 37 16093 3.6 100 14:41 03.04.2020
5452 Clear 11 1012 37 16093 3.6 100 14:41 03.04.2020
5453 Clear 11 1013 43 16093 2.1 30 14:22 03.04.2020
5454 Clear 11 1013 43 16093 2.1 30 13:57 03.04.2020
5455 Clear 12 1013 43 16093 2.1 30 13:38 03.04.2020
5456 Clear 12 1013 43 16093 2.1 30 13:20 03.04.2020
5457 Clear 12 1013 40 16093 1.13 185 12:43 03.04.2020
5458 Clear 13 1013 40 16093 1.05 196 12:20 03.04.2020
5459 Clear 13 1013 37 16093 3.1 180 11:56 03.04.2020
5460 Clear 13 1013 37 16093 3.1 180 11:37 03.04.2020
5461 Clear 14 1013 37 16093 3.1 180 11:18 03.04.2020
5462 Clear 14 1013 37 16093 3.1 180 10:58 03.04.2020
5463 Clear 14 1013 35 16093 2.6 180 10:38 03.04.2020
5464 Clear 15 1013 35 16093 2.6 180 10:20 03.04.2020
5465 Clear 15 1014 33 16093 2.6 120 09:57 03.04.2020
5466 Clear 15 1014 33 16093 2.6 120 09:39 03.04.2020
5467 Clear 16 1014 33 16093 2.6 120 09:21 03.04.2020
5468 Clear 17 1013 29 16093 1.5 130 08:55 03.04.2020
5469 Clear 17 1013 29 16093 1.5 130 08:36 03.04.2020
5470 Clear 17 1013 29 16093 1.5 130 08:18 03.04.2020
5471 Clear 18 1013 24 16093 2.6 290 07:41 03.04.2020
5472 Clear 19 1013 24 16093 2.6 290 07:23 03.04.2020
5473 Clear 20 1013 21 16093 4.1 270 06:38 03.04.2020
5474 Clear 20 1013 21 16093 4.1 270 06:20 03.04.2020
5475 Clear 22 1012 18 16093 5.7 290 05:34 03.04.2020
5476 Clear 25 1011 13 16093 6.7 280 03:40 03.04.2020
5477 Clear 26 1011 13 16093 6.7 280 02:53 03.04.2020
5478 Clear 27 1010 12 16093 7.2 270 01:53 03.04.2020
5479 Clear 28 1010 12 16093 7.2 270 01:18 03.04.2020
5480 Clear 28 1010 14 16093 8.7 280 00:34 03.04.2020
5481 Clear 28 1011 13 16093 5.7 270 23:57 02.04.2020
5482 Clear 28 1011 13 16093 5.7 270 23:39 02.04.2020
5483 Clear 27 1011 14 16093 7.2 310 23:19 02.04.2020
5484 Clear 27 1012 14 16093 4.6 270 22:43 02.04.2020
5485 Clear 27 1012 14 16093 4.6 270 22:25 02.04.2020
5486 Clear 27 1012 14 16093 4.6 270 21:59 02.04.2020
5487 Clear 26 1012 14 16093 6.2 290 21:38 02.04.2020
5488 Clear 26 1012 14 16093 6.2 290 21:38 02.04.2020
5489 Clear 26 1012 14 16093 6.2 290 21:19 02.04.2020
5490 Clear 26 1013 19 16093 2.6 200 20:55 02.04.2020
5491 Clear 25 1013 19 16093 2.6 200 20:37 02.04.2020
5492 Clear 24 1013 19 16093 2.6 200 20:19 02.04.2020
5493 Clear 24 1014 19 16093 4.1 140 19:42 02.04.2020
5494 Clear 23 1014 22 16093 2.6 90 19:20 02.04.2020
5495 Clear 23 1014 22 16093 2.6 90 19:20 02.04.2020
5496 Clear 23 1014 22 16093 2.6 90 19:20 02.04.2020
5497 Clear 23 1014 22 16093 2.6 90 18:57 02.04.2020
5498 Clear 23 1014 22 16093 2.6 90 18:39 02.04.2020
5499 Clear 20 1014 27 16093 5.1 130 18:19 02.04.2020
5500 Clear 20 1014 27 16093 5.1 130 17:44 02.04.2020
5501 Clear 20 1014 27 16093 5.1 130 17:26 02.04.2020
5502 Clear 18 1014 27 16093 5.1 130 16:59 02.04.2020
5503 Clear 17 1013 35 16093 3.6 130 16:41 02.04.2020
5504 Clear 16 1013 35 16093 3.6 130 16:22 02.04.2020
5505 Clear 15 1013 35 16093 3.6 130 15:59 02.04.2020
5506 Clear 14 1013 35 16093 4.6 110 15:40 02.04.2020
5507 Clear 13 1013 35 16093 4.6 110 15:20 02.04.2020
5508 Clear 13 1012 40 16093 4.1 110 14:58 02.04.2020
5509 Clear 14 1012 40 16093 4.1 110 14:38 02.04.2020
5510 Clear 14 1012 40 16093 4.1 110 14:19 02.04.2020
5511 Clear 14 1012 40 16093 4.1 110 14:19 02.04.2020
5512 Clear 14 1012 37 16093 2.6 90 13:55 02.04.2020
5513 Clear 14 1012 37 16093 2.6 90 13:37 02.04.2020
5514 Clear 15 1012 37 16093 2.6 90 13:18 02.04.2020
5515 Clear 15 1012 28 16093 2.6 100 12:46 02.04.2020
5516 Clear 16 1012 28 16093 2.6 100 12:20 02.04.2020
5517 Clear 16 1012 24 16093 2.6 150 11:58 02.04.2020
5518 Clear 16 1012 24 16093 2.6 150 11:39 02.04.2020
5519 Clear 16 1012 24 16093 2.6 150 11:20 02.04.2020
5520 Clear 16 1012 24 16093 2.6 150 11:20 02.04.2020
5521 Clear 16 1012 17 16093 5.1 200 10:57 02.04.2020
5522 Clear 16 1012 17 16093 5.1 200 10:57 02.04.2020
5523 Clear 17 1012 17 16093 5.1 200 10:38 02.04.2020
5524 Clear 16 1012 17 16093 5.1 200 10:20 02.04.2020
5525 Clear 16 1012 17 16093 5.1 200 10:20 02.04.2020
5526 Clear 16 1012 15 16093 3.83 183 09:59 02.04.2020
5527 Clear 16 1012 15 16093 3.83 183 09:41 02.04.2020
5528 Clear 17 1012 15 16093 3.83 183 09:21 02.04.2020
5529 Clouds 17 1012 23 16093 2.1 60 08:47 02.04.2020
5530 Clouds 17 1012 23 16093 2.1 60 08:28 02.04.2020
5531 Clear 17 1012 23 16093 2.6 230 07:57 02.04.2020
5532 Clear 18 1012 23 16093 2.6 230 07:38 02.04.2020
5533 Clear 18 1012 23 16093 2.6 230 07:19 02.04.2020
5534 Clear 20 1011 19 16093 1.5 270 06:24 02.04.2020
5535 Clear 21 1010 19 16093 3.55 232 05:46 02.04.2020
5536 Clear 21 1010 19 16093 3.55 232 05:46 02.04.2020
5537 Clear 22 1009 14 16093 5.7 280 04:55 02.04.2020
5538 Clear 28 1008 10 16093 5.7 290 02:19 02.04.2020
5539 Clear 29 1008 9 16093 5.7 230 00:59 02.04.2020
5540 Clear 28 1008 9 16093 5.7 230 00:38 02.04.2020
5541 Clear 28 1008 10 16093 4.6 330 00:19 02.04.2020
5542 Clear 28 1009 9 16093 5.1 250 23:38 01.04.2020
5543 Clear 28 1009 9 16093 5.1 250 23:19 01.04.2020
5544 Clouds 28 1010 10 16093 3.6 340 22:56 01.04.2020
5545 Clouds 28 1010 10 16093 3.6 340 22:37 01.04.2020
5546 Clouds 27 1010 10 16093 3.6 340 22:19 01.04.2020
5547 Clouds 27 1011 11 16093 3.1 270 21:39 01.04.2020
5548 Clouds 26 1011 11 16093 3.1 270 21:19 01.04.2020
5549 Clouds 26 1012 11 16093 2.1 160 20:56 01.04.2020
5550 Clouds 26 1012 11 16093 2.1 160 20:38 01.04.2020
5551 Clouds 25 1012 11 16093 2.1 160 20:19 01.04.2020
5552 Clouds 25 1012 18 16093 1.5 220 19:55 01.04.2020
5553 Clouds 24 1012 18 16093 1.5 220 19:37 01.04.2020
5554 Clouds 24 1012 18 16093 1.5 220 19:19 01.04.2020
5555 Clouds 24 1012 18 16093 1.5 220 19:19 01.04.2020
5556 Clouds 23 1012 22 16093 1.5 90 18:41 01.04.2020
5557 Clouds 22 1012 22 16093 1.5 90 18:21 01.04.2020
5558 Clouds 20 1012 36 16093 1.5 150 17:56 01.04.2020
5559 Clouds 20 1012 36 16093 1.5 150 17:37 01.04.2020
5560 Clouds 19 1012 36 16093 1.5 150 17:37 01.04.2020
5561 Clouds 18 1012 36 16093 1.5 150 17:18 01.04.2020
5562 Clear 17 1012 20 16093 2.84 195 16:56 01.04.2020
5563 Clouds 16 1011 46 16093 1.5 100 16:38 01.04.2020
5564 Clouds 13 1011 46 16093 1.5 100 16:20 01.04.2020
5565 Clouds 12 1011 50 16093 3.6 140 15:42 01.04.2020
5566 Clouds 12 1011 50 16093 3.6 140 15:22 01.04.2020
5567 Clouds 13 1011 50 16093 3.6 140 14:59 01.04.2020
5568 Clouds 13 1011 43 16093 2.1 130 14:39 01.04.2020
5569 Clouds 13 1011 43 16093 2.1 130 14:21 01.04.2020
5570 Clouds 13 1011 43 16093 2.1 130 13:59 01.04.2020
5571 Clouds 13 1011 31 16093 2.1 20 13:38 01.04.2020
5572 Clouds 13 1011 31 16093 2.1 20 13:20 01.04.2020
5573 Clouds 14 1012 43 16093 3.1 150 12:57 01.04.2020
5574 Clouds 14 1012 43 16093 3.1 150 12:37 01.04.2020
5575 Clouds 14 1012 43 16093 3.1 150 12:18 01.04.2020
5576 Clouds 14 1012 43 16093 3.1 150 12:18 01.04.2020
5577 Clouds 14 1012 38 16093 0.72 134 11:56 01.04.2020
5578 Clouds 15 1012 38 16093 0.72 134 11:37 01.04.2020
5579 Clouds 15 1012 38 16093 0.72 134 11:18 01.04.2020
5580 Clouds 15 1013 36 16093 0.72 134 10:38 01.04.2020
5581 Clouds 15 1013 36 16093 0.72 134 10:20 01.04.2020
5582 Clouds 15 1013 36 16093 0.72 134 09:58 01.04.2020
5583 Clouds 15 1013 36 16093 0.72 134 09:39 01.04.2020
5584 Clouds 16 1013 36 16093 0.66 258 09:19 01.04.2020
5585 Clouds 16 1014 36 16093 2.6 160 08:44 01.04.2020
5586 Clouds 16 1014 36 16093 2.6 160 08:18 01.04.2020
5587 Clouds 17 1014 33 16093 1.5 220 07:48 01.04.2020
5588 Clouds 17 1014 33 16093 1.5 220 07:23 01.04.2020
5589 Clouds 17 1014 29 16093 2.6 300 06:59 01.04.2020
5590 Clouds 18 1014 29 16093 2.6 300 06:38 01.04.2020
5591 Clouds 18 1014 29 16093 2.6 300 06:20 01.04.2020
5592 Clouds 20 1013 21 16093 2.6 310 04:38 01.04.2020
5593 Clouds 22 1013 21 16093 4.6 330 03:35 01.04.2020
5594 Clouds 23 1013 16 16093 4.6 320 02:57 01.04.2020
5595 Clouds 24 1013 14 16093 4.1 320 02:21 01.04.2020
5596 Clouds 25 1013 11 16093 5.1 330 01:40 01.04.2020
5597 Clouds 26 1013 11 16093 5.1 330 01:22 01.04.2020
5598 Clouds 26 1014 10 16093 4.6 350 00:46 01.04.2020
5599 Clouds 27 1014 10 16093 4.6 350 00:21 01.04.2020
5600 Clouds 26 1014 10 16093 0.64 256 23:48 31.03.2020
5601 Clouds 26 1014 10 16093 0.64 256 23:28 31.03.2020
5602 Clouds 26 1015 12 16093 2.6 20 22:59 31.03.2020
5603 Clear 26 1016 10 16093 3.1 60 22:37 31.03.2020
5604 Clouds 25 1017 15 16093 3.1 10 22:19 31.03.2020
5605 Clouds 25 1017 15 16093 3.1 10 21:57 31.03.2020
5606 Clouds 24 1017 15 16093 3.1 10 21:39 31.03.2020
5607 Clouds 24 1017 15 16093 3.1 10 21:20 31.03.2020
5608 Clouds 24 1017 15 16093 3.1 10 21:20 31.03.2020
5609 Clouds 23 1018 18 16093 2.6 60 20:56 31.03.2020
5610 Clouds 23 1018 18 16093 2.6 60 20:37 31.03.2020
5611 Clouds 23 1018 18 16093 2.6 60 20:37 31.03.2020
5612 Clouds 22 1018 18 16093 2.6 60 20:18 31.03.2020
5613 Clear 21 1019 20 16093 2.6 100 19:42 31.03.2020
5614 Clear 20 1019 20 16093 2.6 100 19:24 31.03.2020
5615 Clouds 19 1019 27 16093 3.6 170 18:59 31.03.2020
5616 Clouds 18 1019 27 16093 3.6 170 18:41 31.03.2020
5617 Clouds 17 1019 27 16093 3.6 170 18:19 31.03.2020
5618 Clouds 16 1019 33 16093 2.6 140 17:55 31.03.2020
5619 Clouds 15 1019 33 16093 2.6 140 17:37 31.03.2020
5620 Clear 14 1020 34 16093 3.1 140 17:19 31.03.2020
5621 Clear 12 1019 49 16093 1.18 90 16:41 31.03.2020
5622 Clear 10 1019 49 16093 1.18 90 16:20 31.03.2020
5623 Clear 9 1019 52 16093 2.6 160 15:58 31.03.2020
5624 Clear 9 1019 52 16093 2.6 160 15:58 31.03.2020
5625 Clear 8 1019 52 16093 2.6 160 15:40 31.03.2020
5626 Clear 8 1019 52 16093 2.6 160 15:22 31.03.2020
5627 Clear 8 1019 52 16093 2.6 160 14:58 31.03.2020
5628 Clear 9 1019 49 16093 2.1 200 14:58 31.03.2020
5629 Clear 9 1019 49 16093 2.1 200 14:39 31.03.2020
5630 Clear 8 1019 49 16093 2.1 200 14:21 31.03.2020
5631 Clear 9 1019 49 16093 1.5 120 13:43 31.03.2020
5632 Clear 9 1019 49 16093 1.5 120 13:20 31.03.2020
5633 Clear 9 1020 45 16093 3.6 130 12:59 31.03.2020
5634 Clear 10 1020 45 16093 3.6 130 12:40 31.03.2020
5635 Clear 10 1020 45 16093 3.6 130 12:19 31.03.2020
5636 Clear 10 1020 49 16093 1.5 160 11:41 31.03.2020
5637 Clear 11 1020 49 16093 1.5 160 11:20 31.03.2020
5638 Clear 11 1021 34 16093 3.1 150 10:59 31.03.2020
5639 Clear 11 1021 45 16093 2.6 140 10:40 31.03.2020
5640 Clear 11 1021 45 16093 2.6 140 10:22 31.03.2020
5641 Clear 12 1021 45 16093 2.6 140 09:59 31.03.2020
5642 Clear 12 1021 37 16093 2.1 130 09:40 31.03.2020
5643 Clear 12 1021 37 16093 2.1 130 09:22 31.03.2020
5644 Clear 13 1021 34 16093 2.1 200 08:57 31.03.2020
5645 Clear 13 1021 34 16093 2.1 200 08:38 31.03.2020
5646 Clear 13 1021 34 16093 2.1 200 08:19 31.03.2020
5647 Clear 13 1021 34 16093 2.1 200 08:19 31.03.2020
5648 Clear 13 1021 28 16093 3.1 280 07:56 31.03.2020
5649 Clear 13 1021 28 16093 3.1 280 07:38 31.03.2020
5650 Clear 14 1021 28 16093 3.1 280 07:19 31.03.2020
5651 Clear 15 1021 26 16093 2.6 310 06:46 31.03.2020
5652 Clear 15 1021 26 16093 2.6 310 06:22 31.03.2020
5653 Clear 16 1020 22 16093 2.6 290 05:39 31.03.2020
5654 Clear 20 1019 16 16093 4.1 310 03:34 31.03.2020
5655 Clear 22 1019 15 16093 4.6 300 02:18 31.03.2020
5656 Clear 23 1019 16 16093 5.7 320 01:45 31.03.2020
5657 Clear 22 1019 17 16093 6.2 320 00:49 31.03.2020
5658 Clear 22 1019 17 16093 6.2 320 00:25 31.03.2020
5659 Clear 22 1019 17 16093 6.2 320 00:25 31.03.2020
5660 Clear 22 1020 18 16093 4.6 340 23:42 30.03.2020
5661 Clear 22 1020 18 16093 4.6 340 23:20 30.03.2020
5662 Clear 22 1020 18 16093 4.6 340 23:20 30.03.2020
5663 Clear 22 1020 18 16093 4.6 340 22:58 30.03.2020
5664 Clear 21 1021 20 16093 5.1 350 22:39 30.03.2020
5665 Clear 21 1021 20 16093 5.1 350 22:21 30.03.2020
5666 Clear 21 1021 22 16093 2.6 350 21:58 30.03.2020
5667 Clear 20 1021 22 16093 2.6 350 21:39 30.03.2020
5668 Clear 20 1021 22 16093 2.6 350 21:21 30.03.2020
5669 Clear 20 1021 22 16093 2.6 350 20:59 30.03.2020
5670 Clear 19 1022 20 16093 3.37 339 20:39 30.03.2020
5671 Clear 19 1022 22 16093 2.6 340 20:20 30.03.2020
5672 Clear 18 1022 26 16093 1.5 10 19:57 30.03.2020
5673 Clear 18 1022 26 16093 1.5 10 19:39 30.03.2020
5674 Clear 18 1022 26 16093 1.5 10 19:39 30.03.2020
5675 Clear 18 1022 26 16093 1.5 10 19:20 30.03.2020
5676 Clear 17 1022 28 16093 1.5 230 18:43 30.03.2020
5677 Clear 16 1022 28 16093 1.5 230 18:25 30.03.2020
5678 Clear 15 1021 32 16093 1.5 150 17:58 30.03.2020
5679 Clear 15 1021 32 16093 1.5 150 17:39 30.03.2020
5680 Clear 14 1021 32 16093 1.5 150 17:21 30.03.2020
5681 Clear 13 1021 32 16093 1.5 150 16:59 30.03.2020
5682 Clear 12 1020 42 16093 3.6 110 16:40 30.03.2020
5683 -273 0 0 0 0 0 16:20 30.03.2020
5684 Clear 10 1020 45 16093 3.1 140 16:20 30.03.2020
5685 Clear 7 1019 48 16093 2.6 170 15:56 30.03.2020
5686 Clear 7 1019 48 16093 2.6 170 15:38 30.03.2020
5687 Clear 7 1019 48 16093 2.6 170 15:38 30.03.2020
5688 Clear 7 1019 48 16093 2.6 170 15:20 30.03.2020
5689 Clear 7 1018 45 16093 2.6 150 14:56 30.03.2020
5690 Clear 7 1018 45 16093 2.6 150 14:37 30.03.2020
5691 Clear 8 1018 45 16093 2.6 150 14:18 30.03.2020
5692 Clear 8 1018 42 16093 3.1 200 13:55 30.03.2020
5693 Clear 8 1018 42 16093 3.1 200 13:37 30.03.2020
5694 Clear 8 1018 42 16093 3.1 200 13:19 30.03.2020
5695 Clear 9 1018 42 16093 2.1 220 12:44 30.03.2020
5696 Clear 9 1018 42 16093 2.1 220 12:21 30.03.2020
5697 Clear 10 1017 37 16093 1.5 240 11:57 30.03.2020
5698 Clear 10 1017 37 16093 1.5 240 11:39 30.03.2020
5699 Clear 10 1017 37 16093 1.5 240 11:21 30.03.2020
5700 Clear 11 1017 34 16093 1.5 220 10:41 30.03.2020
5701 Clear 11 1017 34 16093 1.5 220 10:23 30.03.2020
5702 Clear 11 1017 34 16093 1.5 220 09:59 30.03.2020
5703 Clear 11 1017 30 16093 4.1 230 09:40 30.03.2020
5704 Clear 12 1017 30 16093 4.1 230 09:19 30.03.2020
5705 Clear 13 1016 28 16093 3.1 240 08:44 30.03.2020
5706 Haze 13 1016 26 2816 3.1 210 08:23 30.03.2020
5707 Haze 13 1016 26 2816 3.1 210 07:55 30.03.2020
5708 Haze 14 1016 26 2816 3.1 210 07:37 30.03.2020
5709 Clear 15 1015 17 16093 2.1 280 06:59 30.03.2020
5710 Clear 16 1015 17 16093 2.1 280 06:34 30.03.2020
5711 Clear 16 1014 16 16093 2.6 280 05:59 30.03.2020
5712 Clear 17 1014 16 16093 2.6 280 05:34 30.03.2020
5713 Clear 18 1014 12 16093 3.1 320 04:26 30.03.2020
5714 Clear 20 1014 10 16093 3.1 300 03:50 30.03.2020
5715 Clouds 22 1013 8 16093 3.6 310 02:43 30.03.2020
5716 Clouds 23 1014 10 16093 4.1 320 01:52 30.03.2020
5717 Clear 23 1014 9 16093 4.6 320 00:56 30.03.2020
5718 Clear 23 1014 9 16093 4.6 320 00:25 30.03.2020
5719 Clouds 23 1015 11 16093 3.6 310 23:43 29.03.2020
5720 Clouds 23 1015 11 16093 3.6 310 23:24 29.03.2020
5721 Clouds 23 1015 11 16093 3.6 310 22:59 29.03.2020
5722 Clouds 22 1016 13 16093 2.6 290 22:39 29.03.2020
5723 Clouds 22 1016 13 16093 2.6 290 22:19 29.03.2020
5724 Clouds 22 1016 13 16093 2.6 290 21:58 29.03.2020
5725 Clear 21 1016 14 16093 6.46 242 21:37 29.03.2020
5726 Clear 21 1016 14 16093 3.8 205 21:18 29.03.2020
5727 Clouds 20 1017 17 16093 2.1 190 20:55 29.03.2020
5728 Clouds 20 1017 17 16093 2.1 190 20:37 29.03.2020
5729 Clouds 20 1017 17 16093 2.1 190 20:37 29.03.2020
5730 Clouds 20 1017 17 16093 2.1 190 20:18 29.03.2020
5731 Clear 19 1017 18 16093 2.6 140 19:54 29.03.2020
5732 Clear 19 1017 18 16093 2.6 140 19:36 29.03.2020
5733 Clear 18 1017 18 16093 2.6 140 19:18 29.03.2020
5734 Clear 17 1017 22 16093 2.6 110 18:54 29.03.2020
5735 Clear 17 1017 22 16093 2.6 110 18:36 29.03.2020
5736 Clear 16 1017 22 16093 2.6 110 18:18 29.03.2020
5737 Clear 14 1017 32 16093 4.1 130 17:42 29.03.2020
5738 Clear 13 1017 32 16093 4.1 130 17:22 29.03.2020
5739 Clear 12 1017 34 16093 3.6 140 16:58 29.03.2020
5740 Clear 10 1017 42 16093 3.6 130 16:40 29.03.2020
5741 Clear 8 1017 42 16093 3.6 130 16:21 29.03.2020
5742 Clear 7 1016 42 16093 3.6 140 15:58 29.03.2020
5743 Clear 7 1016 42 16093 3.6 140 15:39 29.03.2020
5744 Clear 8 1016 42 16093 3.6 140 15:19 29.03.2020
5745 Clouds 8 1016 42 16093 4.6 120 14:56 29.03.2020
5746 Clouds 8 1016 42 16093 4.6 120 14:37 29.03.2020
5747 Clouds 8 1016 42 16093 4.6 120 14:18 29.03.2020
5748 Clear 8 1016 45 16093 3.6 130 13:42 29.03.2020
5749 Clear 8 1016 45 16093 3.6 130 13:22 29.03.2020
5750 Clear 9 1016 39 16093 2.6 100 12:58 29.03.2020
5751 Clear 9 1016 39 16093 2.6 100 12:39 29.03.2020
5752 Clear 9 1016 39 16093 2.6 100 12:19 29.03.2020
5753 Clear 9 1017 39 16093 2.6 120 11:59 29.03.2020
5754 Clear 9 1017 39 16093 2.6 120 11:38 29.03.2020
5755 Clear 9 1017 39 16093 2.6 120 11:19 29.03.2020
5756 Clear 9 1017 39 16093 3.1 110 10:39 29.03.2020
5757 Clear 10 1017 39 16093 3.1 110 10:21 29.03.2020
5758 Clear 10 1017 36 16093 2.6 160 09:57 29.03.2020
5759 Clear 10 1017 36 16093 2.6 160 09:38 29.03.2020
5760 Clear 10 1017 36 16093 2.6 160 09:18 29.03.2020
5761 Clear 10 1017 36 16093 2.6 160 09:18 29.03.2020
5762 Clear 11 1018 32 16093 1.5 210 08:45 29.03.2020
5763 Clear 11 1018 32 16093 1.5 210 08:26 29.03.2020
5764 Clear 11 1018 26 16093 1.5 300 07:48 29.03.2020
5765 Clear 12 1018 26 16093 1.5 300 07:24 29.03.2020
5766 Clear 12 1018 24 16093 2.6 320 06:55 29.03.2020
5767 Clear 14 1018 18 16093 3.6 320 04:57 29.03.2020
5768 Clear 17 1017 14 16093 2.6 320 03:41 29.03.2020
5769 Clear 17 1017 14 16093 2.6 320 03:22 29.03.2020
5770 Clear 19 1017 14 16093 3.6 290 01:44 29.03.2020
5771 Clear 19 1017 14 16093 3.6 290 01:23 29.03.2020
5772 Clear 19 1017 15 16093 2.1 330 00:46 29.03.2020
5773 Clear 19 1017 15 16093 2.1 330 00:28 29.03.2020
5774 Clear 19 1018 17 16093 3.1 290 23:41 28.03.2020
5775 Clear 19 1018 17 16093 3.1 290 23:23 28.03.2020
5776 Clear 18 1019 17 16093 2.6 320 22:54 28.03.2020
5777 Clear 18 1019 17 16093 2.6 320 22:36 28.03.2020
5778 Clear 18 1019 17 16093 2.6 320 22:18 28.03.2020
5779 Clear 18 1020 18 16093 1.71 336 21:40 28.03.2020
5780 Clear 18 1020 18 16093 1.71 336 21:21 28.03.2020
5781 Clear 17 1020 18 16093 1.71 336 20:57 28.03.2020
5782 Clear 17 1020 18 16093 1.71 336 20:38 28.03.2020
5783 Clear 16 1020 18 16093 1.85 57 20:20 28.03.2020
5784 Clear 16 1021 21 16093 1.5 340 19:55 28.03.2020
5785 Clear 15 1021 21 16093 1.5 340 19:36 28.03.2020
5786 Clear 15 1021 21 16093 1.5 340 19:18 28.03.2020
5787 Clear 14 1021 26 16093 1.85 57 18:42 28.03.2020
5788 Clear 14 1021 26 16093 1.85 57 18:21 28.03.2020
5789 Clear 13 1021 29 16093 2.1 80 17:43 28.03.2020
5790 Clear 12 1021 29 16093 2.1 80 17:24 28.03.2020
5791 Clear 11 1022 39 16093 2.1 120 16:59 28.03.2020
5792 Clear 11 1022 39 16093 2.1 120 16:59 28.03.2020
5793 Clear 10 1022 39 16093 2.1 120 16:40 28.03.2020
5794 Clear 9 1022 39 16093 2.1 120 16:19 28.03.2020
5795 Clear 7 1021 51 16093 1.8 81 15:55 28.03.2020
5796 Clear 6 1021 51 16093 1.8 81 15:37 28.03.2020
5797 Clear 4 1021 51 16093 1.8 81 15:18 28.03.2020
5798 Clear 3 1021 64 16093 2.1 100 14:41 28.03.2020
5799 Clear 3 1021 64 16093 2.1 100 14:21 28.03.2020
5800 Clear 3 1021 64 16093 2.1 100 14:21 28.03.2020
5801 Clear 3 1020 55 16093 2.1 80 13:43 28.03.2020
5802 Clear 3 1020 55 16093 2.1 80 13:24 28.03.2020
5803 Clear 3 1020 59 16093 3.6 120 12:43 28.03.2020
5804 Clear 3 1020 59 16093 3.6 120 12:24 28.03.2020
5805 Clear 3 1020 59 16093 3.6 110 11:59 28.03.2020
5806 Rain 4 1020 59 16093 3.6 110 11:41 28.03.2020
5807 Rain 4 1020 59 16093 3.6 110 11:20 28.03.2020
5808 Rain 4 1020 59 16093 2.6 130 10:40 28.03.2020
5809 Rain 4 1020 59 16093 2.6 130 10:22 28.03.2020
5810 Clear 5 1020 51 16093 3.6 130 09:43 28.03.2020
5811 Clear 5 1020 51 16093 3.6 130 09:24 28.03.2020
5812 Clear 5 1020 45 16093 2.1 190 08:59 28.03.2020
5813 Clear 5 1020 45 16093 2.1 190 08:41 28.03.2020
5814 Clear 6 1020 45 16093 2.1 190 08:22 28.03.2020
5815 Clear 6 1020 42 16093 2.1 250 07:46 28.03.2020
5816 Clear 6 1020 42 16093 2.1 250 07:28 28.03.2020
5817 Clear 7 1019 39 16093 3.1 290 06:36 28.03.2020
5818 Clear 8 1019 36 16093 3.1 330 05:54 28.03.2020
5819 Clear 8 1019 36 16093 3.1 330 05:21 28.03.2020
5820 Clear 8 1019 36 16093 3.1 330 05:21 28.03.2020
5821 Clear 9 1018 34 16093 2.6 10 04:42 28.03.2020
5822 Clear 9 1017 29 16093 3.1 320 03:55 28.03.2020
5823 Clouds 12 1016 30 16093 3.1 330 02:26 28.03.2020
5824 Clouds 13 1016 30 16093 6.7 360 01:43 28.03.2020
5825 Clouds 13 1016 30 16093 6.7 360 01:18 28.03.2020
5826 Clouds 12 1015 26 16093 7.2 320 00:45 28.03.2020
5827 Clouds 12 1015 28 16093 6.2 10 23:59 27.03.2020
5828 Clouds 12 1015 28 16093 6.2 10 23:41 27.03.2020
5829 Clouds 12 1015 28 16093 6.2 10 23:41 27.03.2020
5830 Clouds 12 1015 30 16093 4.1 300 23:21 27.03.2020
5831 Clouds 12 1015 26 16093 7.2 310 22:56 27.03.2020
5832 Clouds 12 1015 26 16093 7.2 310 22:38 27.03.2020
5833 Clouds 13 1015 24 16093 7.2 300 22:19 27.03.2020
5834 Clouds 13 1015 32 16093 5.7 320 21:45 27.03.2020
5835 Clouds 13 1015 32 16093 5.7 320 21:25 27.03.2020
5836 Clouds 12 1015 32 16093 5.7 320 20:59 27.03.2020
5837 Clouds 12 1015 37 16093 3.6 320 20:41 27.03.2020
5838 Clouds 12 1015 37 16093 3.6 320 20:21 27.03.2020
5839 Clouds 12 1015 37 16093 3.6 320 19:58 27.03.2020
5840 Clouds 11 1016 40 16093 4.6 310 19:40 27.03.2020
5841 Clouds 11 1016 40 16093 4.6 310 19:20 27.03.2020
5842 Clouds 11 1015 31 16093 5.1 320 18:44 27.03.2020
5843 Clouds 10 1015 31 16093 5.1 320 18:25 27.03.2020
5844 Clouds 10 1015 31 16093 6.2 290 17:59 27.03.2020
5845 Clouds 10 1015 31 16093 6.2 290 17:39 27.03.2020
5846 Drizzle 9 1015 38 16093 5.7 280 17:20 27.03.2020
5847 Clouds 8 1014 45 16093 4.1 300 16:44 27.03.2020
5848 Clouds 8 1014 45 16093 4.1 300 16:25 27.03.2020
5849 Clouds 8 1013 49 16093 1.5 210 15:56 27.03.2020
5850 Clouds 9 1013 49 16093 1.5 210 15:38 27.03.2020
5851 Clouds 9 1013 49 16093 1.5 210 15:19 27.03.2020
5852 Clouds 8 1013 45 16093 2.6 300 14:43 27.03.2020
5853 Clouds 8 1013 45 16093 2.6 300 14:24 27.03.2020
5854 Clouds 9 1013 45 16093 3.6 290 13:55 27.03.2020
5855 Clouds 9 1013 45 16093 3.6 290 13:37 27.03.2020
5856 Clouds 9 1013 45 16093 3.6 290 13:18 27.03.2020
5857 Clouds 9 1013 45 16093 3.6 290 13:18 27.03.2020
5858 Clouds 9 1012 49 16093 3.6 290 12:43 27.03.2020
5859 Clouds 10 1012 49 16093 3.6 290 12:19 27.03.2020
5860 Clouds 10 1012 46 16093 5.7 290 11:55 27.03.2020
5861 Clouds 10 1012 46 16093 5.7 290 11:36 27.03.2020
5862 Clouds 10 1012 46 16093 5.7 290 11:18 27.03.2020
5863 Clouds 11 1012 49 0 1.79 0 10:42 27.03.2020
5864 Clouds 11 1012 49 0 1.79 0 10:42 27.03.2020
5865 Clouds 11 1012 50 12874 3.6 260 10:22 27.03.2020
5866 Clouds 11 1012 50 12874 3.6 260 10:22 27.03.2020
5867 Clouds 11 1012 45 0 1.34 0 09:59 27.03.2020
5868 Clouds 12 1012 46 0 2.24 0 09:41 27.03.2020
5869 Haze 12 1012 54 9656 3.6 250 09:22 27.03.2020
5870 Clouds 12 1012 54 12874 3.1 230 08:59 27.03.2020
5871 Clouds 13 1012 54 12874 3.1 230 08:40 27.03.2020
5872 Clouds 13 1012 54 12874 3.1 230 08:22 27.03.2020
5873 Clouds 13 1012 54 16093 3.6 280 07:57 27.03.2020
5874 Clouds 13 1012 54 16093 3.6 280 07:57 27.03.2020
5875 Clouds 13 1012 54 16093 3.6 280 07:38 27.03.2020
5876 Clouds 13 1012 54 16093 3.6 280 07:20 27.03.2020
5877 Clouds 14 1012 54 0 1.79 0 06:39 27.03.2020
5878 Clouds 14 1012 38 16093 4.6 240 05:51 27.03.2020
5879 Clouds 15 1011 38 16093 5.71 202 03:34 27.03.2020
5880 Clouds 16 1011 36 16093 1.5 30 01:55 27.03.2020
5881 Clouds 17 1011 36 16093 1.5 30 01:18 27.03.2020
5882 Clouds 17 1012 36 16093 1.5 30 00:41 27.03.2020
5883 Clouds 17 1012 36 16093 1.5 30 00:19 27.03.2020
5884 Clouds 17 1012 38 16093 7.86 220 23:37 26.03.2020
5885 Clouds 17 1012 38 16093 7.21 206 23:18 26.03.2020
5886 Clouds 17 1013 38 16093 7.21 206 22:56 26.03.2020
5887 Clear 17 1013 36 16093 2.6 360 22:36 26.03.2020
5888 Clear 17 1013 36 16093 2.6 360 22:18 26.03.2020
5889 Clouds 17 1013 38 16093 4.1 350 21:40 26.03.2020
5890 Clouds 17 1013 38 16093 4.1 350 21:21 26.03.2020
5891 Clouds 17 1013 38 16093 4.1 350 21:21 26.03.2020
5892 Rain 16 1013 38 16093 3.6 320 20:59 26.03.2020
5893 Rain 16 1013 38 16093 3.6 320 20:39 26.03.2020
5894 Clouds 16 1014 38 16093 6.2 320 20:21 26.03.2020
5895 Clouds 16 1014 38 16093 6.2 320 20:21 26.03.2020
5896 Clouds 16 1014 36 16093 3.1 310 19:58 26.03.2020
5897 Clouds 16 1014 36 16093 3.1 310 19:39 26.03.2020
5898 Clouds 16 1014 36 16093 3.1 310 19:20 26.03.2020
5899 Clouds 16 1013 38 16093 6.2 330 18:58 26.03.2020
5900 Clouds 16 1013 38 16093 6.2 330 18:39 26.03.2020
5901 Clouds 15 1013 38 16093 6.2 330 18:21 26.03.2020
5902 Clouds 15 1013 24 16093 4.6 320 17:44 26.03.2020
5903 Clouds 15 1013 31 16093 4.6 320 17:19 26.03.2020
5904 Clouds 15 1013 31 16093 3.6 360 16:55 26.03.2020
5905 Clouds 15 1013 31 16093 3.6 360 16:55 26.03.2020
5906 Clouds 15 1013 31 16093 3.6 360 16:37 26.03.2020
5907 Clouds 16 1013 31 16093 3.6 360 16:18 26.03.2020
5908 Clouds 15 1012 31 16093 3.1 340 15:41 26.03.2020
5909 Clouds 15 1012 31 16093 3.1 340 15:22 26.03.2020
5910 Clouds 15 1012 26 16093 1.5 10 14:58 26.03.2020
5911 Clouds 15 1012 26 16093 1.5 10 14:39 26.03.2020
5912 Clouds 16 1012 26 16093 1.5 10 14:19 26.03.2020
5913 Clouds 16 1012 28 16093 2.35 247 13:45 26.03.2020
5914 Clouds 16 1012 28 16093 2.35 247 13:24 26.03.2020
5915 Clouds 17 1012 23 16093 2.68 254 12:59 26.03.2020
5916 Clouds 17 1012 23 16093 2.68 254 12:38 26.03.2020
5917 Clouds 17 1012 23 16093 2.68 254 12:20 26.03.2020
5918 Clouds 17 1012 17 16093 1.5 270 11:46 26.03.2020
5919 Clouds 17 1012 17 16093 1.5 270 11:22 26.03.2020
5920 Clouds 17 1013 27 16093 1.5 10 10:56 26.03.2020
5921 Clouds 17 1013 27 16093 1.5 10 10:56 26.03.2020
5922 Clouds 17 1013 27 16093 1.5 10 10:56 26.03.2020
5923 Clouds 17 1013 27 16093 1.5 10 10:38 26.03.2020
5924 Clouds 17 1013 27 16093 1.5 10 10:19 26.03.2020
5925 Clouds 17 1013 26 16093 2.1 340 09:44 26.03.2020
5926 Clouds 17 1013 26 16093 2.1 340 09:20 26.03.2020
5927 Clouds 18 1012 37 0 0.89 0 08:55 26.03.2020
5928 Clouds 18 1012 37 0 0.89 0 08:55 26.03.2020
5929 Clouds 18 1012 37 0 1.34 0 08:37 26.03.2020
5930 Clouds 18 1013 35 0 0.89 0 08:18 26.03.2020
5931 Clouds 19 1013 22 16093 3.13 219 07:43 26.03.2020
5932 Clouds 19 1013 22 16093 3.13 219 07:21 26.03.2020
5933 Clouds 19 1013 26 16093 2.1 290 06:48 26.03.2020
5934 Clouds 19 1013 30 16093 3.13 219 05:57 26.03.2020
5935 Clouds 20 1012 28 16093 4.3 227 04:33 26.03.2020
5936 Clear 21 1013 20 16093 1.5 40 03:44 26.03.2020
5937 Clouds 23 1012 17 16093 4.6 340 02:55 26.03.2020
5938 Clouds 24 1012 22 0 1.79 0 01:50 26.03.2020
5939 Clouds 26 1012 18 0 2.68 0 00:52 26.03.2020
5940 Clear 27 1013 13 16093 4.1 300 23:59 25.03.2020
5941 Clear 27 1013 13 16093 4.1 300 23:40 25.03.2020
5942 Clear 28 1013 13 16093 4.1 300 23:20 25.03.2020
5943 Clear 27 1014 13 16093 3.6 290 22:40 25.03.2020
5944 Clear 28 1014 13 16093 3.6 290 22:21 25.03.2020
5945 Clear 27 1014 14 16093 1.5 330 21:56 25.03.2020
5946 Clear 27 1014 14 16093 1.5 330 21:37 25.03.2020
5947 Clear 27 1014 14 16093 1.5 330 21:19 25.03.2020
5948 Clear 27 1016 14 16093 7.35 242 20:54 25.03.2020
5949 Clear 26 1015 14 16093 2.1 310 20:36 25.03.2020
5950 Clear 25 1015 14 16093 2.1 310 20:18 25.03.2020
5951 Clear 24 1017 15 16093 2.1 50 19:42 25.03.2020
5952 Clear 24 1016 20 16093 1.5 130 19:22 25.03.2020
5953 Clouds 24 1016 19 0 1.34 0 18:57 25.03.2020
5954 Clear 23 1017 26 16093 2.1 50 18:38 25.03.2020
5955 Clouds 22 1016 22 0 0.89 158 18:19 25.03.2020
5956 Clear 22 1017 21 16093 3.1 130 17:54 25.03.2020
5957 Clear 20 1017 15 16093 2.6 160 17:36 25.03.2020
5958 Clear 19 1017 28 16093 2.6 160 17:18 25.03.2020
5959 Clear 17 1017 38 16093 3.6 160 16:43 25.03.2020
5960 Clear 16 1017 38 16093 3.6 160 16:22 25.03.2020
5961 Clouds 14 1015 48 0 0.89 59 15:57 25.03.2020
5962 Clear 12 1017 28 16093 3.1 150 15:38 25.03.2020
5963 Clear 10 1017 57 16093 3.1 130 15:19 25.03.2020
5964 Clear 9 1016 57 16093 3.1 140 14:42 25.03.2020
5965 Clear 9 1016 57 16093 3.1 140 14:21 25.03.2020
5966 Clear 9 1016 53 16093 3.6 160 13:46 25.03.2020
5967 Clear 9 1016 53 16093 3.6 160 13:26 25.03.2020
5968 Clear 9 1016 57 16093 3.1 160 12:57 25.03.2020
5969 Clear 10 1016 57 16093 3.1 160 12:37 25.03.2020
5970 Clear 10 1016 57 16093 3.1 160 12:18 25.03.2020
5971 Clear 10 1016 53 16093 4.1 160 11:43 25.03.2020
5972 Clear 10 1016 53 16093 4.1 160 11:21 25.03.2020
5973 Clear 11 1017 53 16093 1.88 205 10:59 25.03.2020
5974 Clear 11 1017 53 16093 1.88 205 10:40 25.03.2020
5975 Clear 11 1017 53 16093 1.88 205 10:19 25.03.2020
5976 Clear 12 1018 50 16093 2.6 150 09:59 25.03.2020
5977 Clear 12 1018 50 16093 2.6 150 09:40 25.03.2020
5978 Clear 12 1018 50 16093 2.6 150 09:22 25.03.2020
5979 Clear 13 1018 37 16093 3.1 180 08:43 25.03.2020
5980 Clear 13 1018 37 16093 3.1 180 08:25 25.03.2020
5981 Clear 14 1018 30 16093 3.1 180 07:59 25.03.2020
5982 Clear 14 1018 43 16093 3.1 190 07:39 25.03.2020
5983 Clear 14 1018 43 16093 3.1 190 07:39 25.03.2020
5984 Clear 14 1018 43 16093 3.1 190 07:19 25.03.2020
5985 Clear 15 1018 41 16093 2.1 210 06:45 25.03.2020
5986 Clear 15 1018 41 16093 2.1 210 06:25 25.03.2020
5987 Clear 16 1018 29 16093 2.6 220 05:48 25.03.2020
5988 Clear 18 1017 25 16093 2.6 320 04:46 25.03.2020
5989 Clear 19 1017 25 16093 3.6 320 03:58 25.03.2020
5990 Clear 20 1017 25 16093 3.6 320 03:34 25.03.2020
5991 Clear 23 1017 19 16093 4.6 310 01:41 25.03.2020
5992 Clear 23 1017 19 16093 4.6 310 01:41 25.03.2020
5993 Clear 23 1017 19 16093 4.6 310 01:41 25.03.2020
5994 Clear 24 1017 17 16093 3.1 290 00:58 25.03.2020
5995 Clear 24 1017 17 16093 3.1 290 00:40 25.03.2020
5996 Clear 24 1017 17 16093 3.1 290 00:18 25.03.2020
5997 Clear 24 1017 17 16093 3.1 280 23:40 24.03.2020
5998 Clear 24 1017 17 16093 3.1 280 23:21 24.03.2020
5999 Clear 24 1018 12 16093 3.1 320 22:55 24.03.2020
6000 Clear 24 1018 12 16093 3.1 320 22:36 24.03.2020
6001 Clear 24 1018 12 16093 3.1 320 22:18 24.03.2020
6002 Clear 24 1019 13 16093 2.58 251 21:43 24.03.2020
6003 Clear 23 1019 13 16093 2.58 251 21:19 24.03.2020
6004 Clear 23 1020 15 16093 2.1 0 20:59 24.03.2020
6005 Clear 23 1020 15 16093 2.1 0 20:41 24.03.2020
6006 Clear 22 1020 15 16093 2.1 0 20:23 24.03.2020
6007 Clear 21 1021 26 16093 0.89 191 19:48 24.03.2020
6008 Clear 21 1020 28 16093 2.1 40 19:48 24.03.2020
6009 Clear 21 1020 28 16093 2.1 40 19:24 24.03.2020
6010 Clear 20 1016 29 0 0.89 25 18:59 24.03.2020
6011 Clear 20 1016 31 0 0.89 294 18:40 24.03.2020
6012 Clear 20 1016 35 0 0.45 25 18:20 24.03.2020
6013 Clear 19 1020 36 16093 1.5 120 17:59 24.03.2020
6014 Clear 18 1020 36 16093 1.5 120 17:40 24.03.2020
6015 Clear 17 1020 36 16093 1.5 120 17:22 24.03.2020
6016 Clear 16 1020 41 16093 2.1 110 16:57 24.03.2020
6017 Clear 15 1021 44 16093 1.5 100 16:38 24.03.2020
6018 Clear 14 1020 47 16093 2.6 130 16:20 24.03.2020
6019 Clear 12 1019 57 16093 2.6 100 15:44 24.03.2020
6020 Clear 12 1019 57 16093 2.6 100 15:44 24.03.2020
6021 Clear 10 1019 57 16093 2.6 100 15:25 24.03.2020
6022 Clear 9 1019 57 16093 2.1 110 14:57 24.03.2020
6023 Clear 8 1020 65 16093 2.6 120 14:37 24.03.2020
6024 Clear 8 1020 65 16093 2.6 120 14:18 24.03.2020
6025 Clear 9 1019 65 16093 2.1 120 13:41 24.03.2020
6026 Clear 9 1019 65 16093 2.1 120 13:22 24.03.2020
6027 Clear 9 1019 66 16093 3.1 130 12:45 24.03.2020
6028 Clear 9 1019 66 16093 3.1 130 12:27 24.03.2020
6029 Clear 10 1019 61 16093 3.1 110 11:57 24.03.2020
6030 Clear 10 1019 61 16093 3.1 110 11:38 24.03.2020
6031 Clear 10 1019 61 16093 3.1 110 11:18 24.03.2020
6032 Clear 11 1019 53 16093 1.42 278 10:42 24.03.2020
6033 Clear 11 1020 57 16093 3.6 160 10:19 24.03.2020
6034 Clear 11 1019 53 16093 1.42 278 10:19 24.03.2020
6035 Clear 11 1019 57 16093 2.6 210 09:48 24.03.2020
6036 Clear 11 1019 53 16093 2.1 220 09:27 24.03.2020
6037 Clear 12 1019 57 16093 3.1 210 08:58 24.03.2020
6038 Clear 12 1019 50 16093 2.1 210 08:38 24.03.2020
6039 Clear 13 1019 50 16093 2.1 210 08:20 24.03.2020
6040 Clear 13 1019 47 16093 3.68 301 07:45 24.03.2020
6041 Clear 14 1019 47 16093 3.68 301 07:22 24.03.2020
6042 Clear 14 1019 41 16093 1.5 70 06:42 24.03.2020
6043 Clear 15 1019 41 16093 1.5 70 06:23 24.03.2020
6044 Clear 17 1019 38 16093 2.1 230 04:53 24.03.2020
6045 Clear 18 1017 22 16093 3.1 280 03:43 24.03.2020
6046 Clear 20 1017 19 16093 3.6 270 02:45 24.03.2020
6047 Clear 22 1017 20 16093 4.6 230 01:22 24.03.2020
6048 Clear 23 1017 20 16093 6.7 260 00:41 24.03.2020
6049 Clear 23 1017 20 16093 6.7 260 00:22 24.03.2020
6050 Clear 23 1017 20 16093 6.7 250 23:38 23.03.2020
6051 Clear 23 1018 22 16093 4.6 310 23:20 23.03.2020
6052 Clear 23 1018 20 16093 8.2 240 22:45 23.03.2020
6053 Clear 22 1018 20 16093 8.2 240 22:24 23.03.2020
6054 Clear 22 1018 20 16093 3.1 270 21:57 23.03.2020
6055 Clear 22 1018 19 16093 5.7 250 21:38 23.03.2020
6056 Clear 22 1019 21 16093 6.2 280 21:20 23.03.2020
6057 Clear 22 1019 19 16093 6.2 250 20:56 23.03.2020
6058 Clear 22 1019 18 16093 6.2 240 20:38 23.03.2020
6059 Clear 21 1019 26 16093 3.6 250 20:19 23.03.2020
6060 Clear 21 1019 21 16093 5.1 200 19:42 23.03.2020
6061 Clear 20 1019 21 16093 5.1 200 19:23 23.03.2020
6062 Clear 20 1019 22 16093 5.7 220 18:56 23.03.2020
6063 Clear 20 1020 26 16093 1.5 230 18:38 23.03.2020
6064 Clear 19 1020 25 16093 6.42 230 18:19 23.03.2020
6065 Clear 18 1019 26 16093 3.1 200 17:41 23.03.2020
6066 Clear 18 1020 38 16093 6.42 230 17:20 23.03.2020
6067 Clear 17 1019 31 16093 2.1 200 16:56 23.03.2020
6068 Clear 17 1019 44 16093 3.07 230 16:37 23.03.2020
6069 Clear 16 1020 47 16093 3.07 230 16:18 23.03.2020
6070 Clear 14 1018 54 16093 2.1 190 15:41 23.03.2020
6071 Clouds 13 1019 54 16093 3.07 230 15:19 23.03.2020
6072 Clear 13 1018 58 16093 2.6 180 14:38 23.03.2020
6073 Clear 13 1018 58 16093 2.6 180 14:19 23.03.2020
6074 Clear 13 1018 58 16093 1.71 190 13:57 23.03.2020
6075 Clear 13 1018 58 16093 1.5 200 13:39 23.03.2020
6076 Clouds 13 1018 58 16093 1.5 140 13:20 23.03.2020
6077 Clear 13 1018 58 16093 1.5 200 13:20 23.03.2020
6078 Clear 13 1017 51 16093 1.5 180 12:44 23.03.2020
6079 Clear 13 1017 51 16093 1.5 180 12:25 23.03.2020
6080 Clear 13 1017 51 16093 1.5 240 11:57 23.03.2020
6081 Clear 14 1017 51 16093 1.5 240 11:38 23.03.2020
6082 Clear 14 1017 51 16093 1.5 240 11:38 23.03.2020
6083 Clouds 14 1017 54 16093 2.1 160 11:19 23.03.2020
6084 Clouds 14 1017 44 16093 1.06 206 10:56 23.03.2020
6085 Clear 14 1016 44 16093 1.06 206 10:36 23.03.2020
6086 Clouds 14 1018 50 16093 1.5 210 10:18 23.03.2020
6087 Clear 14 1017 44 16093 4.1 220 09:42 23.03.2020
6088 Clear 14 1017 44 16093 4.1 220 09:20 23.03.2020
6089 Clear 14 1017 47 16093 1.5 180 08:40 23.03.2020
6090 Clear 15 1017 47 16093 1.5 180 08:20 23.03.2020
6091 Clear 14 1018 51 16093 3.1 210 07:58 23.03.2020
6092 Clear 14 1018 51 16093 3.6 220 07:37 23.03.2020
6093 Clouds 14 1018 58 16093 2.1 170 07:18 23.03.2020
6094 Clear 15 1017 48 16093 2.25 246 06:48 23.03.2020
6095 Clear 15 1017 48 16093 1.5 260 05:45 23.03.2020
6096 Clear 17 1017 36 16093 1.5 10 04:41 23.03.2020
6097 Clear 18 1017 34 16093 1.5 330 03:23 23.03.2020
6098 Clear 21 1016 19 16093 2.1 330 01:50 23.03.2020
6099 Clear 21 1016 18 16093 2.1 20 00:50 23.03.2020
6100 Clear 21 1016 18 16093 2.1 20 00:31 23.03.2020
6101 Clear 21 1017 18 16093 3.6 330 23:45 22.03.2020
6102 Clear 22 1017 18 16093 3.6 330 23:25 22.03.2020
6103 Clear 22 1018 19 16093 3.6 320 22:44 22.03.2020
6104 Clouds 22 1018 15 16093 1.52 255 22:22 22.03.2020
6105 Clear 22 1018 21 16093 2.1 280 21:55 22.03.2020
6106 Clear 22 1019 21 16093 1.52 255 21:36 22.03.2020
6107 Clear 22 1019 21 16093 1.52 255 21:18 22.03.2020
6108 Clear 21 1019 16 16093 1.52 255 20:45 22.03.2020
6109 Clear 21 1019 15 16093 2.08 244 20:24 22.03.2020
6110 Clear 20 1020 27 16093 0.58 169 19:57 22.03.2020
6111 Clear 20 1020 27 16093 0.58 169 19:39 22.03.2020
6112 Clouds 19 1020 29 16093 1.5 20 19:20 22.03.2020
6113 Clear 19 1020 31 16093 1.5 220 18:58 22.03.2020
6114 Clear 18 1020 31 16093 0.58 169 18:40 22.03.2020
6115 Clear 18 1020 36 16093 0.58 169 18:21 22.03.2020
6116 Clear 17 1020 36 16093 2.1 130 17:57 22.03.2020
6117 Clear 17 1021 39 16093 1.5 58 17:38 22.03.2020
6118 Clear 15 1020 44 16093 2.6 120 17:20 22.03.2020
6119 Clear 14 1020 50 16093 3.1 100 16:57 22.03.2020
6120 Clear 13 1020 66 16093 2.6 90 16:39 22.03.2020
6121 Clear 13 1020 66 16093 2.6 90 16:39 22.03.2020
6122 Clear 12 1020 66 16093 2.6 90 16:20 22.03.2020
6123 Clear 10 1020 81 16093 0.44 121 15:40 22.03.2020
6124 Clear 8 1020 81 16093 0.44 121 15:20 22.03.2020
6125 Clear 8 1021 81 16093 1.5 250 14:46 22.03.2020
6126 Clear 8 1021 81 16093 1.5 250 14:46 22.03.2020
6127 Clear 8 1019 70 16093 0.37 288 14:19 22.03.2020
6128 Clear 8 1019 70 16093 0.37 288 13:44 22.03.2020
6129 Clear 9 1019 70 16093 0.44 285 13:20 22.03.2020
6130 Clear 9 1019 66 16093 2.6 90 12:58 22.03.2020
6131 Clear 9 1019 71 16093 2.6 100 12:39 22.03.2020
6132 Clear 9 1019 66 16093 4.1 120 12:19 22.03.2020
6133 Clear 9 1019 81 16093 2.1 60 11:43 22.03.2020
6134 Clear 10 1019 61 16093 2.6 120 11:25 22.03.2020
6135 Clear 10 1019 71 16093 2.1 70 10:58 22.03.2020
6136 Clear 10 1019 62 16093 0.84 297 10:39 22.03.2020
6137 Clear 10 1019 62 16093 0.84 297 10:21 22.03.2020
6138 Clear 10 1019 62 16093 2.6 200 09:45 22.03.2020
6139 Clear 11 1019 62 16093 2.6 200 09:27 22.03.2020
6140 Clear 11 1020 58 16093 0.84 297 08:48 22.03.2020
6141 Clear 11 1020 58 16093 0.84 297 08:29 22.03.2020
6142 Clear 12 1020 54 16093 0.94 234 07:54 22.03.2020
6143 Clear 12 1020 54 16093 0.94 234 07:36 22.03.2020
6144 Clear 13 1020 50 16093 0.94 234 06:41 22.03.2020
6145 Clear 14 1019 38 16093 2.6 280 05:41 22.03.2020
6146 Clear 16 1018 29 16093 3.29 262 04:34 22.03.2020
6147 Clear 21 1016 17 16093 5.1 270 01:36 22.03.2020
6148 Clear 22 1016 15 16093 4.1 260 00:49 22.03.2020
6149 Clear 22 1016 18 16093 5.1 240 00:30 22.03.2020
6150 Clear 23 1016 15 16093 5.7 240 23:45 21.03.2020
6151 Clear 23 1016 15 16093 5.7 240 23:21 21.03.2020
6152 Clear 23 1018 15 16093 3.6 190 22:58 21.03.2020
6153 Clear 23 1018 15 16093 3.6 190 22:37 21.03.2020
6154 Clear 22 1017 19 16093 3.1 270 22:19 21.03.2020
6155 Clear 22 1017 21 16093 2.1 290 21:57 21.03.2020
6156 Clear 22 1018 21 16093 3.6 240 21:37 21.03.2020
6157 Clear 22 1018 16 16093 3.6 220 21:18 21.03.2020
6158 Clear 21 1019 30 16093 6.11 236 20:42 21.03.2020
6159 Clear 20 1019 30 16093 5.9 239 20:21 21.03.2020
6160 Clear 19 1019 32 16093 1.5 170 19:54 21.03.2020
6161 Clear 19 1019 39 16093 2.53 224 19:36 21.03.2020
6162 Clear 19 1019 36 16093 2.6 280 19:18 21.03.2020
6163 Clear 18 1019 44 16093 2.53 224 18:40 21.03.2020
6164 Clear 18 1019 44 16093 2.53 224 18:20 21.03.2020
6165 Clear 17 1020 47 16093 2.53 224 17:57 21.03.2020
6166 Clear 17 1021 48 16093 2.53 224 17:39 21.03.2020
6167 Clear 15 1019 50 16093 2.6 180 17:21 21.03.2020
6168 Clear 14 1019 62 16093 0.56 153 16:42 21.03.2020
6169 Clear 13 1019 62 16093 0.56 153 16:22 21.03.2020
6170 Clear 12 1019 76 16093 0.56 153 15:58 21.03.2020
6171 Clear 11 1019 81 16093 1.5 130 15:39 21.03.2020
6172 Clear 10 1019 81 16093 1.5 130 15:21 21.03.2020
6173 Clear 8 1019 81 16093 3.1 100 14:55 21.03.2020
6174 Clear 8 1018 87 16093 2.1 170 14:37 21.03.2020
6175 Clouds 8 1019 81 16093 2.1 190 14:18 21.03.2020
6176 Clear 8 1020 81 16093 2.6 220 13:57 21.03.2020
6177 Clear 9 1020 81 16093 2.6 220 13:38 21.03.2020
6178 Clear 9 1018 81 16093 2.6 250 13:19 21.03.2020
6179 Clear 10 1018 76 16093 1.5 70 12:41 21.03.2020
6180 Clouds 10 1018 71 16093 2.3 297 12:20 21.03.2020
6181 Clear 10 1018 71 16093 2.1 310 11:59 21.03.2020
6182 Clear 10 1018 76 16093 1.5 300 11:39 21.03.2020
6183 Clouds 11 1018 66 16093 3.1 180 11:20 21.03.2020
6184 Clear 11 1018 76 16093 2.6 290 10:58 21.03.2020
6185 Clear 11 1018 71 16093 0.77 163 10:39 21.03.2020
6186 Clear 11 1018 71 16093 0.77 163 10:21 21.03.2020
6187 Clear 12 1018 66 16093 1.5 50 09:59 21.03.2020
6188 Clear 12 1018 66 16093 0.77 163 09:39 21.03.2020
6189 Clear 12 1018 66 16093 0.77 163 09:20 21.03.2020
6190 Clear 12 1018 71 16093 2.6 230 08:55 21.03.2020
6191 Clear 12 1018 71 16093 2.1 220 08:37 21.03.2020
6192 Clear 12 1018 71 16093 2.1 220 08:18 21.03.2020
6193 Clear 12 1019 62 16093 1.5 160 07:37 21.03.2020
6194 Clear 12 1020 66 16093 1.5 190 07:18 21.03.2020
6195 Clear 12 1019 62 16093 0.74 241 06:42 21.03.2020
6196 Clear 13 1019 62 16093 0.74 241 06:23 21.03.2020
6197 Clear 13 1020 47 16093 2.1 10 05:39 21.03.2020
6198 Clear 15 1020 44 16093 2.6 330 03:39 21.03.2020
6199 Clear 17 1020 36 16093 3.1 320 02:36 21.03.2020
6200 Clear 18 1020 32 16093 5.1 310 01:43 21.03.2020
6201 Clear 19 1020 32 16093 5.1 310 01:22 21.03.2020
6202 Clear 20 1020 19 16093 3.6 320 00:39 21.03.2020
6203 Clear 20 1020 19 16093 3.6 320 00:20 21.03.2020
6204 Clear 20 1020 24 16093 4.1 290 23:41 20.03.2020
6205 Clear 20 1020 24 16093 4.1 290 23:20 20.03.2020
6206 Clear 20 1020 19 16093 1.5 190 22:44 20.03.2020
6207 Clear 20 1020 24 16093 1.5 260 22:24 20.03.2020
6208 Clear 20 1021 27 16093 2.1 270 21:58 20.03.2020
6209 Clear 20 1021 19 16093 2.36 217 21:39 20.03.2020
6210 Clear 19 1021 23 16093 2.36 217 21:19 20.03.2020
6211 Clear 19 1021 19 16093 1.5 260 20:57 20.03.2020
6212 Clear 19 1022 33 16093 3.1 200 20:39 20.03.2020
6213 Clear 17 1022 33 16093 3.1 200 20:19 20.03.2020
6214 Clear 17 1022 38 16093 1.5 260 19:46 20.03.2020
6215 Clear 16 1022 38 16093 1.5 200 19:19 20.03.2020
6216 Clear 16 1023 36 16093 1.5 30 18:57 20.03.2020
6217 Clear 16 1023 36 16093 1.5 30 18:37 20.03.2020
6218 Clear 15 1022 41 16093 2.1 190 18:19 20.03.2020
6219 Clear 14 1022 54 16093 4.6 100 17:41 20.03.2020
6220 Clear 12 1023 54 16093 2.1 120 17:22 20.03.2020
6221 Clear 12 1023 57 16093 4.1 100 16:59 20.03.2020
6222 Clear 11 1022 66 16093 5.7 110 16:41 20.03.2020
6223 Clear 10 1023 66 16093 3.6 120 16:20 20.03.2020
6224 Clear 8 1022 81 16093 2.6 110 15:44 20.03.2020
6225 Clear 6 1022 81 16093 2.6 110 15:22 20.03.2020
6226 Clear 5 1022 81 16093 0.92 148 14:58 20.03.2020
6227 Clear 5 1022 81 16093 0.92 148 14:58 20.03.2020
6228 Clear 5 1021 75 16093 3.1 90 14:40 20.03.2020
6229 Clear 5 1021 75 16093 3.1 90 14:20 20.03.2020
6230 Clear 5 1021 81 16093 2.1 120 13:48 20.03.2020
6231 Clear 5 1021 86 16093 2.1 130 13:21 20.03.2020
6232 Clear 5 1021 81 16093 0.49 295 12:57 20.03.2020
6233 Clear 5 1021 75 16093 0.49 295 12:37 20.03.2020
6234 Clear 5 1020 80 16093 0.49 295 12:18 20.03.2020
6235 Clear 6 1020 86 16093 2.1 140 11:39 20.03.2020
6236 Clear 6 1020 86 16093 2.1 140 11:20 20.03.2020
6237 Clear 6 1020 75 16093 3.6 110 10:54 20.03.2020
6238 Clouds 6 1020 81 16093 3.1 100 10:36 20.03.2020
6239 Clouds 6 1020 81 16093 3.1 100 10:18 20.03.2020
6240 Clouds 7 1021 76 16093 0.29 269 09:44 20.03.2020
6241 Clouds 7 1021 76 16093 0.29 269 09:20 20.03.2020
6242 Clouds 7 1021 81 16093 0.29 269 08:43 20.03.2020
6243 Clouds 7 1021 81 16093 0.29 269 08:23 20.03.2020
6244 Clouds 8 1021 76 16093 1.5 210 07:57 20.03.2020
6245 Clear 8 1021 76 16093 1.49 232 07:38 20.03.2020
6246 Clouds 8 1021 66 16093 2.6 190 07:19 20.03.2020
6247 Clear 9 1021 71 16093 1.49 232 06:42 20.03.2020
6248 Clear 9 1021 71 16093 1.49 232 05:57 20.03.2020
6249 Clear 11 1020 58 16093 2.6 300 04:27 20.03.2020
6250 Clear 14 1020 46 16093 2.1 290 02:43 20.03.2020
6251 Clear 15 1019 25 16093 3.1 260 01:50 20.03.2020
6252 Clear 16 1019 34 16093 4.91 234 00:38 20.03.2020
6253 Clouds 16 1019 36 16093 2.1 320 23:58 19.03.2020
6254 Clouds 16 1019 34 16093 2.1 310 23:40 19.03.2020
6255 Clouds 16 1018 31 16093 2.1 310 23:19 19.03.2020
6256 Clear 16 1019 29 16093 4.6 240 22:38 19.03.2020
6257 Clouds 16 1019 41 16093 4.6 290 22:20 19.03.2020
6258 Clear 15 1020 29 16093 7.2 220 21:57 19.03.2020
6259 Clear 15 1020 29 16093 7.2 220 21:38 19.03.2020
6260 Clouds 15 1019 44 16093 4.1 320 21:18 19.03.2020
6261 Clouds 15 1020 38 16093 3.1 200 20:42 19.03.2020
6262 Clouds 15 1020 38 16093 3.1 200 20:42 19.03.2020
6263 Clouds 15 1020 38 16093 3.1 200 20:24 19.03.2020
6264 Clouds 14 1020 41 16093 6.89 217 19:57 19.03.2020
6265 Clouds 14 1020 50 16093 2.6 230 19:38 19.03.2020
6266 Rain 13 1020 50 16093 2.6 230 19:20 19.03.2020
6267 Rain 13 1020 54 16093 1.5 270 18:57 19.03.2020
6268 Rain 13 1020 62 16093 2.6 260 18:38 19.03.2020
6269 Clouds 12 1020 54 16093 5.1 210 18:19 19.03.2020
6270 Clouds 12 1019 62 16093 7.2 190 17:42 19.03.2020
6271 Clouds 11 1019 62 16093 1.5 200 17:20 19.03.2020
6272 Clouds 10 1020 57 16093 3.6 220 16:56 19.03.2020
6273 Clouds 10 1019 71 16093 5.1 200 16:37 19.03.2020
6274 Clouds 9 1019 71 16093 5.1 200 16:19 19.03.2020
6275 Rain 8 1018 87 16093 1.5 110 15:40 19.03.2020
6276 Rain 8 1018 81 16093 5.1 190 15:18 19.03.2020
6277 Clouds 8 1017 81 16093 6.2 180 14:43 19.03.2020
6278 Drizzle 8 1017 81 16093 4.1 180 14:21 19.03.2020
6279 Clouds 8 1016 87 16093 1.5 280 13:41 19.03.2020
6280 Clouds 8 1016 87 16093 1.5 140 13:21 19.03.2020
6281 Clouds 8 1016 87 16093 1.5 320 12:58 19.03.2020
6282 Clouds 8 1015 81 16093 1.5 230 12:40 19.03.2020
6283 Clouds 8 1015 87 16093 3.1 150 12:21 19.03.2020
6284 Rain 8 1014 81 16093 2.6 190 11:43 19.03.2020
6285 Rain 8 1014 81 16093 2.6 190 11:24 19.03.2020
6286 Rain 8 1014 81 16093 3.6 180 10:57 19.03.2020
6287 Rain 8 1014 76 16093 4.6 190 10:38 19.03.2020
6288 Drizzle 9 1014 76 16093 5.7 190 10:19 19.03.2020
6289 Rain 9 1013 76 16093 4.6 190 09:45 19.03.2020
6290 Rain 9 1013 76 16093 4.6 190 09:27 19.03.2020
6291 Clouds 9 1013 76 16093 4.6 200 08:59 19.03.2020
6292 Clouds 9 1013 76 16093 3.1 180 08:41 19.03.2020
6293 Clouds 9 1013 70 16093 9.8 180 08:19 19.03.2020
6294 Clouds 9 1012 76 16093 3.6 180 07:44 19.03.2020
6295 Clouds 9 1012 76 16093 3.6 180 07:44 19.03.2020
6296 Clouds 9 1012 76 16093 3.6 180 07:23 19.03.2020
6297 Rain 8 1012 76 16093 3.6 200 06:34 19.03.2020
6298 Rain 8 1012 76 16093 3.6 210 05:48 19.03.2020
6299 Rain 8 1011 66 16093 5.1 240 04:54 19.03.2020
6300 Rain 8 1011 66 16093 5.1 240 04:34 19.03.2020
6301 Rain 9 1009 76 16093 2.1 190 02:37 19.03.2020
6302 Rain 10 1007 76 4023 3.1 260 00:58 19.03.2020
6303 Rain 11 1007 76 16093 8.89 201 00:22 19.03.2020
6304 Rain 11 1008 76 16093 5.7 160 23:48 18.03.2020
6305 Rain 12 1008 66 8047 4.1 210 23:27 18.03.2020
6306 Clouds 13 1009 47 16093 7.2 170 22:44 18.03.2020
6307 Clouds 14 1009 47 16093 7.2 170 22:24 18.03.2020
6308 Clouds 14 1009 47 16093 7.2 170 21:59 18.03.2020
6309 Clouds 15 1009 45 16093 10.3 170 21:41 18.03.2020
6310 Clouds 14 1009 45 16093 10.3 170 21:21 18.03.2020
6311 Clouds 15 1009 42 16093 4.6 160 20:57 18.03.2020
6312 Clouds 15 1009 39 16093 6.2 150 20:39 18.03.2020
6313 Clouds 16 1009 39 16093 6.2 150 20:20 18.03.2020
6314 Clouds 16 1011 41 16093 4.6 120 19:55 18.03.2020
6315 Clouds 16 1011 44 16093 4.1 140 19:36 18.03.2020
6316 Clouds 15 1012 48 16093 4.1 80 19:18 18.03.2020
6317 Clouds 15 1012 47 16093 2.1 200 18:41 18.03.2020
6318 Clouds 14 1012 54 16093 2.6 10 18:20 18.03.2020
6319 Clouds 13 1013 54 16093 2.6 220 17:57 18.03.2020
6320 Clouds 13 1013 54 16093 2.6 220 17:39 18.03.2020
6321 Clouds 12 1013 62 16093 2.6 310 17:20 18.03.2020
6322 Clouds 11 1013 62 16093 3.02 172 16:54 18.03.2020
6323 Clouds 11 1012 66 16093 3.02 172 16:36 18.03.2020
6324 Clouds 11 1012 71 16093 1.5 270 16:18 18.03.2020
6325 Clouds 10 1012 66 16093 3.02 172 15:44 18.03.2020
6326 Clear 10 1011 66 16093 3.02 172 15:20 18.03.2020
6327 Clear 9 1011 66 16093 3.02 172 14:44 18.03.2020
6328 Clear 9 1011 66 16093 3.02 172 14:21 18.03.2020
6329 Clouds 9 1012 62 16093 1.95 213 13:42 18.03.2020
6330 Clouds 10 1012 62 16093 2.1 10 13:20 18.03.2020
6331 Clouds 10 1012 57 16093 1.2 218 12:59 18.03.2020
6332 Clouds 9 1012 66 16093 1.2 218 12:41 18.03.2020
6333 Clouds 9 1012 66 16093 2.1 310 12:19 18.03.2020
6334 Clear 9 1013 66 16093 1.2 218 11:39 18.03.2020
6335 Clouds 10 1013 66 16093 1.91 219 11:20 18.03.2020
6336 Clear 10 1012 66 16093 2.1 90 10:58 18.03.2020
6337 Clear 10 1013 62 16093 1.91 219 10:38 18.03.2020
6338 Clear 10 1013 62 16093 1.91 219 10:20 18.03.2020
6339 Clouds 11 1013 58 16093 2.1 300 09:43 18.03.2020
6340 Clouds 11 1013 58 16093 2.1 300 09:25 18.03.2020
6341 Clear 12 1013 54 16093 1.5 290 08:57 18.03.2020
6342 Clear 12 1014 47 16093 2.1 290 08:38 18.03.2020
6343 Clear 12 1014 47 16093 2.1 290 08:20 18.03.2020
6344 Clear 13 1014 50 16093 2.12 211 07:44 18.03.2020
6345 Clear 13 1014 50 16093 2.12 211 07:26 18.03.2020
6346 Clear 15 1013 41 16093 2.12 211 06:44 18.03.2020
6347 Clouds 15 1014 41 16093 2.6 50 06:20 18.03.2020
6348 Clear 16 1013 36 16093 1.5 230 05:34 18.03.2020
6349 Clear 17 1012 31 16093 3.6 260 04:25 18.03.2020
6350 Clear 20 1011 21 16093 4.1 250 02:44 18.03.2020
6351 Clear 22 1011 16 16093 6.7 240 01:48 18.03.2020
6352 Clear 22 1011 17 16093 6.7 230 01:26 18.03.2020
6353 Clear 23 1012 16 16093 6.2 260 00:24 18.03.2020
6354 Clear 24 1011 16 16093 4.6 240 23:48 17.03.2020
6355 Clear 24 1011 16 16093 4.6 240 23:27 17.03.2020
6356 Clear 24 1012 14 16093 6.7 230 22:57 17.03.2020
6357 Clear 24 1012 16 16093 6.2 260 22:37 17.03.2020
6358 Clouds 24 1012 13 16093 8.2 250 22:19 17.03.2020
6359 Clear 23 1012 13 16093 4.6 200 21:39 17.03.2020
6360 Clear 23 1012 13 16093 4.6 200 21:21 17.03.2020
6361 Clear 23 1012 13 16093 4.6 200 21:21 17.03.2020
6362 Clouds 23 1014 13 16093 6.7 160 20:40 17.03.2020
6363 Clear 22 1013 18 16093 5.1 170 20:21 17.03.2020
6364 Clear 21 1014 19 16093 2.6 130 19:58 17.03.2020
6365 Clear 21 1015 15 16093 6.2 220 19:39 17.03.2020
6366 Clouds 20 1015 24 16093 3.6 90 19:18 17.03.2020
6367 Clear 19 1015 36 16093 6.62 194 18:56 17.03.2020
6368 Clear 18 1015 36 16093 6.62 194 18:37 17.03.2020
6369 Clouds 18 1015 39 16093 1.5 10 18:19 17.03.2020
6370 Clear 16 1016 54 16093 6.62 194 17:40 17.03.2020
6371 Clouds 15 1015 44 16093 1.5 180 17:21 17.03.2020
6372 Clear 14 1015 54 16093 2.6 110 16:54 17.03.2020
6373 Clouds 13 1015 58 16093 1.5 220 16:36 17.03.2020
6374 Clear 13 1015 71 16093 3.21 186 16:18 17.03.2020
6375 Clear 11 1015 76 16093 3.21 186 15:41 17.03.2020
6376 Clear 11 1015 76 16093 3.21 186 15:19 17.03.2020
6377 Clear 11 1014 76 16093 3.21 186 14:41 17.03.2020
6378 Clear 11 1014 76 16093 3.21 186 14:21 17.03.2020
6379 Clear 11 1013 71 16093 2.36 195 13:44 17.03.2020
6380 Clear 11 1013 71 16093 2.02 199 13:26 17.03.2020
6381 Clear 11 1013 66 16093 2.02 199 12:58 17.03.2020
6382 Clear 11 1013 66 16093 1.62 208 12:39 17.03.2020
6383 Clear 11 1014 57 16093 2.02 199 12:21 17.03.2020
6384 Clear 11 1013 62 16093 1.62 208 11:45 17.03.2020
6385 Clear 11 1013 62 16093 2.02 199 11:27 17.03.2020
6386 Clear 11 1013 62 16093 2.02 199 11:27 17.03.2020
6387 Clear 12 1014 46 16093 2.12 187 10:58 17.03.2020
6388 Clear 12 1014 58 16093 2.12 187 10:37 17.03.2020
6389 Clear 12 1014 58 16093 2.16 181 10:19 17.03.2020
6390 Clear 12 1014 58 16093 2.12 187 09:55 17.03.2020
6391 Clear 12 1014 54 16093 2.12 187 09:36 17.03.2020
6392 Clear 12 1014 50 16093 2.1 140 09:18 17.03.2020
6393 Clear 13 1014 54 16093 2.12 187 08:42 17.03.2020
6394 Clear 13 1014 54 16093 2.16 181 08:21 17.03.2020
6395 Clear 14 1014 44 16093 3.29 210 07:49 17.03.2020
6396 Clear 14 1015 41 16093 3.29 210 07:24 17.03.2020
6397 Clear 14 1015 38 16093 3.29 210 06:53 17.03.2020
6398 Clear 15 1015 36 16093 2.1 170 06:27 17.03.2020
6399 Clear 16 1014 38 16093 1.5 90 05:38 17.03.2020
6400 Clear 20 1013 33 16093 4.15 225 03:36 17.03.2020
6401 Clear 22 1012 20 16093 2.1 310 02:38 17.03.2020
6402 Clear 24 1012 14 16093 4.6 260 01:41 17.03.2020
6403 Clear 24 1013 11 16093 6.7 270 01:18 17.03.2020
6404 Clear 26 1013 9 16093 5.1 250 00:19 17.03.2020
6405 Clear 26 1012 10 16093 5.1 250 23:43 16.03.2020
6406 Clear 26 1013 9 16093 6.2 200 23:22 16.03.2020
6407 Clear 25 1014 9 16093 3.6 200 22:38 16.03.2020
6408 Clear 25 1014 9 16093 3.6 200 22:20 16.03.2020
6409 Clear 24 1014 14 16093 4.1 220 21:45 16.03.2020
6410 Clear 24 1014 14 16093 4.1 220 21:27 16.03.2020
6411 Clear 24 1015 13 16093 3.6 230 20:59 16.03.2020
6412 Clear 23 1015 12 16093 1.5 190 20:40 16.03.2020
6413 Clear 23 1015 12 16093 1.5 190 20:21 16.03.2020
6414 Clear 22 1016 28 16093 2.1 200 19:46 16.03.2020
6415 Clear 22 1016 28 16093 2.1 200 19:25 16.03.2020
6416 Clear 21 1017 32 16093 2.63 203 18:59 16.03.2020
6417 Clear 20 1017 34 16093 2.63 203 18:39 16.03.2020
6418 Clear 19 1018 32 16093 2.63 203 18:20 16.03.2020
6419 Clear 18 1018 38 16093 1.5 160 17:46 16.03.2020
6420 Clear 17 1018 44 16093 4.1 100 17:25 16.03.2020
6421 Clear 15 1018 47 16093 4.1 110 16:57 16.03.2020
6422 Clear 14 1017 54 16093 6.2 100 16:39 16.03.2020
6423 Clear 14 1017 54 16093 6.2 100 16:39 16.03.2020
6424 Clear 13 1017 54 16093 6.2 100 16:20 16.03.2020
6425 Clear 10 1017 66 16093 3.6 110 15:43 16.03.2020
6426 Clear 9 1017 66 16093 3.6 110 15:23 16.03.2020
6427 Clear 8 1018 65 16093 3.6 160 14:47 16.03.2020
6428 Clear 8 1018 65 16093 3.6 160 14:20 16.03.2020
6429 Clear 8 1017 71 16093 0.76 109 13:48 16.03.2020
6430 Clear 9 1017 71 16093 0.76 109 13:28 16.03.2020
6431 Clear 9 1017 66 16093 3.6 120 12:57 16.03.2020
6432 Clear 9 1016 71 16093 2.6 110 12:38 16.03.2020
6433 Clear 9 1016 71 16093 2.6 110 12:20 16.03.2020
6434 Clear 9 1017 81 16093 2.1 120 11:43 16.03.2020
6435 Clear 10 1017 81 16093 2.1 120 11:23 16.03.2020
6436 Clear 10 1017 76 16093 1.5 110 10:44 16.03.2020
6437 Clear 10 1017 76 16093 1.5 110 10:24 16.03.2020
6438 Clear 11 1018 76 16093 1.5 230 09:49 16.03.2020
6439 Clear 11 1018 71 16093 2.1 210 09:30 16.03.2020
6440 Clear 11 1018 66 16093 0.58 309 08:59 16.03.2020
6441 Clear 11 1018 71 16093 0.58 309 08:39 16.03.2020
6442 Clear 12 1018 71 16093 1.7 230 08:20 16.03.2020
6443 Clear 13 1018 58 16093 1.7 230 07:41 16.03.2020
6444 Clear 13 1019 50 16093 2.1 290 07:18 16.03.2020
6445 Clear 15 1018 51 16093 1.7 230 06:28 16.03.2020
6446 Clear 15 1018 47 16093 1.7 230 05:59 16.03.2020
6447 Clear 17 1018 31 16093 2.1 250 04:21 16.03.2020
6448 Clear 23 1016 17 16093 2.6 300 01:46 16.03.2020
6449 Clear 24 1016 17 16093 5.95 228 00:44 16.03.2020
6450 Clear 24 1016 17 16093 5.95 228 00:25 16.03.2020
6451 Clear 24 1016 18 16093 5.95 228 23:39 15.03.2020
6452 Clear 24 1016 17 16093 4.6 270 23:18 15.03.2020
6453 Clear 23 1017 20 16093 2.6 270 22:41 15.03.2020
6454 Clear 23 1017 20 16093 2.6 270 22:20 15.03.2020
6455 Clear 23 1018 23 16093 2.1 290 21:39 15.03.2020
6456 Clear 23 1018 18 16093 2.1 220 21:21 15.03.2020
6457 Clear 22 1018 19 16093 1.5 170 20:55 15.03.2020
6458 Clear 22 1019 19 16093 2.1 190 20:36 15.03.2020
6459 Clear 20 1020 26 16093 3.06 203 20:18 15.03.2020
6460 Clear 21 1019 29 16093 3.06 203 19:42 15.03.2020
6461 Clear 20 1019 29 16093 3.06 203 19:24 15.03.2020
6462 Clear 19 1020 36 16093 3.06 203 18:59 15.03.2020
6463 Clear 19 1019 42 16093 2.1 150 18:40 15.03.2020
6464 Clear 18 1020 48 16093 3.06 203 18:22 15.03.2020
6465 Clear 17 1019 44 16093 3.1 120 17:57 15.03.2020
6466 Clear 16 1019 51 16093 3.6 120 17:38 15.03.2020
6467 Clouds 15 1019 54 16093 1.5 100 17:18 15.03.2020
6468 Clear 14 1019 66 16093 3.1 110 16:43 15.03.2020
6469 Clear 12 1019 66 16093 3.1 110 16:25 15.03.2020
6470 Clear 10 1018 76 16093 1.5 130 15:58 15.03.2020
6471 Clear 9 1018 76 16093 1.5 170 15:40 15.03.2020
6472 Clear 9 1018 76 16093 1.5 170 15:19 15.03.2020
6473 Clear 9 1018 76 16093 2.6 110 14:46 15.03.2020
6474 Clear 9 1018 76 16093 2.6 110 14:24 15.03.2020
6475 Clear 9 1019 93 16093 0.28 176 13:58 15.03.2020
6476 Clear 9 1019 93 16093 0.28 176 13:38 15.03.2020
6477 Clear 9 1019 93 16093 0.28 176 13:38 15.03.2020
6478 Clear 9 1018 66 16093 3.1 130 13:20 15.03.2020
6479 Clear 9 1018 76 16093 0.52 181 12:44 15.03.2020
6480 Clear 9 1018 76 16093 0.52 181 12:25 15.03.2020
6481 Clear 10 1018 76 16093 0.52 181 11:56 15.03.2020
6482 Clear 10 1018 81 16093 1.5 120 11:38 15.03.2020
6483 Clear 10 1018 70 16093 4.1 120 11:20 15.03.2020
6484 Clear 10 1018 76 16093 2.6 90 10:55 15.03.2020
6485 Clear 11 1018 76 16093 0.51 188 10:36 15.03.2020
6486 Clear 11 1018 76 16093 0.51 188 10:18 15.03.2020
6487 Clear 11 1018 76 16093 0.51 188 09:39 15.03.2020
6488 Clear 11 1019 71 16093 3.1 110 09:20 15.03.2020
6489 Clear 11 1019 71 16093 0.51 188 08:42 15.03.2020
6490 Clear 12 1019 71 16093 0.84 282 08:20 15.03.2020
6491 Clear 12 1019 66 16093 1.35 255 07:50 15.03.2020
6492 Clear 13 1019 76 16093 2.1 220 07:23 15.03.2020
6493 Clear 13 1019 71 16093 2.1 220 06:44 15.03.2020
6494 Clear 14 1019 51 16093 1.35 255 05:49 15.03.2020
6495 Clear 15 1019 55 16093 1.5 10 04:58 15.03.2020
6496 Clear 16 1019 55 16093 1.5 10 04:40 15.03.2020
6497 Clear 16 1019 55 16093 1.5 10 04:20 15.03.2020
6498 Clear 17 1018 48 16093 2.6 330 03:25 15.03.2020
6499 Clear 19 1018 34 16093 4.1 310 02:36 15.03.2020
6500 Clear 22 1018 26 16093 3.1 340 01:19 15.03.2020
6501 Clouds 22 1017 24 16093 5.34 233 00:42 15.03.2020
6502 Clear 22 1017 24 16093 3.6 290 00:19 15.03.2020
6503 Clear 22 1017 24 16093 2.6 200 23:41 14.03.2020
6504 Clear 22 1018 24 16093 2.6 200 23:20 14.03.2020
6505 Clear 22 1018 26 16093 1.5 180 22:56 14.03.2020
6506 Clear 21 1018 28 16093 2.95 222 22:38 14.03.2020
6507 Clear 21 1018 28 16093 2.95 222 22:20 14.03.2020
6508 Clear 21 1018 30 16093 3.1 270 21:56 14.03.2020
6509 Clear 21 1018 32 16093 2.1 250 21:36 14.03.2020
6510 Clear 21 1019 34 16093 2.1 60 21:18 14.03.2020
6511 Clear 20 1019 34 16093 2.1 230 20:58 14.03.2020
6512 Clear 20 1019 37 16093 3.1 90 20:39 14.03.2020
6513 Clear 19 1019 37 16093 3.1 90 20:18 14.03.2020
6514 Clear 19 1019 51 16093 1.98 159 19:42 14.03.2020
6515 Clear 18 1019 51 16093 1.98 159 19:24 14.03.2020
6516 Clear 17 1020 58 16093 1.5 270 18:41 14.03.2020
6517 Clear 17 1020 51 16093 1.5 50 18:21 14.03.2020
6518 Clear 16 1020 66 16093 1.98 159 17:43 14.03.2020
6519 Clear 15 1020 66 16093 1.98 159 17:24 14.03.2020
6520 Clear 14 1020 66 16093 2.4 110 16:59 14.03.2020
6521 Clear 13 1021 81 16093 2.4 110 16:39 14.03.2020
6522 Clear 12 1019 81 16093 2.6 120 16:20 14.03.2020
6523 Clear 10 1019 93 16093 2.4 110 15:48 14.03.2020
6524 Clear 9 1019 93 16093 2.4 110 15:25 14.03.2020
6525 Clear 7 1019 100 16093 2.4 110 14:44 14.03.2020
6526 Clear 8 1019 100 16093 2.4 110 14:22 14.03.2020
6527 Clouds 8 1018 93 16093 0.9 126 13:57 14.03.2020
6528 Clear 8 1018 100 16093 0.9 126 13:39 14.03.2020
6529 Clouds 8 1018 87 16093 3.1 120 13:20 14.03.2020
6530 Clear 8 1018 100 16093 0.64 156 12:44 14.03.2020
6531 Rain 8 1018 100 16093 0.64 156 12:26 14.03.2020
6532 Rain 8 1018 87 16093 0.64 156 12:26 14.03.2020
6533 Rain 8 1018 93 16093 0.64 156 11:47 14.03.2020
6534 Clouds 8 1018 87 16093 2.6 70 11:27 14.03.2020
6535 Clear 9 1018 93 16093 1.22 206 10:59 14.03.2020
6536 Clear 9 1018 93 16093 1.22 206 10:40 14.03.2020
6537 Clear 9 1018 93 16093 1.22 206 10:22 14.03.2020
6538 Clouds 9 1018 87 16093 1.22 206 09:43 14.03.2020
6539 Clouds 9 1018 87 16093 1.22 206 09:24 14.03.2020
6540 Clouds 9 1018 93 16093 1.22 206 08:47 14.03.2020
6541 Clouds 10 1018 93 16093 1.76 195 08:28 14.03.2020
6542 Clouds 10 1018 87 16093 2.99 206 07:55 14.03.2020
6543 Clear 10 1018 87 16093 2.6 80 07:37 14.03.2020
6544 Clouds 10 1018 87 16093 2.99 206 07:18 14.03.2020
6545 Clear 10 1018 81 16093 2.99 206 06:40 14.03.2020
6546 Clear 11 1017 76 16093 1.5 110 05:19 14.03.2020
6547 Clear 13 1015 67 16093 3.9 227 03:43 14.03.2020
6548 Clear 13 1015 67 16093 3.9 227 03:23 14.03.2020
6549 Clouds 14 1015 62 16093 2.6 30 02:22 14.03.2020
6550 Clouds 17 1013 51 16093 6.2 340 00:44 14.03.2020
6551 Clouds 16 1013 45 16093 6.7 180 23:45 13.03.2020
6552 Clouds 16 1013 45 16093 6.7 180 23:27 13.03.2020
6553 Clouds 18 1014 48 16093 6.7 300 22:49 13.03.2020
6554 Clouds 17 1014 48 16093 6.7 300 22:26 13.03.2020
6555 Clouds 17 1014 42 16093 1.5 210 21:44 13.03.2020
6556 Clouds 18 1014 42 16093 1.5 210 21:21 13.03.2020
6557 Clouds 17 1014 42 16093 7.02 224 20:58 13.03.2020
6558 Clouds 17 1014 39 16093 6.2 220 20:39 13.03.2020
6559 Clouds 17 1014 39 16093 6.2 220 20:39 13.03.2020
6560 Clouds 17 1015 48 16093 5.7 190 20:20 13.03.2020
6561 Clear 17 1016 42 16093 3.1 190 19:47 13.03.2020
6562 Clouds 16 1015 39 16093 3.6 190 19:28 13.03.2020
6563 Clear 15 1015 48 16093 4.1 200 18:47 13.03.2020
6564 Clear 15 1015 48 16093 4.1 200 18:29 13.03.2020
6565 Rain 15 1015 48 16093 4.1 190 17:57 13.03.2020
6566 Rain 14 1015 58 16093 3.6 190 17:38 13.03.2020
6567 Rain 14 1015 76 16093 5.84 201 17:19 13.03.2020
6568 Rain 12 1015 81 16093 1.5 230 16:42 13.03.2020
6569 Rain 12 1014 76 16093 3.1 180 16:24 13.03.2020
6570 Clouds 11 1014 87 16093 3.6 180 15:56 13.03.2020
6571 Clouds 11 1014 87 16093 3.6 180 15:37 13.03.2020
6572 Rain 11 1013 93 16093 1.5 190 15:19 13.03.2020
6573 Rain 11 1013 87 16093 1.5 110 14:41 13.03.2020
6574 Clear 11 1012 100 16093 5.84 201 14:22 13.03.2020
6575 Clear 11 1012 100 16093 4.52 210 14:22 13.03.2020
6576 Clouds 11 1012 87 16093 4.52 210 13:56 13.03.2020
6577 Clouds 11 1012 100 16093 4.52 210 13:38 13.03.2020
6578 Clouds 11 1013 76 16093 2.6 230 13:19 13.03.2020
6579 Rain 11 1012 87 16093 3.1 200 12:40 13.03.2020
6580 Rain 12 1012 87 16093 3.1 200 12:22 13.03.2020
6581 Rain 12 1012 93 16093 1.5 190 11:57 13.03.2020
6582 Drizzle 12 1012 87 16093 1.5 250 11:39 13.03.2020
6583 Drizzle 12 1012 87 16093 1.5 250 11:21 13.03.2020
6584 Rain 12 1012 82 16093 4.6 230 10:47 13.03.2020
6585 Rain 13 1011 71 16093 4.6 250 10:27 13.03.2020
6586 Rain 14 1011 59 16093 7.7 170 09:57 13.03.2020
6587 Rain 14 1010 59 16093 8.2 180 09:38 13.03.2020
6588 Rain 14 1010 59 16093 8.2 180 09:20 13.03.2020
6589 Clear 15 1009 55 16093 8.7 190 08:44 13.03.2020
6590 Clear 15 1009 55 16093 8.7 190 08:22 13.03.2020
6591 Clear 16 1009 55 16093 9.8 170 07:47 13.03.2020
6592 Clear 16 1009 55 16093 9.8 170 07:28 13.03.2020
6593 Clear 16 1008 59 16093 10.3 160 06:47 13.03.2020
6594 Clear 16 1008 59 16093 10.3 160 06:26 13.03.2020
6595 Rain 16 1008 77 16093 8.2 140 05:49 13.03.2020
6596 Rain 15 1009 87 16093 4.6 70 05:20 13.03.2020
6597 Rain 15 1009 87 16093 7.2 60 04:37 13.03.2020
6598 Rain 16 1011 77 16093 2.75 134 02:58 13.03.2020
6599 Clear 18 1008 63 16093 2.88 193 01:43 13.03.2020
6600 Clouds 18 1009 59 16093 3.01 150 01:18 13.03.2020
6601 Clouds 18 1009 59 16093 2.1 80 00:46 13.03.2020
6602 Clouds 18 1011 63 16093 4.6 310 00:20 13.03.2020
6603 Clear 18 1012 63 16093 3.6 300 23:46 12.03.2020
6604 Clouds 19 1011 59 16093 2.6 250 23:26 12.03.2020
6605 Clouds 19 1012 63 16093 2.6 220 22:55 12.03.2020
6606 Drizzle 19 1012 68 16093 2.1 350 22:37 12.03.2020
6607 Drizzle 19 1012 68 16093 2.1 350 22:37 12.03.2020
6608 Clouds 19 1012 63 16093 4.6 210 22:18 12.03.2020
6609 Clouds 19 1011 56 16093 6.2 140 21:42 12.03.2020
6610 Clouds 19 1011 56 16093 6.2 140 21:24 12.03.2020
6611 Clouds 19 1013 77 16093 3.6 120 20:55 12.03.2020
6612 Clouds 19 1011 56 16093 9.3 130 20:36 12.03.2020
6613 Clouds 19 1013 77 16093 3.6 120 20:18 12.03.2020
6614 Clouds 18 1015 82 16093 2.1 130 19:39 12.03.2020
6615 Clouds 18 1015 82 16093 2.1 130 19:19 12.03.2020
6616 Rain 17 1014 63 16093 5.7 180 18:42 12.03.2020
6617 Rain 17 1014 63 16093 5.7 180 18:23 12.03.2020
6618 Rain 16 1016 72 16093 2.58 116 17:56 12.03.2020
6619 Drizzle 16 1015 82 16093 2.58 116 17:37 12.03.2020
6620 Drizzle 16 1015 82 16093 4.44 209 17:18 12.03.2020
6621 Clouds 16 1013 93 16093 2.1 90 16:43 12.03.2020
6622 Clouds 16 1013 93 16093 2.1 90 16:23 12.03.2020
6623 Clouds 16 1013 93 16093 4.44 209 15:59 12.03.2020
6624 Clouds 16 1013 93 16093 4.44 209 15:39 12.03.2020
6625 Clouds 15 1013 93 16093 4.44 209 15:21 12.03.2020
6626 Clouds 15 1014 87 16093 4.44 209 14:38 12.03.2020
6627 Clouds 15 1014 87 16093 2.23 201 14:19 12.03.2020
6628 Clouds 15 1013 93 16093 1.5 250 13:40 12.03.2020
6629 Clouds 15 1013 93 16093 1.5 250 13:21 12.03.2020
6630 Clouds 15 1013 93 16093 1.5 250 13:21 12.03.2020
6631 Clouds 16 1013 93 16093 5.5 213 12:55 12.03.2020
6632 Clouds 16 1014 93 16093 5.5 213 12:37 12.03.2020
6633 Clouds 16 1014 82 16093 3.1 70 12:18 12.03.2020
6634 Clouds 16 1014 93 16093 5.5 213 11:56 12.03.2020
6635 Clouds 16 1014 93 16093 1.5 80 11:37 12.03.2020
6636 Clouds 16 1015 87 16093 1.5 130 11:18 12.03.2020
6637 Clouds 16 1015 100 16093 1.36 215 10:43 12.03.2020
6638 Clouds 16 1015 100 16093 1.36 215 10:43 12.03.2020
6639 Clouds 17 1015 100 16093 1.36 215 10:24 12.03.2020
6640 Clouds 17 1016 82 16093 1.36 215 09:59 12.03.2020
6641 Clouds 17 1015 93 16093 1.5 140 09:40 12.03.2020
6642 Clouds 17 1015 93 16093 1.5 140 09:22 12.03.2020
6643 Clouds 17 1015 100 16093 1.36 215 08:39 12.03.2020
6644 Clouds 17 1015 100 16093 1.36 242 08:19 12.03.2020
6645 Clear 17 1016 88 16093 1.36 242 07:48 12.03.2020
6646 Clouds 17 1016 88 16093 1.36 242 07:22 12.03.2020
6647 Clouds 17 1017 82 16093 1.36 242 06:26 12.03.2020
6648 Clouds 18 1016 88 16093 1.36 242 05:35 12.03.2020
6649 Clouds 18 1016 72 16093 2.6 270 03:45 12.03.2020
6650 Rain 20 1016 60 16093 2.6 310 02:19 12.03.2020
6651 Clouds 22 1015 64 16093 4.1 330 01:24 12.03.2020
6652 Clouds 22 1015 46 16093 3.6 300 00:42 12.03.2020
6653 Clouds 22 1015 49 16093 4.1 330 23:59 11.03.2020
6654 Clouds 22 1015 49 16093 4.1 330 23:37 11.03.2020
6655 Clouds 22 1016 46 16093 5.1 190 23:18 11.03.2020
6656 Clouds 23 1015 49 16093 4.6 300 22:41 11.03.2020
6657 Clouds 23 1015 49 16093 4.6 300 22:23 11.03.2020
6658 Clouds 23 1016 56 16093 4.1 310 21:58 11.03.2020
6659 Clouds 23 1017 46 16093 4.1 300 21:39 11.03.2020
6660 Clouds 23 1017 46 16093 4.1 300 21:21 11.03.2020
6661 Clouds 23 1017 41 16093 2.6 230 20:57 11.03.2020
6662 Clouds 23 1017 43 16093 2.6 210 20:37 11.03.2020
6663 Clouds 22 1017 43 16093 2.6 210 20:19 11.03.2020
6664 Clouds 21 1019 49 16093 2.1 100 19:42 11.03.2020
6665 Clouds 21 1018 49 16093 1.5 190 19:24 11.03.2020
6666 Clear 21 1019 53 16093 3.38 213 18:57 11.03.2020
6667 Clouds 21 1019 56 16093 3.1 100 18:38 11.03.2020
6668 Clouds 20 1020 64 16093 2.6 50 18:18 11.03.2020
6669 Clouds 19 1019 68 16093 2.6 130 17:55 11.03.2020
6670 Clouds 19 1019 68 16093 2.6 130 17:37 11.03.2020
6671 Clouds 18 1020 77 16093 2.43 174 17:18 11.03.2020
6672 Clouds 17 1019 93 16093 2.43 174 16:43 11.03.2020
6673 Clouds 16 1019 93 16093 2.43 174 16:19 11.03.2020
6674 Clouds 16 1019 100 16093 2.43 174 15:43 11.03.2020
6675 Clouds 15 1019 100 16093 2.43 174 15:23 11.03.2020
6676 Clouds 15 1019 87 16093 1.5 300 14:54 11.03.2020
6677 Clouds 15 1019 87 16093 2.43 174 14:36 11.03.2020
6678 Clouds 15 1019 87 16093 1.66 144 14:18 11.03.2020
6679 Clouds 15 1019 87 16093 3.6 120 13:41 11.03.2020
6680 Clouds 15 1019 87 16093 3.6 120 13:22 11.03.2020
6681 Clouds 15 1019 87 16093 2.6 110 12:56 11.03.2020
6682 Clouds 15 1019 93 16093 3.1 120 12:38 11.03.2020
6683 Rain 15 1020 87 16093 2.1 40 12:19 11.03.2020